<?xml version="1.0" encoding="UTF-8" standalone="no" ?>
<gpx xmlns="http://www.topografix.com/GPX/1/1" xmlns:xsi="http://www.w3.org/2001/XMLSchema-instance" xsi:schemaLocation="http://www.topografix.com/GPX/1/1 http://www.topografix.com/GPX/1/1/gpx.xsd" version="1.1" creator="VisuGPX - https://www.visugpx.com">
  <metadata>
    <name>O-S-La Montagne Le Pellerin Variante D80 Port St Père St Mars Coutais Bouaye St Aignan Pont St Martin La Filée Rezé</name>
    <desc><![CDATA[O-S-La Montagne Le Pellerin Variante D80 Port St Père St Mars Coutais Bouaye St Aignan Pont St Martin La Filée Rezé]]></desc>
  </metadata>
  <trk>
    <name><![CDATA[2021-04-15 11:38 +02:00]]></name>
    <trkseg>
      <trkpt lat="47.16778" lon="-1.62663">
        <ele>71</ele>
        <time>2021-04-15T09:38:40.000Z</time>
      </trkpt>
      <trkpt lat="47.1679" lon="-1.62663">
        <ele>63</ele>
        <time>2021-04-15T09:38:41.000Z</time>
      </trkpt>
      <trkpt lat="47.16782" lon="-1.62657">
        <ele>64</ele>
        <time>2021-04-15T09:38:51.000Z</time>
      </trkpt>
      <trkpt lat="47.16787" lon="-1.62644">
        <ele>74</ele>
        <time>2021-04-15T09:40:36.000Z</time>
      </trkpt>
      <trkpt lat="47.16794" lon="-1.62634">
        <ele>72</ele>
        <time>2021-04-15T09:40:38.000Z</time>
      </trkpt>
      <trkpt lat="47.16803" lon="-1.62622">
        <ele>72</ele>
        <time>2021-04-15T09:40:40.000Z</time>
      </trkpt>
      <trkpt lat="47.1681" lon="-1.62611">
        <ele>71</ele>
        <time>2021-04-15T09:40:42.000Z</time>
      </trkpt>
      <trkpt lat="47.16817" lon="-1.62599">
        <ele>71</ele>
        <time>2021-04-15T09:40:44.000Z</time>
      </trkpt>
      <trkpt lat="47.16823" lon="-1.62588">
        <ele>70</ele>
        <time>2021-04-15T09:40:46.000Z</time>
      </trkpt>
      <trkpt lat="47.16829" lon="-1.62575">
        <ele>70</ele>
        <time>2021-04-15T09:40:48.000Z</time>
      </trkpt>
      <trkpt lat="47.16822" lon="-1.62563">
        <ele>70</ele>
        <time>2021-04-15T09:40:50.000Z</time>
      </trkpt>
      <trkpt lat="47.16811" lon="-1.62554">
        <ele>70</ele>
        <time>2021-04-15T09:40:52.000Z</time>
      </trkpt>
      <trkpt lat="47.16799" lon="-1.62546">
        <ele>70</ele>
        <time>2021-04-15T09:40:54.000Z</time>
      </trkpt>
      <trkpt lat="47.16789" lon="-1.62538">
        <ele>70</ele>
        <time>2021-04-15T09:40:56.000Z</time>
      </trkpt>
      <trkpt lat="47.16777" lon="-1.6253">
        <ele>70</ele>
        <time>2021-04-15T09:40:58.000Z</time>
      </trkpt>
      <trkpt lat="47.16766" lon="-1.62523">
        <ele>71</ele>
        <time>2021-04-15T09:41:00.000Z</time>
      </trkpt>
      <trkpt lat="47.16754" lon="-1.62516">
        <ele>71</ele>
        <time>2021-04-15T09:41:02.000Z</time>
      </trkpt>
      <trkpt lat="47.16743" lon="-1.6251">
        <ele>70</ele>
        <time>2021-04-15T09:41:04.000Z</time>
      </trkpt>
      <trkpt lat="47.16732" lon="-1.62505">
        <ele>71</ele>
        <time>2021-04-15T09:41:06.000Z</time>
      </trkpt>
      <trkpt lat="47.16721" lon="-1.62499">
        <ele>70</ele>
        <time>2021-04-15T09:41:08.000Z</time>
      </trkpt>
      <trkpt lat="47.1671" lon="-1.625">
        <ele>70</ele>
        <time>2021-04-15T09:41:10.000Z</time>
      </trkpt>
      <trkpt lat="47.16706" lon="-1.62517">
        <ele>70</ele>
        <time>2021-04-15T09:41:12.000Z</time>
      </trkpt>
      <trkpt lat="47.16705" lon="-1.62535">
        <ele>70</ele>
        <time>2021-04-15T09:41:14.000Z</time>
      </trkpt>
      <trkpt lat="47.16703" lon="-1.62553">
        <ele>70</ele>
        <time>2021-04-15T09:41:16.000Z</time>
      </trkpt>
      <trkpt lat="47.16701" lon="-1.62572">
        <ele>70</ele>
        <time>2021-04-15T09:41:18.000Z</time>
      </trkpt>
      <trkpt lat="47.167" lon="-1.62591">
        <ele>70</ele>
        <time>2021-04-15T09:41:20.000Z</time>
      </trkpt>
      <trkpt lat="47.167" lon="-1.62609">
        <ele>70</ele>
        <time>2021-04-15T09:41:22.000Z</time>
      </trkpt>
      <trkpt lat="47.167" lon="-1.62629">
        <ele>70</ele>
        <time>2021-04-15T09:41:24.000Z</time>
      </trkpt>
      <trkpt lat="47.16701" lon="-1.62647">
        <ele>71</ele>
        <time>2021-04-15T09:41:26.000Z</time>
      </trkpt>
      <trkpt lat="47.16705" lon="-1.62666">
        <ele>71</ele>
        <time>2021-04-15T09:41:28.000Z</time>
      </trkpt>
      <trkpt lat="47.16709" lon="-1.62684">
        <ele>71</ele>
        <time>2021-04-15T09:41:30.000Z</time>
      </trkpt>
      <trkpt lat="47.16715" lon="-1.62701">
        <ele>71</ele>
        <time>2021-04-15T09:41:32.000Z</time>
      </trkpt>
      <trkpt lat="47.16722" lon="-1.62717">
        <ele>71</ele>
        <time>2021-04-15T09:41:34.000Z</time>
      </trkpt>
      <trkpt lat="47.1673" lon="-1.62733">
        <ele>71</ele>
        <time>2021-04-15T09:41:36.000Z</time>
      </trkpt>
      <trkpt lat="47.16739" lon="-1.62747">
        <ele>71</ele>
        <time>2021-04-15T09:41:38.000Z</time>
      </trkpt>
      <trkpt lat="47.16749" lon="-1.62759">
        <ele>71</ele>
        <time>2021-04-15T09:41:40.000Z</time>
      </trkpt>
      <trkpt lat="47.16761" lon="-1.62771">
        <ele>70</ele>
        <time>2021-04-15T09:41:42.000Z</time>
      </trkpt>
      <trkpt lat="47.16773" lon="-1.62782">
        <ele>70</ele>
        <time>2021-04-15T09:41:44.000Z</time>
      </trkpt>
      <trkpt lat="47.16787" lon="-1.62793">
        <ele>71</ele>
        <time>2021-04-15T09:41:46.000Z</time>
      </trkpt>
      <trkpt lat="47.168" lon="-1.62804">
        <ele>71</ele>
        <time>2021-04-15T09:41:48.000Z</time>
      </trkpt>
      <trkpt lat="47.16812" lon="-1.62815">
        <ele>72</ele>
        <time>2021-04-15T09:41:50.000Z</time>
      </trkpt>
      <trkpt lat="47.16823" lon="-1.62826">
        <ele>72</ele>
        <time>2021-04-15T09:41:52.000Z</time>
      </trkpt>
      <trkpt lat="47.16834" lon="-1.62837">
        <ele>73</ele>
        <time>2021-04-15T09:41:54.000Z</time>
      </trkpt>
      <trkpt lat="47.16845" lon="-1.62847">
        <ele>73</ele>
        <time>2021-04-15T09:41:56.000Z</time>
      </trkpt>
      <trkpt lat="47.16855" lon="-1.62858">
        <ele>73</ele>
        <time>2021-04-15T09:41:58.000Z</time>
      </trkpt>
      <trkpt lat="47.16866" lon="-1.62869">
        <ele>74</ele>
        <time>2021-04-15T09:42:00.000Z</time>
      </trkpt>
      <trkpt lat="47.16875" lon="-1.62881">
        <ele>74</ele>
        <time>2021-04-15T09:42:02.000Z</time>
      </trkpt>
      <trkpt lat="47.16882" lon="-1.62895">
        <ele>75</ele>
        <time>2021-04-15T09:42:04.000Z</time>
      </trkpt>
      <trkpt lat="47.16888" lon="-1.62912">
        <ele>75</ele>
        <time>2021-04-15T09:42:06.000Z</time>
      </trkpt>
      <trkpt lat="47.16891" lon="-1.6293">
        <ele>75</ele>
        <time>2021-04-15T09:42:08.000Z</time>
      </trkpt>
      <trkpt lat="47.16893" lon="-1.62947">
        <ele>75</ele>
        <time>2021-04-15T09:42:10.000Z</time>
      </trkpt>
      <trkpt lat="47.16893" lon="-1.62966">
        <ele>76</ele>
        <time>2021-04-15T09:42:12.000Z</time>
      </trkpt>
      <trkpt lat="47.16892" lon="-1.62985">
        <ele>76</ele>
        <time>2021-04-15T09:42:14.000Z</time>
      </trkpt>
      <trkpt lat="47.16891" lon="-1.63003">
        <ele>76</ele>
        <time>2021-04-15T09:42:16.000Z</time>
      </trkpt>
      <trkpt lat="47.1689" lon="-1.63021">
        <ele>76</ele>
        <time>2021-04-15T09:42:18.000Z</time>
      </trkpt>
      <trkpt lat="47.16889" lon="-1.63039">
        <ele>77</ele>
        <time>2021-04-15T09:42:20.000Z</time>
      </trkpt>
      <trkpt lat="47.16887" lon="-1.63057">
        <ele>77</ele>
        <time>2021-04-15T09:42:22.000Z</time>
      </trkpt>
      <trkpt lat="47.16886" lon="-1.63074">
        <ele>77</ele>
        <time>2021-04-15T09:42:24.000Z</time>
      </trkpt>
      <trkpt lat="47.1689" lon="-1.6309">
        <ele>77</ele>
        <time>2021-04-15T09:42:26.000Z</time>
      </trkpt>
      <trkpt lat="47.16894" lon="-1.63106">
        <ele>77</ele>
        <time>2021-04-15T09:42:28.000Z</time>
      </trkpt>
      <trkpt lat="47.16899" lon="-1.63121">
        <ele>77</ele>
        <time>2021-04-15T09:42:30.000Z</time>
      </trkpt>
      <trkpt lat="47.16904" lon="-1.63136">
        <ele>77</ele>
        <time>2021-04-15T09:42:32.000Z</time>
      </trkpt>
      <trkpt lat="47.16909" lon="-1.63151">
        <ele>78</ele>
        <time>2021-04-15T09:42:34.000Z</time>
      </trkpt>
      <trkpt lat="47.16916" lon="-1.63165">
        <ele>78</ele>
        <time>2021-04-15T09:42:36.000Z</time>
      </trkpt>
      <trkpt lat="47.16921" lon="-1.63178">
        <ele>79</ele>
        <time>2021-04-15T09:42:38.000Z</time>
      </trkpt>
      <trkpt lat="47.16928" lon="-1.63191">
        <ele>79</ele>
        <time>2021-04-15T09:42:40.000Z</time>
      </trkpt>
      <trkpt lat="47.16936" lon="-1.63203">
        <ele>79</ele>
        <time>2021-04-15T09:42:42.000Z</time>
      </trkpt>
      <trkpt lat="47.16944" lon="-1.63215">
        <ele>79</ele>
        <time>2021-04-15T09:42:44.000Z</time>
      </trkpt>
      <trkpt lat="47.16952" lon="-1.63227">
        <ele>79</ele>
        <time>2021-04-15T09:42:46.000Z</time>
      </trkpt>
      <trkpt lat="47.1696" lon="-1.63237">
        <ele>79</ele>
        <time>2021-04-15T09:42:48.000Z</time>
      </trkpt>
      <trkpt lat="47.16968" lon="-1.63244">
        <ele>78</ele>
        <time>2021-04-15T09:42:51.000Z</time>
      </trkpt>
      <trkpt lat="47.16977" lon="-1.63247">
        <ele>79</ele>
        <time>2021-04-15T09:42:56.000Z</time>
      </trkpt>
      <trkpt lat="47.16989" lon="-1.63237">
        <ele>78</ele>
        <time>2021-04-15T09:42:59.000Z</time>
      </trkpt>
      <trkpt lat="47.16999" lon="-1.63229">
        <ele>78</ele>
        <time>2021-04-15T09:43:01.000Z</time>
      </trkpt>
      <trkpt lat="47.17009" lon="-1.63223">
        <ele>78</ele>
        <time>2021-04-15T09:43:03.000Z</time>
      </trkpt>
      <trkpt lat="47.17021" lon="-1.63214">
        <ele>78</ele>
        <time>2021-04-15T09:43:05.000Z</time>
      </trkpt>
      <trkpt lat="47.17032" lon="-1.63208">
        <ele>77</ele>
        <time>2021-04-15T09:43:07.000Z</time>
      </trkpt>
      <trkpt lat="47.17044" lon="-1.63201">
        <ele>76</ele>
        <time>2021-04-15T09:43:09.000Z</time>
      </trkpt>
      <trkpt lat="47.17052" lon="-1.63193">
        <ele>76</ele>
        <time>2021-04-15T09:43:11.000Z</time>
      </trkpt>
      <trkpt lat="47.17063" lon="-1.63186">
        <ele>76</ele>
        <time>2021-04-15T09:43:15.000Z</time>
      </trkpt>
      <trkpt lat="47.17073" lon="-1.63182">
        <ele>76</ele>
        <time>2021-04-15T09:43:18.000Z</time>
      </trkpt>
      <trkpt lat="47.17084" lon="-1.63175">
        <ele>76</ele>
        <time>2021-04-15T09:43:21.000Z</time>
      </trkpt>
      <trkpt lat="47.17094" lon="-1.63171">
        <ele>76</ele>
        <time>2021-04-15T09:43:23.000Z</time>
      </trkpt>
      <trkpt lat="47.17105" lon="-1.63165">
        <ele>76</ele>
        <time>2021-04-15T09:43:25.000Z</time>
      </trkpt>
      <trkpt lat="47.17117" lon="-1.6316">
        <ele>75</ele>
        <time>2021-04-15T09:43:27.000Z</time>
      </trkpt>
      <trkpt lat="47.17129" lon="-1.63154">
        <ele>75</ele>
        <time>2021-04-15T09:43:29.000Z</time>
      </trkpt>
      <trkpt lat="47.17142" lon="-1.63148">
        <ele>75</ele>
        <time>2021-04-15T09:43:31.000Z</time>
      </trkpt>
      <trkpt lat="47.17153" lon="-1.63141">
        <ele>74</ele>
        <time>2021-04-15T09:43:33.000Z</time>
      </trkpt>
      <trkpt lat="47.17164" lon="-1.63133">
        <ele>74</ele>
        <time>2021-04-15T09:43:35.000Z</time>
      </trkpt>
      <trkpt lat="47.17174" lon="-1.63125">
        <ele>73</ele>
        <time>2021-04-15T09:43:37.000Z</time>
      </trkpt>
      <trkpt lat="47.17184" lon="-1.63117">
        <ele>73</ele>
        <time>2021-04-15T09:43:39.000Z</time>
      </trkpt>
      <trkpt lat="47.17194" lon="-1.63121">
        <ele>73</ele>
        <time>2021-04-15T09:43:41.000Z</time>
      </trkpt>
      <trkpt lat="47.17201" lon="-1.63136">
        <ele>73</ele>
        <time>2021-04-15T09:43:43.000Z</time>
      </trkpt>
      <trkpt lat="47.17206" lon="-1.63154">
        <ele>73</ele>
        <time>2021-04-15T09:43:45.000Z</time>
      </trkpt>
      <trkpt lat="47.17213" lon="-1.6317">
        <ele>73</ele>
        <time>2021-04-15T09:43:47.000Z</time>
      </trkpt>
      <trkpt lat="47.1722" lon="-1.63186">
        <ele>73</ele>
        <time>2021-04-15T09:43:49.000Z</time>
      </trkpt>
      <trkpt lat="47.17228" lon="-1.632">
        <ele>73</ele>
        <time>2021-04-15T09:43:51.000Z</time>
      </trkpt>
      <trkpt lat="47.17235" lon="-1.63208">
        <ele>73</ele>
        <time>2021-04-15T09:43:53.000Z</time>
      </trkpt>
      <trkpt lat="47.17241" lon="-1.63228">
        <ele>73</ele>
        <time>2021-04-15T09:43:56.000Z</time>
      </trkpt>
      <trkpt lat="47.1724" lon="-1.63247">
        <ele>73</ele>
        <time>2021-04-15T09:43:58.000Z</time>
      </trkpt>
      <trkpt lat="47.17236" lon="-1.63265">
        <ele>73</ele>
        <time>2021-04-15T09:44:00.000Z</time>
      </trkpt>
      <trkpt lat="47.17231" lon="-1.63284">
        <ele>74</ele>
        <time>2021-04-15T09:44:02.000Z</time>
      </trkpt>
      <trkpt lat="47.17227" lon="-1.63305">
        <ele>74</ele>
        <time>2021-04-15T09:44:04.000Z</time>
      </trkpt>
      <trkpt lat="47.17223" lon="-1.63325">
        <ele>75</ele>
        <time>2021-04-15T09:44:06.000Z</time>
      </trkpt>
      <trkpt lat="47.17219" lon="-1.63345">
        <ele>75</ele>
        <time>2021-04-15T09:44:08.000Z</time>
      </trkpt>
      <trkpt lat="47.17216" lon="-1.63365">
        <ele>75</ele>
        <time>2021-04-15T09:44:10.000Z</time>
      </trkpt>
      <trkpt lat="47.17212" lon="-1.63385">
        <ele>75</ele>
        <time>2021-04-15T09:44:12.000Z</time>
      </trkpt>
      <trkpt lat="47.17209" lon="-1.63404">
        <ele>76</ele>
        <time>2021-04-15T09:44:14.000Z</time>
      </trkpt>
      <trkpt lat="47.17207" lon="-1.63424">
        <ele>76</ele>
        <time>2021-04-15T09:44:16.000Z</time>
      </trkpt>
      <trkpt lat="47.17204" lon="-1.63443">
        <ele>76</ele>
        <time>2021-04-15T09:44:18.000Z</time>
      </trkpt>
      <trkpt lat="47.17201" lon="-1.63463">
        <ele>76</ele>
        <time>2021-04-15T09:44:20.000Z</time>
      </trkpt>
      <trkpt lat="47.17198" lon="-1.63483">
        <ele>76</ele>
        <time>2021-04-15T09:44:22.000Z</time>
      </trkpt>
      <trkpt lat="47.17195" lon="-1.63504">
        <ele>76</ele>
        <time>2021-04-15T09:44:24.000Z</time>
      </trkpt>
      <trkpt lat="47.17192" lon="-1.63523">
        <ele>77</ele>
        <time>2021-04-15T09:44:26.000Z</time>
      </trkpt>
      <trkpt lat="47.17189" lon="-1.63543">
        <ele>77</ele>
        <time>2021-04-15T09:44:28.000Z</time>
      </trkpt>
      <trkpt lat="47.17187" lon="-1.63563">
        <ele>77</ele>
        <time>2021-04-15T09:44:30.000Z</time>
      </trkpt>
      <trkpt lat="47.17184" lon="-1.63582">
        <ele>76</ele>
        <time>2021-04-15T09:44:32.000Z</time>
      </trkpt>
      <trkpt lat="47.17182" lon="-1.63601">
        <ele>76</ele>
        <time>2021-04-15T09:44:34.000Z</time>
      </trkpt>
      <trkpt lat="47.1718" lon="-1.6362">
        <ele>76</ele>
        <time>2021-04-15T09:44:36.000Z</time>
      </trkpt>
      <trkpt lat="47.17179" lon="-1.63639">
        <ele>77</ele>
        <time>2021-04-15T09:44:38.000Z</time>
      </trkpt>
      <trkpt lat="47.17177" lon="-1.63658">
        <ele>77</ele>
        <time>2021-04-15T09:44:40.000Z</time>
      </trkpt>
      <trkpt lat="47.17175" lon="-1.63678">
        <ele>78</ele>
        <time>2021-04-15T09:44:42.000Z</time>
      </trkpt>
      <trkpt lat="47.17172" lon="-1.63698">
        <ele>78</ele>
        <time>2021-04-15T09:44:44.000Z</time>
      </trkpt>
      <trkpt lat="47.1717" lon="-1.63717">
        <ele>78</ele>
        <time>2021-04-15T09:44:46.000Z</time>
      </trkpt>
      <trkpt lat="47.17168" lon="-1.63737">
        <ele>79</ele>
        <time>2021-04-15T09:44:48.000Z</time>
      </trkpt>
      <trkpt lat="47.17166" lon="-1.63757">
        <ele>78</ele>
        <time>2021-04-15T09:44:50.000Z</time>
      </trkpt>
      <trkpt lat="47.17164" lon="-1.63778">
        <ele>78</ele>
        <time>2021-04-15T09:44:52.000Z</time>
      </trkpt>
      <trkpt lat="47.17162" lon="-1.63798">
        <ele>78</ele>
        <time>2021-04-15T09:44:54.000Z</time>
      </trkpt>
      <trkpt lat="47.1716" lon="-1.63818">
        <ele>78</ele>
        <time>2021-04-15T09:44:56.000Z</time>
      </trkpt>
      <trkpt lat="47.17158" lon="-1.63838">
        <ele>78</ele>
        <time>2021-04-15T09:44:58.000Z</time>
      </trkpt>
      <trkpt lat="47.17156" lon="-1.63858">
        <ele>78</ele>
        <time>2021-04-15T09:45:00.000Z</time>
      </trkpt>
      <trkpt lat="47.17154" lon="-1.63879">
        <ele>77</ele>
        <time>2021-04-15T09:45:02.000Z</time>
      </trkpt>
      <trkpt lat="47.17152" lon="-1.63898">
        <ele>77</ele>
        <time>2021-04-15T09:45:04.000Z</time>
      </trkpt>
      <trkpt lat="47.17149" lon="-1.63918">
        <ele>77</ele>
        <time>2021-04-15T09:45:06.000Z</time>
      </trkpt>
      <trkpt lat="47.17147" lon="-1.63938">
        <ele>77</ele>
        <time>2021-04-15T09:45:08.000Z</time>
      </trkpt>
      <trkpt lat="47.17145" lon="-1.63958">
        <ele>77</ele>
        <time>2021-04-15T09:45:10.000Z</time>
      </trkpt>
      <trkpt lat="47.17142" lon="-1.63977">
        <ele>78</ele>
        <time>2021-04-15T09:45:12.000Z</time>
      </trkpt>
      <trkpt lat="47.1714" lon="-1.63997">
        <ele>78</ele>
        <time>2021-04-15T09:45:14.000Z</time>
      </trkpt>
      <trkpt lat="47.17138" lon="-1.64017">
        <ele>78</ele>
        <time>2021-04-15T09:45:16.000Z</time>
      </trkpt>
      <trkpt lat="47.17135" lon="-1.64037">
        <ele>78</ele>
        <time>2021-04-15T09:45:18.000Z</time>
      </trkpt>
      <trkpt lat="47.17133" lon="-1.64057">
        <ele>78</ele>
        <time>2021-04-15T09:45:20.000Z</time>
      </trkpt>
      <trkpt lat="47.17132" lon="-1.64077">
        <ele>78</ele>
        <time>2021-04-15T09:45:22.000Z</time>
      </trkpt>
      <trkpt lat="47.17129" lon="-1.64097">
        <ele>78</ele>
        <time>2021-04-15T09:45:24.000Z</time>
      </trkpt>
      <trkpt lat="47.17127" lon="-1.64116">
        <ele>78</ele>
        <time>2021-04-15T09:45:26.000Z</time>
      </trkpt>
      <trkpt lat="47.17125" lon="-1.64135">
        <ele>78</ele>
        <time>2021-04-15T09:45:28.000Z</time>
      </trkpt>
      <trkpt lat="47.17123" lon="-1.64154">
        <ele>77</ele>
        <time>2021-04-15T09:45:30.000Z</time>
      </trkpt>
      <trkpt lat="47.17121" lon="-1.64175">
        <ele>77</ele>
        <time>2021-04-15T09:45:32.000Z</time>
      </trkpt>
      <trkpt lat="47.17118" lon="-1.64195">
        <ele>77</ele>
        <time>2021-04-15T09:45:34.000Z</time>
      </trkpt>
      <trkpt lat="47.17116" lon="-1.64214">
        <ele>78</ele>
        <time>2021-04-15T09:45:36.000Z</time>
      </trkpt>
      <trkpt lat="47.17114" lon="-1.64234">
        <ele>78</ele>
        <time>2021-04-15T09:45:38.000Z</time>
      </trkpt>
      <trkpt lat="47.17112" lon="-1.64254">
        <ele>78</ele>
        <time>2021-04-15T09:45:40.000Z</time>
      </trkpt>
      <trkpt lat="47.1711" lon="-1.64274">
        <ele>78</ele>
        <time>2021-04-15T09:45:42.000Z</time>
      </trkpt>
      <trkpt lat="47.17108" lon="-1.64294">
        <ele>78</ele>
        <time>2021-04-15T09:45:44.000Z</time>
      </trkpt>
      <trkpt lat="47.17106" lon="-1.64314">
        <ele>78</ele>
        <time>2021-04-15T09:45:46.000Z</time>
      </trkpt>
      <trkpt lat="47.17104" lon="-1.64334">
        <ele>78</ele>
        <time>2021-04-15T09:45:48.000Z</time>
      </trkpt>
      <trkpt lat="47.17102" lon="-1.64354">
        <ele>78</ele>
        <time>2021-04-15T09:45:50.000Z</time>
      </trkpt>
      <trkpt lat="47.171" lon="-1.64375">
        <ele>78</ele>
        <time>2021-04-15T09:45:52.000Z</time>
      </trkpt>
      <trkpt lat="47.17098" lon="-1.64395">
        <ele>78</ele>
        <time>2021-04-15T09:45:54.000Z</time>
      </trkpt>
      <trkpt lat="47.17097" lon="-1.64415">
        <ele>77</ele>
        <time>2021-04-15T09:45:56.000Z</time>
      </trkpt>
      <trkpt lat="47.17096" lon="-1.64435">
        <ele>77</ele>
        <time>2021-04-15T09:45:58.000Z</time>
      </trkpt>
      <trkpt lat="47.17095" lon="-1.64456">
        <ele>77</ele>
        <time>2021-04-15T09:46:00.000Z</time>
      </trkpt>
      <trkpt lat="47.17094" lon="-1.64477">
        <ele>77</ele>
        <time>2021-04-15T09:46:02.000Z</time>
      </trkpt>
      <trkpt lat="47.17093" lon="-1.64498">
        <ele>77</ele>
        <time>2021-04-15T09:46:04.000Z</time>
      </trkpt>
      <trkpt lat="47.17091" lon="-1.64519">
        <ele>76</ele>
        <time>2021-04-15T09:46:06.000Z</time>
      </trkpt>
      <trkpt lat="47.1709" lon="-1.6454">
        <ele>76</ele>
        <time>2021-04-15T09:46:08.000Z</time>
      </trkpt>
      <trkpt lat="47.1709" lon="-1.64561">
        <ele>76</ele>
        <time>2021-04-15T09:46:10.000Z</time>
      </trkpt>
      <trkpt lat="47.17089" lon="-1.64583">
        <ele>76</ele>
        <time>2021-04-15T09:46:12.000Z</time>
      </trkpt>
      <trkpt lat="47.17089" lon="-1.64605">
        <ele>76</ele>
        <time>2021-04-15T09:46:14.000Z</time>
      </trkpt>
      <trkpt lat="47.17088" lon="-1.64627">
        <ele>76</ele>
        <time>2021-04-15T09:46:16.000Z</time>
      </trkpt>
      <trkpt lat="47.17088" lon="-1.6465">
        <ele>76</ele>
        <time>2021-04-15T09:46:18.000Z</time>
      </trkpt>
      <trkpt lat="47.17089" lon="-1.64674">
        <ele>77</ele>
        <time>2021-04-15T09:46:20.000Z</time>
      </trkpt>
      <trkpt lat="47.1709" lon="-1.64697">
        <ele>77</ele>
        <time>2021-04-15T09:46:22.000Z</time>
      </trkpt>
      <trkpt lat="47.17091" lon="-1.6472">
        <ele>78</ele>
        <time>2021-04-15T09:46:24.000Z</time>
      </trkpt>
      <trkpt lat="47.17092" lon="-1.64743">
        <ele>78</ele>
        <time>2021-04-15T09:46:26.000Z</time>
      </trkpt>
      <trkpt lat="47.17094" lon="-1.64766">
        <ele>78</ele>
        <time>2021-04-15T09:46:28.000Z</time>
      </trkpt>
      <trkpt lat="47.17095" lon="-1.64788">
        <ele>76</ele>
        <time>2021-04-15T09:46:30.000Z</time>
      </trkpt>
      <trkpt lat="47.17097" lon="-1.64811">
        <ele>76</ele>
        <time>2021-04-15T09:46:32.000Z</time>
      </trkpt>
      <trkpt lat="47.17099" lon="-1.64834">
        <ele>75</ele>
        <time>2021-04-15T09:46:34.000Z</time>
      </trkpt>
      <trkpt lat="47.17101" lon="-1.64857">
        <ele>75</ele>
        <time>2021-04-15T09:46:36.000Z</time>
      </trkpt>
      <trkpt lat="47.17102" lon="-1.6488">
        <ele>76</ele>
        <time>2021-04-15T09:46:38.000Z</time>
      </trkpt>
      <trkpt lat="47.17103" lon="-1.64904">
        <ele>76</ele>
        <time>2021-04-15T09:46:40.000Z</time>
      </trkpt>
      <trkpt lat="47.17105" lon="-1.64926">
        <ele>76</ele>
        <time>2021-04-15T09:46:42.000Z</time>
      </trkpt>
      <trkpt lat="47.17106" lon="-1.64949">
        <ele>76</ele>
        <time>2021-04-15T09:46:44.000Z</time>
      </trkpt>
      <trkpt lat="47.17108" lon="-1.64971">
        <ele>75</ele>
        <time>2021-04-15T09:46:46.000Z</time>
      </trkpt>
      <trkpt lat="47.1711" lon="-1.64992">
        <ele>75</ele>
        <time>2021-04-15T09:46:48.000Z</time>
      </trkpt>
      <trkpt lat="47.17111" lon="-1.65014">
        <ele>76</ele>
        <time>2021-04-15T09:46:50.000Z</time>
      </trkpt>
      <trkpt lat="47.17112" lon="-1.65036">
        <ele>76</ele>
        <time>2021-04-15T09:46:52.000Z</time>
      </trkpt>
      <trkpt lat="47.17113" lon="-1.65059">
        <ele>76</ele>
        <time>2021-04-15T09:46:54.000Z</time>
      </trkpt>
      <trkpt lat="47.17115" lon="-1.65081">
        <ele>77</ele>
        <time>2021-04-15T09:46:56.000Z</time>
      </trkpt>
      <trkpt lat="47.17117" lon="-1.65103">
        <ele>76</ele>
        <time>2021-04-15T09:46:58.000Z</time>
      </trkpt>
      <trkpt lat="47.17118" lon="-1.65125">
        <ele>77</ele>
        <time>2021-04-15T09:47:00.000Z</time>
      </trkpt>
      <trkpt lat="47.1712" lon="-1.65147">
        <ele>77</ele>
        <time>2021-04-15T09:47:02.000Z</time>
      </trkpt>
      <trkpt lat="47.17121" lon="-1.65169">
        <ele>78</ele>
        <time>2021-04-15T09:47:04.000Z</time>
      </trkpt>
      <trkpt lat="47.17123" lon="-1.6519">
        <ele>78</ele>
        <time>2021-04-15T09:47:06.000Z</time>
      </trkpt>
      <trkpt lat="47.17125" lon="-1.6521">
        <ele>78</ele>
        <time>2021-04-15T09:47:08.000Z</time>
      </trkpt>
      <trkpt lat="47.17126" lon="-1.65231">
        <ele>79</ele>
        <time>2021-04-15T09:47:10.000Z</time>
      </trkpt>
      <trkpt lat="47.17129" lon="-1.6525">
        <ele>79</ele>
        <time>2021-04-15T09:47:12.000Z</time>
      </trkpt>
      <trkpt lat="47.17136" lon="-1.65268">
        <ele>79</ele>
        <time>2021-04-15T09:47:14.000Z</time>
      </trkpt>
      <trkpt lat="47.17145" lon="-1.65281">
        <ele>80</ele>
        <time>2021-04-15T09:47:16.000Z</time>
      </trkpt>
      <trkpt lat="47.17155" lon="-1.65292">
        <ele>80</ele>
        <time>2021-04-15T09:47:18.000Z</time>
      </trkpt>
      <trkpt lat="47.17167" lon="-1.65304">
        <ele>79</ele>
        <time>2021-04-15T09:47:20.000Z</time>
      </trkpt>
      <trkpt lat="47.17176" lon="-1.6532">
        <ele>79</ele>
        <time>2021-04-15T09:47:22.000Z</time>
      </trkpt>
      <trkpt lat="47.1718" lon="-1.6534">
        <ele>79</ele>
        <time>2021-04-15T09:47:24.000Z</time>
      </trkpt>
      <trkpt lat="47.1718" lon="-1.65361">
        <ele>79</ele>
        <time>2021-04-15T09:47:26.000Z</time>
      </trkpt>
      <trkpt lat="47.17177" lon="-1.65383">
        <ele>78</ele>
        <time>2021-04-15T09:47:28.000Z</time>
      </trkpt>
      <trkpt lat="47.17174" lon="-1.65404">
        <ele>78</ele>
        <time>2021-04-15T09:47:30.000Z</time>
      </trkpt>
      <trkpt lat="47.17172" lon="-1.65426">
        <ele>78</ele>
        <time>2021-04-15T09:47:32.000Z</time>
      </trkpt>
      <trkpt lat="47.17169" lon="-1.65447">
        <ele>78</ele>
        <time>2021-04-15T09:47:34.000Z</time>
      </trkpt>
      <trkpt lat="47.17167" lon="-1.65469">
        <ele>78</ele>
        <time>2021-04-15T09:47:36.000Z</time>
      </trkpt>
      <trkpt lat="47.17164" lon="-1.6549">
        <ele>78</ele>
        <time>2021-04-15T09:47:38.000Z</time>
      </trkpt>
      <trkpt lat="47.17163" lon="-1.65512">
        <ele>78</ele>
        <time>2021-04-15T09:47:40.000Z</time>
      </trkpt>
      <trkpt lat="47.17161" lon="-1.65532">
        <ele>78</ele>
        <time>2021-04-15T09:47:42.000Z</time>
      </trkpt>
      <trkpt lat="47.1716" lon="-1.65552">
        <ele>79</ele>
        <time>2021-04-15T09:47:44.000Z</time>
      </trkpt>
      <trkpt lat="47.17159" lon="-1.65572">
        <ele>79</ele>
        <time>2021-04-15T09:47:46.000Z</time>
      </trkpt>
      <trkpt lat="47.17158" lon="-1.65593">
        <ele>78</ele>
        <time>2021-04-15T09:47:48.000Z</time>
      </trkpt>
      <trkpt lat="47.17156" lon="-1.65614">
        <ele>78</ele>
        <time>2021-04-15T09:47:50.000Z</time>
      </trkpt>
      <trkpt lat="47.17156" lon="-1.65635">
        <ele>78</ele>
        <time>2021-04-15T09:47:52.000Z</time>
      </trkpt>
      <trkpt lat="47.17155" lon="-1.65657">
        <ele>78</ele>
        <time>2021-04-15T09:47:54.000Z</time>
      </trkpt>
      <trkpt lat="47.17156" lon="-1.65679">
        <ele>78</ele>
        <time>2021-04-15T09:47:56.000Z</time>
      </trkpt>
      <trkpt lat="47.17157" lon="-1.657">
        <ele>78</ele>
        <time>2021-04-15T09:47:58.000Z</time>
      </trkpt>
      <trkpt lat="47.17158" lon="-1.65722">
        <ele>78</ele>
        <time>2021-04-15T09:48:00.000Z</time>
      </trkpt>
      <trkpt lat="47.1716" lon="-1.65742">
        <ele>78</ele>
        <time>2021-04-15T09:48:02.000Z</time>
      </trkpt>
      <trkpt lat="47.17162" lon="-1.65764">
        <ele>77</ele>
        <time>2021-04-15T09:48:04.000Z</time>
      </trkpt>
      <trkpt lat="47.17164" lon="-1.65785">
        <ele>78</ele>
        <time>2021-04-15T09:48:06.000Z</time>
      </trkpt>
      <trkpt lat="47.17167" lon="-1.65805">
        <ele>77</ele>
        <time>2021-04-15T09:48:08.000Z</time>
      </trkpt>
      <trkpt lat="47.1717" lon="-1.65826">
        <ele>78</ele>
        <time>2021-04-15T09:48:10.000Z</time>
      </trkpt>
      <trkpt lat="47.17173" lon="-1.65847">
        <ele>78</ele>
        <time>2021-04-15T09:48:12.000Z</time>
      </trkpt>
      <trkpt lat="47.17177" lon="-1.65867">
        <ele>77</ele>
        <time>2021-04-15T09:48:14.000Z</time>
      </trkpt>
      <trkpt lat="47.17181" lon="-1.65888">
        <ele>78</ele>
        <time>2021-04-15T09:48:16.000Z</time>
      </trkpt>
      <trkpt lat="47.17184" lon="-1.65909">
        <ele>78</ele>
        <time>2021-04-15T09:48:18.000Z</time>
      </trkpt>
      <trkpt lat="47.17189" lon="-1.65929">
        <ele>78</ele>
        <time>2021-04-15T09:48:20.000Z</time>
      </trkpt>
      <trkpt lat="47.17193" lon="-1.6595">
        <ele>78</ele>
        <time>2021-04-15T09:48:22.000Z</time>
      </trkpt>
      <trkpt lat="47.17197" lon="-1.6597">
        <ele>78</ele>
        <time>2021-04-15T09:48:24.000Z</time>
      </trkpt>
      <trkpt lat="47.17201" lon="-1.65991">
        <ele>77</ele>
        <time>2021-04-15T09:48:26.000Z</time>
      </trkpt>
      <trkpt lat="47.17205" lon="-1.66011">
        <ele>77</ele>
        <time>2021-04-15T09:48:28.000Z</time>
      </trkpt>
      <trkpt lat="47.17208" lon="-1.66032">
        <ele>76</ele>
        <time>2021-04-15T09:48:30.000Z</time>
      </trkpt>
      <trkpt lat="47.17212" lon="-1.66052">
        <ele>76</ele>
        <time>2021-04-15T09:48:32.000Z</time>
      </trkpt>
      <trkpt lat="47.17216" lon="-1.66073">
        <ele>76</ele>
        <time>2021-04-15T09:48:34.000Z</time>
      </trkpt>
      <trkpt lat="47.17221" lon="-1.66093">
        <ele>77</ele>
        <time>2021-04-15T09:48:36.000Z</time>
      </trkpt>
      <trkpt lat="47.17226" lon="-1.66111">
        <ele>77</ele>
        <time>2021-04-15T09:48:38.000Z</time>
      </trkpt>
      <trkpt lat="47.17237" lon="-1.66124">
        <ele>78</ele>
        <time>2021-04-15T09:48:40.000Z</time>
      </trkpt>
      <trkpt lat="47.17251" lon="-1.66121">
        <ele>78</ele>
        <time>2021-04-15T09:48:42.000Z</time>
      </trkpt>
      <trkpt lat="47.17263" lon="-1.66108">
        <ele>77</ele>
        <time>2021-04-15T09:48:44.000Z</time>
      </trkpt>
      <trkpt lat="47.17273" lon="-1.66094">
        <ele>77</ele>
        <time>2021-04-15T09:48:46.000Z</time>
      </trkpt>
      <trkpt lat="47.17283" lon="-1.66081">
        <ele>77</ele>
        <time>2021-04-15T09:48:48.000Z</time>
      </trkpt>
      <trkpt lat="47.17293" lon="-1.66068">
        <ele>77</ele>
        <time>2021-04-15T09:48:50.000Z</time>
      </trkpt>
      <trkpt lat="47.17303" lon="-1.66054">
        <ele>77</ele>
        <time>2021-04-15T09:48:52.000Z</time>
      </trkpt>
      <trkpt lat="47.17312" lon="-1.66039">
        <ele>77</ele>
        <time>2021-04-15T09:48:54.000Z</time>
      </trkpt>
      <trkpt lat="47.17323" lon="-1.66025">
        <ele>77</ele>
        <time>2021-04-15T09:48:56.000Z</time>
      </trkpt>
      <trkpt lat="47.17333" lon="-1.66011">
        <ele>76</ele>
        <time>2021-04-15T09:48:58.000Z</time>
      </trkpt>
      <trkpt lat="47.17343" lon="-1.65997">
        <ele>76</ele>
        <time>2021-04-15T09:49:00.000Z</time>
      </trkpt>
      <trkpt lat="47.17352" lon="-1.65983">
        <ele>76</ele>
        <time>2021-04-15T09:49:02.000Z</time>
      </trkpt>
      <trkpt lat="47.17363" lon="-1.65967">
        <ele>76</ele>
        <time>2021-04-15T09:49:04.000Z</time>
      </trkpt>
      <trkpt lat="47.17373" lon="-1.65953">
        <ele>76</ele>
        <time>2021-04-15T09:49:06.000Z</time>
      </trkpt>
      <trkpt lat="47.17383" lon="-1.65938">
        <ele>76</ele>
        <time>2021-04-15T09:49:08.000Z</time>
      </trkpt>
      <trkpt lat="47.17394" lon="-1.65924">
        <ele>76</ele>
        <time>2021-04-15T09:49:10.000Z</time>
      </trkpt>
      <trkpt lat="47.17405" lon="-1.6591">
        <ele>76</ele>
        <time>2021-04-15T09:49:12.000Z</time>
      </trkpt>
      <trkpt lat="47.17416" lon="-1.65896">
        <ele>75</ele>
        <time>2021-04-15T09:49:14.000Z</time>
      </trkpt>
      <trkpt lat="47.17427" lon="-1.65882">
        <ele>75</ele>
        <time>2021-04-15T09:49:16.000Z</time>
      </trkpt>
      <trkpt lat="47.17438" lon="-1.65867">
        <ele>75</ele>
        <time>2021-04-15T09:49:18.000Z</time>
      </trkpt>
      <trkpt lat="47.17449" lon="-1.65852">
        <ele>75</ele>
        <time>2021-04-15T09:49:20.000Z</time>
      </trkpt>
      <trkpt lat="47.1746" lon="-1.65837">
        <ele>75</ele>
        <time>2021-04-15T09:49:22.000Z</time>
      </trkpt>
      <trkpt lat="47.17472" lon="-1.65823">
        <ele>75</ele>
        <time>2021-04-15T09:49:24.000Z</time>
      </trkpt>
      <trkpt lat="47.17482" lon="-1.6581">
        <ele>76</ele>
        <time>2021-04-15T09:49:26.000Z</time>
      </trkpt>
      <trkpt lat="47.17493" lon="-1.65796">
        <ele>76</ele>
        <time>2021-04-15T09:49:28.000Z</time>
      </trkpt>
      <trkpt lat="47.17503" lon="-1.65782">
        <ele>76</ele>
        <time>2021-04-15T09:49:30.000Z</time>
      </trkpt>
      <trkpt lat="47.17513" lon="-1.65768">
        <ele>75</ele>
        <time>2021-04-15T09:49:32.000Z</time>
      </trkpt>
      <trkpt lat="47.17524" lon="-1.65755">
        <ele>76</ele>
        <time>2021-04-15T09:49:34.000Z</time>
      </trkpt>
      <trkpt lat="47.17534" lon="-1.65742">
        <ele>76</ele>
        <time>2021-04-15T09:49:36.000Z</time>
      </trkpt>
      <trkpt lat="47.17544" lon="-1.65729">
        <ele>76</ele>
        <time>2021-04-15T09:49:38.000Z</time>
      </trkpt>
      <trkpt lat="47.17553" lon="-1.65716">
        <ele>76</ele>
        <time>2021-04-15T09:49:40.000Z</time>
      </trkpt>
      <trkpt lat="47.17557" lon="-1.65698">
        <ele>76</ele>
        <time>2021-04-15T09:49:42.000Z</time>
      </trkpt>
      <trkpt lat="47.17556" lon="-1.65677">
        <ele>77</ele>
        <time>2021-04-15T09:49:44.000Z</time>
      </trkpt>
      <trkpt lat="47.17553" lon="-1.65656">
        <ele>77</ele>
        <time>2021-04-15T09:49:46.000Z</time>
      </trkpt>
      <trkpt lat="47.1755" lon="-1.65637">
        <ele>77</ele>
        <time>2021-04-15T09:49:48.000Z</time>
      </trkpt>
      <trkpt lat="47.17546" lon="-1.65617">
        <ele>78</ele>
        <time>2021-04-15T09:49:50.000Z</time>
      </trkpt>
      <trkpt lat="47.17543" lon="-1.65597">
        <ele>78</ele>
        <time>2021-04-15T09:49:52.000Z</time>
      </trkpt>
      <trkpt lat="47.1754" lon="-1.65577">
        <ele>78</ele>
        <time>2021-04-15T09:49:54.000Z</time>
      </trkpt>
      <trkpt lat="47.17537" lon="-1.65559">
        <ele>77</ele>
        <time>2021-04-15T09:49:56.000Z</time>
      </trkpt>
      <trkpt lat="47.17537" lon="-1.65543">
        <ele>78</ele>
        <time>2021-04-15T09:49:58.000Z</time>
      </trkpt>
      <trkpt lat="47.17547" lon="-1.65535">
        <ele>78</ele>
        <time>2021-04-15T09:50:00.000Z</time>
      </trkpt>
      <trkpt lat="47.1756" lon="-1.65531">
        <ele>78</ele>
        <time>2021-04-15T09:50:02.000Z</time>
      </trkpt>
      <trkpt lat="47.17573" lon="-1.65527">
        <ele>78</ele>
        <time>2021-04-15T09:50:04.000Z</time>
      </trkpt>
      <trkpt lat="47.17585" lon="-1.65522">
        <ele>78</ele>
        <time>2021-04-15T09:50:06.000Z</time>
      </trkpt>
      <trkpt lat="47.17598" lon="-1.65518">
        <ele>78</ele>
        <time>2021-04-15T09:50:08.000Z</time>
      </trkpt>
      <trkpt lat="47.1761" lon="-1.65513">
        <ele>79</ele>
        <time>2021-04-15T09:50:10.000Z</time>
      </trkpt>
      <trkpt lat="47.17623" lon="-1.65508">
        <ele>79</ele>
        <time>2021-04-15T09:50:12.000Z</time>
      </trkpt>
      <trkpt lat="47.17635" lon="-1.65503">
        <ele>79</ele>
        <time>2021-04-15T09:50:14.000Z</time>
      </trkpt>
      <trkpt lat="47.17646" lon="-1.65495">
        <ele>79</ele>
        <time>2021-04-15T09:50:16.000Z</time>
      </trkpt>
      <trkpt lat="47.17657" lon="-1.65485">
        <ele>80</ele>
        <time>2021-04-15T09:50:18.000Z</time>
      </trkpt>
      <trkpt lat="47.17668" lon="-1.65475">
        <ele>80</ele>
        <time>2021-04-15T09:50:20.000Z</time>
      </trkpt>
      <trkpt lat="47.17679" lon="-1.65466">
        <ele>81</ele>
        <time>2021-04-15T09:50:22.000Z</time>
      </trkpt>
      <trkpt lat="47.1769" lon="-1.65456">
        <ele>81</ele>
        <time>2021-04-15T09:50:24.000Z</time>
      </trkpt>
      <trkpt lat="47.17701" lon="-1.65447">
        <ele>81</ele>
        <time>2021-04-15T09:50:26.000Z</time>
      </trkpt>
      <trkpt lat="47.17712" lon="-1.65436">
        <ele>81</ele>
        <time>2021-04-15T09:50:28.000Z</time>
      </trkpt>
      <trkpt lat="47.17723" lon="-1.65426">
        <ele>81</ele>
        <time>2021-04-15T09:50:30.000Z</time>
      </trkpt>
      <trkpt lat="47.17733" lon="-1.65415">
        <ele>81</ele>
        <time>2021-04-15T09:50:32.000Z</time>
      </trkpt>
      <trkpt lat="47.17743" lon="-1.65404">
        <ele>81</ele>
        <time>2021-04-15T09:50:34.000Z</time>
      </trkpt>
      <trkpt lat="47.17753" lon="-1.65392">
        <ele>81</ele>
        <time>2021-04-15T09:50:36.000Z</time>
      </trkpt>
      <trkpt lat="47.17763" lon="-1.65381">
        <ele>81</ele>
        <time>2021-04-15T09:50:38.000Z</time>
      </trkpt>
      <trkpt lat="47.17772" lon="-1.65369">
        <ele>81</ele>
        <time>2021-04-15T09:50:40.000Z</time>
      </trkpt>
      <trkpt lat="47.17781" lon="-1.65356">
        <ele>81</ele>
        <time>2021-04-15T09:50:42.000Z</time>
      </trkpt>
      <trkpt lat="47.17789" lon="-1.65344">
        <ele>81</ele>
        <time>2021-04-15T09:50:44.000Z</time>
      </trkpt>
      <trkpt lat="47.17798" lon="-1.65331">
        <ele>81</ele>
        <time>2021-04-15T09:50:46.000Z</time>
      </trkpt>
      <trkpt lat="47.17807" lon="-1.65318">
        <ele>80</ele>
        <time>2021-04-15T09:50:48.000Z</time>
      </trkpt>
      <trkpt lat="47.17816" lon="-1.65306">
        <ele>81</ele>
        <time>2021-04-15T09:50:50.000Z</time>
      </trkpt>
      <trkpt lat="47.17826" lon="-1.65295">
        <ele>80</ele>
        <time>2021-04-15T09:50:52.000Z</time>
      </trkpt>
      <trkpt lat="47.17834" lon="-1.65282">
        <ele>80</ele>
        <time>2021-04-15T09:50:54.000Z</time>
      </trkpt>
      <trkpt lat="47.17842" lon="-1.6527">
        <ele>80</ele>
        <time>2021-04-15T09:50:56.000Z</time>
      </trkpt>
      <trkpt lat="47.17849" lon="-1.65258">
        <ele>80</ele>
        <time>2021-04-15T09:50:58.000Z</time>
      </trkpt>
      <trkpt lat="47.17856" lon="-1.6525">
        <ele>80</ele>
        <time>2021-04-15T09:51:00.000Z</time>
      </trkpt>
      <trkpt lat="47.17867" lon="-1.65254">
        <ele>79</ele>
        <time>2021-04-15T09:51:15.000Z</time>
      </trkpt>
      <trkpt lat="47.17869" lon="-1.65269">
        <ele>80</ele>
        <time>2021-04-15T09:51:17.000Z</time>
      </trkpt>
      <trkpt lat="47.17871" lon="-1.65287">
        <ele>80</ele>
        <time>2021-04-15T09:51:19.000Z</time>
      </trkpt>
      <trkpt lat="47.17873" lon="-1.65306">
        <ele>80</ele>
        <time>2021-04-15T09:51:21.000Z</time>
      </trkpt>
      <trkpt lat="47.17879" lon="-1.65327">
        <ele>81</ele>
        <time>2021-04-15T09:51:23.000Z</time>
      </trkpt>
      <trkpt lat="47.17885" lon="-1.65346">
        <ele>81</ele>
        <time>2021-04-15T09:51:25.000Z</time>
      </trkpt>
      <trkpt lat="47.17891" lon="-1.65365">
        <ele>82</ele>
        <time>2021-04-15T09:51:27.000Z</time>
      </trkpt>
      <trkpt lat="47.17897" lon="-1.65385">
        <ele>82</ele>
        <time>2021-04-15T09:51:29.000Z</time>
      </trkpt>
      <trkpt lat="47.17904" lon="-1.65404">
        <ele>83</ele>
        <time>2021-04-15T09:51:31.000Z</time>
      </trkpt>
      <trkpt lat="47.1791" lon="-1.65423">
        <ele>83</ele>
        <time>2021-04-15T09:51:33.000Z</time>
      </trkpt>
      <trkpt lat="47.17916" lon="-1.65442">
        <ele>84</ele>
        <time>2021-04-15T09:51:35.000Z</time>
      </trkpt>
      <trkpt lat="47.17921" lon="-1.65462">
        <ele>84</ele>
        <time>2021-04-15T09:51:37.000Z</time>
      </trkpt>
      <trkpt lat="47.17927" lon="-1.65481">
        <ele>84</ele>
        <time>2021-04-15T09:51:39.000Z</time>
      </trkpt>
      <trkpt lat="47.17933" lon="-1.65501">
        <ele>84</ele>
        <time>2021-04-15T09:51:41.000Z</time>
      </trkpt>
      <trkpt lat="47.1794" lon="-1.6552">
        <ele>85</ele>
        <time>2021-04-15T09:51:43.000Z</time>
      </trkpt>
      <trkpt lat="47.17948" lon="-1.65538">
        <ele>85</ele>
        <time>2021-04-15T09:51:45.000Z</time>
      </trkpt>
      <trkpt lat="47.17953" lon="-1.6556">
        <ele>85</ele>
        <time>2021-04-15T09:51:47.000Z</time>
      </trkpt>
      <trkpt lat="47.17957" lon="-1.6558">
        <ele>85</ele>
        <time>2021-04-15T09:51:49.000Z</time>
      </trkpt>
      <trkpt lat="47.17964" lon="-1.65599">
        <ele>85</ele>
        <time>2021-04-15T09:51:51.000Z</time>
      </trkpt>
      <trkpt lat="47.17969" lon="-1.65617">
        <ele>86</ele>
        <time>2021-04-15T09:51:53.000Z</time>
      </trkpt>
      <trkpt lat="47.17975" lon="-1.65636">
        <ele>86</ele>
        <time>2021-04-15T09:51:55.000Z</time>
      </trkpt>
      <trkpt lat="47.17981" lon="-1.65654">
        <ele>86</ele>
        <time>2021-04-15T09:51:57.000Z</time>
      </trkpt>
      <trkpt lat="47.17986" lon="-1.65673">
        <ele>86</ele>
        <time>2021-04-15T09:51:59.000Z</time>
      </trkpt>
      <trkpt lat="47.17992" lon="-1.65691">
        <ele>87</ele>
        <time>2021-04-15T09:52:01.000Z</time>
      </trkpt>
      <trkpt lat="47.17998" lon="-1.6571">
        <ele>87</ele>
        <time>2021-04-15T09:52:03.000Z</time>
      </trkpt>
      <trkpt lat="47.18004" lon="-1.65729">
        <ele>87</ele>
        <time>2021-04-15T09:52:05.000Z</time>
      </trkpt>
      <trkpt lat="47.18009" lon="-1.65747">
        <ele>87</ele>
        <time>2021-04-15T09:52:07.000Z</time>
      </trkpt>
      <trkpt lat="47.18014" lon="-1.65768">
        <ele>88</ele>
        <time>2021-04-15T09:52:09.000Z</time>
      </trkpt>
      <trkpt lat="47.1802" lon="-1.65787">
        <ele>88</ele>
        <time>2021-04-15T09:52:11.000Z</time>
      </trkpt>
      <trkpt lat="47.18026" lon="-1.65806">
        <ele>88</ele>
        <time>2021-04-15T09:52:13.000Z</time>
      </trkpt>
      <trkpt lat="47.18032" lon="-1.65824">
        <ele>88</ele>
        <time>2021-04-15T09:52:15.000Z</time>
      </trkpt>
      <trkpt lat="47.18039" lon="-1.65841">
        <ele>89</ele>
        <time>2021-04-15T09:52:17.000Z</time>
      </trkpt>
      <trkpt lat="47.18047" lon="-1.65858">
        <ele>89</ele>
        <time>2021-04-15T09:52:19.000Z</time>
      </trkpt>
      <trkpt lat="47.18055" lon="-1.65876">
        <ele>88</ele>
        <time>2021-04-15T09:52:21.000Z</time>
      </trkpt>
      <trkpt lat="47.18064" lon="-1.65892">
        <ele>89</ele>
        <time>2021-04-15T09:52:23.000Z</time>
      </trkpt>
      <trkpt lat="47.18073" lon="-1.65907">
        <ele>89</ele>
        <time>2021-04-15T09:52:25.000Z</time>
      </trkpt>
      <trkpt lat="47.18083" lon="-1.65922">
        <ele>89</ele>
        <time>2021-04-15T09:52:27.000Z</time>
      </trkpt>
      <trkpt lat="47.18093" lon="-1.65937">
        <ele>89</ele>
        <time>2021-04-15T09:52:29.000Z</time>
      </trkpt>
      <trkpt lat="47.18103" lon="-1.65952">
        <ele>89</ele>
        <time>2021-04-15T09:52:31.000Z</time>
      </trkpt>
      <trkpt lat="47.18113" lon="-1.65967">
        <ele>89</ele>
        <time>2021-04-15T09:52:33.000Z</time>
      </trkpt>
      <trkpt lat="47.18122" lon="-1.65981">
        <ele>89</ele>
        <time>2021-04-15T09:52:35.000Z</time>
      </trkpt>
      <trkpt lat="47.1813" lon="-1.65996">
        <ele>89</ele>
        <time>2021-04-15T09:52:37.000Z</time>
      </trkpt>
      <trkpt lat="47.18139" lon="-1.6601">
        <ele>89</ele>
        <time>2021-04-15T09:52:39.000Z</time>
      </trkpt>
      <trkpt lat="47.18149" lon="-1.66023">
        <ele>89</ele>
        <time>2021-04-15T09:52:41.000Z</time>
      </trkpt>
      <trkpt lat="47.18159" lon="-1.66037">
        <ele>89</ele>
        <time>2021-04-15T09:52:43.000Z</time>
      </trkpt>
      <trkpt lat="47.18168" lon="-1.66051">
        <ele>88</ele>
        <time>2021-04-15T09:52:45.000Z</time>
      </trkpt>
      <trkpt lat="47.18177" lon="-1.66066">
        <ele>88</ele>
        <time>2021-04-15T09:52:47.000Z</time>
      </trkpt>
      <trkpt lat="47.18186" lon="-1.6608">
        <ele>87</ele>
        <time>2021-04-15T09:52:49.000Z</time>
      </trkpt>
      <trkpt lat="47.18196" lon="-1.66095">
        <ele>87</ele>
        <time>2021-04-15T09:52:51.000Z</time>
      </trkpt>
      <trkpt lat="47.18205" lon="-1.66109">
        <ele>87</ele>
        <time>2021-04-15T09:52:53.000Z</time>
      </trkpt>
      <trkpt lat="47.18214" lon="-1.66124">
        <ele>86</ele>
        <time>2021-04-15T09:52:55.000Z</time>
      </trkpt>
      <trkpt lat="47.18224" lon="-1.6614">
        <ele>86</ele>
        <time>2021-04-15T09:52:57.000Z</time>
      </trkpt>
      <trkpt lat="47.18234" lon="-1.66155">
        <ele>86</ele>
        <time>2021-04-15T09:52:59.000Z</time>
      </trkpt>
      <trkpt lat="47.18245" lon="-1.66171">
        <ele>86</ele>
        <time>2021-04-15T09:53:01.000Z</time>
      </trkpt>
      <trkpt lat="47.18255" lon="-1.66187">
        <ele>85</ele>
        <time>2021-04-15T09:53:03.000Z</time>
      </trkpt>
      <trkpt lat="47.18264" lon="-1.66204">
        <ele>85</ele>
        <time>2021-04-15T09:53:05.000Z</time>
      </trkpt>
      <trkpt lat="47.18273" lon="-1.66222">
        <ele>85</ele>
        <time>2021-04-15T09:53:07.000Z</time>
      </trkpt>
      <trkpt lat="47.18281" lon="-1.66239">
        <ele>85</ele>
        <time>2021-04-15T09:53:09.000Z</time>
      </trkpt>
      <trkpt lat="47.1829" lon="-1.66256">
        <ele>85</ele>
        <time>2021-04-15T09:53:11.000Z</time>
      </trkpt>
      <trkpt lat="47.18298" lon="-1.66274">
        <ele>85</ele>
        <time>2021-04-15T09:53:13.000Z</time>
      </trkpt>
      <trkpt lat="47.18307" lon="-1.66292">
        <ele>85</ele>
        <time>2021-04-15T09:53:15.000Z</time>
      </trkpt>
      <trkpt lat="47.18315" lon="-1.66309">
        <ele>85</ele>
        <time>2021-04-15T09:53:17.000Z</time>
      </trkpt>
      <trkpt lat="47.18323" lon="-1.66326">
        <ele>85</ele>
        <time>2021-04-15T09:53:19.000Z</time>
      </trkpt>
      <trkpt lat="47.18331" lon="-1.66342">
        <ele>85</ele>
        <time>2021-04-15T09:53:21.000Z</time>
      </trkpt>
      <trkpt lat="47.18339" lon="-1.66358">
        <ele>85</ele>
        <time>2021-04-15T09:53:23.000Z</time>
      </trkpt>
      <trkpt lat="47.18347" lon="-1.66374">
        <ele>85</ele>
        <time>2021-04-15T09:53:25.000Z</time>
      </trkpt>
      <trkpt lat="47.18355" lon="-1.6639">
        <ele>85</ele>
        <time>2021-04-15T09:53:27.000Z</time>
      </trkpt>
      <trkpt lat="47.18363" lon="-1.66405">
        <ele>85</ele>
        <time>2021-04-15T09:53:29.000Z</time>
      </trkpt>
      <trkpt lat="47.1837" lon="-1.66421">
        <ele>85</ele>
        <time>2021-04-15T09:53:31.000Z</time>
      </trkpt>
      <trkpt lat="47.18377" lon="-1.66438">
        <ele>84</ele>
        <time>2021-04-15T09:53:33.000Z</time>
      </trkpt>
      <trkpt lat="47.18382" lon="-1.66457">
        <ele>84</ele>
        <time>2021-04-15T09:53:35.000Z</time>
      </trkpt>
      <trkpt lat="47.18386" lon="-1.66477">
        <ele>84</ele>
        <time>2021-04-15T09:53:37.000Z</time>
      </trkpt>
      <trkpt lat="47.18388" lon="-1.66496">
        <ele>85</ele>
        <time>2021-04-15T09:53:39.000Z</time>
      </trkpt>
      <trkpt lat="47.18389" lon="-1.66516">
        <ele>85</ele>
        <time>2021-04-15T09:53:41.000Z</time>
      </trkpt>
      <trkpt lat="47.18391" lon="-1.66536">
        <ele>85</ele>
        <time>2021-04-15T09:53:43.000Z</time>
      </trkpt>
      <trkpt lat="47.18393" lon="-1.66556">
        <ele>85</ele>
        <time>2021-04-15T09:53:45.000Z</time>
      </trkpt>
      <trkpt lat="47.18394" lon="-1.66576">
        <ele>86</ele>
        <time>2021-04-15T09:53:47.000Z</time>
      </trkpt>
      <trkpt lat="47.18396" lon="-1.66595">
        <ele>86</ele>
        <time>2021-04-15T09:53:49.000Z</time>
      </trkpt>
      <trkpt lat="47.18398" lon="-1.66614">
        <ele>87</ele>
        <time>2021-04-15T09:53:51.000Z</time>
      </trkpt>
      <trkpt lat="47.184" lon="-1.66633">
        <ele>87</ele>
        <time>2021-04-15T09:53:53.000Z</time>
      </trkpt>
      <trkpt lat="47.18402" lon="-1.66653">
        <ele>87</ele>
        <time>2021-04-15T09:53:55.000Z</time>
      </trkpt>
      <trkpt lat="47.18406" lon="-1.66672">
        <ele>87</ele>
        <time>2021-04-15T09:53:57.000Z</time>
      </trkpt>
      <trkpt lat="47.18409" lon="-1.66693">
        <ele>86</ele>
        <time>2021-04-15T09:53:59.000Z</time>
      </trkpt>
      <trkpt lat="47.18413" lon="-1.66713">
        <ele>86</ele>
        <time>2021-04-15T09:54:01.000Z</time>
      </trkpt>
      <trkpt lat="47.18416" lon="-1.66734">
        <ele>86</ele>
        <time>2021-04-15T09:54:03.000Z</time>
      </trkpt>
      <trkpt lat="47.18421" lon="-1.66758">
        <ele>85</ele>
        <time>2021-04-15T09:54:05.000Z</time>
      </trkpt>
      <trkpt lat="47.18425" lon="-1.66782">
        <ele>85</ele>
        <time>2021-04-15T09:54:07.000Z</time>
      </trkpt>
      <trkpt lat="47.18429" lon="-1.66805">
        <ele>84</ele>
        <time>2021-04-15T09:54:09.000Z</time>
      </trkpt>
      <trkpt lat="47.18433" lon="-1.66829">
        <ele>83</ele>
        <time>2021-04-15T09:54:11.000Z</time>
      </trkpt>
      <trkpt lat="47.18438" lon="-1.66852">
        <ele>82</ele>
        <time>2021-04-15T09:54:13.000Z</time>
      </trkpt>
      <trkpt lat="47.18442" lon="-1.66876">
        <ele>81</ele>
        <time>2021-04-15T09:54:15.000Z</time>
      </trkpt>
      <trkpt lat="47.18445" lon="-1.669">
        <ele>80</ele>
        <time>2021-04-15T09:54:17.000Z</time>
      </trkpt>
      <trkpt lat="47.18448" lon="-1.66925">
        <ele>80</ele>
        <time>2021-04-15T09:54:19.000Z</time>
      </trkpt>
      <trkpt lat="47.1845" lon="-1.66943">
        <ele>80</ele>
        <time>2021-04-15T09:54:21.000Z</time>
      </trkpt>
      <trkpt lat="47.18454" lon="-1.66956">
        <ele>79</ele>
        <time>2021-04-15T09:54:23.000Z</time>
      </trkpt>
      <trkpt lat="47.18457" lon="-1.66972">
        <ele>79</ele>
        <time>2021-04-15T09:54:25.000Z</time>
      </trkpt>
      <trkpt lat="47.18459" lon="-1.66991">
        <ele>80</ele>
        <time>2021-04-15T09:54:27.000Z</time>
      </trkpt>
      <trkpt lat="47.18463" lon="-1.67011">
        <ele>80</ele>
        <time>2021-04-15T09:54:29.000Z</time>
      </trkpt>
      <trkpt lat="47.18467" lon="-1.67031">
        <ele>80</ele>
        <time>2021-04-15T09:54:31.000Z</time>
      </trkpt>
      <trkpt lat="47.18471" lon="-1.67052">
        <ele>81</ele>
        <time>2021-04-15T09:54:33.000Z</time>
      </trkpt>
      <trkpt lat="47.18475" lon="-1.67073">
        <ele>81</ele>
        <time>2021-04-15T09:54:35.000Z</time>
      </trkpt>
      <trkpt lat="47.18479" lon="-1.67093">
        <ele>81</ele>
        <time>2021-04-15T09:54:37.000Z</time>
      </trkpt>
      <trkpt lat="47.18483" lon="-1.67113">
        <ele>81</ele>
        <time>2021-04-15T09:54:39.000Z</time>
      </trkpt>
      <trkpt lat="47.18487" lon="-1.67132">
        <ele>80</ele>
        <time>2021-04-15T09:54:41.000Z</time>
      </trkpt>
      <trkpt lat="47.1849" lon="-1.67152">
        <ele>81</ele>
        <time>2021-04-15T09:54:43.000Z</time>
      </trkpt>
      <trkpt lat="47.18494" lon="-1.67171">
        <ele>81</ele>
        <time>2021-04-15T09:54:45.000Z</time>
      </trkpt>
      <trkpt lat="47.18497" lon="-1.6719">
        <ele>81</ele>
        <time>2021-04-15T09:54:47.000Z</time>
      </trkpt>
      <trkpt lat="47.18502" lon="-1.67208">
        <ele>81</ele>
        <time>2021-04-15T09:54:49.000Z</time>
      </trkpt>
      <trkpt lat="47.18504" lon="-1.67227">
        <ele>82</ele>
        <time>2021-04-15T09:54:51.000Z</time>
      </trkpt>
      <trkpt lat="47.18506" lon="-1.67247">
        <ele>83</ele>
        <time>2021-04-15T09:54:53.000Z</time>
      </trkpt>
      <trkpt lat="47.18509" lon="-1.67268">
        <ele>84</ele>
        <time>2021-04-15T09:54:55.000Z</time>
      </trkpt>
      <trkpt lat="47.18511" lon="-1.67287">
        <ele>84</ele>
        <time>2021-04-15T09:54:57.000Z</time>
      </trkpt>
      <trkpt lat="47.18514" lon="-1.67306">
        <ele>84</ele>
        <time>2021-04-15T09:54:59.000Z</time>
      </trkpt>
      <trkpt lat="47.18517" lon="-1.67324">
        <ele>85</ele>
        <time>2021-04-15T09:55:01.000Z</time>
      </trkpt>
      <trkpt lat="47.1852" lon="-1.67343">
        <ele>85</ele>
        <time>2021-04-15T09:55:03.000Z</time>
      </trkpt>
      <trkpt lat="47.18523" lon="-1.67361">
        <ele>85</ele>
        <time>2021-04-15T09:55:05.000Z</time>
      </trkpt>
      <trkpt lat="47.18526" lon="-1.6738">
        <ele>85</ele>
        <time>2021-04-15T09:55:07.000Z</time>
      </trkpt>
      <trkpt lat="47.18531" lon="-1.67397">
        <ele>85</ele>
        <time>2021-04-15T09:55:09.000Z</time>
      </trkpt>
      <trkpt lat="47.18535" lon="-1.67415">
        <ele>86</ele>
        <time>2021-04-15T09:55:11.000Z</time>
      </trkpt>
      <trkpt lat="47.18539" lon="-1.67433">
        <ele>86</ele>
        <time>2021-04-15T09:55:13.000Z</time>
      </trkpt>
      <trkpt lat="47.18545" lon="-1.67444">
        <ele>86</ele>
        <time>2021-04-15T09:55:15.000Z</time>
      </trkpt>
      <trkpt lat="47.18557" lon="-1.67441">
        <ele>86</ele>
        <time>2021-04-15T09:55:17.000Z</time>
      </trkpt>
      <trkpt lat="47.18567" lon="-1.67434">
        <ele>85</ele>
        <time>2021-04-15T09:55:19.000Z</time>
      </trkpt>
      <trkpt lat="47.18579" lon="-1.67429">
        <ele>85</ele>
        <time>2021-04-15T09:55:21.000Z</time>
      </trkpt>
      <trkpt lat="47.18591" lon="-1.67433">
        <ele>85</ele>
        <time>2021-04-15T09:55:23.000Z</time>
      </trkpt>
      <trkpt lat="47.18601" lon="-1.67448">
        <ele>84</ele>
        <time>2021-04-15T09:55:25.000Z</time>
      </trkpt>
      <trkpt lat="47.18608" lon="-1.67465">
        <ele>84</ele>
        <time>2021-04-15T09:55:27.000Z</time>
      </trkpt>
      <trkpt lat="47.18613" lon="-1.67482">
        <ele>84</ele>
        <time>2021-04-15T09:55:29.000Z</time>
      </trkpt>
      <trkpt lat="47.1862" lon="-1.675">
        <ele>84</ele>
        <time>2021-04-15T09:55:31.000Z</time>
      </trkpt>
      <trkpt lat="47.18627" lon="-1.67519">
        <ele>84</ele>
        <time>2021-04-15T09:55:33.000Z</time>
      </trkpt>
      <trkpt lat="47.18636" lon="-1.67535">
        <ele>85</ele>
        <time>2021-04-15T09:55:35.000Z</time>
      </trkpt>
      <trkpt lat="47.18646" lon="-1.67548">
        <ele>85</ele>
        <time>2021-04-15T09:55:37.000Z</time>
      </trkpt>
      <trkpt lat="47.18656" lon="-1.67563">
        <ele>85</ele>
        <time>2021-04-15T09:55:39.000Z</time>
      </trkpt>
      <trkpt lat="47.18666" lon="-1.67577">
        <ele>85</ele>
        <time>2021-04-15T09:55:41.000Z</time>
      </trkpt>
      <trkpt lat="47.18677" lon="-1.67591">
        <ele>86</ele>
        <time>2021-04-15T09:55:43.000Z</time>
      </trkpt>
      <trkpt lat="47.18687" lon="-1.67604">
        <ele>85</ele>
        <time>2021-04-15T09:55:45.000Z</time>
      </trkpt>
      <trkpt lat="47.18699" lon="-1.67615">
        <ele>85</ele>
        <time>2021-04-15T09:55:47.000Z</time>
      </trkpt>
      <trkpt lat="47.18712" lon="-1.67617">
        <ele>85</ele>
        <time>2021-04-15T09:55:49.000Z</time>
      </trkpt>
      <trkpt lat="47.18725" lon="-1.67614">
        <ele>85</ele>
        <time>2021-04-15T09:55:51.000Z</time>
      </trkpt>
      <trkpt lat="47.18737" lon="-1.67608">
        <ele>85</ele>
        <time>2021-04-15T09:55:53.000Z</time>
      </trkpt>
      <trkpt lat="47.18747" lon="-1.67604">
        <ele>86</ele>
        <time>2021-04-15T09:55:55.000Z</time>
      </trkpt>
      <trkpt lat="47.18757" lon="-1.67619">
        <ele>86</ele>
        <time>2021-04-15T09:55:58.000Z</time>
      </trkpt>
      <trkpt lat="47.18762" lon="-1.67637">
        <ele>86</ele>
        <time>2021-04-15T09:56:00.000Z</time>
      </trkpt>
      <trkpt lat="47.18769" lon="-1.67653">
        <ele>86</ele>
        <time>2021-04-15T09:56:02.000Z</time>
      </trkpt>
      <trkpt lat="47.18778" lon="-1.67666">
        <ele>86</ele>
        <time>2021-04-15T09:56:04.000Z</time>
      </trkpt>
      <trkpt lat="47.18787" lon="-1.6768">
        <ele>86</ele>
        <time>2021-04-15T09:56:06.000Z</time>
      </trkpt>
      <trkpt lat="47.18795" lon="-1.67695">
        <ele>86</ele>
        <time>2021-04-15T09:56:08.000Z</time>
      </trkpt>
      <trkpt lat="47.18801" lon="-1.67713">
        <ele>86</ele>
        <time>2021-04-15T09:56:10.000Z</time>
      </trkpt>
      <trkpt lat="47.18807" lon="-1.6773">
        <ele>86</ele>
        <time>2021-04-15T09:56:12.000Z</time>
      </trkpt>
      <trkpt lat="47.18814" lon="-1.67747">
        <ele>86</ele>
        <time>2021-04-15T09:56:14.000Z</time>
      </trkpt>
      <trkpt lat="47.18822" lon="-1.67765">
        <ele>86</ele>
        <time>2021-04-15T09:56:16.000Z</time>
      </trkpt>
      <trkpt lat="47.1883" lon="-1.67784">
        <ele>85</ele>
        <time>2021-04-15T09:56:18.000Z</time>
      </trkpt>
      <trkpt lat="47.18838" lon="-1.67803">
        <ele>84</ele>
        <time>2021-04-15T09:56:20.000Z</time>
      </trkpt>
      <trkpt lat="47.18845" lon="-1.67824">
        <ele>83</ele>
        <time>2021-04-15T09:56:22.000Z</time>
      </trkpt>
      <trkpt lat="47.18852" lon="-1.67844">
        <ele>83</ele>
        <time>2021-04-15T09:56:24.000Z</time>
      </trkpt>
      <trkpt lat="47.1886" lon="-1.67865">
        <ele>82</ele>
        <time>2021-04-15T09:56:26.000Z</time>
      </trkpt>
      <trkpt lat="47.1887" lon="-1.67884">
        <ele>82</ele>
        <time>2021-04-15T09:56:28.000Z</time>
      </trkpt>
      <trkpt lat="47.18884" lon="-1.67897">
        <ele>81</ele>
        <time>2021-04-15T09:56:30.000Z</time>
      </trkpt>
      <trkpt lat="47.18901" lon="-1.67901">
        <ele>81</ele>
        <time>2021-04-15T09:56:32.000Z</time>
      </trkpt>
      <trkpt lat="47.18916" lon="-1.67907">
        <ele>81</ele>
        <time>2021-04-15T09:56:34.000Z</time>
      </trkpt>
      <trkpt lat="47.18927" lon="-1.67921">
        <ele>80</ele>
        <time>2021-04-15T09:56:36.000Z</time>
      </trkpt>
      <trkpt lat="47.18935" lon="-1.67939">
        <ele>80</ele>
        <time>2021-04-15T09:56:38.000Z</time>
      </trkpt>
      <trkpt lat="47.18943" lon="-1.67956">
        <ele>81</ele>
        <time>2021-04-15T09:56:40.000Z</time>
      </trkpt>
      <trkpt lat="47.18952" lon="-1.67972">
        <ele>82</ele>
        <time>2021-04-15T09:56:42.000Z</time>
      </trkpt>
      <trkpt lat="47.18961" lon="-1.67988">
        <ele>82</ele>
        <time>2021-04-15T09:56:44.000Z</time>
      </trkpt>
      <trkpt lat="47.1897" lon="-1.68003">
        <ele>81</ele>
        <time>2021-04-15T09:56:46.000Z</time>
      </trkpt>
      <trkpt lat="47.1898" lon="-1.68018">
        <ele>81</ele>
        <time>2021-04-15T09:56:48.000Z</time>
      </trkpt>
      <trkpt lat="47.18989" lon="-1.68033">
        <ele>81</ele>
        <time>2021-04-15T09:56:50.000Z</time>
      </trkpt>
      <trkpt lat="47.18999" lon="-1.68048">
        <ele>81</ele>
        <time>2021-04-15T09:56:52.000Z</time>
      </trkpt>
      <trkpt lat="47.19008" lon="-1.68063">
        <ele>81</ele>
        <time>2021-04-15T09:56:54.000Z</time>
      </trkpt>
      <trkpt lat="47.19018" lon="-1.68078">
        <ele>81</ele>
        <time>2021-04-15T09:56:56.000Z</time>
      </trkpt>
      <trkpt lat="47.19027" lon="-1.68094">
        <ele>81</ele>
        <time>2021-04-15T09:56:58.000Z</time>
      </trkpt>
      <trkpt lat="47.19036" lon="-1.68109">
        <ele>81</ele>
        <time>2021-04-15T09:57:00.000Z</time>
      </trkpt>
      <trkpt lat="47.19045" lon="-1.68124">
        <ele>82</ele>
        <time>2021-04-15T09:57:02.000Z</time>
      </trkpt>
      <trkpt lat="47.19053" lon="-1.6814">
        <ele>82</ele>
        <time>2021-04-15T09:57:04.000Z</time>
      </trkpt>
      <trkpt lat="47.1906" lon="-1.68158">
        <ele>83</ele>
        <time>2021-04-15T09:57:06.000Z</time>
      </trkpt>
      <trkpt lat="47.19067" lon="-1.68176">
        <ele>83</ele>
        <time>2021-04-15T09:57:08.000Z</time>
      </trkpt>
      <trkpt lat="47.19073" lon="-1.68196">
        <ele>83</ele>
        <time>2021-04-15T09:57:10.000Z</time>
      </trkpt>
      <trkpt lat="47.19077" lon="-1.68215">
        <ele>83</ele>
        <time>2021-04-15T09:57:12.000Z</time>
      </trkpt>
      <trkpt lat="47.19083" lon="-1.68233">
        <ele>83</ele>
        <time>2021-04-15T09:57:14.000Z</time>
      </trkpt>
      <trkpt lat="47.19089" lon="-1.6825">
        <ele>83</ele>
        <time>2021-04-15T09:57:16.000Z</time>
      </trkpt>
      <trkpt lat="47.19095" lon="-1.68269">
        <ele>82</ele>
        <time>2021-04-15T09:57:18.000Z</time>
      </trkpt>
      <trkpt lat="47.19101" lon="-1.68286">
        <ele>82</ele>
        <time>2021-04-15T09:57:20.000Z</time>
      </trkpt>
      <trkpt lat="47.19105" lon="-1.68304">
        <ele>82</ele>
        <time>2021-04-15T09:57:22.000Z</time>
      </trkpt>
      <trkpt lat="47.19106" lon="-1.68324">
        <ele>82</ele>
        <time>2021-04-15T09:57:24.000Z</time>
      </trkpt>
      <trkpt lat="47.19108" lon="-1.68344">
        <ele>83</ele>
        <time>2021-04-15T09:57:26.000Z</time>
      </trkpt>
      <trkpt lat="47.19109" lon="-1.68363">
        <ele>83</ele>
        <time>2021-04-15T09:57:28.000Z</time>
      </trkpt>
      <trkpt lat="47.19109" lon="-1.68382">
        <ele>82</ele>
        <time>2021-04-15T09:57:30.000Z</time>
      </trkpt>
      <trkpt lat="47.19107" lon="-1.68401">
        <ele>81</ele>
        <time>2021-04-15T09:57:32.000Z</time>
      </trkpt>
      <trkpt lat="47.19105" lon="-1.68419">
        <ele>81</ele>
        <time>2021-04-15T09:57:34.000Z</time>
      </trkpt>
      <trkpt lat="47.19107" lon="-1.68437">
        <ele>81</ele>
        <time>2021-04-15T09:57:36.000Z</time>
      </trkpt>
      <trkpt lat="47.19113" lon="-1.68455">
        <ele>80</ele>
        <time>2021-04-15T09:57:38.000Z</time>
      </trkpt>
      <trkpt lat="47.19119" lon="-1.68473">
        <ele>80</ele>
        <time>2021-04-15T09:57:40.000Z</time>
      </trkpt>
      <trkpt lat="47.19125" lon="-1.68491">
        <ele>80</ele>
        <time>2021-04-15T09:57:42.000Z</time>
      </trkpt>
      <trkpt lat="47.19132" lon="-1.6851">
        <ele>79</ele>
        <time>2021-04-15T09:57:44.000Z</time>
      </trkpt>
      <trkpt lat="47.19138" lon="-1.68529">
        <ele>79</ele>
        <time>2021-04-15T09:57:46.000Z</time>
      </trkpt>
      <trkpt lat="47.19144" lon="-1.68548">
        <ele>79</ele>
        <time>2021-04-15T09:57:48.000Z</time>
      </trkpt>
      <trkpt lat="47.19151" lon="-1.68566">
        <ele>79</ele>
        <time>2021-04-15T09:57:50.000Z</time>
      </trkpt>
      <trkpt lat="47.19157" lon="-1.68585">
        <ele>79</ele>
        <time>2021-04-15T09:57:52.000Z</time>
      </trkpt>
      <trkpt lat="47.19163" lon="-1.68605">
        <ele>79</ele>
        <time>2021-04-15T09:57:54.000Z</time>
      </trkpt>
      <trkpt lat="47.19168" lon="-1.68625">
        <ele>78</ele>
        <time>2021-04-15T09:57:56.000Z</time>
      </trkpt>
      <trkpt lat="47.19173" lon="-1.68643">
        <ele>78</ele>
        <time>2021-04-15T09:57:58.000Z</time>
      </trkpt>
      <trkpt lat="47.1917" lon="-1.68658">
        <ele>79</ele>
        <time>2021-04-15T09:58:00.000Z</time>
      </trkpt>
      <trkpt lat="47.1916" lon="-1.68666">
        <ele>81</ele>
        <time>2021-04-15T09:58:02.000Z</time>
      </trkpt>
      <trkpt lat="47.19161" lon="-1.68681">
        <ele>80</ele>
        <time>2021-04-15T09:58:04.000Z</time>
      </trkpt>
      <trkpt lat="47.19169" lon="-1.6869">
        <ele>79</ele>
        <time>2021-04-15T09:58:06.000Z</time>
      </trkpt>
      <trkpt lat="47.19181" lon="-1.68682">
        <ele>78</ele>
        <time>2021-04-15T09:58:08.000Z</time>
      </trkpt>
      <trkpt lat="47.19196" lon="-1.68693">
        <ele>77</ele>
        <time>2021-04-15T09:58:10.000Z</time>
      </trkpt>
      <trkpt lat="47.19202" lon="-1.68703">
        <ele>76</ele>
        <time>2021-04-15T09:58:11.000Z</time>
      </trkpt>
      <trkpt lat="47.19214" lon="-1.68716">
        <ele>75</ele>
        <time>2021-04-15T09:58:13.000Z</time>
      </trkpt>
      <trkpt lat="47.19225" lon="-1.68721">
        <ele>74</ele>
        <time>2021-04-15T09:58:15.000Z</time>
      </trkpt>
      <trkpt lat="47.19233" lon="-1.68737">
        <ele>74</ele>
        <time>2021-04-15T09:58:17.000Z</time>
      </trkpt>
      <trkpt lat="47.19236" lon="-1.68756">
        <ele>74</ele>
        <time>2021-04-15T09:58:19.000Z</time>
      </trkpt>
      <trkpt lat="47.1924" lon="-1.68774">
        <ele>74</ele>
        <time>2021-04-15T09:58:21.000Z</time>
      </trkpt>
      <trkpt lat="47.19243" lon="-1.68793">
        <ele>74</ele>
        <time>2021-04-15T09:58:23.000Z</time>
      </trkpt>
      <trkpt lat="47.19244" lon="-1.68812">
        <ele>75</ele>
        <time>2021-04-15T09:58:25.000Z</time>
      </trkpt>
      <trkpt lat="47.19243" lon="-1.68831">
        <ele>76</ele>
        <time>2021-04-15T09:58:27.000Z</time>
      </trkpt>
      <trkpt lat="47.19249" lon="-1.68842">
        <ele>77</ele>
        <time>2021-04-15T09:58:29.000Z</time>
      </trkpt>
      <trkpt lat="47.19259" lon="-1.68856">
        <ele>77</ele>
        <time>2021-04-15T09:58:31.000Z</time>
      </trkpt>
      <trkpt lat="47.19269" lon="-1.68874">
        <ele>76</ele>
        <time>2021-04-15T09:58:33.000Z</time>
      </trkpt>
      <trkpt lat="47.19278" lon="-1.68892">
        <ele>77</ele>
        <time>2021-04-15T09:58:35.000Z</time>
      </trkpt>
      <trkpt lat="47.19287" lon="-1.6891">
        <ele>77</ele>
        <time>2021-04-15T09:58:37.000Z</time>
      </trkpt>
      <trkpt lat="47.19296" lon="-1.68928">
        <ele>77</ele>
        <time>2021-04-15T09:58:39.000Z</time>
      </trkpt>
      <trkpt lat="47.19304" lon="-1.68945">
        <ele>77</ele>
        <time>2021-04-15T09:58:41.000Z</time>
      </trkpt>
      <trkpt lat="47.19313" lon="-1.68962">
        <ele>78</ele>
        <time>2021-04-15T09:58:43.000Z</time>
      </trkpt>
      <trkpt lat="47.19326" lon="-1.68988">
        <ele>78</ele>
        <time>2021-04-15T09:58:46.000Z</time>
      </trkpt>
      <trkpt lat="47.19334" lon="-1.69005">
        <ele>78</ele>
        <time>2021-04-15T09:58:48.000Z</time>
      </trkpt>
      <trkpt lat="47.19344" lon="-1.69021">
        <ele>78</ele>
        <time>2021-04-15T09:58:50.000Z</time>
      </trkpt>
      <trkpt lat="47.19356" lon="-1.69044">
        <ele>76</ele>
        <time>2021-04-15T09:58:53.000Z</time>
      </trkpt>
      <trkpt lat="47.19361" lon="-1.69064">
        <ele>74</ele>
        <time>2021-04-15T09:58:55.000Z</time>
      </trkpt>
      <trkpt lat="47.19367" lon="-1.69086">
        <ele>74</ele>
        <time>2021-04-15T09:58:57.000Z</time>
      </trkpt>
      <trkpt lat="47.19374" lon="-1.6911">
        <ele>72</ele>
        <time>2021-04-15T09:58:59.000Z</time>
      </trkpt>
      <trkpt lat="47.19378" lon="-1.69122">
        <ele>72</ele>
        <time>2021-04-15T09:59:00.000Z</time>
      </trkpt>
      <trkpt lat="47.19381" lon="-1.69135">
        <ele>72</ele>
        <time>2021-04-15T09:59:01.000Z</time>
      </trkpt>
      <trkpt lat="47.19385" lon="-1.69148">
        <ele>71</ele>
        <time>2021-04-15T09:59:02.000Z</time>
      </trkpt>
      <trkpt lat="47.19389" lon="-1.69161">
        <ele>70</ele>
        <time>2021-04-15T09:59:03.000Z</time>
      </trkpt>
      <trkpt lat="47.19392" lon="-1.69175">
        <ele>69</ele>
        <time>2021-04-15T09:59:04.000Z</time>
      </trkpt>
      <trkpt lat="47.19395" lon="-1.69188">
        <ele>69</ele>
        <time>2021-04-15T09:59:05.000Z</time>
      </trkpt>
      <trkpt lat="47.19399" lon="-1.69201">
        <ele>69</ele>
        <time>2021-04-15T09:59:06.000Z</time>
      </trkpt>
      <trkpt lat="47.19406" lon="-1.69225">
        <ele>69</ele>
        <time>2021-04-15T09:59:08.000Z</time>
      </trkpt>
      <trkpt lat="47.19412" lon="-1.69246">
        <ele>68</ele>
        <time>2021-04-15T09:59:10.000Z</time>
      </trkpt>
      <trkpt lat="47.19418" lon="-1.69268">
        <ele>68</ele>
        <time>2021-04-15T09:59:12.000Z</time>
      </trkpt>
      <trkpt lat="47.19422" lon="-1.6929">
        <ele>67</ele>
        <time>2021-04-15T09:59:14.000Z</time>
      </trkpt>
      <trkpt lat="47.19417" lon="-1.69312">
        <ele>67</ele>
        <time>2021-04-15T09:59:16.000Z</time>
      </trkpt>
      <trkpt lat="47.19407" lon="-1.69332">
        <ele>66</ele>
        <time>2021-04-15T09:59:18.000Z</time>
      </trkpt>
      <trkpt lat="47.19397" lon="-1.69353">
        <ele>63</ele>
        <time>2021-04-15T09:59:20.000Z</time>
      </trkpt>
      <trkpt lat="47.19392" lon="-1.69365">
        <ele>63</ele>
        <time>2021-04-15T09:59:21.000Z</time>
      </trkpt>
      <trkpt lat="47.19387" lon="-1.69376">
        <ele>62</ele>
        <time>2021-04-15T09:59:22.000Z</time>
      </trkpt>
      <trkpt lat="47.1938" lon="-1.69385">
        <ele>61</ele>
        <time>2021-04-15T09:59:23.000Z</time>
      </trkpt>
      <trkpt lat="47.19372" lon="-1.69393">
        <ele>61</ele>
        <time>2021-04-15T09:59:24.000Z</time>
      </trkpt>
      <trkpt lat="47.19354" lon="-1.69404">
        <ele>60</ele>
        <time>2021-04-15T09:59:26.000Z</time>
      </trkpt>
      <trkpt lat="47.19344" lon="-1.69408">
        <ele>59</ele>
        <time>2021-04-15T09:59:27.000Z</time>
      </trkpt>
      <trkpt lat="47.19334" lon="-1.69414">
        <ele>59</ele>
        <time>2021-04-15T09:59:28.000Z</time>
      </trkpt>
      <trkpt lat="47.19324" lon="-1.6942">
        <ele>58</ele>
        <time>2021-04-15T09:59:29.000Z</time>
      </trkpt>
      <trkpt lat="47.19306" lon="-1.69431">
        <ele>56</ele>
        <time>2021-04-15T09:59:31.000Z</time>
      </trkpt>
      <trkpt lat="47.19293" lon="-1.69442">
        <ele>55</ele>
        <time>2021-04-15T09:59:33.000Z</time>
      </trkpt>
      <trkpt lat="47.19283" lon="-1.69455">
        <ele>55</ele>
        <time>2021-04-15T09:59:35.000Z</time>
      </trkpt>
      <trkpt lat="47.19275" lon="-1.6947">
        <ele>54</ele>
        <time>2021-04-15T09:59:37.000Z</time>
      </trkpt>
      <trkpt lat="47.19269" lon="-1.69489">
        <ele>54</ele>
        <time>2021-04-15T09:59:39.000Z</time>
      </trkpt>
      <trkpt lat="47.19259" lon="-1.69507">
        <ele>55</ele>
        <time>2021-04-15T09:59:41.000Z</time>
      </trkpt>
      <trkpt lat="47.19241" lon="-1.69527">
        <ele>55</ele>
        <time>2021-04-15T09:59:44.000Z</time>
      </trkpt>
      <trkpt lat="47.19231" lon="-1.6954">
        <ele>56</ele>
        <time>2021-04-15T09:59:46.000Z</time>
      </trkpt>
      <trkpt lat="47.19221" lon="-1.69552">
        <ele>56</ele>
        <time>2021-04-15T09:59:48.000Z</time>
      </trkpt>
      <trkpt lat="47.19213" lon="-1.69567">
        <ele>55</ele>
        <time>2021-04-15T09:59:50.000Z</time>
      </trkpt>
      <trkpt lat="47.19212" lon="-1.69585">
        <ele>54</ele>
        <time>2021-04-15T09:59:52.000Z</time>
      </trkpt>
      <trkpt lat="47.19213" lon="-1.69607">
        <ele>54</ele>
        <time>2021-04-15T09:59:54.000Z</time>
      </trkpt>
      <trkpt lat="47.19212" lon="-1.69629">
        <ele>54</ele>
        <time>2021-04-15T09:59:56.000Z</time>
      </trkpt>
      <trkpt lat="47.1921" lon="-1.69651">
        <ele>53</ele>
        <time>2021-04-15T09:59:58.000Z</time>
      </trkpt>
      <trkpt lat="47.19207" lon="-1.69673">
        <ele>53</ele>
        <time>2021-04-15T10:00:00.000Z</time>
      </trkpt>
      <trkpt lat="47.19206" lon="-1.69694">
        <ele>54</ele>
        <time>2021-04-15T10:00:02.000Z</time>
      </trkpt>
      <trkpt lat="47.19204" lon="-1.69726">
        <ele>55</ele>
        <time>2021-04-15T10:00:05.000Z</time>
      </trkpt>
      <trkpt lat="47.19203" lon="-1.69748">
        <ele>55</ele>
        <time>2021-04-15T10:00:07.000Z</time>
      </trkpt>
      <trkpt lat="47.192" lon="-1.69769">
        <ele>55</ele>
        <time>2021-04-15T10:00:09.000Z</time>
      </trkpt>
      <trkpt lat="47.19198" lon="-1.69791">
        <ele>55</ele>
        <time>2021-04-15T10:00:11.000Z</time>
      </trkpt>
      <trkpt lat="47.19196" lon="-1.69814">
        <ele>55</ele>
        <time>2021-04-15T10:00:13.000Z</time>
      </trkpt>
      <trkpt lat="47.19193" lon="-1.69835">
        <ele>54</ele>
        <time>2021-04-15T10:00:15.000Z</time>
      </trkpt>
      <trkpt lat="47.19191" lon="-1.69857">
        <ele>54</ele>
        <time>2021-04-15T10:00:17.000Z</time>
      </trkpt>
      <trkpt lat="47.19188" lon="-1.69878">
        <ele>54</ele>
        <time>2021-04-15T10:00:19.000Z</time>
      </trkpt>
      <trkpt lat="47.19186" lon="-1.699">
        <ele>55</ele>
        <time>2021-04-15T10:00:21.000Z</time>
      </trkpt>
      <trkpt lat="47.19183" lon="-1.6992">
        <ele>55</ele>
        <time>2021-04-15T10:00:23.000Z</time>
      </trkpt>
      <trkpt lat="47.19177" lon="-1.69949">
        <ele>55</ele>
        <time>2021-04-15T10:00:26.000Z</time>
      </trkpt>
      <trkpt lat="47.1917" lon="-1.69967">
        <ele>56</ele>
        <time>2021-04-15T10:00:28.000Z</time>
      </trkpt>
      <trkpt lat="47.19161" lon="-1.69985">
        <ele>56</ele>
        <time>2021-04-15T10:00:30.000Z</time>
      </trkpt>
      <trkpt lat="47.19151" lon="-1.70001">
        <ele>56</ele>
        <time>2021-04-15T10:00:32.000Z</time>
      </trkpt>
      <trkpt lat="47.19142" lon="-1.70018">
        <ele>56</ele>
        <time>2021-04-15T10:00:34.000Z</time>
      </trkpt>
      <trkpt lat="47.19132" lon="-1.70034">
        <ele>57</ele>
        <time>2021-04-15T10:00:36.000Z</time>
      </trkpt>
      <trkpt lat="47.19122" lon="-1.7005">
        <ele>57</ele>
        <time>2021-04-15T10:00:38.000Z</time>
      </trkpt>
      <trkpt lat="47.19113" lon="-1.70066">
        <ele>57</ele>
        <time>2021-04-15T10:00:40.000Z</time>
      </trkpt>
      <trkpt lat="47.19104" lon="-1.70082">
        <ele>57</ele>
        <time>2021-04-15T10:00:42.000Z</time>
      </trkpt>
      <trkpt lat="47.19094" lon="-1.70098">
        <ele>57</ele>
        <time>2021-04-15T10:00:44.000Z</time>
      </trkpt>
      <trkpt lat="47.19086" lon="-1.70114">
        <ele>57</ele>
        <time>2021-04-15T10:00:46.000Z</time>
      </trkpt>
      <trkpt lat="47.19074" lon="-1.70138">
        <ele>57</ele>
        <time>2021-04-15T10:00:49.000Z</time>
      </trkpt>
      <trkpt lat="47.19067" lon="-1.70154">
        <ele>57</ele>
        <time>2021-04-15T10:00:51.000Z</time>
      </trkpt>
      <trkpt lat="47.19063" lon="-1.70171">
        <ele>57</ele>
        <time>2021-04-15T10:00:53.000Z</time>
      </trkpt>
      <trkpt lat="47.19062" lon="-1.7019">
        <ele>57</ele>
        <time>2021-04-15T10:00:55.000Z</time>
      </trkpt>
      <trkpt lat="47.19062" lon="-1.70208">
        <ele>58</ele>
        <time>2021-04-15T10:00:57.000Z</time>
      </trkpt>
      <trkpt lat="47.19064" lon="-1.70226">
        <ele>59</ele>
        <time>2021-04-15T10:00:59.000Z</time>
      </trkpt>
      <trkpt lat="47.19067" lon="-1.70243">
        <ele>59</ele>
        <time>2021-04-15T10:01:01.000Z</time>
      </trkpt>
      <trkpt lat="47.19069" lon="-1.70261">
        <ele>60</ele>
        <time>2021-04-15T10:01:03.000Z</time>
      </trkpt>
      <trkpt lat="47.19071" lon="-1.70277">
        <ele>60</ele>
        <time>2021-04-15T10:01:05.000Z</time>
      </trkpt>
      <trkpt lat="47.19073" lon="-1.70293">
        <ele>60</ele>
        <time>2021-04-15T10:01:07.000Z</time>
      </trkpt>
      <trkpt lat="47.19075" lon="-1.70309">
        <ele>61</ele>
        <time>2021-04-15T10:01:09.000Z</time>
      </trkpt>
      <trkpt lat="47.19075" lon="-1.70325">
        <ele>61</ele>
        <time>2021-04-15T10:01:11.000Z</time>
      </trkpt>
      <trkpt lat="47.19076" lon="-1.70349">
        <ele>61</ele>
        <time>2021-04-15T10:01:14.000Z</time>
      </trkpt>
      <trkpt lat="47.19076" lon="-1.70364">
        <ele>62</ele>
        <time>2021-04-15T10:01:16.000Z</time>
      </trkpt>
      <trkpt lat="47.19075" lon="-1.70379">
        <ele>63</ele>
        <time>2021-04-15T10:01:18.000Z</time>
      </trkpt>
      <trkpt lat="47.19076" lon="-1.70395">
        <ele>64</ele>
        <time>2021-04-15T10:01:20.000Z</time>
      </trkpt>
      <trkpt lat="47.19078" lon="-1.70409">
        <ele>64</ele>
        <time>2021-04-15T10:01:22.000Z</time>
      </trkpt>
      <trkpt lat="47.19085" lon="-1.7043">
        <ele>65</ele>
        <time>2021-04-15T10:01:25.000Z</time>
      </trkpt>
      <trkpt lat="47.1909" lon="-1.70444">
        <ele>66</ele>
        <time>2021-04-15T10:01:27.000Z</time>
      </trkpt>
      <trkpt lat="47.19094" lon="-1.70459">
        <ele>66</ele>
        <time>2021-04-15T10:01:29.000Z</time>
      </trkpt>
      <trkpt lat="47.19098" lon="-1.70474">
        <ele>67</ele>
        <time>2021-04-15T10:01:31.000Z</time>
      </trkpt>
      <trkpt lat="47.19101" lon="-1.70489">
        <ele>68</ele>
        <time>2021-04-15T10:01:33.000Z</time>
      </trkpt>
      <trkpt lat="47.19103" lon="-1.70505">
        <ele>68</ele>
        <time>2021-04-15T10:01:35.000Z</time>
      </trkpt>
      <trkpt lat="47.19105" lon="-1.70522">
        <ele>69</ele>
        <time>2021-04-15T10:01:37.000Z</time>
      </trkpt>
      <trkpt lat="47.19107" lon="-1.70538">
        <ele>69</ele>
        <time>2021-04-15T10:01:39.000Z</time>
      </trkpt>
      <trkpt lat="47.19108" lon="-1.70555">
        <ele>69</ele>
        <time>2021-04-15T10:01:41.000Z</time>
      </trkpt>
      <trkpt lat="47.19108" lon="-1.70572">
        <ele>70</ele>
        <time>2021-04-15T10:01:43.000Z</time>
      </trkpt>
      <trkpt lat="47.19109" lon="-1.70587">
        <ele>71</ele>
        <time>2021-04-15T10:01:45.000Z</time>
      </trkpt>
      <trkpt lat="47.1911" lon="-1.70603">
        <ele>71</ele>
        <time>2021-04-15T10:01:47.000Z</time>
      </trkpt>
      <trkpt lat="47.19112" lon="-1.7062">
        <ele>71</ele>
        <time>2021-04-15T10:01:49.000Z</time>
      </trkpt>
      <trkpt lat="47.19114" lon="-1.70636">
        <ele>72</ele>
        <time>2021-04-15T10:01:51.000Z</time>
      </trkpt>
      <trkpt lat="47.19117" lon="-1.70652">
        <ele>72</ele>
        <time>2021-04-15T10:01:53.000Z</time>
      </trkpt>
      <trkpt lat="47.1912" lon="-1.70669">
        <ele>73</ele>
        <time>2021-04-15T10:01:55.000Z</time>
      </trkpt>
      <trkpt lat="47.19123" lon="-1.70685">
        <ele>73</ele>
        <time>2021-04-15T10:01:57.000Z</time>
      </trkpt>
      <trkpt lat="47.19126" lon="-1.70702">
        <ele>74</ele>
        <time>2021-04-15T10:01:59.000Z</time>
      </trkpt>
      <trkpt lat="47.1913" lon="-1.70717">
        <ele>74</ele>
        <time>2021-04-15T10:02:01.000Z</time>
      </trkpt>
      <trkpt lat="47.19134" lon="-1.70732">
        <ele>74</ele>
        <time>2021-04-15T10:02:03.000Z</time>
      </trkpt>
      <trkpt lat="47.1914" lon="-1.70747">
        <ele>74</ele>
        <time>2021-04-15T10:02:05.000Z</time>
      </trkpt>
      <trkpt lat="47.19143" lon="-1.70763">
        <ele>74</ele>
        <time>2021-04-15T10:02:07.000Z</time>
      </trkpt>
      <trkpt lat="47.1914" lon="-1.70782">
        <ele>75</ele>
        <time>2021-04-15T10:02:09.000Z</time>
      </trkpt>
      <trkpt lat="47.19138" lon="-1.70798">
        <ele>74</ele>
        <time>2021-04-15T10:02:11.000Z</time>
      </trkpt>
      <trkpt lat="47.19137" lon="-1.70817">
        <ele>74</ele>
        <time>2021-04-15T10:02:13.000Z</time>
      </trkpt>
      <trkpt lat="47.19138" lon="-1.70835">
        <ele>74</ele>
        <time>2021-04-15T10:02:15.000Z</time>
      </trkpt>
      <trkpt lat="47.19139" lon="-1.70853">
        <ele>74</ele>
        <time>2021-04-15T10:02:17.000Z</time>
      </trkpt>
      <trkpt lat="47.1914" lon="-1.70872">
        <ele>74</ele>
        <time>2021-04-15T10:02:19.000Z</time>
      </trkpt>
      <trkpt lat="47.19141" lon="-1.7089">
        <ele>75</ele>
        <time>2021-04-15T10:02:21.000Z</time>
      </trkpt>
      <trkpt lat="47.19141" lon="-1.70909">
        <ele>75</ele>
        <time>2021-04-15T10:02:23.000Z</time>
      </trkpt>
      <trkpt lat="47.1914" lon="-1.70927">
        <ele>75</ele>
        <time>2021-04-15T10:02:25.000Z</time>
      </trkpt>
      <trkpt lat="47.19138" lon="-1.70944">
        <ele>75</ele>
        <time>2021-04-15T10:02:27.000Z</time>
      </trkpt>
      <trkpt lat="47.19136" lon="-1.70961">
        <ele>75</ele>
        <time>2021-04-15T10:02:29.000Z</time>
      </trkpt>
      <trkpt lat="47.19134" lon="-1.7098">
        <ele>75</ele>
        <time>2021-04-15T10:02:31.000Z</time>
      </trkpt>
      <trkpt lat="47.19133" lon="-1.70999">
        <ele>75</ele>
        <time>2021-04-15T10:02:33.000Z</time>
      </trkpt>
      <trkpt lat="47.19133" lon="-1.71017">
        <ele>76</ele>
        <time>2021-04-15T10:02:35.000Z</time>
      </trkpt>
      <trkpt lat="47.19133" lon="-1.71035">
        <ele>76</ele>
        <time>2021-04-15T10:02:37.000Z</time>
      </trkpt>
      <trkpt lat="47.19134" lon="-1.71053">
        <ele>76</ele>
        <time>2021-04-15T10:02:39.000Z</time>
      </trkpt>
      <trkpt lat="47.19136" lon="-1.71072">
        <ele>76</ele>
        <time>2021-04-15T10:02:41.000Z</time>
      </trkpt>
      <trkpt lat="47.19137" lon="-1.7109">
        <ele>76</ele>
        <time>2021-04-15T10:02:43.000Z</time>
      </trkpt>
      <trkpt lat="47.19138" lon="-1.71108">
        <ele>76</ele>
        <time>2021-04-15T10:02:45.000Z</time>
      </trkpt>
      <trkpt lat="47.1914" lon="-1.71127">
        <ele>76</ele>
        <time>2021-04-15T10:02:47.000Z</time>
      </trkpt>
      <trkpt lat="47.19142" lon="-1.71146">
        <ele>76</ele>
        <time>2021-04-15T10:02:49.000Z</time>
      </trkpt>
      <trkpt lat="47.19143" lon="-1.71165">
        <ele>76</ele>
        <time>2021-04-15T10:02:51.000Z</time>
      </trkpt>
      <trkpt lat="47.19144" lon="-1.71185">
        <ele>75</ele>
        <time>2021-04-15T10:02:53.000Z</time>
      </trkpt>
      <trkpt lat="47.19146" lon="-1.71204">
        <ele>75</ele>
        <time>2021-04-15T10:02:55.000Z</time>
      </trkpt>
      <trkpt lat="47.19147" lon="-1.71224">
        <ele>75</ele>
        <time>2021-04-15T10:02:57.000Z</time>
      </trkpt>
      <trkpt lat="47.19149" lon="-1.71244">
        <ele>76</ele>
        <time>2021-04-15T10:02:59.000Z</time>
      </trkpt>
      <trkpt lat="47.19151" lon="-1.71263">
        <ele>75</ele>
        <time>2021-04-15T10:03:01.000Z</time>
      </trkpt>
      <trkpt lat="47.19153" lon="-1.71282">
        <ele>75</ele>
        <time>2021-04-15T10:03:03.000Z</time>
      </trkpt>
      <trkpt lat="47.19157" lon="-1.713">
        <ele>75</ele>
        <time>2021-04-15T10:03:05.000Z</time>
      </trkpt>
      <trkpt lat="47.1916" lon="-1.71319">
        <ele>75</ele>
        <time>2021-04-15T10:03:07.000Z</time>
      </trkpt>
      <trkpt lat="47.19163" lon="-1.71337">
        <ele>75</ele>
        <time>2021-04-15T10:03:09.000Z</time>
      </trkpt>
      <trkpt lat="47.19168" lon="-1.71355">
        <ele>75</ele>
        <time>2021-04-15T10:03:11.000Z</time>
      </trkpt>
      <trkpt lat="47.19172" lon="-1.71373">
        <ele>75</ele>
        <time>2021-04-15T10:03:13.000Z</time>
      </trkpt>
      <trkpt lat="47.19178" lon="-1.71391">
        <ele>75</ele>
        <time>2021-04-15T10:03:15.000Z</time>
      </trkpt>
      <trkpt lat="47.19183" lon="-1.71409">
        <ele>75</ele>
        <time>2021-04-15T10:03:17.000Z</time>
      </trkpt>
      <trkpt lat="47.19188" lon="-1.71427">
        <ele>75</ele>
        <time>2021-04-15T10:03:19.000Z</time>
      </trkpt>
      <trkpt lat="47.19192" lon="-1.71445">
        <ele>75</ele>
        <time>2021-04-15T10:03:21.000Z</time>
      </trkpt>
      <trkpt lat="47.19197" lon="-1.71462">
        <ele>75</ele>
        <time>2021-04-15T10:03:23.000Z</time>
      </trkpt>
      <trkpt lat="47.19201" lon="-1.71479">
        <ele>75</ele>
        <time>2021-04-15T10:03:25.000Z</time>
      </trkpt>
      <trkpt lat="47.19206" lon="-1.71496">
        <ele>75</ele>
        <time>2021-04-15T10:03:27.000Z</time>
      </trkpt>
      <trkpt lat="47.1921" lon="-1.71513">
        <ele>75</ele>
        <time>2021-04-15T10:03:29.000Z</time>
      </trkpt>
      <trkpt lat="47.19216" lon="-1.7153">
        <ele>75</ele>
        <time>2021-04-15T10:03:31.000Z</time>
      </trkpt>
      <trkpt lat="47.19221" lon="-1.71546">
        <ele>75</ele>
        <time>2021-04-15T10:03:33.000Z</time>
      </trkpt>
      <trkpt lat="47.19228" lon="-1.71561">
        <ele>76</ele>
        <time>2021-04-15T10:03:35.000Z</time>
      </trkpt>
      <trkpt lat="47.19234" lon="-1.71578">
        <ele>76</ele>
        <time>2021-04-15T10:03:37.000Z</time>
      </trkpt>
      <trkpt lat="47.19237" lon="-1.71597">
        <ele>75</ele>
        <time>2021-04-15T10:03:39.000Z</time>
      </trkpt>
      <trkpt lat="47.19243" lon="-1.71615">
        <ele>75</ele>
        <time>2021-04-15T10:03:41.000Z</time>
      </trkpt>
      <trkpt lat="47.1925" lon="-1.71633">
        <ele>74</ele>
        <time>2021-04-15T10:03:43.000Z</time>
      </trkpt>
      <trkpt lat="47.19256" lon="-1.71652">
        <ele>74</ele>
        <time>2021-04-15T10:03:45.000Z</time>
      </trkpt>
      <trkpt lat="47.19262" lon="-1.7167">
        <ele>74</ele>
        <time>2021-04-15T10:03:47.000Z</time>
      </trkpt>
      <trkpt lat="47.19269" lon="-1.71689">
        <ele>74</ele>
        <time>2021-04-15T10:03:49.000Z</time>
      </trkpt>
      <trkpt lat="47.19275" lon="-1.71709">
        <ele>73</ele>
        <time>2021-04-15T10:03:51.000Z</time>
      </trkpt>
      <trkpt lat="47.19282" lon="-1.71729">
        <ele>73</ele>
        <time>2021-04-15T10:03:53.000Z</time>
      </trkpt>
      <trkpt lat="47.19288" lon="-1.71748">
        <ele>73</ele>
        <time>2021-04-15T10:03:55.000Z</time>
      </trkpt>
      <trkpt lat="47.19294" lon="-1.71767">
        <ele>72</ele>
        <time>2021-04-15T10:03:57.000Z</time>
      </trkpt>
      <trkpt lat="47.193" lon="-1.71786">
        <ele>72</ele>
        <time>2021-04-15T10:03:59.000Z</time>
      </trkpt>
      <trkpt lat="47.19306" lon="-1.71805">
        <ele>72</ele>
        <time>2021-04-15T10:04:01.000Z</time>
      </trkpt>
      <trkpt lat="47.19312" lon="-1.71825">
        <ele>71</ele>
        <time>2021-04-15T10:04:03.000Z</time>
      </trkpt>
      <trkpt lat="47.19318" lon="-1.71843">
        <ele>72</ele>
        <time>2021-04-15T10:04:05.000Z</time>
      </trkpt>
      <trkpt lat="47.19325" lon="-1.71863">
        <ele>71</ele>
        <time>2021-04-15T10:04:07.000Z</time>
      </trkpt>
      <trkpt lat="47.19331" lon="-1.71882">
        <ele>71</ele>
        <time>2021-04-15T10:04:09.000Z</time>
      </trkpt>
      <trkpt lat="47.19338" lon="-1.71903">
        <ele>71</ele>
        <time>2021-04-15T10:04:11.000Z</time>
      </trkpt>
      <trkpt lat="47.19344" lon="-1.71923">
        <ele>71</ele>
        <time>2021-04-15T10:04:13.000Z</time>
      </trkpt>
      <trkpt lat="47.19351" lon="-1.71944">
        <ele>70</ele>
        <time>2021-04-15T10:04:15.000Z</time>
      </trkpt>
      <trkpt lat="47.19358" lon="-1.71964">
        <ele>70</ele>
        <time>2021-04-15T10:04:17.000Z</time>
      </trkpt>
      <trkpt lat="47.19366" lon="-1.71983">
        <ele>69</ele>
        <time>2021-04-15T10:04:19.000Z</time>
      </trkpt>
      <trkpt lat="47.19374" lon="-1.72002">
        <ele>69</ele>
        <time>2021-04-15T10:04:21.000Z</time>
      </trkpt>
      <trkpt lat="47.19383" lon="-1.72023">
        <ele>69</ele>
        <time>2021-04-15T10:04:23.000Z</time>
      </trkpt>
      <trkpt lat="47.19393" lon="-1.72043">
        <ele>67</ele>
        <time>2021-04-15T10:04:25.000Z</time>
      </trkpt>
      <trkpt lat="47.19402" lon="-1.72064">
        <ele>66</ele>
        <time>2021-04-15T10:04:27.000Z</time>
      </trkpt>
      <trkpt lat="47.19409" lon="-1.72085">
        <ele>66</ele>
        <time>2021-04-15T10:04:29.000Z</time>
      </trkpt>
      <trkpt lat="47.19418" lon="-1.72103">
        <ele>66</ele>
        <time>2021-04-15T10:04:31.000Z</time>
      </trkpt>
      <trkpt lat="47.19427" lon="-1.7212">
        <ele>67</ele>
        <time>2021-04-15T10:04:33.000Z</time>
      </trkpt>
      <trkpt lat="47.19435" lon="-1.72137">
        <ele>68</ele>
        <time>2021-04-15T10:04:35.000Z</time>
      </trkpt>
      <trkpt lat="47.1944" lon="-1.72153">
        <ele>68</ele>
        <time>2021-04-15T10:04:37.000Z</time>
      </trkpt>
      <trkpt lat="47.19445" lon="-1.7217">
        <ele>67</ele>
        <time>2021-04-15T10:04:39.000Z</time>
      </trkpt>
      <trkpt lat="47.1945" lon="-1.72187">
        <ele>68</ele>
        <time>2021-04-15T10:04:41.000Z</time>
      </trkpt>
      <trkpt lat="47.19457" lon="-1.72204">
        <ele>69</ele>
        <time>2021-04-15T10:04:43.000Z</time>
      </trkpt>
      <trkpt lat="47.19464" lon="-1.72222">
        <ele>69</ele>
        <time>2021-04-15T10:04:45.000Z</time>
      </trkpt>
      <trkpt lat="47.1947" lon="-1.72239">
        <ele>69</ele>
        <time>2021-04-15T10:04:47.000Z</time>
      </trkpt>
      <trkpt lat="47.19475" lon="-1.72256">
        <ele>69</ele>
        <time>2021-04-15T10:04:49.000Z</time>
      </trkpt>
      <trkpt lat="47.19481" lon="-1.72273">
        <ele>70</ele>
        <time>2021-04-15T10:04:51.000Z</time>
      </trkpt>
      <trkpt lat="47.19489" lon="-1.72288">
        <ele>70</ele>
        <time>2021-04-15T10:04:53.000Z</time>
      </trkpt>
      <trkpt lat="47.19498" lon="-1.72301">
        <ele>70</ele>
        <time>2021-04-15T10:04:55.000Z</time>
      </trkpt>
      <trkpt lat="47.19507" lon="-1.72315">
        <ele>69</ele>
        <time>2021-04-15T10:04:57.000Z</time>
      </trkpt>
      <trkpt lat="47.19517" lon="-1.72329">
        <ele>69</ele>
        <time>2021-04-15T10:04:59.000Z</time>
      </trkpt>
      <trkpt lat="47.19527" lon="-1.72344">
        <ele>70</ele>
        <time>2021-04-15T10:05:01.000Z</time>
      </trkpt>
      <trkpt lat="47.19536" lon="-1.72357">
        <ele>70</ele>
        <time>2021-04-15T10:05:03.000Z</time>
      </trkpt>
      <trkpt lat="47.19546" lon="-1.72368">
        <ele>70</ele>
        <time>2021-04-15T10:05:05.000Z</time>
      </trkpt>
      <trkpt lat="47.19558" lon="-1.72378">
        <ele>70</ele>
        <time>2021-04-15T10:05:07.000Z</time>
      </trkpt>
      <trkpt lat="47.19571" lon="-1.72386">
        <ele>70</ele>
        <time>2021-04-15T10:05:09.000Z</time>
      </trkpt>
      <trkpt lat="47.19582" lon="-1.72395">
        <ele>70</ele>
        <time>2021-04-15T10:05:11.000Z</time>
      </trkpt>
      <trkpt lat="47.19591" lon="-1.72408">
        <ele>69</ele>
        <time>2021-04-15T10:05:13.000Z</time>
      </trkpt>
      <trkpt lat="47.19593" lon="-1.72427">
        <ele>69</ele>
        <time>2021-04-15T10:05:15.000Z</time>
      </trkpt>
      <trkpt lat="47.19591" lon="-1.72445">
        <ele>69</ele>
        <time>2021-04-15T10:05:17.000Z</time>
      </trkpt>
      <trkpt lat="47.1959" lon="-1.72465">
        <ele>69</ele>
        <time>2021-04-15T10:05:19.000Z</time>
      </trkpt>
      <trkpt lat="47.1959" lon="-1.72484">
        <ele>69</ele>
        <time>2021-04-15T10:05:21.000Z</time>
      </trkpt>
      <trkpt lat="47.19588" lon="-1.72505">
        <ele>68</ele>
        <time>2021-04-15T10:05:23.000Z</time>
      </trkpt>
      <trkpt lat="47.19587" lon="-1.72526">
        <ele>67</ele>
        <time>2021-04-15T10:05:25.000Z</time>
      </trkpt>
      <trkpt lat="47.19586" lon="-1.72549">
        <ele>67</ele>
        <time>2021-04-15T10:05:27.000Z</time>
      </trkpt>
      <trkpt lat="47.1958" lon="-1.72571">
        <ele>66</ele>
        <time>2021-04-15T10:05:29.000Z</time>
      </trkpt>
      <trkpt lat="47.19571" lon="-1.72592">
        <ele>65</ele>
        <time>2021-04-15T10:05:31.000Z</time>
      </trkpt>
      <trkpt lat="47.19562" lon="-1.72615">
        <ele>64</ele>
        <time>2021-04-15T10:05:33.000Z</time>
      </trkpt>
      <trkpt lat="47.19559" lon="-1.72628">
        <ele>63</ele>
        <time>2021-04-15T10:05:34.000Z</time>
      </trkpt>
      <trkpt lat="47.19555" lon="-1.72641">
        <ele>63</ele>
        <time>2021-04-15T10:05:35.000Z</time>
      </trkpt>
      <trkpt lat="47.19552" lon="-1.72653">
        <ele>62</ele>
        <time>2021-04-15T10:05:36.000Z</time>
      </trkpt>
      <trkpt lat="47.19548" lon="-1.72666">
        <ele>62</ele>
        <time>2021-04-15T10:05:37.000Z</time>
      </trkpt>
      <trkpt lat="47.19545" lon="-1.72679">
        <ele>61</ele>
        <time>2021-04-15T10:05:38.000Z</time>
      </trkpt>
      <trkpt lat="47.19541" lon="-1.72693">
        <ele>61</ele>
        <time>2021-04-15T10:05:39.000Z</time>
      </trkpt>
      <trkpt lat="47.19538" lon="-1.72707">
        <ele>60</ele>
        <time>2021-04-15T10:05:40.000Z</time>
      </trkpt>
      <trkpt lat="47.19535" lon="-1.72721">
        <ele>59</ele>
        <time>2021-04-15T10:05:41.000Z</time>
      </trkpt>
      <trkpt lat="47.19534" lon="-1.72736">
        <ele>59</ele>
        <time>2021-04-15T10:05:42.000Z</time>
      </trkpt>
      <trkpt lat="47.19533" lon="-1.72751">
        <ele>58</ele>
        <time>2021-04-15T10:05:43.000Z</time>
      </trkpt>
      <trkpt lat="47.19533" lon="-1.72766">
        <ele>57</ele>
        <time>2021-04-15T10:05:44.000Z</time>
      </trkpt>
      <trkpt lat="47.19534" lon="-1.7278">
        <ele>57</ele>
        <time>2021-04-15T10:05:45.000Z</time>
      </trkpt>
      <trkpt lat="47.19535" lon="-1.72795">
        <ele>56</ele>
        <time>2021-04-15T10:05:46.000Z</time>
      </trkpt>
      <trkpt lat="47.19536" lon="-1.72809">
        <ele>56</ele>
        <time>2021-04-15T10:05:47.000Z</time>
      </trkpt>
      <trkpt lat="47.19538" lon="-1.72824">
        <ele>55</ele>
        <time>2021-04-15T10:05:48.000Z</time>
      </trkpt>
      <trkpt lat="47.19539" lon="-1.72838">
        <ele>55</ele>
        <time>2021-04-15T10:05:49.000Z</time>
      </trkpt>
      <trkpt lat="47.19541" lon="-1.72852">
        <ele>55</ele>
        <time>2021-04-15T10:05:50.000Z</time>
      </trkpt>
      <trkpt lat="47.19542" lon="-1.72865">
        <ele>55</ele>
        <time>2021-04-15T10:05:51.000Z</time>
      </trkpt>
      <trkpt lat="47.19544" lon="-1.72891">
        <ele>55</ele>
        <time>2021-04-15T10:05:53.000Z</time>
      </trkpt>
      <trkpt lat="47.19546" lon="-1.72915">
        <ele>55</ele>
        <time>2021-04-15T10:05:55.000Z</time>
      </trkpt>
      <trkpt lat="47.19546" lon="-1.72939">
        <ele>55</ele>
        <time>2021-04-15T10:05:57.000Z</time>
      </trkpt>
      <trkpt lat="47.19546" lon="-1.72963">
        <ele>55</ele>
        <time>2021-04-15T10:05:59.000Z</time>
      </trkpt>
      <trkpt lat="47.19546" lon="-1.72986">
        <ele>56</ele>
        <time>2021-04-15T10:06:01.000Z</time>
      </trkpt>
      <trkpt lat="47.19547" lon="-1.73009">
        <ele>55</ele>
        <time>2021-04-15T10:06:03.000Z</time>
      </trkpt>
      <trkpt lat="47.19548" lon="-1.73032">
        <ele>55</ele>
        <time>2021-04-15T10:06:05.000Z</time>
      </trkpt>
      <trkpt lat="47.19548" lon="-1.73053">
        <ele>56</ele>
        <time>2021-04-15T10:06:07.000Z</time>
      </trkpt>
      <trkpt lat="47.19549" lon="-1.73075">
        <ele>56</ele>
        <time>2021-04-15T10:06:09.000Z</time>
      </trkpt>
      <trkpt lat="47.19549" lon="-1.73097">
        <ele>56</ele>
        <time>2021-04-15T10:06:11.000Z</time>
      </trkpt>
      <trkpt lat="47.19548" lon="-1.73118">
        <ele>56</ele>
        <time>2021-04-15T10:06:13.000Z</time>
      </trkpt>
      <trkpt lat="47.19548" lon="-1.73138">
        <ele>56</ele>
        <time>2021-04-15T10:06:15.000Z</time>
      </trkpt>
      <trkpt lat="47.19549" lon="-1.73158">
        <ele>56</ele>
        <time>2021-04-15T10:06:17.000Z</time>
      </trkpt>
      <trkpt lat="47.1955" lon="-1.73178">
        <ele>55</ele>
        <time>2021-04-15T10:06:19.000Z</time>
      </trkpt>
      <trkpt lat="47.19551" lon="-1.73197">
        <ele>54</ele>
        <time>2021-04-15T10:06:21.000Z</time>
      </trkpt>
      <trkpt lat="47.19553" lon="-1.73215">
        <ele>54</ele>
        <time>2021-04-15T10:06:23.000Z</time>
      </trkpt>
      <trkpt lat="47.19555" lon="-1.73232">
        <ele>53</ele>
        <time>2021-04-15T10:06:25.000Z</time>
      </trkpt>
      <trkpt lat="47.19556" lon="-1.7325">
        <ele>53</ele>
        <time>2021-04-15T10:06:27.000Z</time>
      </trkpt>
      <trkpt lat="47.19558" lon="-1.73267">
        <ele>54</ele>
        <time>2021-04-15T10:06:29.000Z</time>
      </trkpt>
      <trkpt lat="47.1956" lon="-1.73283">
        <ele>53</ele>
        <time>2021-04-15T10:06:31.000Z</time>
      </trkpt>
      <trkpt lat="47.19562" lon="-1.73299">
        <ele>54</ele>
        <time>2021-04-15T10:06:33.000Z</time>
      </trkpt>
      <trkpt lat="47.19564" lon="-1.73314">
        <ele>54</ele>
        <time>2021-04-15T10:06:35.000Z</time>
      </trkpt>
      <trkpt lat="47.19565" lon="-1.7333">
        <ele>55</ele>
        <time>2021-04-15T10:06:37.000Z</time>
      </trkpt>
      <trkpt lat="47.19566" lon="-1.73345">
        <ele>56</ele>
        <time>2021-04-15T10:06:39.000Z</time>
      </trkpt>
      <trkpt lat="47.19567" lon="-1.7336">
        <ele>57</ele>
        <time>2021-04-15T10:06:41.000Z</time>
      </trkpt>
      <trkpt lat="47.19569" lon="-1.73376">
        <ele>57</ele>
        <time>2021-04-15T10:06:43.000Z</time>
      </trkpt>
      <trkpt lat="47.1957" lon="-1.73392">
        <ele>57</ele>
        <time>2021-04-15T10:06:45.000Z</time>
      </trkpt>
      <trkpt lat="47.19571" lon="-1.73406">
        <ele>58</ele>
        <time>2021-04-15T10:06:47.000Z</time>
      </trkpt>
      <trkpt lat="47.19573" lon="-1.73422">
        <ele>59</ele>
        <time>2021-04-15T10:06:49.000Z</time>
      </trkpt>
      <trkpt lat="47.19575" lon="-1.73437">
        <ele>59</ele>
        <time>2021-04-15T10:06:51.000Z</time>
      </trkpt>
      <trkpt lat="47.19579" lon="-1.73451">
        <ele>60</ele>
        <time>2021-04-15T10:06:53.000Z</time>
      </trkpt>
      <trkpt lat="47.19582" lon="-1.73466">
        <ele>61</ele>
        <time>2021-04-15T10:06:55.000Z</time>
      </trkpt>
      <trkpt lat="47.19587" lon="-1.7348">
        <ele>63</ele>
        <time>2021-04-15T10:06:57.000Z</time>
      </trkpt>
      <trkpt lat="47.19593" lon="-1.73493">
        <ele>64</ele>
        <time>2021-04-15T10:06:59.000Z</time>
      </trkpt>
      <trkpt lat="47.19598" lon="-1.73506">
        <ele>65</ele>
        <time>2021-04-15T10:07:01.000Z</time>
      </trkpt>
      <trkpt lat="47.19604" lon="-1.73519">
        <ele>66</ele>
        <time>2021-04-15T10:07:03.000Z</time>
      </trkpt>
      <trkpt lat="47.19609" lon="-1.73532">
        <ele>66</ele>
        <time>2021-04-15T10:07:05.000Z</time>
      </trkpt>
      <trkpt lat="47.19612" lon="-1.73546">
        <ele>66</ele>
        <time>2021-04-15T10:07:07.000Z</time>
      </trkpt>
      <trkpt lat="47.19615" lon="-1.7356">
        <ele>67</ele>
        <time>2021-04-15T10:07:09.000Z</time>
      </trkpt>
      <trkpt lat="47.19618" lon="-1.73575">
        <ele>68</ele>
        <time>2021-04-15T10:07:11.000Z</time>
      </trkpt>
      <trkpt lat="47.1962" lon="-1.73591">
        <ele>68</ele>
        <time>2021-04-15T10:07:13.000Z</time>
      </trkpt>
      <trkpt lat="47.19621" lon="-1.73607">
        <ele>69</ele>
        <time>2021-04-15T10:07:15.000Z</time>
      </trkpt>
      <trkpt lat="47.19621" lon="-1.73624">
        <ele>69</ele>
        <time>2021-04-15T10:07:17.000Z</time>
      </trkpt>
      <trkpt lat="47.19622" lon="-1.7364">
        <ele>69</ele>
        <time>2021-04-15T10:07:19.000Z</time>
      </trkpt>
      <trkpt lat="47.19626" lon="-1.73656">
        <ele>69</ele>
        <time>2021-04-15T10:07:21.000Z</time>
      </trkpt>
      <trkpt lat="47.1963" lon="-1.73672">
        <ele>70</ele>
        <time>2021-04-15T10:07:23.000Z</time>
      </trkpt>
      <trkpt lat="47.19626" lon="-1.73688">
        <ele>70</ele>
        <time>2021-04-15T10:07:25.000Z</time>
      </trkpt>
      <trkpt lat="47.19622" lon="-1.73704">
        <ele>70</ele>
        <time>2021-04-15T10:07:27.000Z</time>
      </trkpt>
      <trkpt lat="47.19623" lon="-1.73723">
        <ele>70</ele>
        <time>2021-04-15T10:07:29.000Z</time>
      </trkpt>
      <trkpt lat="47.19623" lon="-1.73742">
        <ele>70</ele>
        <time>2021-04-15T10:07:31.000Z</time>
      </trkpt>
      <trkpt lat="47.19622" lon="-1.7376">
        <ele>71</ele>
        <time>2021-04-15T10:07:33.000Z</time>
      </trkpt>
      <trkpt lat="47.1962" lon="-1.73779">
        <ele>70</ele>
        <time>2021-04-15T10:07:35.000Z</time>
      </trkpt>
      <trkpt lat="47.19618" lon="-1.73798">
        <ele>70</ele>
        <time>2021-04-15T10:07:37.000Z</time>
      </trkpt>
      <trkpt lat="47.19613" lon="-1.73817">
        <ele>69</ele>
        <time>2021-04-15T10:07:39.000Z</time>
      </trkpt>
      <trkpt lat="47.1961" lon="-1.73836">
        <ele>69</ele>
        <time>2021-04-15T10:07:41.000Z</time>
      </trkpt>
      <trkpt lat="47.19606" lon="-1.73856">
        <ele>69</ele>
        <time>2021-04-15T10:07:43.000Z</time>
      </trkpt>
      <trkpt lat="47.19602" lon="-1.73876">
        <ele>69</ele>
        <time>2021-04-15T10:07:45.000Z</time>
      </trkpt>
      <trkpt lat="47.19598" lon="-1.73896">
        <ele>69</ele>
        <time>2021-04-15T10:07:47.000Z</time>
      </trkpt>
      <trkpt lat="47.19594" lon="-1.73916">
        <ele>69</ele>
        <time>2021-04-15T10:07:49.000Z</time>
      </trkpt>
      <trkpt lat="47.1959" lon="-1.73936">
        <ele>69</ele>
        <time>2021-04-15T10:07:51.000Z</time>
      </trkpt>
      <trkpt lat="47.19587" lon="-1.73957">
        <ele>69</ele>
        <time>2021-04-15T10:07:53.000Z</time>
      </trkpt>
      <trkpt lat="47.19585" lon="-1.73979">
        <ele>69</ele>
        <time>2021-04-15T10:07:55.000Z</time>
      </trkpt>
      <trkpt lat="47.19586" lon="-1.73999">
        <ele>69</ele>
        <time>2021-04-15T10:07:57.000Z</time>
      </trkpt>
      <trkpt lat="47.19587" lon="-1.7402">
        <ele>69</ele>
        <time>2021-04-15T10:07:59.000Z</time>
      </trkpt>
      <trkpt lat="47.19589" lon="-1.7404">
        <ele>69</ele>
        <time>2021-04-15T10:08:01.000Z</time>
      </trkpt>
      <trkpt lat="47.19594" lon="-1.7406">
        <ele>68</ele>
        <time>2021-04-15T10:08:03.000Z</time>
      </trkpt>
      <trkpt lat="47.19598" lon="-1.74079">
        <ele>68</ele>
        <time>2021-04-15T10:08:05.000Z</time>
      </trkpt>
      <trkpt lat="47.19597" lon="-1.741">
        <ele>68</ele>
        <time>2021-04-15T10:08:07.000Z</time>
      </trkpt>
      <trkpt lat="47.196" lon="-1.74121">
        <ele>68</ele>
        <time>2021-04-15T10:08:09.000Z</time>
      </trkpt>
      <trkpt lat="47.19603" lon="-1.74142">
        <ele>68</ele>
        <time>2021-04-15T10:08:11.000Z</time>
      </trkpt>
      <trkpt lat="47.19607" lon="-1.74164">
        <ele>68</ele>
        <time>2021-04-15T10:08:13.000Z</time>
      </trkpt>
      <trkpt lat="47.1961" lon="-1.74184">
        <ele>68</ele>
        <time>2021-04-15T10:08:15.000Z</time>
      </trkpt>
      <trkpt lat="47.19613" lon="-1.74204">
        <ele>68</ele>
        <time>2021-04-15T10:08:17.000Z</time>
      </trkpt>
      <trkpt lat="47.19616" lon="-1.74225">
        <ele>68</ele>
        <time>2021-04-15T10:08:19.000Z</time>
      </trkpt>
      <trkpt lat="47.19619" lon="-1.74245">
        <ele>68</ele>
        <time>2021-04-15T10:08:21.000Z</time>
      </trkpt>
      <trkpt lat="47.19623" lon="-1.74265">
        <ele>68</ele>
        <time>2021-04-15T10:08:23.000Z</time>
      </trkpt>
      <trkpt lat="47.19628" lon="-1.74285">
        <ele>68</ele>
        <time>2021-04-15T10:08:25.000Z</time>
      </trkpt>
      <trkpt lat="47.19634" lon="-1.74306">
        <ele>68</ele>
        <time>2021-04-15T10:08:27.000Z</time>
      </trkpt>
      <trkpt lat="47.1964" lon="-1.74325">
        <ele>67</ele>
        <time>2021-04-15T10:08:29.000Z</time>
      </trkpt>
      <trkpt lat="47.19647" lon="-1.74345">
        <ele>67</ele>
        <time>2021-04-15T10:08:31.000Z</time>
      </trkpt>
      <trkpt lat="47.19654" lon="-1.74364">
        <ele>67</ele>
        <time>2021-04-15T10:08:33.000Z</time>
      </trkpt>
      <trkpt lat="47.1966" lon="-1.74383">
        <ele>67</ele>
        <time>2021-04-15T10:08:35.000Z</time>
      </trkpt>
      <trkpt lat="47.19666" lon="-1.74402">
        <ele>67</ele>
        <time>2021-04-15T10:08:37.000Z</time>
      </trkpt>
      <trkpt lat="47.19671" lon="-1.74421">
        <ele>67</ele>
        <time>2021-04-15T10:08:39.000Z</time>
      </trkpt>
      <trkpt lat="47.19677" lon="-1.7444">
        <ele>67</ele>
        <time>2021-04-15T10:08:41.000Z</time>
      </trkpt>
      <trkpt lat="47.19683" lon="-1.74459">
        <ele>67</ele>
        <time>2021-04-15T10:08:43.000Z</time>
      </trkpt>
      <trkpt lat="47.19689" lon="-1.74477">
        <ele>67</ele>
        <time>2021-04-15T10:08:45.000Z</time>
      </trkpt>
      <trkpt lat="47.19695" lon="-1.74496">
        <ele>66</ele>
        <time>2021-04-15T10:08:47.000Z</time>
      </trkpt>
      <trkpt lat="47.19702" lon="-1.74514">
        <ele>66</ele>
        <time>2021-04-15T10:08:49.000Z</time>
      </trkpt>
      <trkpt lat="47.19709" lon="-1.74531">
        <ele>66</ele>
        <time>2021-04-15T10:08:51.000Z</time>
      </trkpt>
      <trkpt lat="47.19716" lon="-1.74549">
        <ele>66</ele>
        <time>2021-04-15T10:08:53.000Z</time>
      </trkpt>
      <trkpt lat="47.19723" lon="-1.74566">
        <ele>66</ele>
        <time>2021-04-15T10:08:55.000Z</time>
      </trkpt>
      <trkpt lat="47.1973" lon="-1.74583">
        <ele>66</ele>
        <time>2021-04-15T10:08:57.000Z</time>
      </trkpt>
      <trkpt lat="47.19738" lon="-1.746">
        <ele>66</ele>
        <time>2021-04-15T10:08:59.000Z</time>
      </trkpt>
      <trkpt lat="47.19745" lon="-1.74618">
        <ele>66</ele>
        <time>2021-04-15T10:09:01.000Z</time>
      </trkpt>
      <trkpt lat="47.19753" lon="-1.74634">
        <ele>66</ele>
        <time>2021-04-15T10:09:03.000Z</time>
      </trkpt>
      <trkpt lat="47.1976" lon="-1.74652">
        <ele>66</ele>
        <time>2021-04-15T10:09:05.000Z</time>
      </trkpt>
      <trkpt lat="47.19767" lon="-1.74669">
        <ele>66</ele>
        <time>2021-04-15T10:09:07.000Z</time>
      </trkpt>
      <trkpt lat="47.19773" lon="-1.74687">
        <ele>66</ele>
        <time>2021-04-15T10:09:09.000Z</time>
      </trkpt>
      <trkpt lat="47.19779" lon="-1.74706">
        <ele>66</ele>
        <time>2021-04-15T10:09:11.000Z</time>
      </trkpt>
      <trkpt lat="47.19783" lon="-1.74727">
        <ele>66</ele>
        <time>2021-04-15T10:09:13.000Z</time>
      </trkpt>
      <trkpt lat="47.19788" lon="-1.7475">
        <ele>65</ele>
        <time>2021-04-15T10:09:15.000Z</time>
      </trkpt>
      <trkpt lat="47.19792" lon="-1.74772">
        <ele>64</ele>
        <time>2021-04-15T10:09:17.000Z</time>
      </trkpt>
      <trkpt lat="47.19795" lon="-1.74795">
        <ele>64</ele>
        <time>2021-04-15T10:09:19.000Z</time>
      </trkpt>
      <trkpt lat="47.19799" lon="-1.7482">
        <ele>63</ele>
        <time>2021-04-15T10:09:21.000Z</time>
      </trkpt>
      <trkpt lat="47.19802" lon="-1.74844">
        <ele>62</ele>
        <time>2021-04-15T10:09:23.000Z</time>
      </trkpt>
      <trkpt lat="47.19806" lon="-1.74868">
        <ele>62</ele>
        <time>2021-04-15T10:09:25.000Z</time>
      </trkpt>
      <trkpt lat="47.19811" lon="-1.74892">
        <ele>62</ele>
        <time>2021-04-15T10:09:27.000Z</time>
      </trkpt>
      <trkpt lat="47.19815" lon="-1.74914">
        <ele>62</ele>
        <time>2021-04-15T10:09:29.000Z</time>
      </trkpt>
      <trkpt lat="47.19819" lon="-1.74936">
        <ele>62</ele>
        <time>2021-04-15T10:09:31.000Z</time>
      </trkpt>
      <trkpt lat="47.19823" lon="-1.74956">
        <ele>62</ele>
        <time>2021-04-15T10:09:33.000Z</time>
      </trkpt>
      <trkpt lat="47.19826" lon="-1.74974">
        <ele>63</ele>
        <time>2021-04-15T10:09:35.000Z</time>
      </trkpt>
      <trkpt lat="47.1983" lon="-1.74993">
        <ele>63</ele>
        <time>2021-04-15T10:09:37.000Z</time>
      </trkpt>
      <trkpt lat="47.19835" lon="-1.7501">
        <ele>63</ele>
        <time>2021-04-15T10:09:39.000Z</time>
      </trkpt>
      <trkpt lat="47.19842" lon="-1.75028">
        <ele>64</ele>
        <time>2021-04-15T10:09:41.000Z</time>
      </trkpt>
      <trkpt lat="47.19849" lon="-1.75047">
        <ele>65</ele>
        <time>2021-04-15T10:09:43.000Z</time>
      </trkpt>
      <trkpt lat="47.19856" lon="-1.75064">
        <ele>65</ele>
        <time>2021-04-15T10:09:45.000Z</time>
      </trkpt>
      <trkpt lat="47.19864" lon="-1.75083">
        <ele>65</ele>
        <time>2021-04-15T10:09:47.000Z</time>
      </trkpt>
      <trkpt lat="47.19871" lon="-1.751">
        <ele>65</ele>
        <time>2021-04-15T10:09:49.000Z</time>
      </trkpt>
      <trkpt lat="47.19878" lon="-1.75117">
        <ele>65</ele>
        <time>2021-04-15T10:09:51.000Z</time>
      </trkpt>
      <trkpt lat="47.19885" lon="-1.75133">
        <ele>65</ele>
        <time>2021-04-15T10:09:53.000Z</time>
      </trkpt>
      <trkpt lat="47.19892" lon="-1.7515">
        <ele>65</ele>
        <time>2021-04-15T10:09:55.000Z</time>
      </trkpt>
      <trkpt lat="47.19899" lon="-1.75167">
        <ele>65</ele>
        <time>2021-04-15T10:09:57.000Z</time>
      </trkpt>
      <trkpt lat="47.19906" lon="-1.75184">
        <ele>65</ele>
        <time>2021-04-15T10:09:59.000Z</time>
      </trkpt>
      <trkpt lat="47.19913" lon="-1.75201">
        <ele>65</ele>
        <time>2021-04-15T10:10:01.000Z</time>
      </trkpt>
      <trkpt lat="47.19919" lon="-1.75219">
        <ele>65</ele>
        <time>2021-04-15T10:10:03.000Z</time>
      </trkpt>
      <trkpt lat="47.19926" lon="-1.75236">
        <ele>65</ele>
        <time>2021-04-15T10:10:05.000Z</time>
      </trkpt>
      <trkpt lat="47.19933" lon="-1.75253">
        <ele>65</ele>
        <time>2021-04-15T10:10:07.000Z</time>
      </trkpt>
      <trkpt lat="47.19939" lon="-1.7527">
        <ele>65</ele>
        <time>2021-04-15T10:10:09.000Z</time>
      </trkpt>
      <trkpt lat="47.19946" lon="-1.75287">
        <ele>65</ele>
        <time>2021-04-15T10:10:11.000Z</time>
      </trkpt>
      <trkpt lat="47.19946" lon="-1.75306">
        <ele>64</ele>
        <time>2021-04-15T10:10:13.000Z</time>
      </trkpt>
      <trkpt lat="47.19936" lon="-1.75322">
        <ele>64</ele>
        <time>2021-04-15T10:10:15.000Z</time>
      </trkpt>
      <trkpt lat="47.19927" lon="-1.7534">
        <ele>63</ele>
        <time>2021-04-15T10:10:17.000Z</time>
      </trkpt>
      <trkpt lat="47.19917" lon="-1.75356">
        <ele>64</ele>
        <time>2021-04-15T10:10:19.000Z</time>
      </trkpt>
      <trkpt lat="47.19905" lon="-1.75368">
        <ele>64</ele>
        <time>2021-04-15T10:10:21.000Z</time>
      </trkpt>
      <trkpt lat="47.19893" lon="-1.7538">
        <ele>64</ele>
        <time>2021-04-15T10:10:23.000Z</time>
      </trkpt>
      <trkpt lat="47.1988" lon="-1.75392">
        <ele>64</ele>
        <time>2021-04-15T10:10:25.000Z</time>
      </trkpt>
      <trkpt lat="47.19868" lon="-1.75402">
        <ele>64</ele>
        <time>2021-04-15T10:10:27.000Z</time>
      </trkpt>
      <trkpt lat="47.19856" lon="-1.75412">
        <ele>64</ele>
        <time>2021-04-15T10:10:29.000Z</time>
      </trkpt>
      <trkpt lat="47.19843" lon="-1.75421">
        <ele>65</ele>
        <time>2021-04-15T10:10:31.000Z</time>
      </trkpt>
      <trkpt lat="47.1983" lon="-1.75431">
        <ele>65</ele>
        <time>2021-04-15T10:10:33.000Z</time>
      </trkpt>
      <trkpt lat="47.19817" lon="-1.75442">
        <ele>66</ele>
        <time>2021-04-15T10:10:35.000Z</time>
      </trkpt>
      <trkpt lat="47.19804" lon="-1.75453">
        <ele>67</ele>
        <time>2021-04-15T10:10:37.000Z</time>
      </trkpt>
      <trkpt lat="47.19793" lon="-1.75466">
        <ele>68</ele>
        <time>2021-04-15T10:10:39.000Z</time>
      </trkpt>
      <trkpt lat="47.19781" lon="-1.75478">
        <ele>68</ele>
        <time>2021-04-15T10:10:41.000Z</time>
      </trkpt>
      <trkpt lat="47.1977" lon="-1.75492">
        <ele>68</ele>
        <time>2021-04-15T10:10:43.000Z</time>
      </trkpt>
      <trkpt lat="47.19759" lon="-1.75506">
        <ele>68</ele>
        <time>2021-04-15T10:10:45.000Z</time>
      </trkpt>
      <trkpt lat="47.1975" lon="-1.75521">
        <ele>68</ele>
        <time>2021-04-15T10:10:47.000Z</time>
      </trkpt>
      <trkpt lat="47.19742" lon="-1.75537">
        <ele>68</ele>
        <time>2021-04-15T10:10:49.000Z</time>
      </trkpt>
      <trkpt lat="47.19733" lon="-1.75554">
        <ele>69</ele>
        <time>2021-04-15T10:10:51.000Z</time>
      </trkpt>
      <trkpt lat="47.19726" lon="-1.75572">
        <ele>70</ele>
        <time>2021-04-15T10:10:53.000Z</time>
      </trkpt>
      <trkpt lat="47.19719" lon="-1.75589">
        <ele>70</ele>
        <time>2021-04-15T10:10:55.000Z</time>
      </trkpt>
      <trkpt lat="47.19713" lon="-1.75606">
        <ele>70</ele>
        <time>2021-04-15T10:10:57.000Z</time>
      </trkpt>
      <trkpt lat="47.19706" lon="-1.75623">
        <ele>71</ele>
        <time>2021-04-15T10:10:59.000Z</time>
      </trkpt>
      <trkpt lat="47.19698" lon="-1.7564">
        <ele>71</ele>
        <time>2021-04-15T10:11:01.000Z</time>
      </trkpt>
      <trkpt lat="47.1969" lon="-1.75657">
        <ele>71</ele>
        <time>2021-04-15T10:11:03.000Z</time>
      </trkpt>
      <trkpt lat="47.19681" lon="-1.75671">
        <ele>71</ele>
        <time>2021-04-15T10:11:05.000Z</time>
      </trkpt>
      <trkpt lat="47.1967" lon="-1.75685">
        <ele>71</ele>
        <time>2021-04-15T10:11:07.000Z</time>
      </trkpt>
      <trkpt lat="47.19659" lon="-1.75696">
        <ele>71</ele>
        <time>2021-04-15T10:11:09.000Z</time>
      </trkpt>
      <trkpt lat="47.19647" lon="-1.75708">
        <ele>72</ele>
        <time>2021-04-15T10:11:11.000Z</time>
      </trkpt>
      <trkpt lat="47.19636" lon="-1.75718">
        <ele>72</ele>
        <time>2021-04-15T10:11:13.000Z</time>
      </trkpt>
      <trkpt lat="47.19626" lon="-1.75727">
        <ele>72</ele>
        <time>2021-04-15T10:11:15.000Z</time>
      </trkpt>
      <trkpt lat="47.19625" lon="-1.75745">
        <ele>73</ele>
        <time>2021-04-15T10:11:18.000Z</time>
      </trkpt>
      <trkpt lat="47.19634" lon="-1.75753">
        <ele>73</ele>
        <time>2021-04-15T10:11:20.000Z</time>
      </trkpt>
      <trkpt lat="47.19646" lon="-1.75761">
        <ele>73</ele>
        <time>2021-04-15T10:11:22.000Z</time>
      </trkpt>
      <trkpt lat="47.19658" lon="-1.75769">
        <ele>73</ele>
        <time>2021-04-15T10:11:24.000Z</time>
      </trkpt>
      <trkpt lat="47.19669" lon="-1.75778">
        <ele>72</ele>
        <time>2021-04-15T10:11:26.000Z</time>
      </trkpt>
      <trkpt lat="47.1968" lon="-1.75789">
        <ele>72</ele>
        <time>2021-04-15T10:11:28.000Z</time>
      </trkpt>
      <trkpt lat="47.19689" lon="-1.75801">
        <ele>72</ele>
        <time>2021-04-15T10:11:30.000Z</time>
      </trkpt>
      <trkpt lat="47.19697" lon="-1.75813">
        <ele>71</ele>
        <time>2021-04-15T10:11:32.000Z</time>
      </trkpt>
      <trkpt lat="47.19703" lon="-1.75824">
        <ele>71</ele>
        <time>2021-04-15T10:11:34.000Z</time>
      </trkpt>
      <trkpt lat="47.19703" lon="-1.75837">
        <ele>72</ele>
        <time>2021-04-15T10:11:36.000Z</time>
      </trkpt>
      <trkpt lat="47.19694" lon="-1.75848">
        <ele>72</ele>
        <time>2021-04-15T10:11:38.000Z</time>
      </trkpt>
      <trkpt lat="47.19682" lon="-1.75855">
        <ele>72</ele>
        <time>2021-04-15T10:11:40.000Z</time>
      </trkpt>
      <trkpt lat="47.1967" lon="-1.75863">
        <ele>71</ele>
        <time>2021-04-15T10:11:42.000Z</time>
      </trkpt>
      <trkpt lat="47.19657" lon="-1.75871">
        <ele>72</ele>
        <time>2021-04-15T10:11:44.000Z</time>
      </trkpt>
      <trkpt lat="47.19644" lon="-1.75879">
        <ele>72</ele>
        <time>2021-04-15T10:11:46.000Z</time>
      </trkpt>
      <trkpt lat="47.19632" lon="-1.75888">
        <ele>73</ele>
        <time>2021-04-15T10:11:48.000Z</time>
      </trkpt>
      <trkpt lat="47.19618" lon="-1.75896">
        <ele>73</ele>
        <time>2021-04-15T10:11:50.000Z</time>
      </trkpt>
      <trkpt lat="47.19605" lon="-1.75904">
        <ele>73</ele>
        <time>2021-04-15T10:11:52.000Z</time>
      </trkpt>
      <trkpt lat="47.19593" lon="-1.75911">
        <ele>74</ele>
        <time>2021-04-15T10:11:54.000Z</time>
      </trkpt>
      <trkpt lat="47.19581" lon="-1.75917">
        <ele>74</ele>
        <time>2021-04-15T10:11:56.000Z</time>
      </trkpt>
      <trkpt lat="47.19568" lon="-1.75925">
        <ele>74</ele>
        <time>2021-04-15T10:11:58.000Z</time>
      </trkpt>
      <trkpt lat="47.19557" lon="-1.75933">
        <ele>74</ele>
        <time>2021-04-15T10:12:00.000Z</time>
      </trkpt>
      <trkpt lat="47.19545" lon="-1.75942">
        <ele>74</ele>
        <time>2021-04-15T10:12:02.000Z</time>
      </trkpt>
      <trkpt lat="47.19534" lon="-1.75951">
        <ele>74</ele>
        <time>2021-04-15T10:12:04.000Z</time>
      </trkpt>
      <trkpt lat="47.19523" lon="-1.75962">
        <ele>74</ele>
        <time>2021-04-15T10:12:06.000Z</time>
      </trkpt>
      <trkpt lat="47.19512" lon="-1.75975">
        <ele>74</ele>
        <time>2021-04-15T10:12:08.000Z</time>
      </trkpt>
      <trkpt lat="47.19502" lon="-1.75988">
        <ele>74</ele>
        <time>2021-04-15T10:12:10.000Z</time>
      </trkpt>
      <trkpt lat="47.19492" lon="-1.76001">
        <ele>74</ele>
        <time>2021-04-15T10:12:12.000Z</time>
      </trkpt>
      <trkpt lat="47.19482" lon="-1.76015">
        <ele>74</ele>
        <time>2021-04-15T10:12:14.000Z</time>
      </trkpt>
      <trkpt lat="47.19472" lon="-1.76028">
        <ele>74</ele>
        <time>2021-04-15T10:12:16.000Z</time>
      </trkpt>
      <trkpt lat="47.19462" lon="-1.76043">
        <ele>74</ele>
        <time>2021-04-15T10:12:18.000Z</time>
      </trkpt>
      <trkpt lat="47.19453" lon="-1.76057">
        <ele>74</ele>
        <time>2021-04-15T10:12:20.000Z</time>
      </trkpt>
      <trkpt lat="47.19444" lon="-1.76071">
        <ele>74</ele>
        <time>2021-04-15T10:12:22.000Z</time>
      </trkpt>
      <trkpt lat="47.19434" lon="-1.76084">
        <ele>74</ele>
        <time>2021-04-15T10:12:24.000Z</time>
      </trkpt>
      <trkpt lat="47.19426" lon="-1.761">
        <ele>74</ele>
        <time>2021-04-15T10:12:26.000Z</time>
      </trkpt>
      <trkpt lat="47.19418" lon="-1.76118">
        <ele>75</ele>
        <time>2021-04-15T10:12:28.000Z</time>
      </trkpt>
      <trkpt lat="47.19412" lon="-1.76136">
        <ele>74</ele>
        <time>2021-04-15T10:12:30.000Z</time>
      </trkpt>
      <trkpt lat="47.19406" lon="-1.76156">
        <ele>74</ele>
        <time>2021-04-15T10:12:32.000Z</time>
      </trkpt>
      <trkpt lat="47.194" lon="-1.76174">
        <ele>74</ele>
        <time>2021-04-15T10:12:34.000Z</time>
      </trkpt>
      <trkpt lat="47.19392" lon="-1.76192">
        <ele>74</ele>
        <time>2021-04-15T10:12:36.000Z</time>
      </trkpt>
      <trkpt lat="47.19383" lon="-1.76207">
        <ele>74</ele>
        <time>2021-04-15T10:12:38.000Z</time>
      </trkpt>
      <trkpt lat="47.19374" lon="-1.76223">
        <ele>74</ele>
        <time>2021-04-15T10:12:40.000Z</time>
      </trkpt>
      <trkpt lat="47.19366" lon="-1.7624">
        <ele>74</ele>
        <time>2021-04-15T10:12:42.000Z</time>
      </trkpt>
      <trkpt lat="47.19356" lon="-1.76257">
        <ele>74</ele>
        <time>2021-04-15T10:12:44.000Z</time>
      </trkpt>
      <trkpt lat="47.19347" lon="-1.76274">
        <ele>73</ele>
        <time>2021-04-15T10:12:46.000Z</time>
      </trkpt>
      <trkpt lat="47.19338" lon="-1.76291">
        <ele>73</ele>
        <time>2021-04-15T10:12:48.000Z</time>
      </trkpt>
      <trkpt lat="47.19329" lon="-1.76307">
        <ele>73</ele>
        <time>2021-04-15T10:12:50.000Z</time>
      </trkpt>
      <trkpt lat="47.1932" lon="-1.76323">
        <ele>72</ele>
        <time>2021-04-15T10:12:52.000Z</time>
      </trkpt>
      <trkpt lat="47.19311" lon="-1.76339">
        <ele>72</ele>
        <time>2021-04-15T10:12:54.000Z</time>
      </trkpt>
      <trkpt lat="47.19303" lon="-1.76355">
        <ele>72</ele>
        <time>2021-04-15T10:12:56.000Z</time>
      </trkpt>
      <trkpt lat="47.19294" lon="-1.76372">
        <ele>72</ele>
        <time>2021-04-15T10:12:58.000Z</time>
      </trkpt>
      <trkpt lat="47.19285" lon="-1.7639">
        <ele>71</ele>
        <time>2021-04-15T10:13:00.000Z</time>
      </trkpt>
      <trkpt lat="47.19275" lon="-1.76407">
        <ele>71</ele>
        <time>2021-04-15T10:13:02.000Z</time>
      </trkpt>
      <trkpt lat="47.19265" lon="-1.76424">
        <ele>70</ele>
        <time>2021-04-15T10:13:04.000Z</time>
      </trkpt>
      <trkpt lat="47.19256" lon="-1.76443">
        <ele>70</ele>
        <time>2021-04-15T10:13:06.000Z</time>
      </trkpt>
      <trkpt lat="47.19247" lon="-1.76462">
        <ele>71</ele>
        <time>2021-04-15T10:13:08.000Z</time>
      </trkpt>
      <trkpt lat="47.19239" lon="-1.7648">
        <ele>71</ele>
        <time>2021-04-15T10:13:10.000Z</time>
      </trkpt>
      <trkpt lat="47.19232" lon="-1.76499">
        <ele>70</ele>
        <time>2021-04-15T10:13:12.000Z</time>
      </trkpt>
      <trkpt lat="47.19225" lon="-1.76517">
        <ele>70</ele>
        <time>2021-04-15T10:13:14.000Z</time>
      </trkpt>
      <trkpt lat="47.19217" lon="-1.76535">
        <ele>70</ele>
        <time>2021-04-15T10:13:16.000Z</time>
      </trkpt>
      <trkpt lat="47.19209" lon="-1.76556">
        <ele>70</ele>
        <time>2021-04-15T10:13:18.000Z</time>
      </trkpt>
      <trkpt lat="47.19201" lon="-1.76575">
        <ele>71</ele>
        <time>2021-04-15T10:13:20.000Z</time>
      </trkpt>
      <trkpt lat="47.19193" lon="-1.76595">
        <ele>70</ele>
        <time>2021-04-15T10:13:22.000Z</time>
      </trkpt>
      <trkpt lat="47.19185" lon="-1.76614">
        <ele>70</ele>
        <time>2021-04-15T10:13:24.000Z</time>
      </trkpt>
      <trkpt lat="47.19176" lon="-1.76633">
        <ele>70</ele>
        <time>2021-04-15T10:13:26.000Z</time>
      </trkpt>
      <trkpt lat="47.19168" lon="-1.76653">
        <ele>70</ele>
        <time>2021-04-15T10:13:28.000Z</time>
      </trkpt>
      <trkpt lat="47.19158" lon="-1.76673">
        <ele>70</ele>
        <time>2021-04-15T10:13:30.000Z</time>
      </trkpt>
      <trkpt lat="47.19149" lon="-1.76692">
        <ele>70</ele>
        <time>2021-04-15T10:13:32.000Z</time>
      </trkpt>
      <trkpt lat="47.19139" lon="-1.76711">
        <ele>70</ele>
        <time>2021-04-15T10:13:34.000Z</time>
      </trkpt>
      <trkpt lat="47.19129" lon="-1.7673">
        <ele>70</ele>
        <time>2021-04-15T10:13:36.000Z</time>
      </trkpt>
      <trkpt lat="47.19119" lon="-1.76749">
        <ele>70</ele>
        <time>2021-04-15T10:13:38.000Z</time>
      </trkpt>
      <trkpt lat="47.1911" lon="-1.76767">
        <ele>70</ele>
        <time>2021-04-15T10:13:40.000Z</time>
      </trkpt>
      <trkpt lat="47.191" lon="-1.76784">
        <ele>70</ele>
        <time>2021-04-15T10:13:42.000Z</time>
      </trkpt>
      <trkpt lat="47.1909" lon="-1.76802">
        <ele>70</ele>
        <time>2021-04-15T10:13:44.000Z</time>
      </trkpt>
      <trkpt lat="47.1908" lon="-1.76819">
        <ele>70</ele>
        <time>2021-04-15T10:13:46.000Z</time>
      </trkpt>
      <trkpt lat="47.19071" lon="-1.76836">
        <ele>70</ele>
        <time>2021-04-15T10:13:48.000Z</time>
      </trkpt>
      <trkpt lat="47.19062" lon="-1.76853">
        <ele>70</ele>
        <time>2021-04-15T10:13:50.000Z</time>
      </trkpt>
      <trkpt lat="47.19053" lon="-1.7687">
        <ele>70</ele>
        <time>2021-04-15T10:13:52.000Z</time>
      </trkpt>
      <trkpt lat="47.19044" lon="-1.76887">
        <ele>70</ele>
        <time>2021-04-15T10:13:54.000Z</time>
      </trkpt>
      <trkpt lat="47.19035" lon="-1.76903">
        <ele>70</ele>
        <time>2021-04-15T10:13:56.000Z</time>
      </trkpt>
      <trkpt lat="47.19026" lon="-1.76919">
        <ele>70</ele>
        <time>2021-04-15T10:13:58.000Z</time>
      </trkpt>
      <trkpt lat="47.19017" lon="-1.76935">
        <ele>70</ele>
        <time>2021-04-15T10:14:00.000Z</time>
      </trkpt>
      <trkpt lat="47.19008" lon="-1.76951">
        <ele>70</ele>
        <time>2021-04-15T10:14:02.000Z</time>
      </trkpt>
      <trkpt lat="47.19" lon="-1.76967">
        <ele>70</ele>
        <time>2021-04-15T10:14:04.000Z</time>
      </trkpt>
      <trkpt lat="47.18991" lon="-1.76983">
        <ele>70</ele>
        <time>2021-04-15T10:14:06.000Z</time>
      </trkpt>
      <trkpt lat="47.18982" lon="-1.76999">
        <ele>70</ele>
        <time>2021-04-15T10:14:08.000Z</time>
      </trkpt>
      <trkpt lat="47.18973" lon="-1.77014">
        <ele>70</ele>
        <time>2021-04-15T10:14:10.000Z</time>
      </trkpt>
      <trkpt lat="47.18964" lon="-1.7703">
        <ele>71</ele>
        <time>2021-04-15T10:14:12.000Z</time>
      </trkpt>
      <trkpt lat="47.18955" lon="-1.77046">
        <ele>71</ele>
        <time>2021-04-15T10:14:14.000Z</time>
      </trkpt>
      <trkpt lat="47.18945" lon="-1.7706">
        <ele>71</ele>
        <time>2021-04-15T10:14:16.000Z</time>
      </trkpt>
      <trkpt lat="47.18936" lon="-1.77075">
        <ele>71</ele>
        <time>2021-04-15T10:14:18.000Z</time>
      </trkpt>
      <trkpt lat="47.18927" lon="-1.77089">
        <ele>71</ele>
        <time>2021-04-15T10:14:20.000Z</time>
      </trkpt>
      <trkpt lat="47.18917" lon="-1.77102">
        <ele>72</ele>
        <time>2021-04-15T10:14:22.000Z</time>
      </trkpt>
      <trkpt lat="47.18908" lon="-1.77116">
        <ele>72</ele>
        <time>2021-04-15T10:14:24.000Z</time>
      </trkpt>
      <trkpt lat="47.18898" lon="-1.7713">
        <ele>72</ele>
        <time>2021-04-15T10:14:26.000Z</time>
      </trkpt>
      <trkpt lat="47.18889" lon="-1.77145">
        <ele>72</ele>
        <time>2021-04-15T10:14:28.000Z</time>
      </trkpt>
      <trkpt lat="47.1888" lon="-1.7716">
        <ele>72</ele>
        <time>2021-04-15T10:14:30.000Z</time>
      </trkpt>
      <trkpt lat="47.18873" lon="-1.77177">
        <ele>72</ele>
        <time>2021-04-15T10:14:32.000Z</time>
      </trkpt>
      <trkpt lat="47.18866" lon="-1.77195">
        <ele>72</ele>
        <time>2021-04-15T10:14:34.000Z</time>
      </trkpt>
      <trkpt lat="47.18859" lon="-1.77214">
        <ele>72</ele>
        <time>2021-04-15T10:14:36.000Z</time>
      </trkpt>
      <trkpt lat="47.18854" lon="-1.77233">
        <ele>72</ele>
        <time>2021-04-15T10:14:38.000Z</time>
      </trkpt>
      <trkpt lat="47.1885" lon="-1.77252">
        <ele>72</ele>
        <time>2021-04-15T10:14:40.000Z</time>
      </trkpt>
      <trkpt lat="47.18846" lon="-1.77272">
        <ele>72</ele>
        <time>2021-04-15T10:14:42.000Z</time>
      </trkpt>
      <trkpt lat="47.18844" lon="-1.77292">
        <ele>72</ele>
        <time>2021-04-15T10:14:44.000Z</time>
      </trkpt>
      <trkpt lat="47.18841" lon="-1.77312">
        <ele>72</ele>
        <time>2021-04-15T10:14:46.000Z</time>
      </trkpt>
      <trkpt lat="47.18838" lon="-1.77333">
        <ele>72</ele>
        <time>2021-04-15T10:14:48.000Z</time>
      </trkpt>
      <trkpt lat="47.18835" lon="-1.77354">
        <ele>72</ele>
        <time>2021-04-15T10:14:50.000Z</time>
      </trkpt>
      <trkpt lat="47.18832" lon="-1.77376">
        <ele>71</ele>
        <time>2021-04-15T10:14:52.000Z</time>
      </trkpt>
      <trkpt lat="47.18828" lon="-1.77397">
        <ele>71</ele>
        <time>2021-04-15T10:14:54.000Z</time>
      </trkpt>
      <trkpt lat="47.18822" lon="-1.77418">
        <ele>70</ele>
        <time>2021-04-15T10:14:56.000Z</time>
      </trkpt>
      <trkpt lat="47.18818" lon="-1.77439">
        <ele>70</ele>
        <time>2021-04-15T10:14:58.000Z</time>
      </trkpt>
      <trkpt lat="47.18808" lon="-1.77455">
        <ele>70</ele>
        <time>2021-04-15T10:15:00.000Z</time>
      </trkpt>
      <trkpt lat="47.18794" lon="-1.77465">
        <ele>70</ele>
        <time>2021-04-15T10:15:02.000Z</time>
      </trkpt>
      <trkpt lat="47.18783" lon="-1.77481">
        <ele>70</ele>
        <time>2021-04-15T10:15:04.000Z</time>
      </trkpt>
      <trkpt lat="47.18774" lon="-1.77499">
        <ele>70</ele>
        <time>2021-04-15T10:15:06.000Z</time>
      </trkpt>
      <trkpt lat="47.18764" lon="-1.77517">
        <ele>70</ele>
        <time>2021-04-15T10:15:08.000Z</time>
      </trkpt>
      <trkpt lat="47.18756" lon="-1.77534">
        <ele>70</ele>
        <time>2021-04-15T10:15:10.000Z</time>
      </trkpt>
      <trkpt lat="47.18747" lon="-1.77552">
        <ele>70</ele>
        <time>2021-04-15T10:15:12.000Z</time>
      </trkpt>
      <trkpt lat="47.18738" lon="-1.77569">
        <ele>71</ele>
        <time>2021-04-15T10:15:14.000Z</time>
      </trkpt>
      <trkpt lat="47.18729" lon="-1.77587">
        <ele>71</ele>
        <time>2021-04-15T10:15:16.000Z</time>
      </trkpt>
      <trkpt lat="47.1872" lon="-1.77604">
        <ele>71</ele>
        <time>2021-04-15T10:15:18.000Z</time>
      </trkpt>
      <trkpt lat="47.18711" lon="-1.77621">
        <ele>71</ele>
        <time>2021-04-15T10:15:20.000Z</time>
      </trkpt>
      <trkpt lat="47.18701" lon="-1.77637">
        <ele>71</ele>
        <time>2021-04-15T10:15:22.000Z</time>
      </trkpt>
      <trkpt lat="47.18693" lon="-1.77652">
        <ele>72</ele>
        <time>2021-04-15T10:15:24.000Z</time>
      </trkpt>
      <trkpt lat="47.18684" lon="-1.77666">
        <ele>72</ele>
        <time>2021-04-15T10:15:26.000Z</time>
      </trkpt>
      <trkpt lat="47.18674" lon="-1.77682">
        <ele>73</ele>
        <time>2021-04-15T10:15:28.000Z</time>
      </trkpt>
      <trkpt lat="47.18665" lon="-1.77696">
        <ele>73</ele>
        <time>2021-04-15T10:15:30.000Z</time>
      </trkpt>
      <trkpt lat="47.18656" lon="-1.77709">
        <ele>73</ele>
        <time>2021-04-15T10:15:32.000Z</time>
      </trkpt>
      <trkpt lat="47.18647" lon="-1.77723">
        <ele>74</ele>
        <time>2021-04-15T10:15:34.000Z</time>
      </trkpt>
      <trkpt lat="47.18639" lon="-1.77737">
        <ele>74</ele>
        <time>2021-04-15T10:15:36.000Z</time>
      </trkpt>
      <trkpt lat="47.18629" lon="-1.77751">
        <ele>74</ele>
        <time>2021-04-15T10:15:38.000Z</time>
      </trkpt>
      <trkpt lat="47.1862" lon="-1.77765">
        <ele>75</ele>
        <time>2021-04-15T10:15:40.000Z</time>
      </trkpt>
      <trkpt lat="47.18611" lon="-1.77779">
        <ele>75</ele>
        <time>2021-04-15T10:15:42.000Z</time>
      </trkpt>
      <trkpt lat="47.18601" lon="-1.77794">
        <ele>76</ele>
        <time>2021-04-15T10:15:44.000Z</time>
      </trkpt>
      <trkpt lat="47.18592" lon="-1.77808">
        <ele>76</ele>
        <time>2021-04-15T10:15:46.000Z</time>
      </trkpt>
      <trkpt lat="47.18583" lon="-1.77821">
        <ele>77</ele>
        <time>2021-04-15T10:15:48.000Z</time>
      </trkpt>
      <trkpt lat="47.18574" lon="-1.77835">
        <ele>77</ele>
        <time>2021-04-15T10:15:50.000Z</time>
      </trkpt>
      <trkpt lat="47.18565" lon="-1.77848">
        <ele>77</ele>
        <time>2021-04-15T10:15:52.000Z</time>
      </trkpt>
      <trkpt lat="47.18556" lon="-1.77862">
        <ele>78</ele>
        <time>2021-04-15T10:15:54.000Z</time>
      </trkpt>
      <trkpt lat="47.1855" lon="-1.77877">
        <ele>78</ele>
        <time>2021-04-15T10:15:56.000Z</time>
      </trkpt>
      <trkpt lat="47.18546" lon="-1.77893">
        <ele>78</ele>
        <time>2021-04-15T10:15:58.000Z</time>
      </trkpt>
      <trkpt lat="47.18543" lon="-1.77911">
        <ele>78</ele>
        <time>2021-04-15T10:16:00.000Z</time>
      </trkpt>
      <trkpt lat="47.18535" lon="-1.77924">
        <ele>78</ele>
        <time>2021-04-15T10:16:02.000Z</time>
      </trkpt>
      <trkpt lat="47.18522" lon="-1.77926">
        <ele>79</ele>
        <time>2021-04-15T10:16:04.000Z</time>
      </trkpt>
      <trkpt lat="47.1851" lon="-1.77918">
        <ele>79</ele>
        <time>2021-04-15T10:16:06.000Z</time>
      </trkpt>
      <trkpt lat="47.18499" lon="-1.77909">
        <ele>79</ele>
        <time>2021-04-15T10:16:08.000Z</time>
      </trkpt>
      <trkpt lat="47.18486" lon="-1.7791">
        <ele>79</ele>
        <time>2021-04-15T10:16:10.000Z</time>
      </trkpt>
      <trkpt lat="47.18473" lon="-1.7791">
        <ele>79</ele>
        <time>2021-04-15T10:16:12.000Z</time>
      </trkpt>
      <trkpt lat="47.18461" lon="-1.77909">
        <ele>79</ele>
        <time>2021-04-15T10:16:14.000Z</time>
      </trkpt>
      <trkpt lat="47.18448" lon="-1.77909">
        <ele>79</ele>
        <time>2021-04-15T10:16:16.000Z</time>
      </trkpt>
      <trkpt lat="47.18436" lon="-1.7791">
        <ele>79</ele>
        <time>2021-04-15T10:16:18.000Z</time>
      </trkpt>
      <trkpt lat="47.18424" lon="-1.7791">
        <ele>78</ele>
        <time>2021-04-15T10:16:20.000Z</time>
      </trkpt>
      <trkpt lat="47.18411" lon="-1.7791">
        <ele>78</ele>
        <time>2021-04-15T10:16:22.000Z</time>
      </trkpt>
      <trkpt lat="47.18397" lon="-1.7791">
        <ele>78</ele>
        <time>2021-04-15T10:16:24.000Z</time>
      </trkpt>
      <trkpt lat="47.18383" lon="-1.77911">
        <ele>77</ele>
        <time>2021-04-15T10:16:26.000Z</time>
      </trkpt>
      <trkpt lat="47.18368" lon="-1.77911">
        <ele>76</ele>
        <time>2021-04-15T10:16:28.000Z</time>
      </trkpt>
      <trkpt lat="47.18352" lon="-1.77911">
        <ele>75</ele>
        <time>2021-04-15T10:16:30.000Z</time>
      </trkpt>
      <trkpt lat="47.18336" lon="-1.77912">
        <ele>75</ele>
        <time>2021-04-15T10:16:32.000Z</time>
      </trkpt>
      <trkpt lat="47.1832" lon="-1.77914">
        <ele>74</ele>
        <time>2021-04-15T10:16:34.000Z</time>
      </trkpt>
      <trkpt lat="47.18305" lon="-1.77922">
        <ele>74</ele>
        <time>2021-04-15T10:16:36.000Z</time>
      </trkpt>
      <trkpt lat="47.18292" lon="-1.77933">
        <ele>73</ele>
        <time>2021-04-15T10:16:38.000Z</time>
      </trkpt>
      <trkpt lat="47.18278" lon="-1.77944">
        <ele>73</ele>
        <time>2021-04-15T10:16:40.000Z</time>
      </trkpt>
      <trkpt lat="47.18265" lon="-1.77958">
        <ele>73</ele>
        <time>2021-04-15T10:16:42.000Z</time>
      </trkpt>
      <trkpt lat="47.18254" lon="-1.77976">
        <ele>72</ele>
        <time>2021-04-15T10:16:44.000Z</time>
      </trkpt>
      <trkpt lat="47.18244" lon="-1.77994">
        <ele>73</ele>
        <time>2021-04-15T10:16:46.000Z</time>
      </trkpt>
      <trkpt lat="47.18234" lon="-1.78013">
        <ele>72</ele>
        <time>2021-04-15T10:16:48.000Z</time>
      </trkpt>
      <trkpt lat="47.18224" lon="-1.78031">
        <ele>73</ele>
        <time>2021-04-15T10:16:50.000Z</time>
      </trkpt>
      <trkpt lat="47.18213" lon="-1.7805">
        <ele>73</ele>
        <time>2021-04-15T10:16:52.000Z</time>
      </trkpt>
      <trkpt lat="47.18203" lon="-1.78069">
        <ele>73</ele>
        <time>2021-04-15T10:16:54.000Z</time>
      </trkpt>
      <trkpt lat="47.18193" lon="-1.78088">
        <ele>73</ele>
        <time>2021-04-15T10:16:56.000Z</time>
      </trkpt>
      <trkpt lat="47.18183" lon="-1.78106">
        <ele>73</ele>
        <time>2021-04-15T10:16:58.000Z</time>
      </trkpt>
      <trkpt lat="47.18173" lon="-1.78125">
        <ele>73</ele>
        <time>2021-04-15T10:17:00.000Z</time>
      </trkpt>
      <trkpt lat="47.18162" lon="-1.78144">
        <ele>73</ele>
        <time>2021-04-15T10:17:02.000Z</time>
      </trkpt>
      <trkpt lat="47.18152" lon="-1.78162">
        <ele>73</ele>
        <time>2021-04-15T10:17:04.000Z</time>
      </trkpt>
      <trkpt lat="47.18141" lon="-1.78179">
        <ele>73</ele>
        <time>2021-04-15T10:17:06.000Z</time>
      </trkpt>
      <trkpt lat="47.18129" lon="-1.78195">
        <ele>73</ele>
        <time>2021-04-15T10:17:08.000Z</time>
      </trkpt>
      <trkpt lat="47.18117" lon="-1.78209">
        <ele>74</ele>
        <time>2021-04-15T10:17:10.000Z</time>
      </trkpt>
      <trkpt lat="47.18104" lon="-1.78222">
        <ele>74</ele>
        <time>2021-04-15T10:17:12.000Z</time>
      </trkpt>
      <trkpt lat="47.1809" lon="-1.78232">
        <ele>74</ele>
        <time>2021-04-15T10:17:14.000Z</time>
      </trkpt>
      <trkpt lat="47.18075" lon="-1.78241">
        <ele>74</ele>
        <time>2021-04-15T10:17:16.000Z</time>
      </trkpt>
      <trkpt lat="47.1806" lon="-1.78246">
        <ele>74</ele>
        <time>2021-04-15T10:17:18.000Z</time>
      </trkpt>
      <trkpt lat="47.18044" lon="-1.78251">
        <ele>74</ele>
        <time>2021-04-15T10:17:20.000Z</time>
      </trkpt>
      <trkpt lat="47.18029" lon="-1.78255">
        <ele>74</ele>
        <time>2021-04-15T10:17:22.000Z</time>
      </trkpt>
      <trkpt lat="47.18012" lon="-1.78259">
        <ele>73</ele>
        <time>2021-04-15T10:17:24.000Z</time>
      </trkpt>
      <trkpt lat="47.17996" lon="-1.78262">
        <ele>73</ele>
        <time>2021-04-15T10:17:26.000Z</time>
      </trkpt>
      <trkpt lat="47.17981" lon="-1.78264">
        <ele>73</ele>
        <time>2021-04-15T10:17:28.000Z</time>
      </trkpt>
      <trkpt lat="47.17965" lon="-1.78267">
        <ele>72</ele>
        <time>2021-04-15T10:17:30.000Z</time>
      </trkpt>
      <trkpt lat="47.17949" lon="-1.7827">
        <ele>72</ele>
        <time>2021-04-15T10:17:32.000Z</time>
      </trkpt>
      <trkpt lat="47.17934" lon="-1.78274">
        <ele>71</ele>
        <time>2021-04-15T10:17:34.000Z</time>
      </trkpt>
      <trkpt lat="47.17918" lon="-1.78277">
        <ele>71</ele>
        <time>2021-04-15T10:17:36.000Z</time>
      </trkpt>
      <trkpt lat="47.17902" lon="-1.7828">
        <ele>70</ele>
        <time>2021-04-15T10:17:38.000Z</time>
      </trkpt>
      <trkpt lat="47.17886" lon="-1.78283">
        <ele>70</ele>
        <time>2021-04-15T10:17:40.000Z</time>
      </trkpt>
      <trkpt lat="47.1787" lon="-1.78287">
        <ele>69</ele>
        <time>2021-04-15T10:17:42.000Z</time>
      </trkpt>
      <trkpt lat="47.17855" lon="-1.78293">
        <ele>69</ele>
        <time>2021-04-15T10:17:44.000Z</time>
      </trkpt>
      <trkpt lat="47.1784" lon="-1.78304">
        <ele>68</ele>
        <time>2021-04-15T10:17:46.000Z</time>
      </trkpt>
      <trkpt lat="47.17827" lon="-1.78317">
        <ele>68</ele>
        <time>2021-04-15T10:17:48.000Z</time>
      </trkpt>
      <trkpt lat="47.17816" lon="-1.78334">
        <ele>68</ele>
        <time>2021-04-15T10:17:50.000Z</time>
      </trkpt>
      <trkpt lat="47.17806" lon="-1.78352">
        <ele>68</ele>
        <time>2021-04-15T10:17:52.000Z</time>
      </trkpt>
      <trkpt lat="47.17796" lon="-1.7837">
        <ele>68</ele>
        <time>2021-04-15T10:17:54.000Z</time>
      </trkpt>
      <trkpt lat="47.17786" lon="-1.78388">
        <ele>68</ele>
        <time>2021-04-15T10:17:56.000Z</time>
      </trkpt>
      <trkpt lat="47.17776" lon="-1.78406">
        <ele>68</ele>
        <time>2021-04-15T10:17:58.000Z</time>
      </trkpt>
      <trkpt lat="47.17765" lon="-1.78424">
        <ele>68</ele>
        <time>2021-04-15T10:18:00.000Z</time>
      </trkpt>
      <trkpt lat="47.17755" lon="-1.78441">
        <ele>68</ele>
        <time>2021-04-15T10:18:02.000Z</time>
      </trkpt>
      <trkpt lat="47.17744" lon="-1.78457">
        <ele>68</ele>
        <time>2021-04-15T10:18:04.000Z</time>
      </trkpt>
      <trkpt lat="47.17732" lon="-1.78473">
        <ele>67</ele>
        <time>2021-04-15T10:18:06.000Z</time>
      </trkpt>
      <trkpt lat="47.17719" lon="-1.78488">
        <ele>67</ele>
        <time>2021-04-15T10:18:08.000Z</time>
      </trkpt>
      <trkpt lat="47.17706" lon="-1.78502">
        <ele>67</ele>
        <time>2021-04-15T10:18:10.000Z</time>
      </trkpt>
      <trkpt lat="47.17693" lon="-1.78516">
        <ele>68</ele>
        <time>2021-04-15T10:18:12.000Z</time>
      </trkpt>
      <trkpt lat="47.1768" lon="-1.78531">
        <ele>68</ele>
        <time>2021-04-15T10:18:14.000Z</time>
      </trkpt>
      <trkpt lat="47.17667" lon="-1.78545">
        <ele>68</ele>
        <time>2021-04-15T10:18:16.000Z</time>
      </trkpt>
      <trkpt lat="47.17653" lon="-1.7856">
        <ele>67</ele>
        <time>2021-04-15T10:18:18.000Z</time>
      </trkpt>
      <trkpt lat="47.1764" lon="-1.78574">
        <ele>67</ele>
        <time>2021-04-15T10:18:20.000Z</time>
      </trkpt>
      <trkpt lat="47.17628" lon="-1.78588">
        <ele>67</ele>
        <time>2021-04-15T10:18:22.000Z</time>
      </trkpt>
      <trkpt lat="47.17615" lon="-1.78599">
        <ele>67</ele>
        <time>2021-04-15T10:18:24.000Z</time>
      </trkpt>
      <trkpt lat="47.17601" lon="-1.78609">
        <ele>67</ele>
        <time>2021-04-15T10:18:26.000Z</time>
      </trkpt>
      <trkpt lat="47.17586" lon="-1.78618">
        <ele>67</ele>
        <time>2021-04-15T10:18:28.000Z</time>
      </trkpt>
      <trkpt lat="47.17572" lon="-1.78627">
        <ele>67</ele>
        <time>2021-04-15T10:18:30.000Z</time>
      </trkpt>
      <trkpt lat="47.17557" lon="-1.78636">
        <ele>67</ele>
        <time>2021-04-15T10:18:32.000Z</time>
      </trkpt>
      <trkpt lat="47.17543" lon="-1.78645">
        <ele>66</ele>
        <time>2021-04-15T10:18:34.000Z</time>
      </trkpt>
      <trkpt lat="47.17528" lon="-1.78654">
        <ele>66</ele>
        <time>2021-04-15T10:18:36.000Z</time>
      </trkpt>
      <trkpt lat="47.17514" lon="-1.78663">
        <ele>66</ele>
        <time>2021-04-15T10:18:38.000Z</time>
      </trkpt>
      <trkpt lat="47.17499" lon="-1.78671">
        <ele>66</ele>
        <time>2021-04-15T10:18:40.000Z</time>
      </trkpt>
      <trkpt lat="47.17486" lon="-1.78679">
        <ele>66</ele>
        <time>2021-04-15T10:18:42.000Z</time>
      </trkpt>
      <trkpt lat="47.17472" lon="-1.78689">
        <ele>66</ele>
        <time>2021-04-15T10:18:44.000Z</time>
      </trkpt>
      <trkpt lat="47.17459" lon="-1.78698">
        <ele>66</ele>
        <time>2021-04-15T10:18:46.000Z</time>
      </trkpt>
      <trkpt lat="47.17445" lon="-1.78704">
        <ele>66</ele>
        <time>2021-04-15T10:18:48.000Z</time>
      </trkpt>
      <trkpt lat="47.1743" lon="-1.78706">
        <ele>66</ele>
        <time>2021-04-15T10:18:50.000Z</time>
      </trkpt>
      <trkpt lat="47.17415" lon="-1.78711">
        <ele>66</ele>
        <time>2021-04-15T10:18:52.000Z</time>
      </trkpt>
      <trkpt lat="47.174" lon="-1.78717">
        <ele>65</ele>
        <time>2021-04-15T10:18:54.000Z</time>
      </trkpt>
      <trkpt lat="47.17385" lon="-1.78723">
        <ele>65</ele>
        <time>2021-04-15T10:18:56.000Z</time>
      </trkpt>
      <trkpt lat="47.1737" lon="-1.7873">
        <ele>65</ele>
        <time>2021-04-15T10:18:58.000Z</time>
      </trkpt>
      <trkpt lat="47.17356" lon="-1.78736">
        <ele>64</ele>
        <time>2021-04-15T10:19:00.000Z</time>
      </trkpt>
      <trkpt lat="47.1734" lon="-1.78739">
        <ele>65</ele>
        <time>2021-04-15T10:19:02.000Z</time>
      </trkpt>
      <trkpt lat="47.17325" lon="-1.78742">
        <ele>64</ele>
        <time>2021-04-15T10:19:04.000Z</time>
      </trkpt>
      <trkpt lat="47.1731" lon="-1.78746">
        <ele>64</ele>
        <time>2021-04-15T10:19:06.000Z</time>
      </trkpt>
      <trkpt lat="47.17294" lon="-1.78748">
        <ele>64</ele>
        <time>2021-04-15T10:19:08.000Z</time>
      </trkpt>
      <trkpt lat="47.17278" lon="-1.78752">
        <ele>64</ele>
        <time>2021-04-15T10:19:10.000Z</time>
      </trkpt>
      <trkpt lat="47.17262" lon="-1.78756">
        <ele>63</ele>
        <time>2021-04-15T10:19:12.000Z</time>
      </trkpt>
      <trkpt lat="47.17245" lon="-1.7876">
        <ele>63</ele>
        <time>2021-04-15T10:19:14.000Z</time>
      </trkpt>
      <trkpt lat="47.17228" lon="-1.78764">
        <ele>62</ele>
        <time>2021-04-15T10:19:16.000Z</time>
      </trkpt>
      <trkpt lat="47.17211" lon="-1.78768">
        <ele>62</ele>
        <time>2021-04-15T10:19:18.000Z</time>
      </trkpt>
      <trkpt lat="47.17194" lon="-1.78766">
        <ele>61</ele>
        <time>2021-04-15T10:19:20.000Z</time>
      </trkpt>
      <trkpt lat="47.17177" lon="-1.7876">
        <ele>60</ele>
        <time>2021-04-15T10:19:22.000Z</time>
      </trkpt>
      <trkpt lat="47.17161" lon="-1.78751">
        <ele>58</ele>
        <time>2021-04-15T10:19:24.000Z</time>
      </trkpt>
      <trkpt lat="47.17145" lon="-1.78739">
        <ele>57</ele>
        <time>2021-04-15T10:19:26.000Z</time>
      </trkpt>
      <trkpt lat="47.17138" lon="-1.78731">
        <ele>57</ele>
        <time>2021-04-15T10:19:27.000Z</time>
      </trkpt>
      <trkpt lat="47.17126" lon="-1.78714">
        <ele>57</ele>
        <time>2021-04-15T10:19:29.000Z</time>
      </trkpt>
      <trkpt lat="47.17115" lon="-1.78699">
        <ele>57</ele>
        <time>2021-04-15T10:19:31.000Z</time>
      </trkpt>
      <trkpt lat="47.17105" lon="-1.78685">
        <ele>58</ele>
        <time>2021-04-15T10:19:33.000Z</time>
      </trkpt>
      <trkpt lat="47.17094" lon="-1.7867">
        <ele>58</ele>
        <time>2021-04-15T10:19:35.000Z</time>
      </trkpt>
      <trkpt lat="47.17084" lon="-1.78656">
        <ele>59</ele>
        <time>2021-04-15T10:19:37.000Z</time>
      </trkpt>
      <trkpt lat="47.17075" lon="-1.78643">
        <ele>60</ele>
        <time>2021-04-15T10:19:39.000Z</time>
      </trkpt>
      <trkpt lat="47.17066" lon="-1.7863">
        <ele>60</ele>
        <time>2021-04-15T10:19:41.000Z</time>
      </trkpt>
      <trkpt lat="47.17057" lon="-1.78615">
        <ele>59</ele>
        <time>2021-04-15T10:19:43.000Z</time>
      </trkpt>
      <trkpt lat="47.17047" lon="-1.78601">
        <ele>59</ele>
        <time>2021-04-15T10:19:45.000Z</time>
      </trkpt>
      <trkpt lat="47.17037" lon="-1.78587">
        <ele>59</ele>
        <time>2021-04-15T10:19:47.000Z</time>
      </trkpt>
      <trkpt lat="47.17028" lon="-1.78574">
        <ele>59</ele>
        <time>2021-04-15T10:19:49.000Z</time>
      </trkpt>
      <trkpt lat="47.17019" lon="-1.7856">
        <ele>59</ele>
        <time>2021-04-15T10:19:51.000Z</time>
      </trkpt>
      <trkpt lat="47.1701" lon="-1.78549">
        <ele>60</ele>
        <time>2021-04-15T10:19:53.000Z</time>
      </trkpt>
      <trkpt lat="47.17002" lon="-1.78537">
        <ele>60</ele>
        <time>2021-04-15T10:19:55.000Z</time>
      </trkpt>
      <trkpt lat="47.16994" lon="-1.78525">
        <ele>61</ele>
        <time>2021-04-15T10:19:57.000Z</time>
      </trkpt>
      <trkpt lat="47.16986" lon="-1.78514">
        <ele>61</ele>
        <time>2021-04-15T10:19:59.000Z</time>
      </trkpt>
      <trkpt lat="47.16979" lon="-1.78502">
        <ele>61</ele>
        <time>2021-04-15T10:20:01.000Z</time>
      </trkpt>
      <trkpt lat="47.16971" lon="-1.7849">
        <ele>62</ele>
        <time>2021-04-15T10:20:03.000Z</time>
      </trkpt>
      <trkpt lat="47.16964" lon="-1.78479">
        <ele>63</ele>
        <time>2021-04-15T10:20:05.000Z</time>
      </trkpt>
      <trkpt lat="47.16956" lon="-1.78468">
        <ele>64</ele>
        <time>2021-04-15T10:20:07.000Z</time>
      </trkpt>
      <trkpt lat="47.16948" lon="-1.78457">
        <ele>64</ele>
        <time>2021-04-15T10:20:09.000Z</time>
      </trkpt>
      <trkpt lat="47.16939" lon="-1.78445">
        <ele>65</ele>
        <time>2021-04-15T10:20:11.000Z</time>
      </trkpt>
      <trkpt lat="47.16932" lon="-1.78434">
        <ele>65</ele>
        <time>2021-04-15T10:20:13.000Z</time>
      </trkpt>
      <trkpt lat="47.16924" lon="-1.78423">
        <ele>66</ele>
        <time>2021-04-15T10:20:15.000Z</time>
      </trkpt>
      <trkpt lat="47.16917" lon="-1.78412">
        <ele>66</ele>
        <time>2021-04-15T10:20:17.000Z</time>
      </trkpt>
      <trkpt lat="47.1691" lon="-1.78399">
        <ele>67</ele>
        <time>2021-04-15T10:20:19.000Z</time>
      </trkpt>
      <trkpt lat="47.16904" lon="-1.78386">
        <ele>67</ele>
        <time>2021-04-15T10:20:21.000Z</time>
      </trkpt>
      <trkpt lat="47.16898" lon="-1.78372">
        <ele>68</ele>
        <time>2021-04-15T10:20:23.000Z</time>
      </trkpt>
      <trkpt lat="47.16894" lon="-1.78357">
        <ele>68</ele>
        <time>2021-04-15T10:20:25.000Z</time>
      </trkpt>
      <trkpt lat="47.16889" lon="-1.78342">
        <ele>69</ele>
        <time>2021-04-15T10:20:27.000Z</time>
      </trkpt>
      <trkpt lat="47.16885" lon="-1.78327">
        <ele>69</ele>
        <time>2021-04-15T10:20:29.000Z</time>
      </trkpt>
      <trkpt lat="47.16879" lon="-1.78312">
        <ele>70</ele>
        <time>2021-04-15T10:20:31.000Z</time>
      </trkpt>
      <trkpt lat="47.16875" lon="-1.78298">
        <ele>70</ele>
        <time>2021-04-15T10:20:33.000Z</time>
      </trkpt>
      <trkpt lat="47.16871" lon="-1.78284">
        <ele>71</ele>
        <time>2021-04-15T10:20:35.000Z</time>
      </trkpt>
      <trkpt lat="47.16865" lon="-1.7827">
        <ele>72</ele>
        <time>2021-04-15T10:20:37.000Z</time>
      </trkpt>
      <trkpt lat="47.16858" lon="-1.78254">
        <ele>72</ele>
        <time>2021-04-15T10:20:39.000Z</time>
      </trkpt>
      <trkpt lat="47.16851" lon="-1.78238">
        <ele>72</ele>
        <time>2021-04-15T10:20:41.000Z</time>
      </trkpt>
      <trkpt lat="47.16845" lon="-1.78221">
        <ele>72</ele>
        <time>2021-04-15T10:20:43.000Z</time>
      </trkpt>
      <trkpt lat="47.1684" lon="-1.78203">
        <ele>72</ele>
        <time>2021-04-15T10:20:45.000Z</time>
      </trkpt>
      <trkpt lat="47.16835" lon="-1.78186">
        <ele>72</ele>
        <time>2021-04-15T10:20:47.000Z</time>
      </trkpt>
      <trkpt lat="47.16829" lon="-1.78169">
        <ele>72</ele>
        <time>2021-04-15T10:20:49.000Z</time>
      </trkpt>
      <trkpt lat="47.16824" lon="-1.78152">
        <ele>72</ele>
        <time>2021-04-15T10:20:51.000Z</time>
      </trkpt>
      <trkpt lat="47.16818" lon="-1.78135">
        <ele>72</ele>
        <time>2021-04-15T10:20:53.000Z</time>
      </trkpt>
      <trkpt lat="47.16813" lon="-1.78119">
        <ele>72</ele>
        <time>2021-04-15T10:20:55.000Z</time>
      </trkpt>
      <trkpt lat="47.16808" lon="-1.78103">
        <ele>72</ele>
        <time>2021-04-15T10:20:57.000Z</time>
      </trkpt>
      <trkpt lat="47.16803" lon="-1.78087">
        <ele>73</ele>
        <time>2021-04-15T10:20:59.000Z</time>
      </trkpt>
      <trkpt lat="47.16798" lon="-1.78071">
        <ele>73</ele>
        <time>2021-04-15T10:21:01.000Z</time>
      </trkpt>
      <trkpt lat="47.16793" lon="-1.78054">
        <ele>73</ele>
        <time>2021-04-15T10:21:03.000Z</time>
      </trkpt>
      <trkpt lat="47.16788" lon="-1.78037">
        <ele>73</ele>
        <time>2021-04-15T10:21:05.000Z</time>
      </trkpt>
      <trkpt lat="47.16783" lon="-1.78021">
        <ele>72</ele>
        <time>2021-04-15T10:21:07.000Z</time>
      </trkpt>
      <trkpt lat="47.16777" lon="-1.78005">
        <ele>72</ele>
        <time>2021-04-15T10:21:09.000Z</time>
      </trkpt>
      <trkpt lat="47.16772" lon="-1.77988">
        <ele>72</ele>
        <time>2021-04-15T10:21:11.000Z</time>
      </trkpt>
      <trkpt lat="47.16766" lon="-1.77972">
        <ele>72</ele>
        <time>2021-04-15T10:21:13.000Z</time>
      </trkpt>
      <trkpt lat="47.1676" lon="-1.77956">
        <ele>72</ele>
        <time>2021-04-15T10:21:15.000Z</time>
      </trkpt>
      <trkpt lat="47.16754" lon="-1.7794">
        <ele>72</ele>
        <time>2021-04-15T10:21:17.000Z</time>
      </trkpt>
      <trkpt lat="47.16748" lon="-1.77924">
        <ele>71</ele>
        <time>2021-04-15T10:21:19.000Z</time>
      </trkpt>
      <trkpt lat="47.16742" lon="-1.77908">
        <ele>71</ele>
        <time>2021-04-15T10:21:21.000Z</time>
      </trkpt>
      <trkpt lat="47.16734" lon="-1.77893">
        <ele>71</ele>
        <time>2021-04-15T10:21:23.000Z</time>
      </trkpt>
      <trkpt lat="47.16725" lon="-1.77879">
        <ele>72</ele>
        <time>2021-04-15T10:21:25.000Z</time>
      </trkpt>
      <trkpt lat="47.16714" lon="-1.77869">
        <ele>72</ele>
        <time>2021-04-15T10:21:27.000Z</time>
      </trkpt>
      <trkpt lat="47.16702" lon="-1.77861">
        <ele>71</ele>
        <time>2021-04-15T10:21:29.000Z</time>
      </trkpt>
      <trkpt lat="47.16691" lon="-1.77854">
        <ele>71</ele>
        <time>2021-04-15T10:21:31.000Z</time>
      </trkpt>
      <trkpt lat="47.16679" lon="-1.77847">
        <ele>71</ele>
        <time>2021-04-15T10:21:33.000Z</time>
      </trkpt>
      <trkpt lat="47.16667" lon="-1.7784">
        <ele>70</ele>
        <time>2021-04-15T10:21:35.000Z</time>
      </trkpt>
      <trkpt lat="47.16655" lon="-1.77833">
        <ele>70</ele>
        <time>2021-04-15T10:21:37.000Z</time>
      </trkpt>
      <trkpt lat="47.16643" lon="-1.77826">
        <ele>70</ele>
        <time>2021-04-15T10:21:39.000Z</time>
      </trkpt>
      <trkpt lat="47.1663" lon="-1.77822">
        <ele>70</ele>
        <time>2021-04-15T10:21:41.000Z</time>
      </trkpt>
      <trkpt lat="47.16617" lon="-1.77819">
        <ele>70</ele>
        <time>2021-04-15T10:21:43.000Z</time>
      </trkpt>
      <trkpt lat="47.16604" lon="-1.77817">
        <ele>69</ele>
        <time>2021-04-15T10:21:45.000Z</time>
      </trkpt>
      <trkpt lat="47.16591" lon="-1.77815">
        <ele>69</ele>
        <time>2021-04-15T10:21:47.000Z</time>
      </trkpt>
      <trkpt lat="47.16578" lon="-1.77814">
        <ele>69</ele>
        <time>2021-04-15T10:21:49.000Z</time>
      </trkpt>
      <trkpt lat="47.16564" lon="-1.77814">
        <ele>68</ele>
        <time>2021-04-15T10:21:51.000Z</time>
      </trkpt>
      <trkpt lat="47.16551" lon="-1.77816">
        <ele>68</ele>
        <time>2021-04-15T10:21:53.000Z</time>
      </trkpt>
      <trkpt lat="47.16537" lon="-1.77821">
        <ele>68</ele>
        <time>2021-04-15T10:21:55.000Z</time>
      </trkpt>
      <trkpt lat="47.16525" lon="-1.77829">
        <ele>68</ele>
        <time>2021-04-15T10:21:57.000Z</time>
      </trkpt>
      <trkpt lat="47.16513" lon="-1.77839">
        <ele>68</ele>
        <time>2021-04-15T10:21:59.000Z</time>
      </trkpt>
      <trkpt lat="47.165" lon="-1.77846">
        <ele>68</ele>
        <time>2021-04-15T10:22:01.000Z</time>
      </trkpt>
      <trkpt lat="47.16486" lon="-1.77851">
        <ele>68</ele>
        <time>2021-04-15T10:22:03.000Z</time>
      </trkpt>
      <trkpt lat="47.16473" lon="-1.77856">
        <ele>68</ele>
        <time>2021-04-15T10:22:05.000Z</time>
      </trkpt>
      <trkpt lat="47.16458" lon="-1.77859">
        <ele>68</ele>
        <time>2021-04-15T10:22:07.000Z</time>
      </trkpt>
      <trkpt lat="47.16444" lon="-1.77862">
        <ele>68</ele>
        <time>2021-04-15T10:22:09.000Z</time>
      </trkpt>
      <trkpt lat="47.1643" lon="-1.77865">
        <ele>68</ele>
        <time>2021-04-15T10:22:11.000Z</time>
      </trkpt>
      <trkpt lat="47.16416" lon="-1.77866">
        <ele>68</ele>
        <time>2021-04-15T10:22:13.000Z</time>
      </trkpt>
      <trkpt lat="47.164" lon="-1.77864">
        <ele>68</ele>
        <time>2021-04-15T10:22:15.000Z</time>
      </trkpt>
      <trkpt lat="47.16385" lon="-1.77858">
        <ele>68</ele>
        <time>2021-04-15T10:22:17.000Z</time>
      </trkpt>
      <trkpt lat="47.1637" lon="-1.77852">
        <ele>68</ele>
        <time>2021-04-15T10:22:19.000Z</time>
      </trkpt>
      <trkpt lat="47.16355" lon="-1.77845">
        <ele>67</ele>
        <time>2021-04-15T10:22:21.000Z</time>
      </trkpt>
      <trkpt lat="47.1634" lon="-1.77839">
        <ele>67</ele>
        <time>2021-04-15T10:22:23.000Z</time>
      </trkpt>
      <trkpt lat="47.16327" lon="-1.77832">
        <ele>66</ele>
        <time>2021-04-15T10:22:25.000Z</time>
      </trkpt>
      <trkpt lat="47.16312" lon="-1.77826">
        <ele>67</ele>
        <time>2021-04-15T10:22:27.000Z</time>
      </trkpt>
      <trkpt lat="47.16298" lon="-1.77821">
        <ele>67</ele>
        <time>2021-04-15T10:22:29.000Z</time>
      </trkpt>
      <trkpt lat="47.16284" lon="-1.77815">
        <ele>66</ele>
        <time>2021-04-15T10:22:31.000Z</time>
      </trkpt>
      <trkpt lat="47.1627" lon="-1.77809">
        <ele>67</ele>
        <time>2021-04-15T10:22:33.000Z</time>
      </trkpt>
      <trkpt lat="47.16256" lon="-1.77803">
        <ele>67</ele>
        <time>2021-04-15T10:22:35.000Z</time>
      </trkpt>
      <trkpt lat="47.16242" lon="-1.77797">
        <ele>67</ele>
        <time>2021-04-15T10:22:37.000Z</time>
      </trkpt>
      <trkpt lat="47.16228" lon="-1.77791">
        <ele>67</ele>
        <time>2021-04-15T10:22:39.000Z</time>
      </trkpt>
      <trkpt lat="47.16214" lon="-1.77785">
        <ele>67</ele>
        <time>2021-04-15T10:22:41.000Z</time>
      </trkpt>
      <trkpt lat="47.162" lon="-1.77779">
        <ele>67</ele>
        <time>2021-04-15T10:22:43.000Z</time>
      </trkpt>
      <trkpt lat="47.16185" lon="-1.77773">
        <ele>67</ele>
        <time>2021-04-15T10:22:45.000Z</time>
      </trkpt>
      <trkpt lat="47.16171" lon="-1.77767">
        <ele>67</ele>
        <time>2021-04-15T10:22:47.000Z</time>
      </trkpt>
      <trkpt lat="47.16157" lon="-1.77761">
        <ele>67</ele>
        <time>2021-04-15T10:22:49.000Z</time>
      </trkpt>
      <trkpt lat="47.16143" lon="-1.77755">
        <ele>67</ele>
        <time>2021-04-15T10:22:51.000Z</time>
      </trkpt>
      <trkpt lat="47.16128" lon="-1.77748">
        <ele>67</ele>
        <time>2021-04-15T10:22:53.000Z</time>
      </trkpt>
      <trkpt lat="47.16113" lon="-1.77742">
        <ele>66</ele>
        <time>2021-04-15T10:22:55.000Z</time>
      </trkpt>
      <trkpt lat="47.16098" lon="-1.77735">
        <ele>65</ele>
        <time>2021-04-15T10:22:57.000Z</time>
      </trkpt>
      <trkpt lat="47.16083" lon="-1.77728">
        <ele>65</ele>
        <time>2021-04-15T10:22:59.000Z</time>
      </trkpt>
      <trkpt lat="47.16068" lon="-1.77722">
        <ele>64</ele>
        <time>2021-04-15T10:23:01.000Z</time>
      </trkpt>
      <trkpt lat="47.16053" lon="-1.77716">
        <ele>65</ele>
        <time>2021-04-15T10:23:03.000Z</time>
      </trkpt>
      <trkpt lat="47.16038" lon="-1.77709">
        <ele>65</ele>
        <time>2021-04-15T10:23:05.000Z</time>
      </trkpt>
      <trkpt lat="47.16024" lon="-1.77703">
        <ele>65</ele>
        <time>2021-04-15T10:23:07.000Z</time>
      </trkpt>
      <trkpt lat="47.16009" lon="-1.77696">
        <ele>65</ele>
        <time>2021-04-15T10:23:09.000Z</time>
      </trkpt>
      <trkpt lat="47.15995" lon="-1.77689">
        <ele>64</ele>
        <time>2021-04-15T10:23:11.000Z</time>
      </trkpt>
      <trkpt lat="47.1598" lon="-1.77682">
        <ele>65</ele>
        <time>2021-04-15T10:23:13.000Z</time>
      </trkpt>
      <trkpt lat="47.15967" lon="-1.77675">
        <ele>64</ele>
        <time>2021-04-15T10:23:15.000Z</time>
      </trkpt>
      <trkpt lat="47.15952" lon="-1.77669">
        <ele>65</ele>
        <time>2021-04-15T10:23:17.000Z</time>
      </trkpt>
      <trkpt lat="47.15938" lon="-1.77663">
        <ele>65</ele>
        <time>2021-04-15T10:23:19.000Z</time>
      </trkpt>
      <trkpt lat="47.15924" lon="-1.77656">
        <ele>65</ele>
        <time>2021-04-15T10:23:21.000Z</time>
      </trkpt>
      <trkpt lat="47.1591" lon="-1.77651">
        <ele>65</ele>
        <time>2021-04-15T10:23:23.000Z</time>
      </trkpt>
      <trkpt lat="47.15895" lon="-1.77645">
        <ele>65</ele>
        <time>2021-04-15T10:23:25.000Z</time>
      </trkpt>
      <trkpt lat="47.15882" lon="-1.77637">
        <ele>65</ele>
        <time>2021-04-15T10:23:27.000Z</time>
      </trkpt>
      <trkpt lat="47.15869" lon="-1.7763">
        <ele>64</ele>
        <time>2021-04-15T10:23:29.000Z</time>
      </trkpt>
      <trkpt lat="47.15856" lon="-1.77623">
        <ele>64</ele>
        <time>2021-04-15T10:23:31.000Z</time>
      </trkpt>
      <trkpt lat="47.15843" lon="-1.77617">
        <ele>63</ele>
        <time>2021-04-15T10:23:33.000Z</time>
      </trkpt>
      <trkpt lat="47.15831" lon="-1.7761">
        <ele>63</ele>
        <time>2021-04-15T10:23:35.000Z</time>
      </trkpt>
      <trkpt lat="47.15818" lon="-1.77605">
        <ele>63</ele>
        <time>2021-04-15T10:23:37.000Z</time>
      </trkpt>
      <trkpt lat="47.15807" lon="-1.77599">
        <ele>63</ele>
        <time>2021-04-15T10:23:39.000Z</time>
      </trkpt>
      <trkpt lat="47.15795" lon="-1.77596">
        <ele>62</ele>
        <time>2021-04-15T10:23:41.000Z</time>
      </trkpt>
      <trkpt lat="47.15783" lon="-1.77595">
        <ele>62</ele>
        <time>2021-04-15T10:23:43.000Z</time>
      </trkpt>
      <trkpt lat="47.15774" lon="-1.77591">
        <ele>62</ele>
        <time>2021-04-15T10:23:45.000Z</time>
      </trkpt>
      <trkpt lat="47.1577" lon="-1.77576">
        <ele>63</ele>
        <time>2021-04-15T10:23:47.000Z</time>
      </trkpt>
      <trkpt lat="47.15769" lon="-1.77558">
        <ele>63</ele>
        <time>2021-04-15T10:23:49.000Z</time>
      </trkpt>
      <trkpt lat="47.15767" lon="-1.77539">
        <ele>63</ele>
        <time>2021-04-15T10:23:51.000Z</time>
      </trkpt>
      <trkpt lat="47.15765" lon="-1.77521">
        <ele>63</ele>
        <time>2021-04-15T10:23:53.000Z</time>
      </trkpt>
      <trkpt lat="47.15764" lon="-1.77503">
        <ele>64</ele>
        <time>2021-04-15T10:23:55.000Z</time>
      </trkpt>
      <trkpt lat="47.15761" lon="-1.77485">
        <ele>64</ele>
        <time>2021-04-15T10:23:57.000Z</time>
      </trkpt>
      <trkpt lat="47.15754" lon="-1.7747">
        <ele>64</ele>
        <time>2021-04-15T10:23:59.000Z</time>
      </trkpt>
      <trkpt lat="47.15743" lon="-1.77462">
        <ele>63</ele>
        <time>2021-04-15T10:24:01.000Z</time>
      </trkpt>
      <trkpt lat="47.1573" lon="-1.77458">
        <ele>63</ele>
        <time>2021-04-15T10:24:03.000Z</time>
      </trkpt>
      <trkpt lat="47.15718" lon="-1.77454">
        <ele>64</ele>
        <time>2021-04-15T10:24:05.000Z</time>
      </trkpt>
      <trkpt lat="47.15705" lon="-1.77452">
        <ele>65</ele>
        <time>2021-04-15T10:24:07.000Z</time>
      </trkpt>
      <trkpt lat="47.15693" lon="-1.7745">
        <ele>66</ele>
        <time>2021-04-15T10:24:09.000Z</time>
      </trkpt>
      <trkpt lat="47.15682" lon="-1.77448">
        <ele>67</ele>
        <time>2021-04-15T10:24:11.000Z</time>
      </trkpt>
      <trkpt lat="47.1567" lon="-1.77446">
        <ele>69</ele>
        <time>2021-04-15T10:24:13.000Z</time>
      </trkpt>
      <trkpt lat="47.15657" lon="-1.77445">
        <ele>70</ele>
        <time>2021-04-15T10:24:15.000Z</time>
      </trkpt>
      <trkpt lat="47.15645" lon="-1.77442">
        <ele>72</ele>
        <time>2021-04-15T10:24:17.000Z</time>
      </trkpt>
      <trkpt lat="47.15633" lon="-1.7744">
        <ele>73</ele>
        <time>2021-04-15T10:24:19.000Z</time>
      </trkpt>
      <trkpt lat="47.15621" lon="-1.77437">
        <ele>73</ele>
        <time>2021-04-15T10:24:21.000Z</time>
      </trkpt>
      <trkpt lat="47.15609" lon="-1.77434">
        <ele>73</ele>
        <time>2021-04-15T10:24:23.000Z</time>
      </trkpt>
      <trkpt lat="47.15597" lon="-1.7743">
        <ele>74</ele>
        <time>2021-04-15T10:24:25.000Z</time>
      </trkpt>
      <trkpt lat="47.15584" lon="-1.77426">
        <ele>75</ele>
        <time>2021-04-15T10:24:27.000Z</time>
      </trkpt>
      <trkpt lat="47.15572" lon="-1.77424">
        <ele>75</ele>
        <time>2021-04-15T10:24:29.000Z</time>
      </trkpt>
      <trkpt lat="47.1556" lon="-1.77422">
        <ele>76</ele>
        <time>2021-04-15T10:24:31.000Z</time>
      </trkpt>
      <trkpt lat="47.1555" lon="-1.77417">
        <ele>77</ele>
        <time>2021-04-15T10:24:33.000Z</time>
      </trkpt>
      <trkpt lat="47.15538" lon="-1.77414">
        <ele>78</ele>
        <time>2021-04-15T10:24:35.000Z</time>
      </trkpt>
      <trkpt lat="47.15525" lon="-1.77411">
        <ele>78</ele>
        <time>2021-04-15T10:24:37.000Z</time>
      </trkpt>
      <trkpt lat="47.15513" lon="-1.77408">
        <ele>78</ele>
        <time>2021-04-15T10:24:39.000Z</time>
      </trkpt>
      <trkpt lat="47.155" lon="-1.77404">
        <ele>79</ele>
        <time>2021-04-15T10:24:41.000Z</time>
      </trkpt>
      <trkpt lat="47.15486" lon="-1.774">
        <ele>78</ele>
        <time>2021-04-15T10:24:43.000Z</time>
      </trkpt>
      <trkpt lat="47.15473" lon="-1.77398">
        <ele>77</ele>
        <time>2021-04-15T10:24:45.000Z</time>
      </trkpt>
      <trkpt lat="47.15461" lon="-1.77396">
        <ele>76</ele>
        <time>2021-04-15T10:24:47.000Z</time>
      </trkpt>
      <trkpt lat="47.15448" lon="-1.77395">
        <ele>76</ele>
        <time>2021-04-15T10:24:49.000Z</time>
      </trkpt>
      <trkpt lat="47.15435" lon="-1.77393">
        <ele>76</ele>
        <time>2021-04-15T10:24:51.000Z</time>
      </trkpt>
      <trkpt lat="47.15421" lon="-1.77394">
        <ele>75</ele>
        <time>2021-04-15T10:24:53.000Z</time>
      </trkpt>
      <trkpt lat="47.15409" lon="-1.77394">
        <ele>75</ele>
        <time>2021-04-15T10:24:55.000Z</time>
      </trkpt>
      <trkpt lat="47.15396" lon="-1.77392">
        <ele>74</ele>
        <time>2021-04-15T10:24:57.000Z</time>
      </trkpt>
      <trkpt lat="47.15384" lon="-1.77391">
        <ele>73</ele>
        <time>2021-04-15T10:24:59.000Z</time>
      </trkpt>
      <trkpt lat="47.15372" lon="-1.77391">
        <ele>73</ele>
        <time>2021-04-15T10:25:01.000Z</time>
      </trkpt>
      <trkpt lat="47.15361" lon="-1.7739">
        <ele>73</ele>
        <time>2021-04-15T10:25:03.000Z</time>
      </trkpt>
      <trkpt lat="47.15349" lon="-1.77389">
        <ele>73</ele>
        <time>2021-04-15T10:25:05.000Z</time>
      </trkpt>
      <trkpt lat="47.15336" lon="-1.77389">
        <ele>73</ele>
        <time>2021-04-15T10:25:07.000Z</time>
      </trkpt>
      <trkpt lat="47.15324" lon="-1.77389">
        <ele>72</ele>
        <time>2021-04-15T10:25:09.000Z</time>
      </trkpt>
      <trkpt lat="47.15312" lon="-1.77388">
        <ele>72</ele>
        <time>2021-04-15T10:25:11.000Z</time>
      </trkpt>
      <trkpt lat="47.153" lon="-1.77388">
        <ele>72</ele>
        <time>2021-04-15T10:25:13.000Z</time>
      </trkpt>
      <trkpt lat="47.15288" lon="-1.77387">
        <ele>72</ele>
        <time>2021-04-15T10:25:15.000Z</time>
      </trkpt>
      <trkpt lat="47.15276" lon="-1.77387">
        <ele>72</ele>
        <time>2021-04-15T10:25:17.000Z</time>
      </trkpt>
      <trkpt lat="47.15265" lon="-1.77386">
        <ele>72</ele>
        <time>2021-04-15T10:25:19.000Z</time>
      </trkpt>
      <trkpt lat="47.15253" lon="-1.77384">
        <ele>72</ele>
        <time>2021-04-15T10:25:21.000Z</time>
      </trkpt>
      <trkpt lat="47.15243" lon="-1.7738">
        <ele>72</ele>
        <time>2021-04-15T10:25:23.000Z</time>
      </trkpt>
      <trkpt lat="47.15232" lon="-1.77373">
        <ele>72</ele>
        <time>2021-04-15T10:25:25.000Z</time>
      </trkpt>
      <trkpt lat="47.15223" lon="-1.77363">
        <ele>73</ele>
        <time>2021-04-15T10:25:27.000Z</time>
      </trkpt>
      <trkpt lat="47.15214" lon="-1.77353">
        <ele>73</ele>
        <time>2021-04-15T10:25:29.000Z</time>
      </trkpt>
      <trkpt lat="47.15205" lon="-1.77343">
        <ele>74</ele>
        <time>2021-04-15T10:25:31.000Z</time>
      </trkpt>
      <trkpt lat="47.15196" lon="-1.77333">
        <ele>74</ele>
        <time>2021-04-15T10:25:33.000Z</time>
      </trkpt>
      <trkpt lat="47.15187" lon="-1.77323">
        <ele>74</ele>
        <time>2021-04-15T10:25:35.000Z</time>
      </trkpt>
      <trkpt lat="47.15178" lon="-1.77314">
        <ele>75</ele>
        <time>2021-04-15T10:25:37.000Z</time>
      </trkpt>
      <trkpt lat="47.1517" lon="-1.77304">
        <ele>75</ele>
        <time>2021-04-15T10:25:39.000Z</time>
      </trkpt>
      <trkpt lat="47.1516" lon="-1.77295">
        <ele>75</ele>
        <time>2021-04-15T10:25:41.000Z</time>
      </trkpt>
      <trkpt lat="47.15151" lon="-1.77283">
        <ele>75</ele>
        <time>2021-04-15T10:25:43.000Z</time>
      </trkpt>
      <trkpt lat="47.15141" lon="-1.77274">
        <ele>75</ele>
        <time>2021-04-15T10:25:45.000Z</time>
      </trkpt>
      <trkpt lat="47.15131" lon="-1.77265">
        <ele>75</ele>
        <time>2021-04-15T10:25:47.000Z</time>
      </trkpt>
      <trkpt lat="47.15121" lon="-1.77256">
        <ele>75</ele>
        <time>2021-04-15T10:25:49.000Z</time>
      </trkpt>
      <trkpt lat="47.1511" lon="-1.77249">
        <ele>75</ele>
        <time>2021-04-15T10:25:51.000Z</time>
      </trkpt>
      <trkpt lat="47.15098" lon="-1.77244">
        <ele>74</ele>
        <time>2021-04-15T10:25:53.000Z</time>
      </trkpt>
      <trkpt lat="47.15086" lon="-1.7724">
        <ele>74</ele>
        <time>2021-04-15T10:25:55.000Z</time>
      </trkpt>
      <trkpt lat="47.15074" lon="-1.77236">
        <ele>74</ele>
        <time>2021-04-15T10:25:57.000Z</time>
      </trkpt>
      <trkpt lat="47.15062" lon="-1.77232">
        <ele>74</ele>
        <time>2021-04-15T10:25:59.000Z</time>
      </trkpt>
      <trkpt lat="47.15051" lon="-1.77228">
        <ele>74</ele>
        <time>2021-04-15T10:26:01.000Z</time>
      </trkpt>
      <trkpt lat="47.15038" lon="-1.77225">
        <ele>73</ele>
        <time>2021-04-15T10:26:03.000Z</time>
      </trkpt>
      <trkpt lat="47.15026" lon="-1.77223">
        <ele>73</ele>
        <time>2021-04-15T10:26:05.000Z</time>
      </trkpt>
      <trkpt lat="47.15013" lon="-1.77223">
        <ele>73</ele>
        <time>2021-04-15T10:26:07.000Z</time>
      </trkpt>
      <trkpt lat="47.15001" lon="-1.77223">
        <ele>73</ele>
        <time>2021-04-15T10:26:09.000Z</time>
      </trkpt>
      <trkpt lat="47.14988" lon="-1.77224">
        <ele>72</ele>
        <time>2021-04-15T10:26:11.000Z</time>
      </trkpt>
      <trkpt lat="47.14975" lon="-1.77225">
        <ele>72</ele>
        <time>2021-04-15T10:26:13.000Z</time>
      </trkpt>
      <trkpt lat="47.14962" lon="-1.77227">
        <ele>73</ele>
        <time>2021-04-15T10:26:15.000Z</time>
      </trkpt>
      <trkpt lat="47.14949" lon="-1.77226">
        <ele>73</ele>
        <time>2021-04-15T10:26:17.000Z</time>
      </trkpt>
      <trkpt lat="47.14936" lon="-1.77226">
        <ele>73</ele>
        <time>2021-04-15T10:26:19.000Z</time>
      </trkpt>
      <trkpt lat="47.14922" lon="-1.77224">
        <ele>72</ele>
        <time>2021-04-15T10:26:21.000Z</time>
      </trkpt>
      <trkpt lat="47.14908" lon="-1.77221">
        <ele>71</ele>
        <time>2021-04-15T10:26:23.000Z</time>
      </trkpt>
      <trkpt lat="47.14893" lon="-1.77217">
        <ele>71</ele>
        <time>2021-04-15T10:26:25.000Z</time>
      </trkpt>
      <trkpt lat="47.14879" lon="-1.7721">
        <ele>70</ele>
        <time>2021-04-15T10:26:27.000Z</time>
      </trkpt>
      <trkpt lat="47.14864" lon="-1.772">
        <ele>69</ele>
        <time>2021-04-15T10:26:29.000Z</time>
      </trkpt>
      <trkpt lat="47.1485" lon="-1.7719">
        <ele>69</ele>
        <time>2021-04-15T10:26:31.000Z</time>
      </trkpt>
      <trkpt lat="47.14835" lon="-1.7718">
        <ele>69</ele>
        <time>2021-04-15T10:26:33.000Z</time>
      </trkpt>
      <trkpt lat="47.14821" lon="-1.7717">
        <ele>68</ele>
        <time>2021-04-15T10:26:35.000Z</time>
      </trkpt>
      <trkpt lat="47.14808" lon="-1.77162">
        <ele>68</ele>
        <time>2021-04-15T10:26:37.000Z</time>
      </trkpt>
      <trkpt lat="47.14796" lon="-1.77154">
        <ele>69</ele>
        <time>2021-04-15T10:26:39.000Z</time>
      </trkpt>
      <trkpt lat="47.14784" lon="-1.77146">
        <ele>69</ele>
        <time>2021-04-15T10:26:41.000Z</time>
      </trkpt>
      <trkpt lat="47.14772" lon="-1.77137">
        <ele>69</ele>
        <time>2021-04-15T10:26:43.000Z</time>
      </trkpt>
      <trkpt lat="47.14761" lon="-1.77127">
        <ele>70</ele>
        <time>2021-04-15T10:26:45.000Z</time>
      </trkpt>
      <trkpt lat="47.1475" lon="-1.77115">
        <ele>71</ele>
        <time>2021-04-15T10:26:47.000Z</time>
      </trkpt>
      <trkpt lat="47.14738" lon="-1.77104">
        <ele>70</ele>
        <time>2021-04-15T10:26:49.000Z</time>
      </trkpt>
      <trkpt lat="47.14727" lon="-1.77093">
        <ele>70</ele>
        <time>2021-04-15T10:26:51.000Z</time>
      </trkpt>
      <trkpt lat="47.14716" lon="-1.77084">
        <ele>70</ele>
        <time>2021-04-15T10:26:53.000Z</time>
      </trkpt>
      <trkpt lat="47.14706" lon="-1.77074">
        <ele>70</ele>
        <time>2021-04-15T10:26:55.000Z</time>
      </trkpt>
      <trkpt lat="47.14696" lon="-1.77065">
        <ele>71</ele>
        <time>2021-04-15T10:26:57.000Z</time>
      </trkpt>
      <trkpt lat="47.14686" lon="-1.77055">
        <ele>71</ele>
        <time>2021-04-15T10:26:59.000Z</time>
      </trkpt>
      <trkpt lat="47.14675" lon="-1.77046">
        <ele>71</ele>
        <time>2021-04-15T10:27:01.000Z</time>
      </trkpt>
      <trkpt lat="47.14665" lon="-1.77036">
        <ele>72</ele>
        <time>2021-04-15T10:27:03.000Z</time>
      </trkpt>
      <trkpt lat="47.14655" lon="-1.77026">
        <ele>72</ele>
        <time>2021-04-15T10:27:05.000Z</time>
      </trkpt>
      <trkpt lat="47.14644" lon="-1.77017">
        <ele>73</ele>
        <time>2021-04-15T10:27:07.000Z</time>
      </trkpt>
      <trkpt lat="47.14633" lon="-1.77006">
        <ele>73</ele>
        <time>2021-04-15T10:27:09.000Z</time>
      </trkpt>
      <trkpt lat="47.14623" lon="-1.76996">
        <ele>74</ele>
        <time>2021-04-15T10:27:11.000Z</time>
      </trkpt>
      <trkpt lat="47.14613" lon="-1.76986">
        <ele>74</ele>
        <time>2021-04-15T10:27:13.000Z</time>
      </trkpt>
      <trkpt lat="47.14603" lon="-1.76977">
        <ele>74</ele>
        <time>2021-04-15T10:27:15.000Z</time>
      </trkpt>
      <trkpt lat="47.14593" lon="-1.76967">
        <ele>75</ele>
        <time>2021-04-15T10:27:17.000Z</time>
      </trkpt>
      <trkpt lat="47.14585" lon="-1.76955">
        <ele>75</ele>
        <time>2021-04-15T10:27:19.000Z</time>
      </trkpt>
      <trkpt lat="47.14577" lon="-1.76943">
        <ele>75</ele>
        <time>2021-04-15T10:27:21.000Z</time>
      </trkpt>
      <trkpt lat="47.14569" lon="-1.76931">
        <ele>76</ele>
        <time>2021-04-15T10:27:23.000Z</time>
      </trkpt>
      <trkpt lat="47.14562" lon="-1.76918">
        <ele>76</ele>
        <time>2021-04-15T10:27:25.000Z</time>
      </trkpt>
      <trkpt lat="47.14554" lon="-1.76905">
        <ele>76</ele>
        <time>2021-04-15T10:27:27.000Z</time>
      </trkpt>
      <trkpt lat="47.14547" lon="-1.76892">
        <ele>76</ele>
        <time>2021-04-15T10:27:29.000Z</time>
      </trkpt>
      <trkpt lat="47.14541" lon="-1.7688">
        <ele>77</ele>
        <time>2021-04-15T10:27:31.000Z</time>
      </trkpt>
      <trkpt lat="47.14534" lon="-1.76867">
        <ele>77</ele>
        <time>2021-04-15T10:27:33.000Z</time>
      </trkpt>
      <trkpt lat="47.14525" lon="-1.76855">
        <ele>77</ele>
        <time>2021-04-15T10:27:35.000Z</time>
      </trkpt>
      <trkpt lat="47.14517" lon="-1.76846">
        <ele>77</ele>
        <time>2021-04-15T10:27:37.000Z</time>
      </trkpt>
      <trkpt lat="47.14508" lon="-1.76838">
        <ele>77</ele>
        <time>2021-04-15T10:27:39.000Z</time>
      </trkpt>
      <trkpt lat="47.14499" lon="-1.76829">
        <ele>77</ele>
        <time>2021-04-15T10:27:41.000Z</time>
      </trkpt>
      <trkpt lat="47.1449" lon="-1.76819">
        <ele>77</ele>
        <time>2021-04-15T10:27:43.000Z</time>
      </trkpt>
      <trkpt lat="47.1448" lon="-1.7681">
        <ele>78</ele>
        <time>2021-04-15T10:27:45.000Z</time>
      </trkpt>
      <trkpt lat="47.14471" lon="-1.76801">
        <ele>78</ele>
        <time>2021-04-15T10:27:47.000Z</time>
      </trkpt>
      <trkpt lat="47.14463" lon="-1.76793">
        <ele>78</ele>
        <time>2021-04-15T10:27:49.000Z</time>
      </trkpt>
      <trkpt lat="47.14455" lon="-1.76784">
        <ele>78</ele>
        <time>2021-04-15T10:27:51.000Z</time>
      </trkpt>
      <trkpt lat="47.14446" lon="-1.76777">
        <ele>78</ele>
        <time>2021-04-15T10:27:53.000Z</time>
      </trkpt>
      <trkpt lat="47.14437" lon="-1.76769">
        <ele>78</ele>
        <time>2021-04-15T10:27:55.000Z</time>
      </trkpt>
      <trkpt lat="47.14427" lon="-1.76763">
        <ele>77</ele>
        <time>2021-04-15T10:27:57.000Z</time>
      </trkpt>
      <trkpt lat="47.14416" lon="-1.76759">
        <ele>77</ele>
        <time>2021-04-15T10:27:59.000Z</time>
      </trkpt>
      <trkpt lat="47.14406" lon="-1.76755">
        <ele>77</ele>
        <time>2021-04-15T10:28:01.000Z</time>
      </trkpt>
      <trkpt lat="47.14395" lon="-1.76754">
        <ele>78</ele>
        <time>2021-04-15T10:28:03.000Z</time>
      </trkpt>
      <trkpt lat="47.14383" lon="-1.76753">
        <ele>78</ele>
        <time>2021-04-15T10:28:05.000Z</time>
      </trkpt>
      <trkpt lat="47.14372" lon="-1.76754">
        <ele>78</ele>
        <time>2021-04-15T10:28:07.000Z</time>
      </trkpt>
      <trkpt lat="47.14361" lon="-1.76755">
        <ele>78</ele>
        <time>2021-04-15T10:28:09.000Z</time>
      </trkpt>
      <trkpt lat="47.14349" lon="-1.76756">
        <ele>78</ele>
        <time>2021-04-15T10:28:11.000Z</time>
      </trkpt>
      <trkpt lat="47.14338" lon="-1.76758">
        <ele>78</ele>
        <time>2021-04-15T10:28:13.000Z</time>
      </trkpt>
      <trkpt lat="47.14326" lon="-1.7676">
        <ele>78</ele>
        <time>2021-04-15T10:28:15.000Z</time>
      </trkpt>
      <trkpt lat="47.14314" lon="-1.76762">
        <ele>79</ele>
        <time>2021-04-15T10:28:17.000Z</time>
      </trkpt>
      <trkpt lat="47.14303" lon="-1.76763">
        <ele>79</ele>
        <time>2021-04-15T10:28:19.000Z</time>
      </trkpt>
      <trkpt lat="47.14291" lon="-1.76764">
        <ele>79</ele>
        <time>2021-04-15T10:28:21.000Z</time>
      </trkpt>
      <trkpt lat="47.14278" lon="-1.76764">
        <ele>78</ele>
        <time>2021-04-15T10:28:23.000Z</time>
      </trkpt>
      <trkpt lat="47.14266" lon="-1.76763">
        <ele>78</ele>
        <time>2021-04-15T10:28:25.000Z</time>
      </trkpt>
      <trkpt lat="47.14253" lon="-1.7676">
        <ele>79</ele>
        <time>2021-04-15T10:28:27.000Z</time>
      </trkpt>
      <trkpt lat="47.14241" lon="-1.76755">
        <ele>79</ele>
        <time>2021-04-15T10:28:29.000Z</time>
      </trkpt>
      <trkpt lat="47.14228" lon="-1.7675">
        <ele>80</ele>
        <time>2021-04-15T10:28:31.000Z</time>
      </trkpt>
      <trkpt lat="47.14217" lon="-1.76745">
        <ele>80</ele>
        <time>2021-04-15T10:28:33.000Z</time>
      </trkpt>
      <trkpt lat="47.14205" lon="-1.76739">
        <ele>80</ele>
        <time>2021-04-15T10:28:35.000Z</time>
      </trkpt>
      <trkpt lat="47.14193" lon="-1.76733">
        <ele>79</ele>
        <time>2021-04-15T10:28:37.000Z</time>
      </trkpt>
      <trkpt lat="47.1418" lon="-1.76727">
        <ele>79</ele>
        <time>2021-04-15T10:28:39.000Z</time>
      </trkpt>
      <trkpt lat="47.14168" lon="-1.7672">
        <ele>79</ele>
        <time>2021-04-15T10:28:41.000Z</time>
      </trkpt>
      <trkpt lat="47.14156" lon="-1.76713">
        <ele>79</ele>
        <time>2021-04-15T10:28:43.000Z</time>
      </trkpt>
      <trkpt lat="47.14144" lon="-1.76703">
        <ele>80</ele>
        <time>2021-04-15T10:28:45.000Z</time>
      </trkpt>
      <trkpt lat="47.14133" lon="-1.76692">
        <ele>79</ele>
        <time>2021-04-15T10:28:47.000Z</time>
      </trkpt>
      <trkpt lat="47.14122" lon="-1.76679">
        <ele>79</ele>
        <time>2021-04-15T10:28:49.000Z</time>
      </trkpt>
      <trkpt lat="47.14112" lon="-1.76664">
        <ele>78</ele>
        <time>2021-04-15T10:28:51.000Z</time>
      </trkpt>
      <trkpt lat="47.14103" lon="-1.76647">
        <ele>78</ele>
        <time>2021-04-15T10:28:53.000Z</time>
      </trkpt>
      <trkpt lat="47.14095" lon="-1.7663">
        <ele>78</ele>
        <time>2021-04-15T10:28:55.000Z</time>
      </trkpt>
      <trkpt lat="47.14086" lon="-1.76614">
        <ele>77</ele>
        <time>2021-04-15T10:28:57.000Z</time>
      </trkpt>
      <trkpt lat="47.14078" lon="-1.76597">
        <ele>77</ele>
        <time>2021-04-15T10:28:59.000Z</time>
      </trkpt>
      <trkpt lat="47.1407" lon="-1.76581">
        <ele>76</ele>
        <time>2021-04-15T10:29:01.000Z</time>
      </trkpt>
      <trkpt lat="47.1406" lon="-1.76566">
        <ele>76</ele>
        <time>2021-04-15T10:29:03.000Z</time>
      </trkpt>
      <trkpt lat="47.1405" lon="-1.76553">
        <ele>76</ele>
        <time>2021-04-15T10:29:05.000Z</time>
      </trkpt>
      <trkpt lat="47.14039" lon="-1.7654">
        <ele>75</ele>
        <time>2021-04-15T10:29:07.000Z</time>
      </trkpt>
      <trkpt lat="47.14029" lon="-1.76527">
        <ele>75</ele>
        <time>2021-04-15T10:29:09.000Z</time>
      </trkpt>
      <trkpt lat="47.14019" lon="-1.76513">
        <ele>74</ele>
        <time>2021-04-15T10:29:11.000Z</time>
      </trkpt>
      <trkpt lat="47.14009" lon="-1.76497">
        <ele>74</ele>
        <time>2021-04-15T10:29:13.000Z</time>
      </trkpt>
      <trkpt lat="47.14" lon="-1.76481">
        <ele>74</ele>
        <time>2021-04-15T10:29:15.000Z</time>
      </trkpt>
      <trkpt lat="47.1399" lon="-1.76464">
        <ele>73</ele>
        <time>2021-04-15T10:29:17.000Z</time>
      </trkpt>
      <trkpt lat="47.13981" lon="-1.76447">
        <ele>72</ele>
        <time>2021-04-15T10:29:19.000Z</time>
      </trkpt>
      <trkpt lat="47.13971" lon="-1.76429">
        <ele>71</ele>
        <time>2021-04-15T10:29:21.000Z</time>
      </trkpt>
      <trkpt lat="47.13959" lon="-1.7641">
        <ele>69</ele>
        <time>2021-04-15T10:29:23.000Z</time>
      </trkpt>
      <trkpt lat="47.13945" lon="-1.76393">
        <ele>67</ele>
        <time>2021-04-15T10:29:25.000Z</time>
      </trkpt>
      <trkpt lat="47.13932" lon="-1.76377">
        <ele>65</ele>
        <time>2021-04-15T10:29:27.000Z</time>
      </trkpt>
      <trkpt lat="47.13918" lon="-1.7636">
        <ele>64</ele>
        <time>2021-04-15T10:29:29.000Z</time>
      </trkpt>
      <trkpt lat="47.1391" lon="-1.76351">
        <ele>64</ele>
        <time>2021-04-15T10:29:30.000Z</time>
      </trkpt>
      <trkpt lat="47.13902" lon="-1.76343">
        <ele>63</ele>
        <time>2021-04-15T10:29:31.000Z</time>
      </trkpt>
      <trkpt lat="47.13894" lon="-1.76336">
        <ele>63</ele>
        <time>2021-04-15T10:29:32.000Z</time>
      </trkpt>
      <trkpt lat="47.13887" lon="-1.76328">
        <ele>63</ele>
        <time>2021-04-15T10:29:33.000Z</time>
      </trkpt>
      <trkpt lat="47.13874" lon="-1.76311">
        <ele>62</ele>
        <time>2021-04-15T10:29:35.000Z</time>
      </trkpt>
      <trkpt lat="47.13863" lon="-1.76293">
        <ele>61</ele>
        <time>2021-04-15T10:29:37.000Z</time>
      </trkpt>
      <trkpt lat="47.13854" lon="-1.76273">
        <ele>61</ele>
        <time>2021-04-15T10:29:39.000Z</time>
      </trkpt>
      <trkpt lat="47.13846" lon="-1.76253">
        <ele>61</ele>
        <time>2021-04-15T10:29:41.000Z</time>
      </trkpt>
      <trkpt lat="47.13839" lon="-1.76233">
        <ele>61</ele>
        <time>2021-04-15T10:29:43.000Z</time>
      </trkpt>
      <trkpt lat="47.13832" lon="-1.76213">
        <ele>61</ele>
        <time>2021-04-15T10:29:45.000Z</time>
      </trkpt>
      <trkpt lat="47.13826" lon="-1.76191">
        <ele>61</ele>
        <time>2021-04-15T10:29:47.000Z</time>
      </trkpt>
      <trkpt lat="47.1382" lon="-1.7617">
        <ele>61</ele>
        <time>2021-04-15T10:29:49.000Z</time>
      </trkpt>
      <trkpt lat="47.13815" lon="-1.76149">
        <ele>61</ele>
        <time>2021-04-15T10:29:51.000Z</time>
      </trkpt>
      <trkpt lat="47.13808" lon="-1.76128">
        <ele>60</ele>
        <time>2021-04-15T10:29:53.000Z</time>
      </trkpt>
      <trkpt lat="47.13801" lon="-1.76109">
        <ele>60</ele>
        <time>2021-04-15T10:29:55.000Z</time>
      </trkpt>
      <trkpt lat="47.13793" lon="-1.76091">
        <ele>60</ele>
        <time>2021-04-15T10:29:57.000Z</time>
      </trkpt>
      <trkpt lat="47.13785" lon="-1.76075">
        <ele>59</ele>
        <time>2021-04-15T10:29:59.000Z</time>
      </trkpt>
      <trkpt lat="47.13777" lon="-1.76059">
        <ele>59</ele>
        <time>2021-04-15T10:30:01.000Z</time>
      </trkpt>
      <trkpt lat="47.1377" lon="-1.76044">
        <ele>59</ele>
        <time>2021-04-15T10:30:03.000Z</time>
      </trkpt>
      <trkpt lat="47.13765" lon="-1.76027">
        <ele>58</ele>
        <time>2021-04-15T10:30:05.000Z</time>
      </trkpt>
      <trkpt lat="47.13762" lon="-1.76008">
        <ele>58</ele>
        <time>2021-04-15T10:30:07.000Z</time>
      </trkpt>
      <trkpt lat="47.1376" lon="-1.75989">
        <ele>59</ele>
        <time>2021-04-15T10:30:09.000Z</time>
      </trkpt>
      <trkpt lat="47.13757" lon="-1.7597">
        <ele>59</ele>
        <time>2021-04-15T10:30:11.000Z</time>
      </trkpt>
      <trkpt lat="47.13753" lon="-1.75951">
        <ele>59</ele>
        <time>2021-04-15T10:30:13.000Z</time>
      </trkpt>
      <trkpt lat="47.13745" lon="-1.75937">
        <ele>58</ele>
        <time>2021-04-15T10:30:15.000Z</time>
      </trkpt>
      <trkpt lat="47.13735" lon="-1.75926">
        <ele>58</ele>
        <time>2021-04-15T10:30:17.000Z</time>
      </trkpt>
      <trkpt lat="47.13725" lon="-1.75912">
        <ele>58</ele>
        <time>2021-04-15T10:30:19.000Z</time>
      </trkpt>
      <trkpt lat="47.13719" lon="-1.75896">
        <ele>58</ele>
        <time>2021-04-15T10:30:21.000Z</time>
      </trkpt>
      <trkpt lat="47.13712" lon="-1.75881">
        <ele>58</ele>
        <time>2021-04-15T10:30:23.000Z</time>
      </trkpt>
      <trkpt lat="47.13704" lon="-1.75865">
        <ele>59</ele>
        <time>2021-04-15T10:30:25.000Z</time>
      </trkpt>
      <trkpt lat="47.13697" lon="-1.75848">
        <ele>59</ele>
        <time>2021-04-15T10:30:27.000Z</time>
      </trkpt>
      <trkpt lat="47.1369" lon="-1.7583">
        <ele>58</ele>
        <time>2021-04-15T10:30:29.000Z</time>
      </trkpt>
      <trkpt lat="47.1368" lon="-1.75813">
        <ele>58</ele>
        <time>2021-04-15T10:30:31.000Z</time>
      </trkpt>
      <trkpt lat="47.13671" lon="-1.75795">
        <ele>58</ele>
        <time>2021-04-15T10:30:33.000Z</time>
      </trkpt>
      <trkpt lat="47.13662" lon="-1.75779">
        <ele>58</ele>
        <time>2021-04-15T10:30:35.000Z</time>
      </trkpt>
      <trkpt lat="47.13653" lon="-1.75763">
        <ele>58</ele>
        <time>2021-04-15T10:30:37.000Z</time>
      </trkpt>
      <trkpt lat="47.13644" lon="-1.75748">
        <ele>59</ele>
        <time>2021-04-15T10:30:39.000Z</time>
      </trkpt>
      <trkpt lat="47.13635" lon="-1.75734">
        <ele>59</ele>
        <time>2021-04-15T10:30:41.000Z</time>
      </trkpt>
      <trkpt lat="47.13627" lon="-1.7572">
        <ele>59</ele>
        <time>2021-04-15T10:30:43.000Z</time>
      </trkpt>
      <trkpt lat="47.1362" lon="-1.75706">
        <ele>58</ele>
        <time>2021-04-15T10:30:45.000Z</time>
      </trkpt>
      <trkpt lat="47.13613" lon="-1.75692">
        <ele>58</ele>
        <time>2021-04-15T10:30:47.000Z</time>
      </trkpt>
      <trkpt lat="47.13605" lon="-1.75678">
        <ele>59</ele>
        <time>2021-04-15T10:30:49.000Z</time>
      </trkpt>
      <trkpt lat="47.13597" lon="-1.75664">
        <ele>59</ele>
        <time>2021-04-15T10:30:51.000Z</time>
      </trkpt>
      <trkpt lat="47.13589" lon="-1.7565">
        <ele>59</ele>
        <time>2021-04-15T10:30:53.000Z</time>
      </trkpt>
      <trkpt lat="47.13581" lon="-1.75635">
        <ele>60</ele>
        <time>2021-04-15T10:30:55.000Z</time>
      </trkpt>
      <trkpt lat="47.13574" lon="-1.7562">
        <ele>60</ele>
        <time>2021-04-15T10:30:57.000Z</time>
      </trkpt>
      <trkpt lat="47.13568" lon="-1.75605">
        <ele>60</ele>
        <time>2021-04-15T10:30:59.000Z</time>
      </trkpt>
      <trkpt lat="47.13562" lon="-1.7559">
        <ele>59</ele>
        <time>2021-04-15T10:31:01.000Z</time>
      </trkpt>
      <trkpt lat="47.13555" lon="-1.75574">
        <ele>59</ele>
        <time>2021-04-15T10:31:03.000Z</time>
      </trkpt>
      <trkpt lat="47.13549" lon="-1.75558">
        <ele>59</ele>
        <time>2021-04-15T10:31:05.000Z</time>
      </trkpt>
      <trkpt lat="47.13543" lon="-1.75543">
        <ele>59</ele>
        <time>2021-04-15T10:31:07.000Z</time>
      </trkpt>
      <trkpt lat="47.13537" lon="-1.75526">
        <ele>59</ele>
        <time>2021-04-15T10:31:09.000Z</time>
      </trkpt>
      <trkpt lat="47.13533" lon="-1.75509">
        <ele>59</ele>
        <time>2021-04-15T10:31:11.000Z</time>
      </trkpt>
      <trkpt lat="47.13529" lon="-1.75492">
        <ele>59</ele>
        <time>2021-04-15T10:31:13.000Z</time>
      </trkpt>
      <trkpt lat="47.13526" lon="-1.75475">
        <ele>60</ele>
        <time>2021-04-15T10:31:15.000Z</time>
      </trkpt>
      <trkpt lat="47.13524" lon="-1.75458">
        <ele>60</ele>
        <time>2021-04-15T10:31:17.000Z</time>
      </trkpt>
      <trkpt lat="47.13521" lon="-1.75441">
        <ele>60</ele>
        <time>2021-04-15T10:31:19.000Z</time>
      </trkpt>
      <trkpt lat="47.13518" lon="-1.75424">
        <ele>59</ele>
        <time>2021-04-15T10:31:21.000Z</time>
      </trkpt>
      <trkpt lat="47.13514" lon="-1.75408">
        <ele>60</ele>
        <time>2021-04-15T10:31:23.000Z</time>
      </trkpt>
      <trkpt lat="47.13511" lon="-1.75391">
        <ele>60</ele>
        <time>2021-04-15T10:31:25.000Z</time>
      </trkpt>
      <trkpt lat="47.13507" lon="-1.75374">
        <ele>60</ele>
        <time>2021-04-15T10:31:27.000Z</time>
      </trkpt>
      <trkpt lat="47.13503" lon="-1.75356">
        <ele>60</ele>
        <time>2021-04-15T10:31:29.000Z</time>
      </trkpt>
      <trkpt lat="47.135" lon="-1.75338">
        <ele>60</ele>
        <time>2021-04-15T10:31:31.000Z</time>
      </trkpt>
      <trkpt lat="47.13496" lon="-1.7532">
        <ele>59</ele>
        <time>2021-04-15T10:31:33.000Z</time>
      </trkpt>
      <trkpt lat="47.13491" lon="-1.75302">
        <ele>59</ele>
        <time>2021-04-15T10:31:35.000Z</time>
      </trkpt>
      <trkpt lat="47.13485" lon="-1.75285">
        <ele>59</ele>
        <time>2021-04-15T10:31:37.000Z</time>
      </trkpt>
      <trkpt lat="47.13477" lon="-1.75268">
        <ele>58</ele>
        <time>2021-04-15T10:31:39.000Z</time>
      </trkpt>
      <trkpt lat="47.13468" lon="-1.75252">
        <ele>57</ele>
        <time>2021-04-15T10:31:41.000Z</time>
      </trkpt>
      <trkpt lat="47.13461" lon="-1.75236">
        <ele>57</ele>
        <time>2021-04-15T10:31:43.000Z</time>
      </trkpt>
      <trkpt lat="47.13455" lon="-1.7522">
        <ele>57</ele>
        <time>2021-04-15T10:31:45.000Z</time>
      </trkpt>
      <trkpt lat="47.13445" lon="-1.75216">
        <ele>57</ele>
        <time>2021-04-15T10:31:47.000Z</time>
      </trkpt>
      <trkpt lat="47.13434" lon="-1.75223">
        <ele>56</ele>
        <time>2021-04-15T10:31:49.000Z</time>
      </trkpt>
      <trkpt lat="47.13424" lon="-1.75231">
        <ele>56</ele>
        <time>2021-04-15T10:31:51.000Z</time>
      </trkpt>
      <trkpt lat="47.13415" lon="-1.7524">
        <ele>57</ele>
        <time>2021-04-15T10:31:53.000Z</time>
      </trkpt>
      <trkpt lat="47.13405" lon="-1.75249">
        <ele>57</ele>
        <time>2021-04-15T10:31:55.000Z</time>
      </trkpt>
      <trkpt lat="47.13395" lon="-1.75257">
        <ele>57</ele>
        <time>2021-04-15T10:31:57.000Z</time>
      </trkpt>
      <trkpt lat="47.13386" lon="-1.75262">
        <ele>57</ele>
        <time>2021-04-15T10:31:59.000Z</time>
      </trkpt>
      <trkpt lat="47.13377" lon="-1.75254">
        <ele>57</ele>
        <time>2021-04-15T10:32:01.000Z</time>
      </trkpt>
      <trkpt lat="47.13372" lon="-1.75239">
        <ele>58</ele>
        <time>2021-04-15T10:32:03.000Z</time>
      </trkpt>
      <trkpt lat="47.13368" lon="-1.75223">
        <ele>59</ele>
        <time>2021-04-15T10:32:05.000Z</time>
      </trkpt>
      <trkpt lat="47.13364" lon="-1.75207">
        <ele>59</ele>
        <time>2021-04-15T10:32:07.000Z</time>
      </trkpt>
      <trkpt lat="47.13362" lon="-1.75191">
        <ele>60</ele>
        <time>2021-04-15T10:32:09.000Z</time>
      </trkpt>
      <trkpt lat="47.13358" lon="-1.75176">
        <ele>61</ele>
        <time>2021-04-15T10:32:11.000Z</time>
      </trkpt>
      <trkpt lat="47.13355" lon="-1.7516">
        <ele>61</ele>
        <time>2021-04-15T10:32:13.000Z</time>
      </trkpt>
      <trkpt lat="47.13352" lon="-1.75145">
        <ele>62</ele>
        <time>2021-04-15T10:32:15.000Z</time>
      </trkpt>
      <trkpt lat="47.13348" lon="-1.7513">
        <ele>62</ele>
        <time>2021-04-15T10:32:17.000Z</time>
      </trkpt>
      <trkpt lat="47.13345" lon="-1.75115">
        <ele>62</ele>
        <time>2021-04-15T10:32:19.000Z</time>
      </trkpt>
      <trkpt lat="47.13341" lon="-1.751">
        <ele>63</ele>
        <time>2021-04-15T10:32:21.000Z</time>
      </trkpt>
      <trkpt lat="47.13339" lon="-1.75085">
        <ele>63</ele>
        <time>2021-04-15T10:32:23.000Z</time>
      </trkpt>
      <trkpt lat="47.13336" lon="-1.7507">
        <ele>63</ele>
        <time>2021-04-15T10:32:25.000Z</time>
      </trkpt>
      <trkpt lat="47.13334" lon="-1.75057">
        <ele>63</ele>
        <time>2021-04-15T10:32:27.000Z</time>
      </trkpt>
      <trkpt lat="47.13331" lon="-1.75042">
        <ele>63</ele>
        <time>2021-04-15T10:32:29.000Z</time>
      </trkpt>
      <trkpt lat="47.13329" lon="-1.75028">
        <ele>63</ele>
        <time>2021-04-15T10:32:31.000Z</time>
      </trkpt>
      <trkpt lat="47.13326" lon="-1.75012">
        <ele>63</ele>
        <time>2021-04-15T10:32:33.000Z</time>
      </trkpt>
      <trkpt lat="47.13323" lon="-1.74997">
        <ele>62</ele>
        <time>2021-04-15T10:32:35.000Z</time>
      </trkpt>
      <trkpt lat="47.13323" lon="-1.7498">
        <ele>62</ele>
        <time>2021-04-15T10:32:37.000Z</time>
      </trkpt>
      <trkpt lat="47.1333" lon="-1.74965">
        <ele>62</ele>
        <time>2021-04-15T10:32:39.000Z</time>
      </trkpt>
      <trkpt lat="47.13337" lon="-1.74951">
        <ele>62</ele>
        <time>2021-04-15T10:32:41.000Z</time>
      </trkpt>
      <trkpt lat="47.13344" lon="-1.74937">
        <ele>62</ele>
        <time>2021-04-15T10:32:43.000Z</time>
      </trkpt>
      <trkpt lat="47.13351" lon="-1.74921">
        <ele>61</ele>
        <time>2021-04-15T10:32:45.000Z</time>
      </trkpt>
      <trkpt lat="47.13357" lon="-1.74907">
        <ele>61</ele>
        <time>2021-04-15T10:32:47.000Z</time>
      </trkpt>
      <trkpt lat="47.13362" lon="-1.74891">
        <ele>61</ele>
        <time>2021-04-15T10:32:49.000Z</time>
      </trkpt>
      <trkpt lat="47.13366" lon="-1.74875">
        <ele>61</ele>
        <time>2021-04-15T10:32:51.000Z</time>
      </trkpt>
      <trkpt lat="47.13371" lon="-1.74859">
        <ele>61</ele>
        <time>2021-04-15T10:32:53.000Z</time>
      </trkpt>
      <trkpt lat="47.13375" lon="-1.74843">
        <ele>61</ele>
        <time>2021-04-15T10:32:55.000Z</time>
      </trkpt>
      <trkpt lat="47.13379" lon="-1.74828">
        <ele>60</ele>
        <time>2021-04-15T10:32:57.000Z</time>
      </trkpt>
      <trkpt lat="47.13384" lon="-1.74812">
        <ele>60</ele>
        <time>2021-04-15T10:32:59.000Z</time>
      </trkpt>
      <trkpt lat="47.13388" lon="-1.748">
        <ele>60</ele>
        <time>2021-04-15T10:33:01.000Z</time>
      </trkpt>
      <trkpt lat="47.1337" lon="-1.74794">
        <ele>61</ele>
        <time>2021-04-15T10:33:04.000Z</time>
      </trkpt>
      <trkpt lat="47.13356" lon="-1.74795">
        <ele>62</ele>
        <time>2021-04-15T10:33:06.000Z</time>
      </trkpt>
      <trkpt lat="47.13342" lon="-1.74795">
        <ele>62</ele>
        <time>2021-04-15T10:33:08.000Z</time>
      </trkpt>
      <trkpt lat="47.13329" lon="-1.74797">
        <ele>63</ele>
        <time>2021-04-15T10:33:10.000Z</time>
      </trkpt>
      <trkpt lat="47.13317" lon="-1.74799">
        <ele>62</ele>
        <time>2021-04-15T10:33:12.000Z</time>
      </trkpt>
      <trkpt lat="47.13304" lon="-1.748">
        <ele>62</ele>
        <time>2021-04-15T10:33:14.000Z</time>
      </trkpt>
      <trkpt lat="47.13293" lon="-1.74803">
        <ele>62</ele>
        <time>2021-04-15T10:33:16.000Z</time>
      </trkpt>
      <trkpt lat="47.13281" lon="-1.74807">
        <ele>62</ele>
        <time>2021-04-15T10:33:18.000Z</time>
      </trkpt>
      <trkpt lat="47.1327" lon="-1.7481">
        <ele>62</ele>
        <time>2021-04-15T10:33:20.000Z</time>
      </trkpt>
      <trkpt lat="47.13258" lon="-1.74813">
        <ele>63</ele>
        <time>2021-04-15T10:33:22.000Z</time>
      </trkpt>
      <trkpt lat="47.13246" lon="-1.74816">
        <ele>63</ele>
        <time>2021-04-15T10:33:24.000Z</time>
      </trkpt>
      <trkpt lat="47.13234" lon="-1.74818">
        <ele>63</ele>
        <time>2021-04-15T10:33:26.000Z</time>
      </trkpt>
      <trkpt lat="47.13222" lon="-1.74819">
        <ele>63</ele>
        <time>2021-04-15T10:33:28.000Z</time>
      </trkpt>
      <trkpt lat="47.1321" lon="-1.74818">
        <ele>64</ele>
        <time>2021-04-15T10:33:30.000Z</time>
      </trkpt>
      <trkpt lat="47.13198" lon="-1.74817">
        <ele>64</ele>
        <time>2021-04-15T10:33:32.000Z</time>
      </trkpt>
      <trkpt lat="47.13186" lon="-1.74817">
        <ele>64</ele>
        <time>2021-04-15T10:33:34.000Z</time>
      </trkpt>
      <trkpt lat="47.13175" lon="-1.74817">
        <ele>64</ele>
        <time>2021-04-15T10:33:36.000Z</time>
      </trkpt>
      <trkpt lat="47.13165" lon="-1.74803">
        <ele>65</ele>
        <time>2021-04-15T10:33:38.000Z</time>
      </trkpt>
      <trkpt lat="47.13156" lon="-1.74787">
        <ele>65</ele>
        <time>2021-04-15T10:33:40.000Z</time>
      </trkpt>
      <trkpt lat="47.13144" lon="-1.74774">
        <ele>64</ele>
        <time>2021-04-15T10:33:42.000Z</time>
      </trkpt>
      <trkpt lat="47.13131" lon="-1.74761">
        <ele>63</ele>
        <time>2021-04-15T10:33:44.000Z</time>
      </trkpt>
      <trkpt lat="47.13118" lon="-1.74747">
        <ele>62</ele>
        <time>2021-04-15T10:33:46.000Z</time>
      </trkpt>
      <trkpt lat="47.13105" lon="-1.74735">
        <ele>61</ele>
        <time>2021-04-15T10:33:48.000Z</time>
      </trkpt>
      <trkpt lat="47.13092" lon="-1.74725">
        <ele>61</ele>
        <time>2021-04-15T10:33:50.000Z</time>
      </trkpt>
      <trkpt lat="47.1308" lon="-1.74714">
        <ele>61</ele>
        <time>2021-04-15T10:33:52.000Z</time>
      </trkpt>
      <trkpt lat="47.13068" lon="-1.74704">
        <ele>61</ele>
        <time>2021-04-15T10:33:54.000Z</time>
      </trkpt>
      <trkpt lat="47.13056" lon="-1.74695">
        <ele>62</ele>
        <time>2021-04-15T10:33:56.000Z</time>
      </trkpt>
      <trkpt lat="47.13045" lon="-1.74687">
        <ele>62</ele>
        <time>2021-04-15T10:33:58.000Z</time>
      </trkpt>
      <trkpt lat="47.13035" lon="-1.74679">
        <ele>63</ele>
        <time>2021-04-15T10:34:00.000Z</time>
      </trkpt>
      <trkpt lat="47.13024" lon="-1.7467">
        <ele>63</ele>
        <time>2021-04-15T10:34:02.000Z</time>
      </trkpt>
      <trkpt lat="47.13013" lon="-1.74662">
        <ele>63</ele>
        <time>2021-04-15T10:34:04.000Z</time>
      </trkpt>
      <trkpt lat="47.13003" lon="-1.74653">
        <ele>63</ele>
        <time>2021-04-15T10:34:06.000Z</time>
      </trkpt>
      <trkpt lat="47.12991" lon="-1.74645">
        <ele>63</ele>
        <time>2021-04-15T10:34:08.000Z</time>
      </trkpt>
      <trkpt lat="47.1298" lon="-1.74635">
        <ele>63</ele>
        <time>2021-04-15T10:34:10.000Z</time>
      </trkpt>
      <trkpt lat="47.12969" lon="-1.74625">
        <ele>62</ele>
        <time>2021-04-15T10:34:12.000Z</time>
      </trkpt>
      <trkpt lat="47.12957" lon="-1.74614">
        <ele>62</ele>
        <time>2021-04-15T10:34:14.000Z</time>
      </trkpt>
      <trkpt lat="47.12945" lon="-1.74602">
        <ele>62</ele>
        <time>2021-04-15T10:34:16.000Z</time>
      </trkpt>
      <trkpt lat="47.12934" lon="-1.74588">
        <ele>62</ele>
        <time>2021-04-15T10:34:18.000Z</time>
      </trkpt>
      <trkpt lat="47.12924" lon="-1.74574">
        <ele>63</ele>
        <time>2021-04-15T10:34:20.000Z</time>
      </trkpt>
      <trkpt lat="47.12914" lon="-1.74558">
        <ele>63</ele>
        <time>2021-04-15T10:34:22.000Z</time>
      </trkpt>
      <trkpt lat="47.12905" lon="-1.74542">
        <ele>63</ele>
        <time>2021-04-15T10:34:24.000Z</time>
      </trkpt>
      <trkpt lat="47.12898" lon="-1.74526">
        <ele>63</ele>
        <time>2021-04-15T10:34:26.000Z</time>
      </trkpt>
      <trkpt lat="47.1289" lon="-1.74509">
        <ele>64</ele>
        <time>2021-04-15T10:34:28.000Z</time>
      </trkpt>
      <trkpt lat="47.12883" lon="-1.74491">
        <ele>64</ele>
        <time>2021-04-15T10:34:30.000Z</time>
      </trkpt>
      <trkpt lat="47.12877" lon="-1.74473">
        <ele>64</ele>
        <time>2021-04-15T10:34:32.000Z</time>
      </trkpt>
      <trkpt lat="47.1287" lon="-1.74455">
        <ele>64</ele>
        <time>2021-04-15T10:34:34.000Z</time>
      </trkpt>
      <trkpt lat="47.12863" lon="-1.74438">
        <ele>65</ele>
        <time>2021-04-15T10:34:36.000Z</time>
      </trkpt>
      <trkpt lat="47.12856" lon="-1.74421">
        <ele>65</ele>
        <time>2021-04-15T10:34:38.000Z</time>
      </trkpt>
      <trkpt lat="47.12848" lon="-1.74404">
        <ele>66</ele>
        <time>2021-04-15T10:34:40.000Z</time>
      </trkpt>
      <trkpt lat="47.1284" lon="-1.74389">
        <ele>65</ele>
        <time>2021-04-15T10:34:42.000Z</time>
      </trkpt>
      <trkpt lat="47.12831" lon="-1.74375">
        <ele>66</ele>
        <time>2021-04-15T10:34:44.000Z</time>
      </trkpt>
      <trkpt lat="47.12822" lon="-1.74361">
        <ele>65</ele>
        <time>2021-04-15T10:34:46.000Z</time>
      </trkpt>
      <trkpt lat="47.12813" lon="-1.74347">
        <ele>65</ele>
        <time>2021-04-15T10:34:48.000Z</time>
      </trkpt>
      <trkpt lat="47.12803" lon="-1.74334">
        <ele>65</ele>
        <time>2021-04-15T10:34:50.000Z</time>
      </trkpt>
      <trkpt lat="47.12795" lon="-1.7432">
        <ele>65</ele>
        <time>2021-04-15T10:34:52.000Z</time>
      </trkpt>
      <trkpt lat="47.12786" lon="-1.74307">
        <ele>65</ele>
        <time>2021-04-15T10:34:54.000Z</time>
      </trkpt>
      <trkpt lat="47.12772" lon="-1.74288">
        <ele>65</ele>
        <time>2021-04-15T10:34:57.000Z</time>
      </trkpt>
      <trkpt lat="47.12763" lon="-1.74275">
        <ele>66</ele>
        <time>2021-04-15T10:34:59.000Z</time>
      </trkpt>
      <trkpt lat="47.12755" lon="-1.74262">
        <ele>65</ele>
        <time>2021-04-15T10:35:01.000Z</time>
      </trkpt>
      <trkpt lat="47.12746" lon="-1.74249">
        <ele>65</ele>
        <time>2021-04-15T10:35:03.000Z</time>
      </trkpt>
      <trkpt lat="47.12732" lon="-1.74229">
        <ele>65</ele>
        <time>2021-04-15T10:35:06.000Z</time>
      </trkpt>
      <trkpt lat="47.12723" lon="-1.74215">
        <ele>65</ele>
        <time>2021-04-15T10:35:08.000Z</time>
      </trkpt>
      <trkpt lat="47.12709" lon="-1.74195">
        <ele>65</ele>
        <time>2021-04-15T10:35:11.000Z</time>
      </trkpt>
      <trkpt lat="47.127" lon="-1.74181">
        <ele>65</ele>
        <time>2021-04-15T10:35:13.000Z</time>
      </trkpt>
      <trkpt lat="47.1269" lon="-1.74167">
        <ele>65</ele>
        <time>2021-04-15T10:35:15.000Z</time>
      </trkpt>
      <trkpt lat="47.12681" lon="-1.74154">
        <ele>65</ele>
        <time>2021-04-15T10:35:17.000Z</time>
      </trkpt>
      <trkpt lat="47.12668" lon="-1.74134">
        <ele>65</ele>
        <time>2021-04-15T10:35:20.000Z</time>
      </trkpt>
      <trkpt lat="47.12659" lon="-1.74121">
        <ele>65</ele>
        <time>2021-04-15T10:35:22.000Z</time>
      </trkpt>
      <trkpt lat="47.1265" lon="-1.74107">
        <ele>66</ele>
        <time>2021-04-15T10:35:24.000Z</time>
      </trkpt>
      <trkpt lat="47.12637" lon="-1.74087">
        <ele>66</ele>
        <time>2021-04-15T10:35:27.000Z</time>
      </trkpt>
      <trkpt lat="47.12629" lon="-1.74073">
        <ele>66</ele>
        <time>2021-04-15T10:35:29.000Z</time>
      </trkpt>
      <trkpt lat="47.12616" lon="-1.74052">
        <ele>65</ele>
        <time>2021-04-15T10:35:32.000Z</time>
      </trkpt>
      <trkpt lat="47.12607" lon="-1.74038">
        <ele>65</ele>
        <time>2021-04-15T10:35:34.000Z</time>
      </trkpt>
      <trkpt lat="47.12598" lon="-1.74025">
        <ele>65</ele>
        <time>2021-04-15T10:35:36.000Z</time>
      </trkpt>
      <trkpt lat="47.12589" lon="-1.74012">
        <ele>64</ele>
        <time>2021-04-15T10:35:38.000Z</time>
      </trkpt>
      <trkpt lat="47.12579" lon="-1.74">
        <ele>64</ele>
        <time>2021-04-15T10:35:40.000Z</time>
      </trkpt>
      <trkpt lat="47.12569" lon="-1.73988">
        <ele>63</ele>
        <time>2021-04-15T10:35:42.000Z</time>
      </trkpt>
      <trkpt lat="47.12556" lon="-1.73978">
        <ele>62</ele>
        <time>2021-04-15T10:35:44.000Z</time>
      </trkpt>
      <trkpt lat="47.12541" lon="-1.7397">
        <ele>61</ele>
        <time>2021-04-15T10:35:46.000Z</time>
      </trkpt>
      <trkpt lat="47.12518" lon="-1.73961">
        <ele>59</ele>
        <time>2021-04-15T10:35:49.000Z</time>
      </trkpt>
      <trkpt lat="47.12503" lon="-1.73955">
        <ele>59</ele>
        <time>2021-04-15T10:35:51.000Z</time>
      </trkpt>
      <trkpt lat="47.12488" lon="-1.7395">
        <ele>59</ele>
        <time>2021-04-15T10:35:53.000Z</time>
      </trkpt>
      <trkpt lat="47.12473" lon="-1.73945">
        <ele>59</ele>
        <time>2021-04-15T10:35:55.000Z</time>
      </trkpt>
      <trkpt lat="47.12459" lon="-1.73939">
        <ele>59</ele>
        <time>2021-04-15T10:35:57.000Z</time>
      </trkpt>
      <trkpt lat="47.12445" lon="-1.73934">
        <ele>59</ele>
        <time>2021-04-15T10:35:59.000Z</time>
      </trkpt>
      <trkpt lat="47.12426" lon="-1.73927">
        <ele>59</ele>
        <time>2021-04-15T10:36:02.000Z</time>
      </trkpt>
      <trkpt lat="47.12413" lon="-1.73922">
        <ele>59</ele>
        <time>2021-04-15T10:36:04.000Z</time>
      </trkpt>
      <trkpt lat="47.12401" lon="-1.73919">
        <ele>59</ele>
        <time>2021-04-15T10:36:06.000Z</time>
      </trkpt>
      <trkpt lat="47.1239" lon="-1.73915">
        <ele>60</ele>
        <time>2021-04-15T10:36:08.000Z</time>
      </trkpt>
      <trkpt lat="47.12378" lon="-1.73912">
        <ele>60</ele>
        <time>2021-04-15T10:36:10.000Z</time>
      </trkpt>
      <trkpt lat="47.12366" lon="-1.73909">
        <ele>61</ele>
        <time>2021-04-15T10:36:12.000Z</time>
      </trkpt>
      <trkpt lat="47.12354" lon="-1.73907">
        <ele>61</ele>
        <time>2021-04-15T10:36:14.000Z</time>
      </trkpt>
      <trkpt lat="47.12343" lon="-1.73904">
        <ele>61</ele>
        <time>2021-04-15T10:36:16.000Z</time>
      </trkpt>
      <trkpt lat="47.1233" lon="-1.73901">
        <ele>61</ele>
        <time>2021-04-15T10:36:18.000Z</time>
      </trkpt>
      <trkpt lat="47.12318" lon="-1.73899">
        <ele>61</ele>
        <time>2021-04-15T10:36:20.000Z</time>
      </trkpt>
      <trkpt lat="47.12306" lon="-1.73897">
        <ele>61</ele>
        <time>2021-04-15T10:36:22.000Z</time>
      </trkpt>
      <trkpt lat="47.12295" lon="-1.73896">
        <ele>62</ele>
        <time>2021-04-15T10:36:24.000Z</time>
      </trkpt>
      <trkpt lat="47.12284" lon="-1.73896">
        <ele>62</ele>
        <time>2021-04-15T10:36:26.000Z</time>
      </trkpt>
      <trkpt lat="47.12272" lon="-1.73896">
        <ele>63</ele>
        <time>2021-04-15T10:36:28.000Z</time>
      </trkpt>
      <trkpt lat="47.1226" lon="-1.73896">
        <ele>63</ele>
        <time>2021-04-15T10:36:30.000Z</time>
      </trkpt>
      <trkpt lat="47.12248" lon="-1.73897">
        <ele>64</ele>
        <time>2021-04-15T10:36:32.000Z</time>
      </trkpt>
      <trkpt lat="47.12236" lon="-1.73897">
        <ele>64</ele>
        <time>2021-04-15T10:36:34.000Z</time>
      </trkpt>
      <trkpt lat="47.12219" lon="-1.73897">
        <ele>63</ele>
        <time>2021-04-15T10:36:37.000Z</time>
      </trkpt>
      <trkpt lat="47.12207" lon="-1.73898">
        <ele>63</ele>
        <time>2021-04-15T10:36:39.000Z</time>
      </trkpt>
      <trkpt lat="47.12194" lon="-1.73899">
        <ele>62</ele>
        <time>2021-04-15T10:36:41.000Z</time>
      </trkpt>
      <trkpt lat="47.12182" lon="-1.739">
        <ele>62</ele>
        <time>2021-04-15T10:36:43.000Z</time>
      </trkpt>
      <trkpt lat="47.12169" lon="-1.739">
        <ele>61</ele>
        <time>2021-04-15T10:36:45.000Z</time>
      </trkpt>
      <trkpt lat="47.12155" lon="-1.73901">
        <ele>61</ele>
        <time>2021-04-15T10:36:47.000Z</time>
      </trkpt>
      <trkpt lat="47.12141" lon="-1.73901">
        <ele>61</ele>
        <time>2021-04-15T10:36:49.000Z</time>
      </trkpt>
      <trkpt lat="47.12126" lon="-1.73902">
        <ele>60</ele>
        <time>2021-04-15T10:36:51.000Z</time>
      </trkpt>
      <trkpt lat="47.12111" lon="-1.73902">
        <ele>60</ele>
        <time>2021-04-15T10:36:53.000Z</time>
      </trkpt>
      <trkpt lat="47.12097" lon="-1.73903">
        <ele>60</ele>
        <time>2021-04-15T10:36:55.000Z</time>
      </trkpt>
      <trkpt lat="47.12082" lon="-1.73904">
        <ele>60</ele>
        <time>2021-04-15T10:36:57.000Z</time>
      </trkpt>
      <trkpt lat="47.12068" lon="-1.73907">
        <ele>59</ele>
        <time>2021-04-15T10:36:59.000Z</time>
      </trkpt>
      <trkpt lat="47.12054" lon="-1.73909">
        <ele>59</ele>
        <time>2021-04-15T10:37:01.000Z</time>
      </trkpt>
      <trkpt lat="47.12039" lon="-1.73912">
        <ele>59</ele>
        <time>2021-04-15T10:37:03.000Z</time>
      </trkpt>
      <trkpt lat="47.12025" lon="-1.73914">
        <ele>59</ele>
        <time>2021-04-15T10:37:05.000Z</time>
      </trkpt>
      <trkpt lat="47.12011" lon="-1.73917">
        <ele>59</ele>
        <time>2021-04-15T10:37:07.000Z</time>
      </trkpt>
      <trkpt lat="47.11997" lon="-1.73917">
        <ele>59</ele>
        <time>2021-04-15T10:37:09.000Z</time>
      </trkpt>
      <trkpt lat="47.11976" lon="-1.73916">
        <ele>59</ele>
        <time>2021-04-15T10:37:12.000Z</time>
      </trkpt>
      <trkpt lat="47.11961" lon="-1.73915">
        <ele>58</ele>
        <time>2021-04-15T10:37:14.000Z</time>
      </trkpt>
      <trkpt lat="47.11947" lon="-1.73913">
        <ele>58</ele>
        <time>2021-04-15T10:37:16.000Z</time>
      </trkpt>
      <trkpt lat="47.11932" lon="-1.7391">
        <ele>58</ele>
        <time>2021-04-15T10:37:18.000Z</time>
      </trkpt>
      <trkpt lat="47.11917" lon="-1.73907">
        <ele>57</ele>
        <time>2021-04-15T10:37:20.000Z</time>
      </trkpt>
      <trkpt lat="47.11896" lon="-1.73903">
        <ele>57</ele>
        <time>2021-04-15T10:37:23.000Z</time>
      </trkpt>
      <trkpt lat="47.11881" lon="-1.739">
        <ele>56</ele>
        <time>2021-04-15T10:37:25.000Z</time>
      </trkpt>
      <trkpt lat="47.11867" lon="-1.73898">
        <ele>56</ele>
        <time>2021-04-15T10:37:27.000Z</time>
      </trkpt>
      <trkpt lat="47.11852" lon="-1.73897">
        <ele>56</ele>
        <time>2021-04-15T10:37:29.000Z</time>
      </trkpt>
      <trkpt lat="47.11838" lon="-1.73898">
        <ele>56</ele>
        <time>2021-04-15T10:37:31.000Z</time>
      </trkpt>
      <trkpt lat="47.11824" lon="-1.73899">
        <ele>56</ele>
        <time>2021-04-15T10:37:33.000Z</time>
      </trkpt>
      <trkpt lat="47.1181" lon="-1.739">
        <ele>56</ele>
        <time>2021-04-15T10:37:35.000Z</time>
      </trkpt>
      <trkpt lat="47.11796" lon="-1.73901">
        <ele>55</ele>
        <time>2021-04-15T10:37:37.000Z</time>
      </trkpt>
      <trkpt lat="47.11782" lon="-1.73901">
        <ele>55</ele>
        <time>2021-04-15T10:37:39.000Z</time>
      </trkpt>
      <trkpt lat="47.11768" lon="-1.739">
        <ele>55</ele>
        <time>2021-04-15T10:37:41.000Z</time>
      </trkpt>
      <trkpt lat="47.11754" lon="-1.73897">
        <ele>55</ele>
        <time>2021-04-15T10:37:43.000Z</time>
      </trkpt>
      <trkpt lat="47.11741" lon="-1.73894">
        <ele>55</ele>
        <time>2021-04-15T10:37:45.000Z</time>
      </trkpt>
      <trkpt lat="47.11728" lon="-1.7389">
        <ele>55</ele>
        <time>2021-04-15T10:37:47.000Z</time>
      </trkpt>
      <trkpt lat="47.11716" lon="-1.73887">
        <ele>55</ele>
        <time>2021-04-15T10:37:49.000Z</time>
      </trkpt>
      <trkpt lat="47.11702" lon="-1.73887">
        <ele>54</ele>
        <time>2021-04-15T10:37:51.000Z</time>
      </trkpt>
      <trkpt lat="47.11688" lon="-1.73889">
        <ele>54</ele>
        <time>2021-04-15T10:37:53.000Z</time>
      </trkpt>
      <trkpt lat="47.11674" lon="-1.73891">
        <ele>53</ele>
        <time>2021-04-15T10:37:55.000Z</time>
      </trkpt>
      <trkpt lat="47.1166" lon="-1.73893">
        <ele>53</ele>
        <time>2021-04-15T10:37:57.000Z</time>
      </trkpt>
      <trkpt lat="47.11646" lon="-1.73896">
        <ele>53</ele>
        <time>2021-04-15T10:37:59.000Z</time>
      </trkpt>
      <trkpt lat="47.11633" lon="-1.73903">
        <ele>53</ele>
        <time>2021-04-15T10:38:01.000Z</time>
      </trkpt>
      <trkpt lat="47.1162" lon="-1.7391">
        <ele>52</ele>
        <time>2021-04-15T10:38:03.000Z</time>
      </trkpt>
      <trkpt lat="47.11608" lon="-1.7392">
        <ele>52</ele>
        <time>2021-04-15T10:38:05.000Z</time>
      </trkpt>
      <trkpt lat="47.11597" lon="-1.73931">
        <ele>52</ele>
        <time>2021-04-15T10:38:07.000Z</time>
      </trkpt>
      <trkpt lat="47.11586" lon="-1.73942">
        <ele>53</ele>
        <time>2021-04-15T10:38:09.000Z</time>
      </trkpt>
      <trkpt lat="47.11575" lon="-1.73953">
        <ele>53</ele>
        <time>2021-04-15T10:38:11.000Z</time>
      </trkpt>
      <trkpt lat="47.11564" lon="-1.73965">
        <ele>53</ele>
        <time>2021-04-15T10:38:13.000Z</time>
      </trkpt>
      <trkpt lat="47.11553" lon="-1.73976">
        <ele>53</ele>
        <time>2021-04-15T10:38:15.000Z</time>
      </trkpt>
      <trkpt lat="47.11541" lon="-1.73986">
        <ele>53</ele>
        <time>2021-04-15T10:38:17.000Z</time>
      </trkpt>
      <trkpt lat="47.11529" lon="-1.73994">
        <ele>53</ele>
        <time>2021-04-15T10:38:19.000Z</time>
      </trkpt>
      <trkpt lat="47.11516" lon="-1.74">
        <ele>53</ele>
        <time>2021-04-15T10:38:21.000Z</time>
      </trkpt>
      <trkpt lat="47.11502" lon="-1.74">
        <ele>53</ele>
        <time>2021-04-15T10:38:23.000Z</time>
      </trkpt>
      <trkpt lat="47.11489" lon="-1.73998">
        <ele>54</ele>
        <time>2021-04-15T10:38:25.000Z</time>
      </trkpt>
      <trkpt lat="47.11476" lon="-1.73993">
        <ele>54</ele>
        <time>2021-04-15T10:38:27.000Z</time>
      </trkpt>
      <trkpt lat="47.11464" lon="-1.73985">
        <ele>54</ele>
        <time>2021-04-15T10:38:29.000Z</time>
      </trkpt>
      <trkpt lat="47.11452" lon="-1.73975">
        <ele>55</ele>
        <time>2021-04-15T10:38:31.000Z</time>
      </trkpt>
      <trkpt lat="47.11443" lon="-1.73962">
        <ele>56</ele>
        <time>2021-04-15T10:38:33.000Z</time>
      </trkpt>
      <trkpt lat="47.11437" lon="-1.73945">
        <ele>57</ele>
        <time>2021-04-15T10:38:35.000Z</time>
      </trkpt>
      <trkpt lat="47.11431" lon="-1.73928">
        <ele>57</ele>
        <time>2021-04-15T10:38:37.000Z</time>
      </trkpt>
      <trkpt lat="47.11427" lon="-1.73912">
        <ele>57</ele>
        <time>2021-04-15T10:38:39.000Z</time>
      </trkpt>
      <trkpt lat="47.11423" lon="-1.73897">
        <ele>57</ele>
        <time>2021-04-15T10:38:41.000Z</time>
      </trkpt>
      <trkpt lat="47.11417" lon="-1.73881">
        <ele>56</ele>
        <time>2021-04-15T10:38:43.000Z</time>
      </trkpt>
      <trkpt lat="47.11412" lon="-1.73865">
        <ele>56</ele>
        <time>2021-04-15T10:38:45.000Z</time>
      </trkpt>
      <trkpt lat="47.11406" lon="-1.7385">
        <ele>56</ele>
        <time>2021-04-15T10:38:47.000Z</time>
      </trkpt>
      <trkpt lat="47.11401" lon="-1.73833">
        <ele>56</ele>
        <time>2021-04-15T10:38:49.000Z</time>
      </trkpt>
      <trkpt lat="47.11396" lon="-1.73817">
        <ele>56</ele>
        <time>2021-04-15T10:38:51.000Z</time>
      </trkpt>
      <trkpt lat="47.11391" lon="-1.73801">
        <ele>56</ele>
        <time>2021-04-15T10:38:53.000Z</time>
      </trkpt>
      <trkpt lat="47.11385" lon="-1.73784">
        <ele>56</ele>
        <time>2021-04-15T10:38:55.000Z</time>
      </trkpt>
      <trkpt lat="47.1138" lon="-1.73768">
        <ele>56</ele>
        <time>2021-04-15T10:38:57.000Z</time>
      </trkpt>
      <trkpt lat="47.11375" lon="-1.73751">
        <ele>56</ele>
        <time>2021-04-15T10:38:59.000Z</time>
      </trkpt>
      <trkpt lat="47.11369" lon="-1.73735">
        <ele>56</ele>
        <time>2021-04-15T10:39:01.000Z</time>
      </trkpt>
      <trkpt lat="47.11363" lon="-1.7372">
        <ele>55</ele>
        <time>2021-04-15T10:39:03.000Z</time>
      </trkpt>
      <trkpt lat="47.11356" lon="-1.73706">
        <ele>55</ele>
        <time>2021-04-15T10:39:05.000Z</time>
      </trkpt>
      <trkpt lat="47.11349" lon="-1.73691">
        <ele>55</ele>
        <time>2021-04-15T10:39:07.000Z</time>
      </trkpt>
      <trkpt lat="47.11342" lon="-1.73677">
        <ele>55</ele>
        <time>2021-04-15T10:39:09.000Z</time>
      </trkpt>
      <trkpt lat="47.11335" lon="-1.73663">
        <ele>55</ele>
        <time>2021-04-15T10:39:11.000Z</time>
      </trkpt>
      <trkpt lat="47.11328" lon="-1.73649">
        <ele>55</ele>
        <time>2021-04-15T10:39:13.000Z</time>
      </trkpt>
      <trkpt lat="47.11322" lon="-1.73635">
        <ele>55</ele>
        <time>2021-04-15T10:39:15.000Z</time>
      </trkpt>
      <trkpt lat="47.11316" lon="-1.73622">
        <ele>55</ele>
        <time>2021-04-15T10:39:17.000Z</time>
      </trkpt>
      <trkpt lat="47.11308" lon="-1.73609">
        <ele>55</ele>
        <time>2021-04-15T10:39:19.000Z</time>
      </trkpt>
      <trkpt lat="47.11301" lon="-1.73594">
        <ele>56</ele>
        <time>2021-04-15T10:39:21.000Z</time>
      </trkpt>
      <trkpt lat="47.11295" lon="-1.7358">
        <ele>56</ele>
        <time>2021-04-15T10:39:23.000Z</time>
      </trkpt>
      <trkpt lat="47.11288" lon="-1.73568">
        <ele>56</ele>
        <time>2021-04-15T10:39:25.000Z</time>
      </trkpt>
      <trkpt lat="47.11279" lon="-1.73557">
        <ele>55</ele>
        <time>2021-04-15T10:39:27.000Z</time>
      </trkpt>
      <trkpt lat="47.11272" lon="-1.73545">
        <ele>56</ele>
        <time>2021-04-15T10:39:29.000Z</time>
      </trkpt>
      <trkpt lat="47.11269" lon="-1.73528">
        <ele>56</ele>
        <time>2021-04-15T10:39:31.000Z</time>
      </trkpt>
      <trkpt lat="47.11268" lon="-1.73511">
        <ele>56</ele>
        <time>2021-04-15T10:39:33.000Z</time>
      </trkpt>
      <trkpt lat="47.11267" lon="-1.73495">
        <ele>57</ele>
        <time>2021-04-15T10:39:35.000Z</time>
      </trkpt>
      <trkpt lat="47.11267" lon="-1.7348">
        <ele>58</ele>
        <time>2021-04-15T10:39:37.000Z</time>
      </trkpt>
      <trkpt lat="47.11266" lon="-1.73465">
        <ele>58</ele>
        <time>2021-04-15T10:39:39.000Z</time>
      </trkpt>
      <trkpt lat="47.11265" lon="-1.7345">
        <ele>59</ele>
        <time>2021-04-15T10:39:41.000Z</time>
      </trkpt>
      <trkpt lat="47.11262" lon="-1.73435">
        <ele>59</ele>
        <time>2021-04-15T10:39:43.000Z</time>
      </trkpt>
      <trkpt lat="47.1126" lon="-1.7342">
        <ele>60</ele>
        <time>2021-04-15T10:39:45.000Z</time>
      </trkpt>
      <trkpt lat="47.11259" lon="-1.73405">
        <ele>60</ele>
        <time>2021-04-15T10:39:47.000Z</time>
      </trkpt>
      <trkpt lat="47.11258" lon="-1.7339">
        <ele>60</ele>
        <time>2021-04-15T10:39:49.000Z</time>
      </trkpt>
      <trkpt lat="47.11257" lon="-1.73375">
        <ele>61</ele>
        <time>2021-04-15T10:39:51.000Z</time>
      </trkpt>
      <trkpt lat="47.11256" lon="-1.73361">
        <ele>61</ele>
        <time>2021-04-15T10:39:53.000Z</time>
      </trkpt>
      <trkpt lat="47.11255" lon="-1.73346">
        <ele>61</ele>
        <time>2021-04-15T10:39:55.000Z</time>
      </trkpt>
      <trkpt lat="47.11254" lon="-1.73331">
        <ele>61</ele>
        <time>2021-04-15T10:39:57.000Z</time>
      </trkpt>
      <trkpt lat="47.11253" lon="-1.73316">
        <ele>61</ele>
        <time>2021-04-15T10:39:59.000Z</time>
      </trkpt>
      <trkpt lat="47.11251" lon="-1.73301">
        <ele>61</ele>
        <time>2021-04-15T10:40:01.000Z</time>
      </trkpt>
      <trkpt lat="47.11249" lon="-1.73286">
        <ele>62</ele>
        <time>2021-04-15T10:40:03.000Z</time>
      </trkpt>
      <trkpt lat="47.11247" lon="-1.73271">
        <ele>61</ele>
        <time>2021-04-15T10:40:05.000Z</time>
      </trkpt>
      <trkpt lat="47.11244" lon="-1.73256">
        <ele>62</ele>
        <time>2021-04-15T10:40:07.000Z</time>
      </trkpt>
      <trkpt lat="47.11241" lon="-1.73241">
        <ele>62</ele>
        <time>2021-04-15T10:40:09.000Z</time>
      </trkpt>
      <trkpt lat="47.11238" lon="-1.73226">
        <ele>62</ele>
        <time>2021-04-15T10:40:11.000Z</time>
      </trkpt>
      <trkpt lat="47.11234" lon="-1.73211">
        <ele>63</ele>
        <time>2021-04-15T10:40:13.000Z</time>
      </trkpt>
      <trkpt lat="47.11231" lon="-1.73196">
        <ele>63</ele>
        <time>2021-04-15T10:40:15.000Z</time>
      </trkpt>
      <trkpt lat="47.11227" lon="-1.73181">
        <ele>63</ele>
        <time>2021-04-15T10:40:17.000Z</time>
      </trkpt>
      <trkpt lat="47.11224" lon="-1.73166">
        <ele>63</ele>
        <time>2021-04-15T10:40:19.000Z</time>
      </trkpt>
      <trkpt lat="47.1122" lon="-1.73151">
        <ele>63</ele>
        <time>2021-04-15T10:40:21.000Z</time>
      </trkpt>
      <trkpt lat="47.11217" lon="-1.73136">
        <ele>63</ele>
        <time>2021-04-15T10:40:23.000Z</time>
      </trkpt>
      <trkpt lat="47.11213" lon="-1.73121">
        <ele>63</ele>
        <time>2021-04-15T10:40:25.000Z</time>
      </trkpt>
      <trkpt lat="47.1121" lon="-1.73106">
        <ele>63</ele>
        <time>2021-04-15T10:40:27.000Z</time>
      </trkpt>
      <trkpt lat="47.11206" lon="-1.73092">
        <ele>63</ele>
        <time>2021-04-15T10:40:29.000Z</time>
      </trkpt>
      <trkpt lat="47.11203" lon="-1.73077">
        <ele>63</ele>
        <time>2021-04-15T10:40:31.000Z</time>
      </trkpt>
      <trkpt lat="47.11199" lon="-1.73061">
        <ele>63</ele>
        <time>2021-04-15T10:40:33.000Z</time>
      </trkpt>
      <trkpt lat="47.11195" lon="-1.73046">
        <ele>63</ele>
        <time>2021-04-15T10:40:35.000Z</time>
      </trkpt>
      <trkpt lat="47.11192" lon="-1.73031">
        <ele>63</ele>
        <time>2021-04-15T10:40:37.000Z</time>
      </trkpt>
      <trkpt lat="47.11188" lon="-1.73016">
        <ele>63</ele>
        <time>2021-04-15T10:40:39.000Z</time>
      </trkpt>
      <trkpt lat="47.11185" lon="-1.73">
        <ele>63</ele>
        <time>2021-04-15T10:40:41.000Z</time>
      </trkpt>
      <trkpt lat="47.11181" lon="-1.72985">
        <ele>64</ele>
        <time>2021-04-15T10:40:43.000Z</time>
      </trkpt>
      <trkpt lat="47.11177" lon="-1.7297">
        <ele>64</ele>
        <time>2021-04-15T10:40:45.000Z</time>
      </trkpt>
      <trkpt lat="47.11173" lon="-1.72953">
        <ele>64</ele>
        <time>2021-04-15T10:40:47.000Z</time>
      </trkpt>
      <trkpt lat="47.1117" lon="-1.72937">
        <ele>64</ele>
        <time>2021-04-15T10:40:49.000Z</time>
      </trkpt>
      <trkpt lat="47.11166" lon="-1.7292">
        <ele>64</ele>
        <time>2021-04-15T10:40:51.000Z</time>
      </trkpt>
      <trkpt lat="47.11162" lon="-1.72903">
        <ele>64</ele>
        <time>2021-04-15T10:40:53.000Z</time>
      </trkpt>
      <trkpt lat="47.11157" lon="-1.72887">
        <ele>63</ele>
        <time>2021-04-15T10:40:55.000Z</time>
      </trkpt>
      <trkpt lat="47.11154" lon="-1.7287">
        <ele>63</ele>
        <time>2021-04-15T10:40:57.000Z</time>
      </trkpt>
      <trkpt lat="47.11149" lon="-1.72854">
        <ele>63</ele>
        <time>2021-04-15T10:40:59.000Z</time>
      </trkpt>
      <trkpt lat="47.11145" lon="-1.72837">
        <ele>63</ele>
        <time>2021-04-15T10:41:01.000Z</time>
      </trkpt>
      <trkpt lat="47.11141" lon="-1.7282">
        <ele>64</ele>
        <time>2021-04-15T10:41:03.000Z</time>
      </trkpt>
      <trkpt lat="47.11137" lon="-1.72803">
        <ele>63</ele>
        <time>2021-04-15T10:41:05.000Z</time>
      </trkpt>
      <trkpt lat="47.11133" lon="-1.72786">
        <ele>63</ele>
        <time>2021-04-15T10:41:07.000Z</time>
      </trkpt>
      <trkpt lat="47.11129" lon="-1.72768">
        <ele>63</ele>
        <time>2021-04-15T10:41:09.000Z</time>
      </trkpt>
      <trkpt lat="47.11125" lon="-1.7275">
        <ele>63</ele>
        <time>2021-04-15T10:41:11.000Z</time>
      </trkpt>
      <trkpt lat="47.11121" lon="-1.72733">
        <ele>63</ele>
        <time>2021-04-15T10:41:13.000Z</time>
      </trkpt>
      <trkpt lat="47.11117" lon="-1.72715">
        <ele>62</ele>
        <time>2021-04-15T10:41:15.000Z</time>
      </trkpt>
      <trkpt lat="47.11113" lon="-1.72697">
        <ele>62</ele>
        <time>2021-04-15T10:41:17.000Z</time>
      </trkpt>
      <trkpt lat="47.11109" lon="-1.7268">
        <ele>62</ele>
        <time>2021-04-15T10:41:19.000Z</time>
      </trkpt>
      <trkpt lat="47.11105" lon="-1.72663">
        <ele>62</ele>
        <time>2021-04-15T10:41:21.000Z</time>
      </trkpt>
      <trkpt lat="47.11101" lon="-1.72645">
        <ele>62</ele>
        <time>2021-04-15T10:41:23.000Z</time>
      </trkpt>
      <trkpt lat="47.11097" lon="-1.72628">
        <ele>62</ele>
        <time>2021-04-15T10:41:25.000Z</time>
      </trkpt>
      <trkpt lat="47.11093" lon="-1.7261">
        <ele>62</ele>
        <time>2021-04-15T10:41:27.000Z</time>
      </trkpt>
      <trkpt lat="47.11089" lon="-1.72593">
        <ele>63</ele>
        <time>2021-04-15T10:41:29.000Z</time>
      </trkpt>
      <trkpt lat="47.11085" lon="-1.72576">
        <ele>63</ele>
        <time>2021-04-15T10:41:31.000Z</time>
      </trkpt>
      <trkpt lat="47.11082" lon="-1.72559">
        <ele>64</ele>
        <time>2021-04-15T10:41:33.000Z</time>
      </trkpt>
      <trkpt lat="47.1108" lon="-1.72542">
        <ele>64</ele>
        <time>2021-04-15T10:41:35.000Z</time>
      </trkpt>
      <trkpt lat="47.11081" lon="-1.72524">
        <ele>64</ele>
        <time>2021-04-15T10:41:37.000Z</time>
      </trkpt>
      <trkpt lat="47.11083" lon="-1.72506">
        <ele>64</ele>
        <time>2021-04-15T10:41:39.000Z</time>
      </trkpt>
      <trkpt lat="47.11086" lon="-1.72489">
        <ele>64</ele>
        <time>2021-04-15T10:41:41.000Z</time>
      </trkpt>
      <trkpt lat="47.1109" lon="-1.72472">
        <ele>63</ele>
        <time>2021-04-15T10:41:43.000Z</time>
      </trkpt>
      <trkpt lat="47.11094" lon="-1.72454">
        <ele>63</ele>
        <time>2021-04-15T10:41:45.000Z</time>
      </trkpt>
      <trkpt lat="47.11099" lon="-1.72437">
        <ele>62</ele>
        <time>2021-04-15T10:41:47.000Z</time>
      </trkpt>
      <trkpt lat="47.11103" lon="-1.72419">
        <ele>62</ele>
        <time>2021-04-15T10:41:49.000Z</time>
      </trkpt>
      <trkpt lat="47.11107" lon="-1.72402">
        <ele>62</ele>
        <time>2021-04-15T10:41:51.000Z</time>
      </trkpt>
      <trkpt lat="47.11111" lon="-1.72385">
        <ele>62</ele>
        <time>2021-04-15T10:41:53.000Z</time>
      </trkpt>
      <trkpt lat="47.11115" lon="-1.72368">
        <ele>61</ele>
        <time>2021-04-15T10:41:55.000Z</time>
      </trkpt>
      <trkpt lat="47.11119" lon="-1.72351">
        <ele>61</ele>
        <time>2021-04-15T10:41:57.000Z</time>
      </trkpt>
      <trkpt lat="47.11123" lon="-1.72333">
        <ele>61</ele>
        <time>2021-04-15T10:41:59.000Z</time>
      </trkpt>
      <trkpt lat="47.11127" lon="-1.72317">
        <ele>61</ele>
        <time>2021-04-15T10:42:01.000Z</time>
      </trkpt>
      <trkpt lat="47.11132" lon="-1.72301">
        <ele>60</ele>
        <time>2021-04-15T10:42:03.000Z</time>
      </trkpt>
      <trkpt lat="47.11135" lon="-1.72285">
        <ele>60</ele>
        <time>2021-04-15T10:42:05.000Z</time>
      </trkpt>
      <trkpt lat="47.11139" lon="-1.7227">
        <ele>59</ele>
        <time>2021-04-15T10:42:07.000Z</time>
      </trkpt>
      <trkpt lat="47.11143" lon="-1.72255">
        <ele>60</ele>
        <time>2021-04-15T10:42:09.000Z</time>
      </trkpt>
      <trkpt lat="47.11146" lon="-1.72241">
        <ele>60</ele>
        <time>2021-04-15T10:42:11.000Z</time>
      </trkpt>
      <trkpt lat="47.1115" lon="-1.72225">
        <ele>60</ele>
        <time>2021-04-15T10:42:13.000Z</time>
      </trkpt>
      <trkpt lat="47.11154" lon="-1.7221">
        <ele>60</ele>
        <time>2021-04-15T10:42:15.000Z</time>
      </trkpt>
      <trkpt lat="47.11157" lon="-1.72193">
        <ele>60</ele>
        <time>2021-04-15T10:42:17.000Z</time>
      </trkpt>
      <trkpt lat="47.11162" lon="-1.72177">
        <ele>61</ele>
        <time>2021-04-15T10:42:19.000Z</time>
      </trkpt>
      <trkpt lat="47.11165" lon="-1.72162">
        <ele>61</ele>
        <time>2021-04-15T10:42:21.000Z</time>
      </trkpt>
      <trkpt lat="47.11168" lon="-1.72145">
        <ele>61</ele>
        <time>2021-04-15T10:42:23.000Z</time>
      </trkpt>
      <trkpt lat="47.11172" lon="-1.72129">
        <ele>61</ele>
        <time>2021-04-15T10:42:25.000Z</time>
      </trkpt>
      <trkpt lat="47.11176" lon="-1.72113">
        <ele>61</ele>
        <time>2021-04-15T10:42:27.000Z</time>
      </trkpt>
      <trkpt lat="47.1118" lon="-1.72097">
        <ele>61</ele>
        <time>2021-04-15T10:42:29.000Z</time>
      </trkpt>
      <trkpt lat="47.11184" lon="-1.72081">
        <ele>61</ele>
        <time>2021-04-15T10:42:31.000Z</time>
      </trkpt>
      <trkpt lat="47.11188" lon="-1.72066">
        <ele>60</ele>
        <time>2021-04-15T10:42:33.000Z</time>
      </trkpt>
      <trkpt lat="47.11192" lon="-1.7205">
        <ele>60</ele>
        <time>2021-04-15T10:42:35.000Z</time>
      </trkpt>
      <trkpt lat="47.11195" lon="-1.72034">
        <ele>60</ele>
        <time>2021-04-15T10:42:37.000Z</time>
      </trkpt>
      <trkpt lat="47.11199" lon="-1.72018">
        <ele>60</ele>
        <time>2021-04-15T10:42:39.000Z</time>
      </trkpt>
      <trkpt lat="47.11203" lon="-1.72003">
        <ele>60</ele>
        <time>2021-04-15T10:42:41.000Z</time>
      </trkpt>
      <trkpt lat="47.11206" lon="-1.71987">
        <ele>60</ele>
        <time>2021-04-15T10:42:43.000Z</time>
      </trkpt>
      <trkpt lat="47.1121" lon="-1.71971">
        <ele>59</ele>
        <time>2021-04-15T10:42:45.000Z</time>
      </trkpt>
      <trkpt lat="47.11214" lon="-1.71954">
        <ele>59</ele>
        <time>2021-04-15T10:42:47.000Z</time>
      </trkpt>
      <trkpt lat="47.11218" lon="-1.71937">
        <ele>59</ele>
        <time>2021-04-15T10:42:49.000Z</time>
      </trkpt>
      <trkpt lat="47.11222" lon="-1.7192">
        <ele>58</ele>
        <time>2021-04-15T10:42:51.000Z</time>
      </trkpt>
      <trkpt lat="47.11227" lon="-1.71903">
        <ele>57</ele>
        <time>2021-04-15T10:42:53.000Z</time>
      </trkpt>
      <trkpt lat="47.11231" lon="-1.71885">
        <ele>57</ele>
        <time>2021-04-15T10:42:55.000Z</time>
      </trkpt>
      <trkpt lat="47.11236" lon="-1.71868">
        <ele>56</ele>
        <time>2021-04-15T10:42:57.000Z</time>
      </trkpt>
      <trkpt lat="47.11241" lon="-1.71851">
        <ele>56</ele>
        <time>2021-04-15T10:42:59.000Z</time>
      </trkpt>
      <trkpt lat="47.11246" lon="-1.71834">
        <ele>55</ele>
        <time>2021-04-15T10:43:01.000Z</time>
      </trkpt>
      <trkpt lat="47.11252" lon="-1.71817">
        <ele>55</ele>
        <time>2021-04-15T10:43:03.000Z</time>
      </trkpt>
      <trkpt lat="47.11259" lon="-1.718">
        <ele>55</ele>
        <time>2021-04-15T10:43:05.000Z</time>
      </trkpt>
      <trkpt lat="47.11267" lon="-1.71784">
        <ele>54</ele>
        <time>2021-04-15T10:43:07.000Z</time>
      </trkpt>
      <trkpt lat="47.11274" lon="-1.71769">
        <ele>54</ele>
        <time>2021-04-15T10:43:09.000Z</time>
      </trkpt>
      <trkpt lat="47.11282" lon="-1.71754">
        <ele>54</ele>
        <time>2021-04-15T10:43:11.000Z</time>
      </trkpt>
      <trkpt lat="47.11289" lon="-1.71739">
        <ele>54</ele>
        <time>2021-04-15T10:43:13.000Z</time>
      </trkpt>
      <trkpt lat="47.11296" lon="-1.71724">
        <ele>54</ele>
        <time>2021-04-15T10:43:15.000Z</time>
      </trkpt>
      <trkpt lat="47.11303" lon="-1.7171">
        <ele>55</ele>
        <time>2021-04-15T10:43:17.000Z</time>
      </trkpt>
      <trkpt lat="47.1131" lon="-1.71697">
        <ele>55</ele>
        <time>2021-04-15T10:43:19.000Z</time>
      </trkpt>
      <trkpt lat="47.11317" lon="-1.71682">
        <ele>55</ele>
        <time>2021-04-15T10:43:21.000Z</time>
      </trkpt>
      <trkpt lat="47.11324" lon="-1.71668">
        <ele>55</ele>
        <time>2021-04-15T10:43:23.000Z</time>
      </trkpt>
      <trkpt lat="47.11331" lon="-1.71655">
        <ele>54</ele>
        <time>2021-04-15T10:43:25.000Z</time>
      </trkpt>
      <trkpt lat="47.11337" lon="-1.71642">
        <ele>54</ele>
        <time>2021-04-15T10:43:27.000Z</time>
      </trkpt>
      <trkpt lat="47.11344" lon="-1.71629">
        <ele>54</ele>
        <time>2021-04-15T10:43:29.000Z</time>
      </trkpt>
      <trkpt lat="47.11352" lon="-1.71615">
        <ele>53</ele>
        <time>2021-04-15T10:43:31.000Z</time>
      </trkpt>
      <trkpt lat="47.11359" lon="-1.71601">
        <ele>53</ele>
        <time>2021-04-15T10:43:33.000Z</time>
      </trkpt>
      <trkpt lat="47.11366" lon="-1.71588">
        <ele>53</ele>
        <time>2021-04-15T10:43:35.000Z</time>
      </trkpt>
      <trkpt lat="47.11373" lon="-1.71575">
        <ele>52</ele>
        <time>2021-04-15T10:43:37.000Z</time>
      </trkpt>
      <trkpt lat="47.1138" lon="-1.71561">
        <ele>52</ele>
        <time>2021-04-15T10:43:39.000Z</time>
      </trkpt>
      <trkpt lat="47.11387" lon="-1.71547">
        <ele>52</ele>
        <time>2021-04-15T10:43:41.000Z</time>
      </trkpt>
      <trkpt lat="47.11394" lon="-1.71533">
        <ele>52</ele>
        <time>2021-04-15T10:43:43.000Z</time>
      </trkpt>
      <trkpt lat="47.11402" lon="-1.71518">
        <ele>52</ele>
        <time>2021-04-15T10:43:45.000Z</time>
      </trkpt>
      <trkpt lat="47.1141" lon="-1.71504">
        <ele>52</ele>
        <time>2021-04-15T10:43:47.000Z</time>
      </trkpt>
      <trkpt lat="47.11417" lon="-1.71489">
        <ele>52</ele>
        <time>2021-04-15T10:43:49.000Z</time>
      </trkpt>
      <trkpt lat="47.11425" lon="-1.71474">
        <ele>52</ele>
        <time>2021-04-15T10:43:51.000Z</time>
      </trkpt>
      <trkpt lat="47.11432" lon="-1.7146">
        <ele>52</ele>
        <time>2021-04-15T10:43:53.000Z</time>
      </trkpt>
      <trkpt lat="47.11439" lon="-1.71446">
        <ele>52</ele>
        <time>2021-04-15T10:43:55.000Z</time>
      </trkpt>
      <trkpt lat="47.11446" lon="-1.71432">
        <ele>52</ele>
        <time>2021-04-15T10:43:57.000Z</time>
      </trkpt>
      <trkpt lat="47.11453" lon="-1.71418">
        <ele>53</ele>
        <time>2021-04-15T10:43:59.000Z</time>
      </trkpt>
      <trkpt lat="47.11461" lon="-1.71404">
        <ele>53</ele>
        <time>2021-04-15T10:44:01.000Z</time>
      </trkpt>
      <trkpt lat="47.11468" lon="-1.7139">
        <ele>53</ele>
        <time>2021-04-15T10:44:03.000Z</time>
      </trkpt>
      <trkpt lat="47.11475" lon="-1.71376">
        <ele>53</ele>
        <time>2021-04-15T10:44:05.000Z</time>
      </trkpt>
      <trkpt lat="47.11481" lon="-1.71363">
        <ele>53</ele>
        <time>2021-04-15T10:44:07.000Z</time>
      </trkpt>
      <trkpt lat="47.11488" lon="-1.71349">
        <ele>53</ele>
        <time>2021-04-15T10:44:09.000Z</time>
      </trkpt>
      <trkpt lat="47.11495" lon="-1.71335">
        <ele>54</ele>
        <time>2021-04-15T10:44:11.000Z</time>
      </trkpt>
      <trkpt lat="47.11502" lon="-1.71322">
        <ele>54</ele>
        <time>2021-04-15T10:44:13.000Z</time>
      </trkpt>
      <trkpt lat="47.11509" lon="-1.71309">
        <ele>54</ele>
        <time>2021-04-15T10:44:15.000Z</time>
      </trkpt>
      <trkpt lat="47.11515" lon="-1.71297">
        <ele>54</ele>
        <time>2021-04-15T10:44:17.000Z</time>
      </trkpt>
      <trkpt lat="47.11522" lon="-1.71284">
        <ele>54</ele>
        <time>2021-04-15T10:44:19.000Z</time>
      </trkpt>
      <trkpt lat="47.11528" lon="-1.71271">
        <ele>54</ele>
        <time>2021-04-15T10:44:21.000Z</time>
      </trkpt>
      <trkpt lat="47.11535" lon="-1.71259">
        <ele>54</ele>
        <time>2021-04-15T10:44:23.000Z</time>
      </trkpt>
      <trkpt lat="47.11542" lon="-1.71246">
        <ele>55</ele>
        <time>2021-04-15T10:44:25.000Z</time>
      </trkpt>
      <trkpt lat="47.1155" lon="-1.71233">
        <ele>55</ele>
        <time>2021-04-15T10:44:27.000Z</time>
      </trkpt>
      <trkpt lat="47.11558" lon="-1.7122">
        <ele>55</ele>
        <time>2021-04-15T10:44:29.000Z</time>
      </trkpt>
      <trkpt lat="47.11565" lon="-1.71208">
        <ele>55</ele>
        <time>2021-04-15T10:44:31.000Z</time>
      </trkpt>
      <trkpt lat="47.11573" lon="-1.71197">
        <ele>55</ele>
        <time>2021-04-15T10:44:33.000Z</time>
      </trkpt>
      <trkpt lat="47.11581" lon="-1.71187">
        <ele>55</ele>
        <time>2021-04-15T10:44:35.000Z</time>
      </trkpt>
      <trkpt lat="47.1159" lon="-1.71177">
        <ele>55</ele>
        <time>2021-04-15T10:44:37.000Z</time>
      </trkpt>
      <trkpt lat="47.11599" lon="-1.71166">
        <ele>55</ele>
        <time>2021-04-15T10:44:39.000Z</time>
      </trkpt>
      <trkpt lat="47.11608" lon="-1.71156">
        <ele>55</ele>
        <time>2021-04-15T10:44:41.000Z</time>
      </trkpt>
      <trkpt lat="47.11616" lon="-1.71147">
        <ele>56</ele>
        <time>2021-04-15T10:44:43.000Z</time>
      </trkpt>
      <trkpt lat="47.11626" lon="-1.71138">
        <ele>56</ele>
        <time>2021-04-15T10:44:45.000Z</time>
      </trkpt>
      <trkpt lat="47.11635" lon="-1.7113">
        <ele>56</ele>
        <time>2021-04-15T10:44:47.000Z</time>
      </trkpt>
      <trkpt lat="47.11645" lon="-1.71122">
        <ele>56</ele>
        <time>2021-04-15T10:44:49.000Z</time>
      </trkpt>
      <trkpt lat="47.11655" lon="-1.71114">
        <ele>56</ele>
        <time>2021-04-15T10:44:51.000Z</time>
      </trkpt>
      <trkpt lat="47.11664" lon="-1.71107">
        <ele>55</ele>
        <time>2021-04-15T10:44:53.000Z</time>
      </trkpt>
      <trkpt lat="47.11674" lon="-1.711">
        <ele>56</ele>
        <time>2021-04-15T10:44:55.000Z</time>
      </trkpt>
      <trkpt lat="47.11684" lon="-1.71093">
        <ele>55</ele>
        <time>2021-04-15T10:44:57.000Z</time>
      </trkpt>
      <trkpt lat="47.11693" lon="-1.71087">
        <ele>56</ele>
        <time>2021-04-15T10:44:59.000Z</time>
      </trkpt>
      <trkpt lat="47.11702" lon="-1.7108">
        <ele>56</ele>
        <time>2021-04-15T10:45:01.000Z</time>
      </trkpt>
      <trkpt lat="47.11712" lon="-1.71074">
        <ele>56</ele>
        <time>2021-04-15T10:45:03.000Z</time>
      </trkpt>
      <trkpt lat="47.11723" lon="-1.71068">
        <ele>56</ele>
        <time>2021-04-15T10:45:05.000Z</time>
      </trkpt>
      <trkpt lat="47.11733" lon="-1.71061">
        <ele>56</ele>
        <time>2021-04-15T10:45:07.000Z</time>
      </trkpt>
      <trkpt lat="47.11743" lon="-1.71055">
        <ele>56</ele>
        <time>2021-04-15T10:45:09.000Z</time>
      </trkpt>
      <trkpt lat="47.11754" lon="-1.71048">
        <ele>55</ele>
        <time>2021-04-15T10:45:11.000Z</time>
      </trkpt>
      <trkpt lat="47.11764" lon="-1.71041">
        <ele>55</ele>
        <time>2021-04-15T10:45:13.000Z</time>
      </trkpt>
      <trkpt lat="47.11774" lon="-1.71034">
        <ele>55</ele>
        <time>2021-04-15T10:45:15.000Z</time>
      </trkpt>
      <trkpt lat="47.11785" lon="-1.71028">
        <ele>55</ele>
        <time>2021-04-15T10:45:17.000Z</time>
      </trkpt>
      <trkpt lat="47.11796" lon="-1.7102">
        <ele>54</ele>
        <time>2021-04-15T10:45:19.000Z</time>
      </trkpt>
      <trkpt lat="47.11807" lon="-1.71013">
        <ele>54</ele>
        <time>2021-04-15T10:45:21.000Z</time>
      </trkpt>
      <trkpt lat="47.11819" lon="-1.71005">
        <ele>54</ele>
        <time>2021-04-15T10:45:23.000Z</time>
      </trkpt>
      <trkpt lat="47.1183" lon="-1.70998">
        <ele>54</ele>
        <time>2021-04-15T10:45:25.000Z</time>
      </trkpt>
      <trkpt lat="47.1184" lon="-1.7099">
        <ele>54</ele>
        <time>2021-04-15T10:45:27.000Z</time>
      </trkpt>
      <trkpt lat="47.11852" lon="-1.70983">
        <ele>54</ele>
        <time>2021-04-15T10:45:29.000Z</time>
      </trkpt>
      <trkpt lat="47.11863" lon="-1.70976">
        <ele>54</ele>
        <time>2021-04-15T10:45:31.000Z</time>
      </trkpt>
      <trkpt lat="47.11874" lon="-1.70969">
        <ele>54</ele>
        <time>2021-04-15T10:45:33.000Z</time>
      </trkpt>
      <trkpt lat="47.11885" lon="-1.70962">
        <ele>54</ele>
        <time>2021-04-15T10:45:35.000Z</time>
      </trkpt>
      <trkpt lat="47.11895" lon="-1.70955">
        <ele>54</ele>
        <time>2021-04-15T10:45:37.000Z</time>
      </trkpt>
      <trkpt lat="47.11904" lon="-1.70949">
        <ele>55</ele>
        <time>2021-04-15T10:45:39.000Z</time>
      </trkpt>
      <trkpt lat="47.11915" lon="-1.70942">
        <ele>54</ele>
        <time>2021-04-15T10:45:41.000Z</time>
      </trkpt>
      <trkpt lat="47.11925" lon="-1.70935">
        <ele>55</ele>
        <time>2021-04-15T10:45:43.000Z</time>
      </trkpt>
      <trkpt lat="47.11935" lon="-1.70929">
        <ele>55</ele>
        <time>2021-04-15T10:45:45.000Z</time>
      </trkpt>
      <trkpt lat="47.11944" lon="-1.70923">
        <ele>55</ele>
        <time>2021-04-15T10:45:47.000Z</time>
      </trkpt>
      <trkpt lat="47.11954" lon="-1.70917">
        <ele>55</ele>
        <time>2021-04-15T10:45:49.000Z</time>
      </trkpt>
      <trkpt lat="47.11963" lon="-1.70911">
        <ele>55</ele>
        <time>2021-04-15T10:45:51.000Z</time>
      </trkpt>
      <trkpt lat="47.11972" lon="-1.70905">
        <ele>55</ele>
        <time>2021-04-15T10:45:53.000Z</time>
      </trkpt>
      <trkpt lat="47.11981" lon="-1.70899">
        <ele>55</ele>
        <time>2021-04-15T10:45:55.000Z</time>
      </trkpt>
      <trkpt lat="47.11991" lon="-1.70893">
        <ele>56</ele>
        <time>2021-04-15T10:45:57.000Z</time>
      </trkpt>
      <trkpt lat="47.12" lon="-1.70887">
        <ele>56</ele>
        <time>2021-04-15T10:45:59.000Z</time>
      </trkpt>
      <trkpt lat="47.1201" lon="-1.70881">
        <ele>56</ele>
        <time>2021-04-15T10:46:01.000Z</time>
      </trkpt>
      <trkpt lat="47.12019" lon="-1.70874">
        <ele>56</ele>
        <time>2021-04-15T10:46:03.000Z</time>
      </trkpt>
      <trkpt lat="47.12029" lon="-1.70868">
        <ele>56</ele>
        <time>2021-04-15T10:46:05.000Z</time>
      </trkpt>
      <trkpt lat="47.12039" lon="-1.70862">
        <ele>56</ele>
        <time>2021-04-15T10:46:07.000Z</time>
      </trkpt>
      <trkpt lat="47.12049" lon="-1.70855">
        <ele>56</ele>
        <time>2021-04-15T10:46:09.000Z</time>
      </trkpt>
      <trkpt lat="47.12058" lon="-1.70849">
        <ele>56</ele>
        <time>2021-04-15T10:46:11.000Z</time>
      </trkpt>
      <trkpt lat="47.12067" lon="-1.70844">
        <ele>56</ele>
        <time>2021-04-15T10:46:13.000Z</time>
      </trkpt>
      <trkpt lat="47.12077" lon="-1.70838">
        <ele>56</ele>
        <time>2021-04-15T10:46:15.000Z</time>
      </trkpt>
      <trkpt lat="47.12087" lon="-1.70831">
        <ele>56</ele>
        <time>2021-04-15T10:46:17.000Z</time>
      </trkpt>
      <trkpt lat="47.12096" lon="-1.70824">
        <ele>56</ele>
        <time>2021-04-15T10:46:19.000Z</time>
      </trkpt>
      <trkpt lat="47.12106" lon="-1.70818">
        <ele>56</ele>
        <time>2021-04-15T10:46:21.000Z</time>
      </trkpt>
      <trkpt lat="47.12116" lon="-1.70811">
        <ele>56</ele>
        <time>2021-04-15T10:46:23.000Z</time>
      </trkpt>
      <trkpt lat="47.12126" lon="-1.70805">
        <ele>55</ele>
        <time>2021-04-15T10:46:25.000Z</time>
      </trkpt>
      <trkpt lat="47.12136" lon="-1.70799">
        <ele>55</ele>
        <time>2021-04-15T10:46:27.000Z</time>
      </trkpt>
      <trkpt lat="47.12147" lon="-1.70792">
        <ele>55</ele>
        <time>2021-04-15T10:46:29.000Z</time>
      </trkpt>
      <trkpt lat="47.12157" lon="-1.70784">
        <ele>55</ele>
        <time>2021-04-15T10:46:31.000Z</time>
      </trkpt>
      <trkpt lat="47.12168" lon="-1.70777">
        <ele>55</ele>
        <time>2021-04-15T10:46:33.000Z</time>
      </trkpt>
      <trkpt lat="47.12179" lon="-1.70769">
        <ele>55</ele>
        <time>2021-04-15T10:46:35.000Z</time>
      </trkpt>
      <trkpt lat="47.12189" lon="-1.70761">
        <ele>55</ele>
        <time>2021-04-15T10:46:37.000Z</time>
      </trkpt>
      <trkpt lat="47.12201" lon="-1.70753">
        <ele>54</ele>
        <time>2021-04-15T10:46:39.000Z</time>
      </trkpt>
      <trkpt lat="47.12211" lon="-1.70744">
        <ele>54</ele>
        <time>2021-04-15T10:46:41.000Z</time>
      </trkpt>
      <trkpt lat="47.12222" lon="-1.70735">
        <ele>54</ele>
        <time>2021-04-15T10:46:43.000Z</time>
      </trkpt>
      <trkpt lat="47.12232" lon="-1.70725">
        <ele>53</ele>
        <time>2021-04-15T10:46:45.000Z</time>
      </trkpt>
      <trkpt lat="47.12242" lon="-1.70713">
        <ele>53</ele>
        <time>2021-04-15T10:46:47.000Z</time>
      </trkpt>
      <trkpt lat="47.12252" lon="-1.70702">
        <ele>52</ele>
        <time>2021-04-15T10:46:49.000Z</time>
      </trkpt>
      <trkpt lat="47.12261" lon="-1.70689">
        <ele>52</ele>
        <time>2021-04-15T10:46:51.000Z</time>
      </trkpt>
      <trkpt lat="47.12269" lon="-1.70677">
        <ele>52</ele>
        <time>2021-04-15T10:46:53.000Z</time>
      </trkpt>
      <trkpt lat="47.12278" lon="-1.70665">
        <ele>51</ele>
        <time>2021-04-15T10:46:55.000Z</time>
      </trkpt>
      <trkpt lat="47.12286" lon="-1.70652">
        <ele>51</ele>
        <time>2021-04-15T10:46:57.000Z</time>
      </trkpt>
      <trkpt lat="47.12295" lon="-1.7064">
        <ele>51</ele>
        <time>2021-04-15T10:46:59.000Z</time>
      </trkpt>
      <trkpt lat="47.12303" lon="-1.70628">
        <ele>50</ele>
        <time>2021-04-15T10:47:01.000Z</time>
      </trkpt>
      <trkpt lat="47.12311" lon="-1.70615">
        <ele>50</ele>
        <time>2021-04-15T10:47:03.000Z</time>
      </trkpt>
      <trkpt lat="47.12319" lon="-1.70603">
        <ele>50</ele>
        <time>2021-04-15T10:47:05.000Z</time>
      </trkpt>
      <trkpt lat="47.12327" lon="-1.70592">
        <ele>49</ele>
        <time>2021-04-15T10:47:07.000Z</time>
      </trkpt>
      <trkpt lat="47.12335" lon="-1.7058">
        <ele>49</ele>
        <time>2021-04-15T10:47:09.000Z</time>
      </trkpt>
      <trkpt lat="47.12343" lon="-1.70569">
        <ele>49</ele>
        <time>2021-04-15T10:47:11.000Z</time>
      </trkpt>
      <trkpt lat="47.1235" lon="-1.70556">
        <ele>49</ele>
        <time>2021-04-15T10:47:13.000Z</time>
      </trkpt>
      <trkpt lat="47.12357" lon="-1.70544">
        <ele>49</ele>
        <time>2021-04-15T10:47:15.000Z</time>
      </trkpt>
      <trkpt lat="47.12363" lon="-1.70531">
        <ele>49</ele>
        <time>2021-04-15T10:47:17.000Z</time>
      </trkpt>
      <trkpt lat="47.12369" lon="-1.70517">
        <ele>49</ele>
        <time>2021-04-15T10:47:19.000Z</time>
      </trkpt>
      <trkpt lat="47.12375" lon="-1.70502">
        <ele>49</ele>
        <time>2021-04-15T10:47:21.000Z</time>
      </trkpt>
      <trkpt lat="47.1238" lon="-1.70487">
        <ele>48</ele>
        <time>2021-04-15T10:47:23.000Z</time>
      </trkpt>
      <trkpt lat="47.12385" lon="-1.70472">
        <ele>48</ele>
        <time>2021-04-15T10:47:25.000Z</time>
      </trkpt>
      <trkpt lat="47.12389" lon="-1.70457">
        <ele>48</ele>
        <time>2021-04-15T10:47:27.000Z</time>
      </trkpt>
      <trkpt lat="47.12393" lon="-1.7044">
        <ele>49</ele>
        <time>2021-04-15T10:47:29.000Z</time>
      </trkpt>
      <trkpt lat="47.12396" lon="-1.70424">
        <ele>49</ele>
        <time>2021-04-15T10:47:31.000Z</time>
      </trkpt>
      <trkpt lat="47.12399" lon="-1.70408">
        <ele>50</ele>
        <time>2021-04-15T10:47:33.000Z</time>
      </trkpt>
      <trkpt lat="47.12402" lon="-1.70392">
        <ele>50</ele>
        <time>2021-04-15T10:47:35.000Z</time>
      </trkpt>
      <trkpt lat="47.12405" lon="-1.70377">
        <ele>50</ele>
        <time>2021-04-15T10:47:37.000Z</time>
      </trkpt>
      <trkpt lat="47.12408" lon="-1.70361">
        <ele>51</ele>
        <time>2021-04-15T10:47:39.000Z</time>
      </trkpt>
      <trkpt lat="47.12412" lon="-1.70346">
        <ele>51</ele>
        <time>2021-04-15T10:47:41.000Z</time>
      </trkpt>
      <trkpt lat="47.12416" lon="-1.70331">
        <ele>53</ele>
        <time>2021-04-15T10:47:43.000Z</time>
      </trkpt>
      <trkpt lat="47.12421" lon="-1.70316">
        <ele>54</ele>
        <time>2021-04-15T10:47:45.000Z</time>
      </trkpt>
      <trkpt lat="47.12428" lon="-1.70301">
        <ele>56</ele>
        <time>2021-04-15T10:47:47.000Z</time>
      </trkpt>
      <trkpt lat="47.12435" lon="-1.70287">
        <ele>56</ele>
        <time>2021-04-15T10:47:49.000Z</time>
      </trkpt>
      <trkpt lat="47.12445" lon="-1.70276">
        <ele>56</ele>
        <time>2021-04-15T10:47:51.000Z</time>
      </trkpt>
      <trkpt lat="47.12456" lon="-1.70266">
        <ele>55</ele>
        <time>2021-04-15T10:47:53.000Z</time>
      </trkpt>
      <trkpt lat="47.12466" lon="-1.70257">
        <ele>54</ele>
        <time>2021-04-15T10:47:55.000Z</time>
      </trkpt>
      <trkpt lat="47.12478" lon="-1.70251">
        <ele>54</ele>
        <time>2021-04-15T10:47:57.000Z</time>
      </trkpt>
      <trkpt lat="47.12489" lon="-1.70245">
        <ele>55</ele>
        <time>2021-04-15T10:47:59.000Z</time>
      </trkpt>
      <trkpt lat="47.12499" lon="-1.70238">
        <ele>55</ele>
        <time>2021-04-15T10:48:01.000Z</time>
      </trkpt>
      <trkpt lat="47.1251" lon="-1.70232">
        <ele>55</ele>
        <time>2021-04-15T10:48:03.000Z</time>
      </trkpt>
      <trkpt lat="47.12521" lon="-1.70225">
        <ele>56</ele>
        <time>2021-04-15T10:48:05.000Z</time>
      </trkpt>
      <trkpt lat="47.12531" lon="-1.70219">
        <ele>56</ele>
        <time>2021-04-15T10:48:07.000Z</time>
      </trkpt>
      <trkpt lat="47.12542" lon="-1.70214">
        <ele>56</ele>
        <time>2021-04-15T10:48:09.000Z</time>
      </trkpt>
      <trkpt lat="47.12554" lon="-1.70208">
        <ele>56</ele>
        <time>2021-04-15T10:48:11.000Z</time>
      </trkpt>
      <trkpt lat="47.12566" lon="-1.70203">
        <ele>56</ele>
        <time>2021-04-15T10:48:13.000Z</time>
      </trkpt>
      <trkpt lat="47.12577" lon="-1.70198">
        <ele>56</ele>
        <time>2021-04-15T10:48:15.000Z</time>
      </trkpt>
      <trkpt lat="47.12589" lon="-1.70192">
        <ele>55</ele>
        <time>2021-04-15T10:48:17.000Z</time>
      </trkpt>
      <trkpt lat="47.126" lon="-1.70186">
        <ele>55</ele>
        <time>2021-04-15T10:48:19.000Z</time>
      </trkpt>
      <trkpt lat="47.12611" lon="-1.7018">
        <ele>56</ele>
        <time>2021-04-15T10:48:21.000Z</time>
      </trkpt>
      <trkpt lat="47.12622" lon="-1.70173">
        <ele>56</ele>
        <time>2021-04-15T10:48:23.000Z</time>
      </trkpt>
      <trkpt lat="47.12634" lon="-1.70169">
        <ele>54</ele>
        <time>2021-04-15T10:48:25.000Z</time>
      </trkpt>
      <trkpt lat="47.12646" lon="-1.70162">
        <ele>54</ele>
        <time>2021-04-15T10:48:27.000Z</time>
      </trkpt>
      <trkpt lat="47.12658" lon="-1.70156">
        <ele>53</ele>
        <time>2021-04-15T10:48:29.000Z</time>
      </trkpt>
      <trkpt lat="47.1267" lon="-1.7015">
        <ele>54</ele>
        <time>2021-04-15T10:48:31.000Z</time>
      </trkpt>
      <trkpt lat="47.12682" lon="-1.70143">
        <ele>54</ele>
        <time>2021-04-15T10:48:33.000Z</time>
      </trkpt>
      <trkpt lat="47.12694" lon="-1.70138">
        <ele>52</ele>
        <time>2021-04-15T10:48:35.000Z</time>
      </trkpt>
      <trkpt lat="47.12706" lon="-1.70133">
        <ele>52</ele>
        <time>2021-04-15T10:48:37.000Z</time>
      </trkpt>
      <trkpt lat="47.12717" lon="-1.70126">
        <ele>53</ele>
        <time>2021-04-15T10:48:39.000Z</time>
      </trkpt>
      <trkpt lat="47.12729" lon="-1.70119">
        <ele>53</ele>
        <time>2021-04-15T10:48:41.000Z</time>
      </trkpt>
      <trkpt lat="47.12741" lon="-1.70113">
        <ele>53</ele>
        <time>2021-04-15T10:48:43.000Z</time>
      </trkpt>
      <trkpt lat="47.12754" lon="-1.70107">
        <ele>52</ele>
        <time>2021-04-15T10:48:45.000Z</time>
      </trkpt>
      <trkpt lat="47.12765" lon="-1.701">
        <ele>52</ele>
        <time>2021-04-15T10:48:47.000Z</time>
      </trkpt>
      <trkpt lat="47.12777" lon="-1.70094">
        <ele>53</ele>
        <time>2021-04-15T10:48:49.000Z</time>
      </trkpt>
      <trkpt lat="47.12789" lon="-1.70088">
        <ele>54</ele>
        <time>2021-04-15T10:48:51.000Z</time>
      </trkpt>
      <trkpt lat="47.128" lon="-1.70082">
        <ele>54</ele>
        <time>2021-04-15T10:48:53.000Z</time>
      </trkpt>
      <trkpt lat="47.12812" lon="-1.70076">
        <ele>54</ele>
        <time>2021-04-15T10:48:55.000Z</time>
      </trkpt>
      <trkpt lat="47.12824" lon="-1.70071">
        <ele>53</ele>
        <time>2021-04-15T10:48:57.000Z</time>
      </trkpt>
      <trkpt lat="47.12834" lon="-1.70065">
        <ele>53</ele>
        <time>2021-04-15T10:48:59.000Z</time>
      </trkpt>
      <trkpt lat="47.12846" lon="-1.70059">
        <ele>53</ele>
        <time>2021-04-15T10:49:01.000Z</time>
      </trkpt>
      <trkpt lat="47.12858" lon="-1.70053">
        <ele>53</ele>
        <time>2021-04-15T10:49:03.000Z</time>
      </trkpt>
      <trkpt lat="47.12869" lon="-1.70046">
        <ele>54</ele>
        <time>2021-04-15T10:49:05.000Z</time>
      </trkpt>
      <trkpt lat="47.12881" lon="-1.7004">
        <ele>54</ele>
        <time>2021-04-15T10:49:07.000Z</time>
      </trkpt>
      <trkpt lat="47.12893" lon="-1.70033">
        <ele>54</ele>
        <time>2021-04-15T10:49:09.000Z</time>
      </trkpt>
      <trkpt lat="47.12906" lon="-1.70027">
        <ele>54</ele>
        <time>2021-04-15T10:49:11.000Z</time>
      </trkpt>
      <trkpt lat="47.12917" lon="-1.70021">
        <ele>54</ele>
        <time>2021-04-15T10:49:13.000Z</time>
      </trkpt>
      <trkpt lat="47.12929" lon="-1.70016">
        <ele>54</ele>
        <time>2021-04-15T10:49:15.000Z</time>
      </trkpt>
      <trkpt lat="47.12941" lon="-1.7001">
        <ele>55</ele>
        <time>2021-04-15T10:49:17.000Z</time>
      </trkpt>
      <trkpt lat="47.12953" lon="-1.70004">
        <ele>54</ele>
        <time>2021-04-15T10:49:19.000Z</time>
      </trkpt>
      <trkpt lat="47.12965" lon="-1.69997">
        <ele>54</ele>
        <time>2021-04-15T10:49:21.000Z</time>
      </trkpt>
      <trkpt lat="47.12977" lon="-1.6999">
        <ele>54</ele>
        <time>2021-04-15T10:49:23.000Z</time>
      </trkpt>
      <trkpt lat="47.12988" lon="-1.69984">
        <ele>54</ele>
        <time>2021-04-15T10:49:25.000Z</time>
      </trkpt>
      <trkpt lat="47.13" lon="-1.69978">
        <ele>53</ele>
        <time>2021-04-15T10:49:27.000Z</time>
      </trkpt>
      <trkpt lat="47.13012" lon="-1.69972">
        <ele>54</ele>
        <time>2021-04-15T10:49:29.000Z</time>
      </trkpt>
      <trkpt lat="47.13024" lon="-1.69966">
        <ele>53</ele>
        <time>2021-04-15T10:49:31.000Z</time>
      </trkpt>
      <trkpt lat="47.13036" lon="-1.6996">
        <ele>53</ele>
        <time>2021-04-15T10:49:33.000Z</time>
      </trkpt>
      <trkpt lat="47.13048" lon="-1.69953">
        <ele>53</ele>
        <time>2021-04-15T10:49:35.000Z</time>
      </trkpt>
      <trkpt lat="47.13059" lon="-1.69947">
        <ele>54</ele>
        <time>2021-04-15T10:49:37.000Z</time>
      </trkpt>
      <trkpt lat="47.13071" lon="-1.69941">
        <ele>54</ele>
        <time>2021-04-15T10:49:39.000Z</time>
      </trkpt>
      <trkpt lat="47.13082" lon="-1.69934">
        <ele>54</ele>
        <time>2021-04-15T10:49:41.000Z</time>
      </trkpt>
      <trkpt lat="47.13094" lon="-1.69928">
        <ele>55</ele>
        <time>2021-04-15T10:49:43.000Z</time>
      </trkpt>
      <trkpt lat="47.13106" lon="-1.69922">
        <ele>55</ele>
        <time>2021-04-15T10:49:45.000Z</time>
      </trkpt>
      <trkpt lat="47.13118" lon="-1.69916">
        <ele>55</ele>
        <time>2021-04-15T10:49:47.000Z</time>
      </trkpt>
      <trkpt lat="47.13129" lon="-1.6991">
        <ele>56</ele>
        <time>2021-04-15T10:49:49.000Z</time>
      </trkpt>
      <trkpt lat="47.13141" lon="-1.69904">
        <ele>56</ele>
        <time>2021-04-15T10:49:51.000Z</time>
      </trkpt>
      <trkpt lat="47.13153" lon="-1.69899">
        <ele>56</ele>
        <time>2021-04-15T10:49:53.000Z</time>
      </trkpt>
      <trkpt lat="47.13164" lon="-1.69893">
        <ele>55</ele>
        <time>2021-04-15T10:49:55.000Z</time>
      </trkpt>
      <trkpt lat="47.13175" lon="-1.69887">
        <ele>55</ele>
        <time>2021-04-15T10:49:57.000Z</time>
      </trkpt>
      <trkpt lat="47.13185" lon="-1.6988">
        <ele>56</ele>
        <time>2021-04-15T10:49:59.000Z</time>
      </trkpt>
      <trkpt lat="47.13196" lon="-1.69875">
        <ele>57</ele>
        <time>2021-04-15T10:50:01.000Z</time>
      </trkpt>
      <trkpt lat="47.13207" lon="-1.69869">
        <ele>58</ele>
        <time>2021-04-15T10:50:03.000Z</time>
      </trkpt>
      <trkpt lat="47.13218" lon="-1.69864">
        <ele>58</ele>
        <time>2021-04-15T10:50:05.000Z</time>
      </trkpt>
      <trkpt lat="47.13229" lon="-1.69857">
        <ele>58</ele>
        <time>2021-04-15T10:50:07.000Z</time>
      </trkpt>
      <trkpt lat="47.13241" lon="-1.69852">
        <ele>58</ele>
        <time>2021-04-15T10:50:09.000Z</time>
      </trkpt>
      <trkpt lat="47.13252" lon="-1.69847">
        <ele>58</ele>
        <time>2021-04-15T10:50:11.000Z</time>
      </trkpt>
      <trkpt lat="47.13264" lon="-1.69842">
        <ele>57</ele>
        <time>2021-04-15T10:50:13.000Z</time>
      </trkpt>
      <trkpt lat="47.13275" lon="-1.69836">
        <ele>56</ele>
        <time>2021-04-15T10:50:15.000Z</time>
      </trkpt>
      <trkpt lat="47.13287" lon="-1.69828">
        <ele>56</ele>
        <time>2021-04-15T10:50:17.000Z</time>
      </trkpt>
      <trkpt lat="47.133" lon="-1.69822">
        <ele>57</ele>
        <time>2021-04-15T10:50:19.000Z</time>
      </trkpt>
      <trkpt lat="47.13312" lon="-1.69815">
        <ele>57</ele>
        <time>2021-04-15T10:50:21.000Z</time>
      </trkpt>
      <trkpt lat="47.13325" lon="-1.69809">
        <ele>56</ele>
        <time>2021-04-15T10:50:23.000Z</time>
      </trkpt>
      <trkpt lat="47.13338" lon="-1.69801">
        <ele>56</ele>
        <time>2021-04-15T10:50:25.000Z</time>
      </trkpt>
      <trkpt lat="47.1335" lon="-1.69794">
        <ele>56</ele>
        <time>2021-04-15T10:50:27.000Z</time>
      </trkpt>
      <trkpt lat="47.13363" lon="-1.69788">
        <ele>56</ele>
        <time>2021-04-15T10:50:29.000Z</time>
      </trkpt>
      <trkpt lat="47.13374" lon="-1.69782">
        <ele>56</ele>
        <time>2021-04-15T10:50:31.000Z</time>
      </trkpt>
      <trkpt lat="47.13387" lon="-1.69775">
        <ele>57</ele>
        <time>2021-04-15T10:50:33.000Z</time>
      </trkpt>
      <trkpt lat="47.13398" lon="-1.69769">
        <ele>58</ele>
        <time>2021-04-15T10:50:35.000Z</time>
      </trkpt>
      <trkpt lat="47.13409" lon="-1.69762">
        <ele>59</ele>
        <time>2021-04-15T10:50:37.000Z</time>
      </trkpt>
      <trkpt lat="47.13421" lon="-1.69756">
        <ele>61</ele>
        <time>2021-04-15T10:50:39.000Z</time>
      </trkpt>
      <trkpt lat="47.13431" lon="-1.6975">
        <ele>64</ele>
        <time>2021-04-15T10:50:41.000Z</time>
      </trkpt>
      <trkpt lat="47.13442" lon="-1.69744">
        <ele>67</ele>
        <time>2021-04-15T10:50:43.000Z</time>
      </trkpt>
      <trkpt lat="47.13452" lon="-1.69739">
        <ele>70</ele>
        <time>2021-04-15T10:50:45.000Z</time>
      </trkpt>
      <trkpt lat="47.13464" lon="-1.69734">
        <ele>70</ele>
        <time>2021-04-15T10:50:47.000Z</time>
      </trkpt>
      <trkpt lat="47.13476" lon="-1.69731">
        <ele>70</ele>
        <time>2021-04-15T10:50:49.000Z</time>
      </trkpt>
      <trkpt lat="47.13489" lon="-1.69729">
        <ele>68</ele>
        <time>2021-04-15T10:50:51.000Z</time>
      </trkpt>
      <trkpt lat="47.13501" lon="-1.69729">
        <ele>65</ele>
        <time>2021-04-15T10:50:53.000Z</time>
      </trkpt>
      <trkpt lat="47.13512" lon="-1.69731">
        <ele>63</ele>
        <time>2021-04-15T10:50:55.000Z</time>
      </trkpt>
      <trkpt lat="47.13524" lon="-1.69732">
        <ele>61</ele>
        <time>2021-04-15T10:50:57.000Z</time>
      </trkpt>
      <trkpt lat="47.13536" lon="-1.69732">
        <ele>59</ele>
        <time>2021-04-15T10:50:59.000Z</time>
      </trkpt>
      <trkpt lat="47.13548" lon="-1.69732">
        <ele>58</ele>
        <time>2021-04-15T10:51:01.000Z</time>
      </trkpt>
      <trkpt lat="47.13559" lon="-1.69732">
        <ele>56</ele>
        <time>2021-04-15T10:51:03.000Z</time>
      </trkpt>
      <trkpt lat="47.13569" lon="-1.69732">
        <ele>55</ele>
        <time>2021-04-15T10:51:05.000Z</time>
      </trkpt>
      <trkpt lat="47.13579" lon="-1.69731">
        <ele>55</ele>
        <time>2021-04-15T10:51:07.000Z</time>
      </trkpt>
      <trkpt lat="47.1359" lon="-1.69731">
        <ele>55</ele>
        <time>2021-04-15T10:51:09.000Z</time>
      </trkpt>
      <trkpt lat="47.136" lon="-1.69731">
        <ele>55</ele>
        <time>2021-04-15T10:51:11.000Z</time>
      </trkpt>
      <trkpt lat="47.1361" lon="-1.69731">
        <ele>55</ele>
        <time>2021-04-15T10:51:13.000Z</time>
      </trkpt>
      <trkpt lat="47.1362" lon="-1.69731">
        <ele>54</ele>
        <time>2021-04-15T10:51:15.000Z</time>
      </trkpt>
      <trkpt lat="47.13631" lon="-1.69731">
        <ele>54</ele>
        <time>2021-04-15T10:51:17.000Z</time>
      </trkpt>
      <trkpt lat="47.13641" lon="-1.69731">
        <ele>54</ele>
        <time>2021-04-15T10:51:19.000Z</time>
      </trkpt>
      <trkpt lat="47.13651" lon="-1.69732">
        <ele>54</ele>
        <time>2021-04-15T10:51:21.000Z</time>
      </trkpt>
      <trkpt lat="47.13662" lon="-1.69732">
        <ele>54</ele>
        <time>2021-04-15T10:51:23.000Z</time>
      </trkpt>
      <trkpt lat="47.13672" lon="-1.69733">
        <ele>54</ele>
        <time>2021-04-15T10:51:25.000Z</time>
      </trkpt>
      <trkpt lat="47.13683" lon="-1.69734">
        <ele>53</ele>
        <time>2021-04-15T10:51:27.000Z</time>
      </trkpt>
      <trkpt lat="47.13693" lon="-1.69734">
        <ele>53</ele>
        <time>2021-04-15T10:51:29.000Z</time>
      </trkpt>
      <trkpt lat="47.13703" lon="-1.69733">
        <ele>53</ele>
        <time>2021-04-15T10:51:31.000Z</time>
      </trkpt>
      <trkpt lat="47.13713" lon="-1.69732">
        <ele>53</ele>
        <time>2021-04-15T10:51:33.000Z</time>
      </trkpt>
      <trkpt lat="47.13724" lon="-1.6973">
        <ele>53</ele>
        <time>2021-04-15T10:51:35.000Z</time>
      </trkpt>
      <trkpt lat="47.13734" lon="-1.69727">
        <ele>53</ele>
        <time>2021-04-15T10:51:37.000Z</time>
      </trkpt>
      <trkpt lat="47.13744" lon="-1.69725">
        <ele>52</ele>
        <time>2021-04-15T10:51:39.000Z</time>
      </trkpt>
      <trkpt lat="47.13754" lon="-1.69723">
        <ele>52</ele>
        <time>2021-04-15T10:51:41.000Z</time>
      </trkpt>
      <trkpt lat="47.13765" lon="-1.69722">
        <ele>52</ele>
        <time>2021-04-15T10:51:43.000Z</time>
      </trkpt>
      <trkpt lat="47.13775" lon="-1.69722">
        <ele>52</ele>
        <time>2021-04-15T10:51:45.000Z</time>
      </trkpt>
      <trkpt lat="47.13786" lon="-1.69722">
        <ele>52</ele>
        <time>2021-04-15T10:51:47.000Z</time>
      </trkpt>
      <trkpt lat="47.13796" lon="-1.69722">
        <ele>52</ele>
        <time>2021-04-15T10:51:49.000Z</time>
      </trkpt>
      <trkpt lat="47.13807" lon="-1.69723">
        <ele>52</ele>
        <time>2021-04-15T10:51:51.000Z</time>
      </trkpt>
      <trkpt lat="47.13818" lon="-1.69723">
        <ele>52</ele>
        <time>2021-04-15T10:51:53.000Z</time>
      </trkpt>
      <trkpt lat="47.13828" lon="-1.69723">
        <ele>52</ele>
        <time>2021-04-15T10:51:55.000Z</time>
      </trkpt>
      <trkpt lat="47.13839" lon="-1.69723">
        <ele>52</ele>
        <time>2021-04-15T10:51:57.000Z</time>
      </trkpt>
      <trkpt lat="47.13849" lon="-1.69722">
        <ele>52</ele>
        <time>2021-04-15T10:51:59.000Z</time>
      </trkpt>
      <trkpt lat="47.13859" lon="-1.6972">
        <ele>52</ele>
        <time>2021-04-15T10:52:01.000Z</time>
      </trkpt>
      <trkpt lat="47.1387" lon="-1.69718">
        <ele>52</ele>
        <time>2021-04-15T10:52:03.000Z</time>
      </trkpt>
      <trkpt lat="47.1388" lon="-1.69716">
        <ele>53</ele>
        <time>2021-04-15T10:52:05.000Z</time>
      </trkpt>
      <trkpt lat="47.13891" lon="-1.69715">
        <ele>53</ele>
        <time>2021-04-15T10:52:07.000Z</time>
      </trkpt>
      <trkpt lat="47.13903" lon="-1.69714">
        <ele>53</ele>
        <time>2021-04-15T10:52:09.000Z</time>
      </trkpt>
      <trkpt lat="47.13915" lon="-1.69714">
        <ele>53</ele>
        <time>2021-04-15T10:52:11.000Z</time>
      </trkpt>
      <trkpt lat="47.13926" lon="-1.69715">
        <ele>53</ele>
        <time>2021-04-15T10:52:13.000Z</time>
      </trkpt>
      <trkpt lat="47.13936" lon="-1.69715">
        <ele>54</ele>
        <time>2021-04-15T10:52:15.000Z</time>
      </trkpt>
      <trkpt lat="47.13946" lon="-1.69715">
        <ele>55</ele>
        <time>2021-04-15T10:52:17.000Z</time>
      </trkpt>
      <trkpt lat="47.13957" lon="-1.69716">
        <ele>55</ele>
        <time>2021-04-15T10:52:19.000Z</time>
      </trkpt>
      <trkpt lat="47.13969" lon="-1.69715">
        <ele>56</ele>
        <time>2021-04-15T10:52:21.000Z</time>
      </trkpt>
      <trkpt lat="47.13981" lon="-1.69716">
        <ele>55</ele>
        <time>2021-04-15T10:52:23.000Z</time>
      </trkpt>
      <trkpt lat="47.13992" lon="-1.69717">
        <ele>55</ele>
        <time>2021-04-15T10:52:25.000Z</time>
      </trkpt>
      <trkpt lat="47.14002" lon="-1.69718">
        <ele>55</ele>
        <time>2021-04-15T10:52:27.000Z</time>
      </trkpt>
      <trkpt lat="47.14013" lon="-1.6972">
        <ele>55</ele>
        <time>2021-04-15T10:52:29.000Z</time>
      </trkpt>
      <trkpt lat="47.14023" lon="-1.69721">
        <ele>56</ele>
        <time>2021-04-15T10:52:31.000Z</time>
      </trkpt>
      <trkpt lat="47.14034" lon="-1.69722">
        <ele>55</ele>
        <time>2021-04-15T10:52:33.000Z</time>
      </trkpt>
      <trkpt lat="47.14045" lon="-1.69723">
        <ele>54</ele>
        <time>2021-04-15T10:52:35.000Z</time>
      </trkpt>
      <trkpt lat="47.14057" lon="-1.69724">
        <ele>54</ele>
        <time>2021-04-15T10:52:37.000Z</time>
      </trkpt>
      <trkpt lat="47.14068" lon="-1.69725">
        <ele>53</ele>
        <time>2021-04-15T10:52:39.000Z</time>
      </trkpt>
      <trkpt lat="47.14079" lon="-1.69725">
        <ele>53</ele>
        <time>2021-04-15T10:52:41.000Z</time>
      </trkpt>
      <trkpt lat="47.14089" lon="-1.69725">
        <ele>54</ele>
        <time>2021-04-15T10:52:43.000Z</time>
      </trkpt>
      <trkpt lat="47.14097" lon="-1.69716">
        <ele>54</ele>
        <time>2021-04-15T10:52:45.000Z</time>
      </trkpt>
      <trkpt lat="47.14099" lon="-1.697">
        <ele>54</ele>
        <time>2021-04-15T10:52:47.000Z</time>
      </trkpt>
      <trkpt lat="47.14098" lon="-1.69684">
        <ele>55</ele>
        <time>2021-04-15T10:52:49.000Z</time>
      </trkpt>
      <trkpt lat="47.14097" lon="-1.69669">
        <ele>56</ele>
        <time>2021-04-15T10:52:51.000Z</time>
      </trkpt>
      <trkpt lat="47.14095" lon="-1.69654">
        <ele>57</ele>
        <time>2021-04-15T10:52:53.000Z</time>
      </trkpt>
      <trkpt lat="47.14093" lon="-1.6964">
        <ele>57</ele>
        <time>2021-04-15T10:52:55.000Z</time>
      </trkpt>
      <trkpt lat="47.14091" lon="-1.69626">
        <ele>58</ele>
        <time>2021-04-15T10:52:57.000Z</time>
      </trkpt>
      <trkpt lat="47.1409" lon="-1.69612">
        <ele>59</ele>
        <time>2021-04-15T10:52:59.000Z</time>
      </trkpt>
      <trkpt lat="47.1409" lon="-1.69598">
        <ele>59</ele>
        <time>2021-04-15T10:53:01.000Z</time>
      </trkpt>
      <trkpt lat="47.1409" lon="-1.69583">
        <ele>60</ele>
        <time>2021-04-15T10:53:03.000Z</time>
      </trkpt>
      <trkpt lat="47.14091" lon="-1.69568">
        <ele>60</ele>
        <time>2021-04-15T10:53:05.000Z</time>
      </trkpt>
      <trkpt lat="47.14092" lon="-1.69553">
        <ele>61</ele>
        <time>2021-04-15T10:53:07.000Z</time>
      </trkpt>
      <trkpt lat="47.14093" lon="-1.69539">
        <ele>61</ele>
        <time>2021-04-15T10:53:09.000Z</time>
      </trkpt>
      <trkpt lat="47.14095" lon="-1.69526">
        <ele>62</ele>
        <time>2021-04-15T10:53:11.000Z</time>
      </trkpt>
      <trkpt lat="47.14096" lon="-1.69506">
        <ele>62</ele>
        <time>2021-04-15T10:53:14.000Z</time>
      </trkpt>
      <trkpt lat="47.14098" lon="-1.69493">
        <ele>62</ele>
        <time>2021-04-15T10:53:16.000Z</time>
      </trkpt>
      <trkpt lat="47.141" lon="-1.69479">
        <ele>62</ele>
        <time>2021-04-15T10:53:18.000Z</time>
      </trkpt>
      <trkpt lat="47.14102" lon="-1.69466">
        <ele>63</ele>
        <time>2021-04-15T10:53:20.000Z</time>
      </trkpt>
      <trkpt lat="47.14104" lon="-1.69453">
        <ele>63</ele>
        <time>2021-04-15T10:53:22.000Z</time>
      </trkpt>
      <trkpt lat="47.14105" lon="-1.69434">
        <ele>62</ele>
        <time>2021-04-15T10:53:25.000Z</time>
      </trkpt>
      <trkpt lat="47.14107" lon="-1.69414">
        <ele>62</ele>
        <time>2021-04-15T10:53:28.000Z</time>
      </trkpt>
      <trkpt lat="47.14108" lon="-1.69401">
        <ele>63</ele>
        <time>2021-04-15T10:53:30.000Z</time>
      </trkpt>
      <trkpt lat="47.14109" lon="-1.69387">
        <ele>63</ele>
        <time>2021-04-15T10:53:32.000Z</time>
      </trkpt>
      <trkpt lat="47.14111" lon="-1.69374">
        <ele>63</ele>
        <time>2021-04-15T10:53:34.000Z</time>
      </trkpt>
      <trkpt lat="47.14113" lon="-1.6936">
        <ele>62</ele>
        <time>2021-04-15T10:53:36.000Z</time>
      </trkpt>
      <trkpt lat="47.14114" lon="-1.69347">
        <ele>63</ele>
        <time>2021-04-15T10:53:38.000Z</time>
      </trkpt>
      <trkpt lat="47.14116" lon="-1.69328">
        <ele>63</ele>
        <time>2021-04-15T10:53:41.000Z</time>
      </trkpt>
      <trkpt lat="47.14118" lon="-1.69314">
        <ele>63</ele>
        <time>2021-04-15T10:53:43.000Z</time>
      </trkpt>
      <trkpt lat="47.1412" lon="-1.69301">
        <ele>64</ele>
        <time>2021-04-15T10:53:45.000Z</time>
      </trkpt>
      <trkpt lat="47.14122" lon="-1.69288">
        <ele>64</ele>
        <time>2021-04-15T10:53:47.000Z</time>
      </trkpt>
      <trkpt lat="47.14124" lon="-1.69275">
        <ele>64</ele>
        <time>2021-04-15T10:53:49.000Z</time>
      </trkpt>
      <trkpt lat="47.14126" lon="-1.69262">
        <ele>64</ele>
        <time>2021-04-15T10:53:51.000Z</time>
      </trkpt>
      <trkpt lat="47.14128" lon="-1.69249">
        <ele>64</ele>
        <time>2021-04-15T10:53:53.000Z</time>
      </trkpt>
      <trkpt lat="47.1413" lon="-1.69235">
        <ele>64</ele>
        <time>2021-04-15T10:53:55.000Z</time>
      </trkpt>
      <trkpt lat="47.14133" lon="-1.69222">
        <ele>64</ele>
        <time>2021-04-15T10:53:57.000Z</time>
      </trkpt>
      <trkpt lat="47.14136" lon="-1.69209">
        <ele>63</ele>
        <time>2021-04-15T10:53:59.000Z</time>
      </trkpt>
      <trkpt lat="47.14139" lon="-1.69196">
        <ele>63</ele>
        <time>2021-04-15T10:54:01.000Z</time>
      </trkpt>
      <trkpt lat="47.14141" lon="-1.69183">
        <ele>63</ele>
        <time>2021-04-15T10:54:03.000Z</time>
      </trkpt>
      <trkpt lat="47.14143" lon="-1.69169">
        <ele>63</ele>
        <time>2021-04-15T10:54:05.000Z</time>
      </trkpt>
      <trkpt lat="47.14144" lon="-1.69155">
        <ele>63</ele>
        <time>2021-04-15T10:54:07.000Z</time>
      </trkpt>
      <trkpt lat="47.14146" lon="-1.6914">
        <ele>62</ele>
        <time>2021-04-15T10:54:09.000Z</time>
      </trkpt>
      <trkpt lat="47.14148" lon="-1.69124">
        <ele>62</ele>
        <time>2021-04-15T10:54:11.000Z</time>
      </trkpt>
      <trkpt lat="47.14151" lon="-1.69109">
        <ele>62</ele>
        <time>2021-04-15T10:54:13.000Z</time>
      </trkpt>
      <trkpt lat="47.14153" lon="-1.69092">
        <ele>61</ele>
        <time>2021-04-15T10:54:15.000Z</time>
      </trkpt>
      <trkpt lat="47.14155" lon="-1.69076">
        <ele>61</ele>
        <time>2021-04-15T10:54:17.000Z</time>
      </trkpt>
      <trkpt lat="47.14158" lon="-1.6906">
        <ele>61</ele>
        <time>2021-04-15T10:54:19.000Z</time>
      </trkpt>
      <trkpt lat="47.1416" lon="-1.69044">
        <ele>60</ele>
        <time>2021-04-15T10:54:21.000Z</time>
      </trkpt>
      <trkpt lat="47.14164" lon="-1.69028">
        <ele>60</ele>
        <time>2021-04-15T10:54:23.000Z</time>
      </trkpt>
      <trkpt lat="47.14168" lon="-1.69012">
        <ele>59</ele>
        <time>2021-04-15T10:54:25.000Z</time>
      </trkpt>
      <trkpt lat="47.14173" lon="-1.68998">
        <ele>59</ele>
        <time>2021-04-15T10:54:27.000Z</time>
      </trkpt>
      <trkpt lat="47.14178" lon="-1.68984">
        <ele>59</ele>
        <time>2021-04-15T10:54:29.000Z</time>
      </trkpt>
      <trkpt lat="47.14185" lon="-1.68971">
        <ele>59</ele>
        <time>2021-04-15T10:54:31.000Z</time>
      </trkpt>
      <trkpt lat="47.14191" lon="-1.68957">
        <ele>59</ele>
        <time>2021-04-15T10:54:33.000Z</time>
      </trkpt>
      <trkpt lat="47.14199" lon="-1.68944">
        <ele>58</ele>
        <time>2021-04-15T10:54:35.000Z</time>
      </trkpt>
      <trkpt lat="47.14208" lon="-1.68936">
        <ele>57</ele>
        <time>2021-04-15T10:54:37.000Z</time>
      </trkpt>
      <trkpt lat="47.14218" lon="-1.68932">
        <ele>57</ele>
        <time>2021-04-15T10:54:39.000Z</time>
      </trkpt>
      <trkpt lat="47.14224" lon="-1.6892">
        <ele>56</ele>
        <time>2021-04-15T10:54:41.000Z</time>
      </trkpt>
      <trkpt lat="47.14222" lon="-1.68907">
        <ele>55</ele>
        <time>2021-04-15T10:54:44.000Z</time>
      </trkpt>
      <trkpt lat="47.14219" lon="-1.68894">
        <ele>55</ele>
        <time>2021-04-15T10:54:47.000Z</time>
      </trkpt>
      <trkpt lat="47.14216" lon="-1.68878">
        <ele>56</ele>
        <time>2021-04-15T10:54:50.000Z</time>
      </trkpt>
      <trkpt lat="47.14213" lon="-1.68864">
        <ele>56</ele>
        <time>2021-04-15T10:54:52.000Z</time>
      </trkpt>
      <trkpt lat="47.1421" lon="-1.6885">
        <ele>56</ele>
        <time>2021-04-15T10:54:54.000Z</time>
      </trkpt>
      <trkpt lat="47.14207" lon="-1.68835">
        <ele>56</ele>
        <time>2021-04-15T10:54:56.000Z</time>
      </trkpt>
      <trkpt lat="47.14204" lon="-1.6882">
        <ele>56</ele>
        <time>2021-04-15T10:54:58.000Z</time>
      </trkpt>
      <trkpt lat="47.14202" lon="-1.68804">
        <ele>57</ele>
        <time>2021-04-15T10:55:00.000Z</time>
      </trkpt>
      <trkpt lat="47.14199" lon="-1.68788">
        <ele>56</ele>
        <time>2021-04-15T10:55:02.000Z</time>
      </trkpt>
      <trkpt lat="47.14194" lon="-1.68773">
        <ele>56</ele>
        <time>2021-04-15T10:55:04.000Z</time>
      </trkpt>
      <trkpt lat="47.14189" lon="-1.68757">
        <ele>56</ele>
        <time>2021-04-15T10:55:06.000Z</time>
      </trkpt>
      <trkpt lat="47.14184" lon="-1.68742">
        <ele>56</ele>
        <time>2021-04-15T10:55:08.000Z</time>
      </trkpt>
      <trkpt lat="47.14178" lon="-1.68727">
        <ele>56</ele>
        <time>2021-04-15T10:55:10.000Z</time>
      </trkpt>
      <trkpt lat="47.14172" lon="-1.68712">
        <ele>56</ele>
        <time>2021-04-15T10:55:12.000Z</time>
      </trkpt>
      <trkpt lat="47.14166" lon="-1.68698">
        <ele>56</ele>
        <time>2021-04-15T10:55:14.000Z</time>
      </trkpt>
      <trkpt lat="47.14158" lon="-1.68685">
        <ele>56</ele>
        <time>2021-04-15T10:55:16.000Z</time>
      </trkpt>
      <trkpt lat="47.1415" lon="-1.68672">
        <ele>56</ele>
        <time>2021-04-15T10:55:18.000Z</time>
      </trkpt>
      <trkpt lat="47.14141" lon="-1.6866">
        <ele>56</ele>
        <time>2021-04-15T10:55:20.000Z</time>
      </trkpt>
      <trkpt lat="47.14133" lon="-1.68648">
        <ele>55</ele>
        <time>2021-04-15T10:55:22.000Z</time>
      </trkpt>
      <trkpt lat="47.14125" lon="-1.68636">
        <ele>55</ele>
        <time>2021-04-15T10:55:24.000Z</time>
      </trkpt>
      <trkpt lat="47.14117" lon="-1.68624">
        <ele>55</ele>
        <time>2021-04-15T10:55:26.000Z</time>
      </trkpt>
      <trkpt lat="47.14108" lon="-1.68611">
        <ele>55</ele>
        <time>2021-04-15T10:55:28.000Z</time>
      </trkpt>
      <trkpt lat="47.141" lon="-1.68598">
        <ele>55</ele>
        <time>2021-04-15T10:55:30.000Z</time>
      </trkpt>
      <trkpt lat="47.14092" lon="-1.68586">
        <ele>55</ele>
        <time>2021-04-15T10:55:32.000Z</time>
      </trkpt>
      <trkpt lat="47.14084" lon="-1.68573">
        <ele>55</ele>
        <time>2021-04-15T10:55:34.000Z</time>
      </trkpt>
      <trkpt lat="47.14076" lon="-1.6856">
        <ele>55</ele>
        <time>2021-04-15T10:55:36.000Z</time>
      </trkpt>
      <trkpt lat="47.14067" lon="-1.68548">
        <ele>54</ele>
        <time>2021-04-15T10:55:38.000Z</time>
      </trkpt>
      <trkpt lat="47.14059" lon="-1.68536">
        <ele>54</ele>
        <time>2021-04-15T10:55:40.000Z</time>
      </trkpt>
      <trkpt lat="47.14052" lon="-1.68523">
        <ele>54</ele>
        <time>2021-04-15T10:55:42.000Z</time>
      </trkpt>
      <trkpt lat="47.14044" lon="-1.68511">
        <ele>54</ele>
        <time>2021-04-15T10:55:44.000Z</time>
      </trkpt>
      <trkpt lat="47.14037" lon="-1.68497">
        <ele>55</ele>
        <time>2021-04-15T10:55:46.000Z</time>
      </trkpt>
      <trkpt lat="47.14028" lon="-1.68485">
        <ele>54</ele>
        <time>2021-04-15T10:55:48.000Z</time>
      </trkpt>
      <trkpt lat="47.1402" lon="-1.68472">
        <ele>54</ele>
        <time>2021-04-15T10:55:50.000Z</time>
      </trkpt>
      <trkpt lat="47.14011" lon="-1.68459">
        <ele>54</ele>
        <time>2021-04-15T10:55:52.000Z</time>
      </trkpt>
      <trkpt lat="47.14002" lon="-1.68445">
        <ele>53</ele>
        <time>2021-04-15T10:55:54.000Z</time>
      </trkpt>
      <trkpt lat="47.13993" lon="-1.68432">
        <ele>53</ele>
        <time>2021-04-15T10:55:56.000Z</time>
      </trkpt>
      <trkpt lat="47.13984" lon="-1.68418">
        <ele>53</ele>
        <time>2021-04-15T10:55:58.000Z</time>
      </trkpt>
      <trkpt lat="47.13975" lon="-1.68403">
        <ele>53</ele>
        <time>2021-04-15T10:56:00.000Z</time>
      </trkpt>
      <trkpt lat="47.13967" lon="-1.68386">
        <ele>53</ele>
        <time>2021-04-15T10:56:02.000Z</time>
      </trkpt>
      <trkpt lat="47.1396" lon="-1.68368">
        <ele>53</ele>
        <time>2021-04-15T10:56:04.000Z</time>
      </trkpt>
      <trkpt lat="47.13953" lon="-1.68352">
        <ele>54</ele>
        <time>2021-04-15T10:56:06.000Z</time>
      </trkpt>
      <trkpt lat="47.13946" lon="-1.68336">
        <ele>54</ele>
        <time>2021-04-15T10:56:08.000Z</time>
      </trkpt>
      <trkpt lat="47.13941" lon="-1.6832">
        <ele>54</ele>
        <time>2021-04-15T10:56:10.000Z</time>
      </trkpt>
      <trkpt lat="47.13934" lon="-1.68304">
        <ele>54</ele>
        <time>2021-04-15T10:56:12.000Z</time>
      </trkpt>
      <trkpt lat="47.13927" lon="-1.68288">
        <ele>54</ele>
        <time>2021-04-15T10:56:14.000Z</time>
      </trkpt>
      <trkpt lat="47.13921" lon="-1.68273">
        <ele>55</ele>
        <time>2021-04-15T10:56:16.000Z</time>
      </trkpt>
      <trkpt lat="47.13915" lon="-1.68257">
        <ele>55</ele>
        <time>2021-04-15T10:56:18.000Z</time>
      </trkpt>
      <trkpt lat="47.13908" lon="-1.68242">
        <ele>55</ele>
        <time>2021-04-15T10:56:20.000Z</time>
      </trkpt>
      <trkpt lat="47.13902" lon="-1.68227">
        <ele>55</ele>
        <time>2021-04-15T10:56:22.000Z</time>
      </trkpt>
      <trkpt lat="47.13895" lon="-1.68211">
        <ele>56</ele>
        <time>2021-04-15T10:56:24.000Z</time>
      </trkpt>
      <trkpt lat="47.13889" lon="-1.68196">
        <ele>55</ele>
        <time>2021-04-15T10:56:26.000Z</time>
      </trkpt>
      <trkpt lat="47.13883" lon="-1.68181">
        <ele>56</ele>
        <time>2021-04-15T10:56:28.000Z</time>
      </trkpt>
      <trkpt lat="47.13877" lon="-1.68166">
        <ele>55</ele>
        <time>2021-04-15T10:56:30.000Z</time>
      </trkpt>
      <trkpt lat="47.1387" lon="-1.6815">
        <ele>55</ele>
        <time>2021-04-15T10:56:32.000Z</time>
      </trkpt>
      <trkpt lat="47.13864" lon="-1.68136">
        <ele>55</ele>
        <time>2021-04-15T10:56:34.000Z</time>
      </trkpt>
      <trkpt lat="47.13858" lon="-1.68121">
        <ele>55</ele>
        <time>2021-04-15T10:56:36.000Z</time>
      </trkpt>
      <trkpt lat="47.13852" lon="-1.68106">
        <ele>55</ele>
        <time>2021-04-15T10:56:38.000Z</time>
      </trkpt>
      <trkpt lat="47.13846" lon="-1.68091">
        <ele>55</ele>
        <time>2021-04-15T10:56:40.000Z</time>
      </trkpt>
      <trkpt lat="47.1384" lon="-1.68076">
        <ele>55</ele>
        <time>2021-04-15T10:56:42.000Z</time>
      </trkpt>
      <trkpt lat="47.13834" lon="-1.68061">
        <ele>54</ele>
        <time>2021-04-15T10:56:44.000Z</time>
      </trkpt>
      <trkpt lat="47.13827" lon="-1.68046">
        <ele>54</ele>
        <time>2021-04-15T10:56:46.000Z</time>
      </trkpt>
      <trkpt lat="47.13822" lon="-1.6803">
        <ele>53</ele>
        <time>2021-04-15T10:56:48.000Z</time>
      </trkpt>
      <trkpt lat="47.13816" lon="-1.68013">
        <ele>53</ele>
        <time>2021-04-15T10:56:50.000Z</time>
      </trkpt>
      <trkpt lat="47.13812" lon="-1.67997">
        <ele>53</ele>
        <time>2021-04-15T10:56:52.000Z</time>
      </trkpt>
      <trkpt lat="47.13809" lon="-1.6798">
        <ele>54</ele>
        <time>2021-04-15T10:56:54.000Z</time>
      </trkpt>
      <trkpt lat="47.13807" lon="-1.67962">
        <ele>54</ele>
        <time>2021-04-15T10:56:56.000Z</time>
      </trkpt>
      <trkpt lat="47.13803" lon="-1.67947">
        <ele>53</ele>
        <time>2021-04-15T10:56:58.000Z</time>
      </trkpt>
      <trkpt lat="47.13792" lon="-1.6794">
        <ele>54</ele>
        <time>2021-04-15T10:57:00.000Z</time>
      </trkpt>
      <trkpt lat="47.13781" lon="-1.67934">
        <ele>54</ele>
        <time>2021-04-15T10:57:02.000Z</time>
      </trkpt>
      <trkpt lat="47.13776" lon="-1.67918">
        <ele>54</ele>
        <time>2021-04-15T10:57:04.000Z</time>
      </trkpt>
      <trkpt lat="47.13775" lon="-1.67899">
        <ele>54</ele>
        <time>2021-04-15T10:57:06.000Z</time>
      </trkpt>
      <trkpt lat="47.13774" lon="-1.67883">
        <ele>54</ele>
        <time>2021-04-15T10:57:08.000Z</time>
      </trkpt>
      <trkpt lat="47.13772" lon="-1.67866">
        <ele>54</ele>
        <time>2021-04-15T10:57:10.000Z</time>
      </trkpt>
      <trkpt lat="47.13771" lon="-1.67849">
        <ele>54</ele>
        <time>2021-04-15T10:57:12.000Z</time>
      </trkpt>
      <trkpt lat="47.13769" lon="-1.67832">
        <ele>55</ele>
        <time>2021-04-15T10:57:14.000Z</time>
      </trkpt>
      <trkpt lat="47.13767" lon="-1.67815">
        <ele>55</ele>
        <time>2021-04-15T10:57:16.000Z</time>
      </trkpt>
      <trkpt lat="47.13766" lon="-1.67799">
        <ele>54</ele>
        <time>2021-04-15T10:57:18.000Z</time>
      </trkpt>
      <trkpt lat="47.13764" lon="-1.67782">
        <ele>54</ele>
        <time>2021-04-15T10:57:20.000Z</time>
      </trkpt>
      <trkpt lat="47.13762" lon="-1.67765">
        <ele>54</ele>
        <time>2021-04-15T10:57:22.000Z</time>
      </trkpt>
      <trkpt lat="47.1376" lon="-1.67749">
        <ele>54</ele>
        <time>2021-04-15T10:57:24.000Z</time>
      </trkpt>
      <trkpt lat="47.13758" lon="-1.67733">
        <ele>54</ele>
        <time>2021-04-15T10:57:26.000Z</time>
      </trkpt>
      <trkpt lat="47.13756" lon="-1.67717">
        <ele>54</ele>
        <time>2021-04-15T10:57:28.000Z</time>
      </trkpt>
      <trkpt lat="47.13754" lon="-1.67701">
        <ele>54</ele>
        <time>2021-04-15T10:57:30.000Z</time>
      </trkpt>
      <trkpt lat="47.13752" lon="-1.67685">
        <ele>54</ele>
        <time>2021-04-15T10:57:32.000Z</time>
      </trkpt>
      <trkpt lat="47.13751" lon="-1.67669">
        <ele>53</ele>
        <time>2021-04-15T10:57:34.000Z</time>
      </trkpt>
      <trkpt lat="47.13749" lon="-1.67653">
        <ele>53</ele>
        <time>2021-04-15T10:57:36.000Z</time>
      </trkpt>
      <trkpt lat="47.13747" lon="-1.67636">
        <ele>53</ele>
        <time>2021-04-15T10:57:38.000Z</time>
      </trkpt>
      <trkpt lat="47.13745" lon="-1.6762">
        <ele>53</ele>
        <time>2021-04-15T10:57:40.000Z</time>
      </trkpt>
      <trkpt lat="47.13743" lon="-1.67604">
        <ele>53</ele>
        <time>2021-04-15T10:57:42.000Z</time>
      </trkpt>
      <trkpt lat="47.13741" lon="-1.67589">
        <ele>53</ele>
        <time>2021-04-15T10:57:44.000Z</time>
      </trkpt>
      <trkpt lat="47.13739" lon="-1.67573">
        <ele>52</ele>
        <time>2021-04-15T10:57:46.000Z</time>
      </trkpt>
      <trkpt lat="47.13738" lon="-1.67556">
        <ele>52</ele>
        <time>2021-04-15T10:57:48.000Z</time>
      </trkpt>
      <trkpt lat="47.13739" lon="-1.67539">
        <ele>52</ele>
        <time>2021-04-15T10:57:50.000Z</time>
      </trkpt>
      <trkpt lat="47.13742" lon="-1.67522">
        <ele>52</ele>
        <time>2021-04-15T10:57:52.000Z</time>
      </trkpt>
      <trkpt lat="47.13745" lon="-1.67506">
        <ele>52</ele>
        <time>2021-04-15T10:57:54.000Z</time>
      </trkpt>
      <trkpt lat="47.13749" lon="-1.6749">
        <ele>52</ele>
        <time>2021-04-15T10:57:56.000Z</time>
      </trkpt>
      <trkpt lat="47.13753" lon="-1.67474">
        <ele>51</ele>
        <time>2021-04-15T10:57:58.000Z</time>
      </trkpt>
      <trkpt lat="47.13756" lon="-1.67458">
        <ele>52</ele>
        <time>2021-04-15T10:58:00.000Z</time>
      </trkpt>
      <trkpt lat="47.13759" lon="-1.67441">
        <ele>51</ele>
        <time>2021-04-15T10:58:02.000Z</time>
      </trkpt>
      <trkpt lat="47.1376" lon="-1.67425">
        <ele>51</ele>
        <time>2021-04-15T10:58:04.000Z</time>
      </trkpt>
      <trkpt lat="47.1376" lon="-1.67408">
        <ele>51</ele>
        <time>2021-04-15T10:58:06.000Z</time>
      </trkpt>
      <trkpt lat="47.13759" lon="-1.6739">
        <ele>51</ele>
        <time>2021-04-15T10:58:08.000Z</time>
      </trkpt>
      <trkpt lat="47.13758" lon="-1.67374">
        <ele>51</ele>
        <time>2021-04-15T10:58:10.000Z</time>
      </trkpt>
      <trkpt lat="47.13756" lon="-1.67358">
        <ele>51</ele>
        <time>2021-04-15T10:58:12.000Z</time>
      </trkpt>
      <trkpt lat="47.13753" lon="-1.67341">
        <ele>51</ele>
        <time>2021-04-15T10:58:14.000Z</time>
      </trkpt>
      <trkpt lat="47.13751" lon="-1.67325">
        <ele>52</ele>
        <time>2021-04-15T10:58:16.000Z</time>
      </trkpt>
      <trkpt lat="47.13749" lon="-1.67309">
        <ele>52</ele>
        <time>2021-04-15T10:58:18.000Z</time>
      </trkpt>
      <trkpt lat="47.13747" lon="-1.67292">
        <ele>52</ele>
        <time>2021-04-15T10:58:20.000Z</time>
      </trkpt>
      <trkpt lat="47.13745" lon="-1.67274">
        <ele>52</ele>
        <time>2021-04-15T10:58:22.000Z</time>
      </trkpt>
      <trkpt lat="47.13744" lon="-1.67258">
        <ele>52</ele>
        <time>2021-04-15T10:58:24.000Z</time>
      </trkpt>
      <trkpt lat="47.13742" lon="-1.67241">
        <ele>52</ele>
        <time>2021-04-15T10:58:26.000Z</time>
      </trkpt>
      <trkpt lat="47.1374" lon="-1.67225">
        <ele>52</ele>
        <time>2021-04-15T10:58:28.000Z</time>
      </trkpt>
      <trkpt lat="47.13737" lon="-1.67209">
        <ele>52</ele>
        <time>2021-04-15T10:58:30.000Z</time>
      </trkpt>
      <trkpt lat="47.13734" lon="-1.67194">
        <ele>53</ele>
        <time>2021-04-15T10:58:32.000Z</time>
      </trkpt>
      <trkpt lat="47.1373" lon="-1.67178">
        <ele>53</ele>
        <time>2021-04-15T10:58:34.000Z</time>
      </trkpt>
      <trkpt lat="47.13726" lon="-1.67163">
        <ele>53</ele>
        <time>2021-04-15T10:58:36.000Z</time>
      </trkpt>
      <trkpt lat="47.13721" lon="-1.67148">
        <ele>53</ele>
        <time>2021-04-15T10:58:38.000Z</time>
      </trkpt>
      <trkpt lat="47.13717" lon="-1.67133">
        <ele>54</ele>
        <time>2021-04-15T10:58:40.000Z</time>
      </trkpt>
      <trkpt lat="47.13712" lon="-1.67117">
        <ele>54</ele>
        <time>2021-04-15T10:58:42.000Z</time>
      </trkpt>
      <trkpt lat="47.13708" lon="-1.67103">
        <ele>54</ele>
        <time>2021-04-15T10:58:44.000Z</time>
      </trkpt>
      <trkpt lat="47.13703" lon="-1.67087">
        <ele>54</ele>
        <time>2021-04-15T10:58:46.000Z</time>
      </trkpt>
      <trkpt lat="47.13699" lon="-1.67072">
        <ele>54</ele>
        <time>2021-04-15T10:58:48.000Z</time>
      </trkpt>
      <trkpt lat="47.13694" lon="-1.67057">
        <ele>54</ele>
        <time>2021-04-15T10:58:50.000Z</time>
      </trkpt>
      <trkpt lat="47.13689" lon="-1.67041">
        <ele>54</ele>
        <time>2021-04-15T10:58:52.000Z</time>
      </trkpt>
      <trkpt lat="47.13685" lon="-1.67025">
        <ele>53</ele>
        <time>2021-04-15T10:58:54.000Z</time>
      </trkpt>
      <trkpt lat="47.13678" lon="-1.6701">
        <ele>53</ele>
        <time>2021-04-15T10:58:56.000Z</time>
      </trkpt>
      <trkpt lat="47.13672" lon="-1.66995">
        <ele>53</ele>
        <time>2021-04-15T10:58:58.000Z</time>
      </trkpt>
      <trkpt lat="47.13666" lon="-1.6698">
        <ele>52</ele>
        <time>2021-04-15T10:59:00.000Z</time>
      </trkpt>
      <trkpt lat="47.13659" lon="-1.66966">
        <ele>52</ele>
        <time>2021-04-15T10:59:02.000Z</time>
      </trkpt>
      <trkpt lat="47.13653" lon="-1.66951">
        <ele>51</ele>
        <time>2021-04-15T10:59:04.000Z</time>
      </trkpt>
      <trkpt lat="47.13647" lon="-1.66935">
        <ele>51</ele>
        <time>2021-04-15T10:59:06.000Z</time>
      </trkpt>
      <trkpt lat="47.13646" lon="-1.66918">
        <ele>51</ele>
        <time>2021-04-15T10:59:08.000Z</time>
      </trkpt>
      <trkpt lat="47.13646" lon="-1.669">
        <ele>52</ele>
        <time>2021-04-15T10:59:10.000Z</time>
      </trkpt>
      <trkpt lat="47.13646" lon="-1.66882">
        <ele>52</ele>
        <time>2021-04-15T10:59:12.000Z</time>
      </trkpt>
      <trkpt lat="47.13646" lon="-1.66865">
        <ele>53</ele>
        <time>2021-04-15T10:59:14.000Z</time>
      </trkpt>
      <trkpt lat="47.13645" lon="-1.66846">
        <ele>53</ele>
        <time>2021-04-15T10:59:16.000Z</time>
      </trkpt>
      <trkpt lat="47.13644" lon="-1.66828">
        <ele>53</ele>
        <time>2021-04-15T10:59:18.000Z</time>
      </trkpt>
      <trkpt lat="47.13643" lon="-1.66809">
        <ele>52</ele>
        <time>2021-04-15T10:59:20.000Z</time>
      </trkpt>
      <trkpt lat="47.13641" lon="-1.66791">
        <ele>52</ele>
        <time>2021-04-15T10:59:22.000Z</time>
      </trkpt>
      <trkpt lat="47.13638" lon="-1.66773">
        <ele>52</ele>
        <time>2021-04-15T10:59:24.000Z</time>
      </trkpt>
      <trkpt lat="47.13634" lon="-1.66757">
        <ele>52</ele>
        <time>2021-04-15T10:59:26.000Z</time>
      </trkpt>
      <trkpt lat="47.1363" lon="-1.6674">
        <ele>52</ele>
        <time>2021-04-15T10:59:28.000Z</time>
      </trkpt>
      <trkpt lat="47.13625" lon="-1.66723">
        <ele>52</ele>
        <time>2021-04-15T10:59:30.000Z</time>
      </trkpt>
      <trkpt lat="47.1362" lon="-1.66708">
        <ele>52</ele>
        <time>2021-04-15T10:59:32.000Z</time>
      </trkpt>
      <trkpt lat="47.13615" lon="-1.66694">
        <ele>53</ele>
        <time>2021-04-15T10:59:34.000Z</time>
      </trkpt>
      <trkpt lat="47.13609" lon="-1.66679">
        <ele>53</ele>
        <time>2021-04-15T10:59:36.000Z</time>
      </trkpt>
      <trkpt lat="47.13602" lon="-1.66665">
        <ele>53</ele>
        <time>2021-04-15T10:59:38.000Z</time>
      </trkpt>
      <trkpt lat="47.13595" lon="-1.66651">
        <ele>53</ele>
        <time>2021-04-15T10:59:40.000Z</time>
      </trkpt>
      <trkpt lat="47.13587" lon="-1.66639">
        <ele>53</ele>
        <time>2021-04-15T10:59:42.000Z</time>
      </trkpt>
      <trkpt lat="47.1358" lon="-1.66625">
        <ele>53</ele>
        <time>2021-04-15T10:59:44.000Z</time>
      </trkpt>
      <trkpt lat="47.13573" lon="-1.66613">
        <ele>52</ele>
        <time>2021-04-15T10:59:46.000Z</time>
      </trkpt>
      <trkpt lat="47.13565" lon="-1.66601">
        <ele>53</ele>
        <time>2021-04-15T10:59:48.000Z</time>
      </trkpt>
      <trkpt lat="47.13557" lon="-1.66589">
        <ele>53</ele>
        <time>2021-04-15T10:59:50.000Z</time>
      </trkpt>
      <trkpt lat="47.13548" lon="-1.66578">
        <ele>52</ele>
        <time>2021-04-15T10:59:52.000Z</time>
      </trkpt>
      <trkpt lat="47.13539" lon="-1.66567">
        <ele>53</ele>
        <time>2021-04-15T10:59:54.000Z</time>
      </trkpt>
      <trkpt lat="47.13529" lon="-1.66557">
        <ele>53</ele>
        <time>2021-04-15T10:59:56.000Z</time>
      </trkpt>
      <trkpt lat="47.13519" lon="-1.66548">
        <ele>52</ele>
        <time>2021-04-15T10:59:58.000Z</time>
      </trkpt>
      <trkpt lat="47.13508" lon="-1.66543">
        <ele>52</ele>
        <time>2021-04-15T11:00:00.000Z</time>
      </trkpt>
      <trkpt lat="47.13497" lon="-1.66537">
        <ele>52</ele>
        <time>2021-04-15T11:00:02.000Z</time>
      </trkpt>
      <trkpt lat="47.13486" lon="-1.66531">
        <ele>53</ele>
        <time>2021-04-15T11:00:04.000Z</time>
      </trkpt>
      <trkpt lat="47.13474" lon="-1.66525">
        <ele>53</ele>
        <time>2021-04-15T11:00:06.000Z</time>
      </trkpt>
      <trkpt lat="47.13463" lon="-1.6652">
        <ele>53</ele>
        <time>2021-04-15T11:00:08.000Z</time>
      </trkpt>
      <trkpt lat="47.13452" lon="-1.66515">
        <ele>53</ele>
        <time>2021-04-15T11:00:10.000Z</time>
      </trkpt>
      <trkpt lat="47.13441" lon="-1.6651">
        <ele>53</ele>
        <time>2021-04-15T11:00:12.000Z</time>
      </trkpt>
      <trkpt lat="47.13429" lon="-1.66505">
        <ele>54</ele>
        <time>2021-04-15T11:00:14.000Z</time>
      </trkpt>
      <trkpt lat="47.13417" lon="-1.665">
        <ele>54</ele>
        <time>2021-04-15T11:00:16.000Z</time>
      </trkpt>
      <trkpt lat="47.13405" lon="-1.66496">
        <ele>54</ele>
        <time>2021-04-15T11:00:18.000Z</time>
      </trkpt>
      <trkpt lat="47.13394" lon="-1.66491">
        <ele>54</ele>
        <time>2021-04-15T11:00:20.000Z</time>
      </trkpt>
      <trkpt lat="47.13382" lon="-1.66485">
        <ele>54</ele>
        <time>2021-04-15T11:00:22.000Z</time>
      </trkpt>
      <trkpt lat="47.13371" lon="-1.6648">
        <ele>54</ele>
        <time>2021-04-15T11:00:24.000Z</time>
      </trkpt>
      <trkpt lat="47.1336" lon="-1.66474">
        <ele>54</ele>
        <time>2021-04-15T11:00:26.000Z</time>
      </trkpt>
      <trkpt lat="47.13348" lon="-1.66468">
        <ele>54</ele>
        <time>2021-04-15T11:00:28.000Z</time>
      </trkpt>
      <trkpt lat="47.13337" lon="-1.66462">
        <ele>54</ele>
        <time>2021-04-15T11:00:30.000Z</time>
      </trkpt>
      <trkpt lat="47.13326" lon="-1.66455">
        <ele>54</ele>
        <time>2021-04-15T11:00:32.000Z</time>
      </trkpt>
      <trkpt lat="47.13315" lon="-1.66447">
        <ele>54</ele>
        <time>2021-04-15T11:00:34.000Z</time>
      </trkpt>
      <trkpt lat="47.13304" lon="-1.6644">
        <ele>54</ele>
        <time>2021-04-15T11:00:36.000Z</time>
      </trkpt>
      <trkpt lat="47.13294" lon="-1.66432">
        <ele>54</ele>
        <time>2021-04-15T11:00:38.000Z</time>
      </trkpt>
      <trkpt lat="47.13283" lon="-1.66424">
        <ele>54</ele>
        <time>2021-04-15T11:00:40.000Z</time>
      </trkpt>
      <trkpt lat="47.13273" lon="-1.66414">
        <ele>54</ele>
        <time>2021-04-15T11:00:42.000Z</time>
      </trkpt>
      <trkpt lat="47.13264" lon="-1.66403">
        <ele>53</ele>
        <time>2021-04-15T11:00:44.000Z</time>
      </trkpt>
      <trkpt lat="47.13254" lon="-1.66391">
        <ele>53</ele>
        <time>2021-04-15T11:00:46.000Z</time>
      </trkpt>
      <trkpt lat="47.13245" lon="-1.66379">
        <ele>53</ele>
        <time>2021-04-15T11:00:48.000Z</time>
      </trkpt>
      <trkpt lat="47.13236" lon="-1.66366">
        <ele>53</ele>
        <time>2021-04-15T11:00:50.000Z</time>
      </trkpt>
      <trkpt lat="47.13227" lon="-1.66353">
        <ele>53</ele>
        <time>2021-04-15T11:00:52.000Z</time>
      </trkpt>
      <trkpt lat="47.13218" lon="-1.66341">
        <ele>52</ele>
        <time>2021-04-15T11:00:54.000Z</time>
      </trkpt>
      <trkpt lat="47.13209" lon="-1.66328">
        <ele>52</ele>
        <time>2021-04-15T11:00:56.000Z</time>
      </trkpt>
      <trkpt lat="47.132" lon="-1.66316">
        <ele>52</ele>
        <time>2021-04-15T11:00:58.000Z</time>
      </trkpt>
      <trkpt lat="47.13191" lon="-1.66304">
        <ele>53</ele>
        <time>2021-04-15T11:01:00.000Z</time>
      </trkpt>
      <trkpt lat="47.13182" lon="-1.66292">
        <ele>53</ele>
        <time>2021-04-15T11:01:02.000Z</time>
      </trkpt>
      <trkpt lat="47.13173" lon="-1.66281">
        <ele>53</ele>
        <time>2021-04-15T11:01:04.000Z</time>
      </trkpt>
      <trkpt lat="47.13164" lon="-1.66269">
        <ele>53</ele>
        <time>2021-04-15T11:01:06.000Z</time>
      </trkpt>
      <trkpt lat="47.13155" lon="-1.66257">
        <ele>53</ele>
        <time>2021-04-15T11:01:08.000Z</time>
      </trkpt>
      <trkpt lat="47.13146" lon="-1.66244">
        <ele>53</ele>
        <time>2021-04-15T11:01:10.000Z</time>
      </trkpt>
      <trkpt lat="47.13137" lon="-1.66232">
        <ele>53</ele>
        <time>2021-04-15T11:01:12.000Z</time>
      </trkpt>
      <trkpt lat="47.1313" lon="-1.66219">
        <ele>53</ele>
        <time>2021-04-15T11:01:14.000Z</time>
      </trkpt>
      <trkpt lat="47.13123" lon="-1.66205">
        <ele>53</ele>
        <time>2021-04-15T11:01:16.000Z</time>
      </trkpt>
      <trkpt lat="47.13118" lon="-1.6619">
        <ele>53</ele>
        <time>2021-04-15T11:01:18.000Z</time>
      </trkpt>
      <trkpt lat="47.13112" lon="-1.66175">
        <ele>53</ele>
        <time>2021-04-15T11:01:20.000Z</time>
      </trkpt>
      <trkpt lat="47.13106" lon="-1.66161">
        <ele>53</ele>
        <time>2021-04-15T11:01:22.000Z</time>
      </trkpt>
      <trkpt lat="47.13101" lon="-1.66145">
        <ele>54</ele>
        <time>2021-04-15T11:01:24.000Z</time>
      </trkpt>
      <trkpt lat="47.13095" lon="-1.6613">
        <ele>54</ele>
        <time>2021-04-15T11:01:26.000Z</time>
      </trkpt>
      <trkpt lat="47.13089" lon="-1.66114">
        <ele>54</ele>
        <time>2021-04-15T11:01:28.000Z</time>
      </trkpt>
      <trkpt lat="47.13083" lon="-1.66099">
        <ele>54</ele>
        <time>2021-04-15T11:01:30.000Z</time>
      </trkpt>
      <trkpt lat="47.13078" lon="-1.66083">
        <ele>54</ele>
        <time>2021-04-15T11:01:32.000Z</time>
      </trkpt>
      <trkpt lat="47.13075" lon="-1.66067">
        <ele>54</ele>
        <time>2021-04-15T11:01:34.000Z</time>
      </trkpt>
      <trkpt lat="47.13073" lon="-1.6605">
        <ele>54</ele>
        <time>2021-04-15T11:01:36.000Z</time>
      </trkpt>
      <trkpt lat="47.13072" lon="-1.66034">
        <ele>54</ele>
        <time>2021-04-15T11:01:38.000Z</time>
      </trkpt>
      <trkpt lat="47.13071" lon="-1.66016">
        <ele>55</ele>
        <time>2021-04-15T11:01:40.000Z</time>
      </trkpt>
      <trkpt lat="47.13071" lon="-1.66">
        <ele>55</ele>
        <time>2021-04-15T11:01:42.000Z</time>
      </trkpt>
      <trkpt lat="47.13069" lon="-1.65982">
        <ele>56</ele>
        <time>2021-04-15T11:01:44.000Z</time>
      </trkpt>
      <trkpt lat="47.13068" lon="-1.65965">
        <ele>56</ele>
        <time>2021-04-15T11:01:46.000Z</time>
      </trkpt>
      <trkpt lat="47.13066" lon="-1.65947">
        <ele>56</ele>
        <time>2021-04-15T11:01:48.000Z</time>
      </trkpt>
      <trkpt lat="47.13066" lon="-1.6593">
        <ele>56</ele>
        <time>2021-04-15T11:01:50.000Z</time>
      </trkpt>
      <trkpt lat="47.13065" lon="-1.65913">
        <ele>57</ele>
        <time>2021-04-15T11:01:52.000Z</time>
      </trkpt>
      <trkpt lat="47.13064" lon="-1.65896">
        <ele>57</ele>
        <time>2021-04-15T11:01:54.000Z</time>
      </trkpt>
      <trkpt lat="47.13064" lon="-1.65879">
        <ele>58</ele>
        <time>2021-04-15T11:01:56.000Z</time>
      </trkpt>
      <trkpt lat="47.13064" lon="-1.65862">
        <ele>58</ele>
        <time>2021-04-15T11:01:58.000Z</time>
      </trkpt>
      <trkpt lat="47.13063" lon="-1.65845">
        <ele>57</ele>
        <time>2021-04-15T11:02:00.000Z</time>
      </trkpt>
      <trkpt lat="47.13062" lon="-1.65828">
        <ele>57</ele>
        <time>2021-04-15T11:02:02.000Z</time>
      </trkpt>
      <trkpt lat="47.13061" lon="-1.6581">
        <ele>56</ele>
        <time>2021-04-15T11:02:04.000Z</time>
      </trkpt>
      <trkpt lat="47.1306" lon="-1.65793">
        <ele>55</ele>
        <time>2021-04-15T11:02:06.000Z</time>
      </trkpt>
      <trkpt lat="47.1306" lon="-1.65777">
        <ele>55</ele>
        <time>2021-04-15T11:02:08.000Z</time>
      </trkpt>
      <trkpt lat="47.13059" lon="-1.6576">
        <ele>55</ele>
        <time>2021-04-15T11:02:10.000Z</time>
      </trkpt>
      <trkpt lat="47.13058" lon="-1.65743">
        <ele>55</ele>
        <time>2021-04-15T11:02:12.000Z</time>
      </trkpt>
      <trkpt lat="47.13057" lon="-1.65728">
        <ele>54</ele>
        <time>2021-04-15T11:02:14.000Z</time>
      </trkpt>
      <trkpt lat="47.13057" lon="-1.65712">
        <ele>54</ele>
        <time>2021-04-15T11:02:16.000Z</time>
      </trkpt>
      <trkpt lat="47.13056" lon="-1.65696">
        <ele>55</ele>
        <time>2021-04-15T11:02:18.000Z</time>
      </trkpt>
      <trkpt lat="47.13055" lon="-1.65679">
        <ele>55</ele>
        <time>2021-04-15T11:02:20.000Z</time>
      </trkpt>
      <trkpt lat="47.13055" lon="-1.65663">
        <ele>56</ele>
        <time>2021-04-15T11:02:22.000Z</time>
      </trkpt>
      <trkpt lat="47.13054" lon="-1.65647">
        <ele>56</ele>
        <time>2021-04-15T11:02:24.000Z</time>
      </trkpt>
      <trkpt lat="47.13053" lon="-1.65631">
        <ele>56</ele>
        <time>2021-04-15T11:02:26.000Z</time>
      </trkpt>
      <trkpt lat="47.13052" lon="-1.65616">
        <ele>56</ele>
        <time>2021-04-15T11:02:28.000Z</time>
      </trkpt>
      <trkpt lat="47.1305" lon="-1.656">
        <ele>57</ele>
        <time>2021-04-15T11:02:30.000Z</time>
      </trkpt>
      <trkpt lat="47.13048" lon="-1.65583">
        <ele>57</ele>
        <time>2021-04-15T11:02:32.000Z</time>
      </trkpt>
      <trkpt lat="47.13046" lon="-1.65568">
        <ele>57</ele>
        <time>2021-04-15T11:02:34.000Z</time>
      </trkpt>
      <trkpt lat="47.13043" lon="-1.65552">
        <ele>57</ele>
        <time>2021-04-15T11:02:36.000Z</time>
      </trkpt>
      <trkpt lat="47.1304" lon="-1.65537">
        <ele>57</ele>
        <time>2021-04-15T11:02:38.000Z</time>
      </trkpt>
      <trkpt lat="47.13036" lon="-1.65522">
        <ele>57</ele>
        <time>2021-04-15T11:02:40.000Z</time>
      </trkpt>
      <trkpt lat="47.13033" lon="-1.65508">
        <ele>57</ele>
        <time>2021-04-15T11:02:42.000Z</time>
      </trkpt>
      <trkpt lat="47.13028" lon="-1.65493">
        <ele>58</ele>
        <time>2021-04-15T11:02:44.000Z</time>
      </trkpt>
      <trkpt lat="47.13023" lon="-1.65479">
        <ele>58</ele>
        <time>2021-04-15T11:02:46.000Z</time>
      </trkpt>
      <trkpt lat="47.13018" lon="-1.65464">
        <ele>58</ele>
        <time>2021-04-15T11:02:48.000Z</time>
      </trkpt>
      <trkpt lat="47.13013" lon="-1.6545">
        <ele>58</ele>
        <time>2021-04-15T11:02:50.000Z</time>
      </trkpt>
      <trkpt lat="47.13008" lon="-1.65435">
        <ele>58</ele>
        <time>2021-04-15T11:02:52.000Z</time>
      </trkpt>
      <trkpt lat="47.13003" lon="-1.65422">
        <ele>58</ele>
        <time>2021-04-15T11:02:54.000Z</time>
      </trkpt>
      <trkpt lat="47.12998" lon="-1.65407">
        <ele>59</ele>
        <time>2021-04-15T11:02:56.000Z</time>
      </trkpt>
      <trkpt lat="47.12994" lon="-1.65393">
        <ele>59</ele>
        <time>2021-04-15T11:02:58.000Z</time>
      </trkpt>
      <trkpt lat="47.12989" lon="-1.6538">
        <ele>60</ele>
        <time>2021-04-15T11:03:00.000Z</time>
      </trkpt>
      <trkpt lat="47.12983" lon="-1.65366">
        <ele>60</ele>
        <time>2021-04-15T11:03:02.000Z</time>
      </trkpt>
      <trkpt lat="47.12978" lon="-1.6535">
        <ele>60</ele>
        <time>2021-04-15T11:03:04.000Z</time>
      </trkpt>
      <trkpt lat="47.12972" lon="-1.65335">
        <ele>60</ele>
        <time>2021-04-15T11:03:06.000Z</time>
      </trkpt>
      <trkpt lat="47.12967" lon="-1.6532">
        <ele>59</ele>
        <time>2021-04-15T11:03:08.000Z</time>
      </trkpt>
      <trkpt lat="47.12961" lon="-1.65306">
        <ele>60</ele>
        <time>2021-04-15T11:03:10.000Z</time>
      </trkpt>
      <trkpt lat="47.12956" lon="-1.65292">
        <ele>60</ele>
        <time>2021-04-15T11:03:12.000Z</time>
      </trkpt>
      <trkpt lat="47.12951" lon="-1.65277">
        <ele>60</ele>
        <time>2021-04-15T11:03:14.000Z</time>
      </trkpt>
      <trkpt lat="47.12947" lon="-1.65263">
        <ele>59</ele>
        <time>2021-04-15T11:03:16.000Z</time>
      </trkpt>
      <trkpt lat="47.12942" lon="-1.65249">
        <ele>59</ele>
        <time>2021-04-15T11:03:18.000Z</time>
      </trkpt>
      <trkpt lat="47.12936" lon="-1.65235">
        <ele>60</ele>
        <time>2021-04-15T11:03:20.000Z</time>
      </trkpt>
      <trkpt lat="47.12931" lon="-1.6522">
        <ele>60</ele>
        <time>2021-04-15T11:03:22.000Z</time>
      </trkpt>
      <trkpt lat="47.12926" lon="-1.65205">
        <ele>60</ele>
        <time>2021-04-15T11:03:24.000Z</time>
      </trkpt>
      <trkpt lat="47.12921" lon="-1.65191">
        <ele>60</ele>
        <time>2021-04-15T11:03:26.000Z</time>
      </trkpt>
      <trkpt lat="47.12916" lon="-1.65176">
        <ele>59</ele>
        <time>2021-04-15T11:03:28.000Z</time>
      </trkpt>
      <trkpt lat="47.12911" lon="-1.65161">
        <ele>59</ele>
        <time>2021-04-15T11:03:30.000Z</time>
      </trkpt>
      <trkpt lat="47.12906" lon="-1.65147">
        <ele>59</ele>
        <time>2021-04-15T11:03:32.000Z</time>
      </trkpt>
      <trkpt lat="47.129" lon="-1.65132">
        <ele>59</ele>
        <time>2021-04-15T11:03:34.000Z</time>
      </trkpt>
      <trkpt lat="47.12895" lon="-1.65118">
        <ele>59</ele>
        <time>2021-04-15T11:03:36.000Z</time>
      </trkpt>
      <trkpt lat="47.12889" lon="-1.65104">
        <ele>59</ele>
        <time>2021-04-15T11:03:38.000Z</time>
      </trkpt>
      <trkpt lat="47.12883" lon="-1.65091">
        <ele>59</ele>
        <time>2021-04-15T11:03:40.000Z</time>
      </trkpt>
      <trkpt lat="47.12876" lon="-1.65079">
        <ele>59</ele>
        <time>2021-04-15T11:03:42.000Z</time>
      </trkpt>
      <trkpt lat="47.12866" lon="-1.65069">
        <ele>59</ele>
        <time>2021-04-15T11:03:44.000Z</time>
      </trkpt>
      <trkpt lat="47.12854" lon="-1.65062">
        <ele>59</ele>
        <time>2021-04-15T11:03:46.000Z</time>
      </trkpt>
      <trkpt lat="47.12841" lon="-1.65058">
        <ele>59</ele>
        <time>2021-04-15T11:03:48.000Z</time>
      </trkpt>
      <trkpt lat="47.12828" lon="-1.65057">
        <ele>60</ele>
        <time>2021-04-15T11:03:50.000Z</time>
      </trkpt>
      <trkpt lat="47.12815" lon="-1.65054">
        <ele>60</ele>
        <time>2021-04-15T11:03:52.000Z</time>
      </trkpt>
      <trkpt lat="47.12801" lon="-1.6505">
        <ele>59</ele>
        <time>2021-04-15T11:03:54.000Z</time>
      </trkpt>
      <trkpt lat="47.12789" lon="-1.6504">
        <ele>59</ele>
        <time>2021-04-15T11:03:56.000Z</time>
      </trkpt>
      <trkpt lat="47.12779" lon="-1.65026">
        <ele>59</ele>
        <time>2021-04-15T11:03:58.000Z</time>
      </trkpt>
      <trkpt lat="47.1277" lon="-1.65011">
        <ele>59</ele>
        <time>2021-04-15T11:04:00.000Z</time>
      </trkpt>
      <trkpt lat="47.12761" lon="-1.64996">
        <ele>58</ele>
        <time>2021-04-15T11:04:02.000Z</time>
      </trkpt>
      <trkpt lat="47.12752" lon="-1.64982">
        <ele>58</ele>
        <time>2021-04-15T11:04:04.000Z</time>
      </trkpt>
      <trkpt lat="47.12744" lon="-1.64968">
        <ele>57</ele>
        <time>2021-04-15T11:04:06.000Z</time>
      </trkpt>
      <trkpt lat="47.12736" lon="-1.64953">
        <ele>57</ele>
        <time>2021-04-15T11:04:08.000Z</time>
      </trkpt>
      <trkpt lat="47.12727" lon="-1.64939">
        <ele>57</ele>
        <time>2021-04-15T11:04:10.000Z</time>
      </trkpt>
      <trkpt lat="47.12718" lon="-1.64925">
        <ele>56</ele>
        <time>2021-04-15T11:04:12.000Z</time>
      </trkpt>
      <trkpt lat="47.12709" lon="-1.64912">
        <ele>56</ele>
        <time>2021-04-15T11:04:14.000Z</time>
      </trkpt>
      <trkpt lat="47.12701" lon="-1.64898">
        <ele>55</ele>
        <time>2021-04-15T11:04:16.000Z</time>
      </trkpt>
      <trkpt lat="47.12693" lon="-1.64884">
        <ele>55</ele>
        <time>2021-04-15T11:04:18.000Z</time>
      </trkpt>
      <trkpt lat="47.12685" lon="-1.64869">
        <ele>54</ele>
        <time>2021-04-15T11:04:20.000Z</time>
      </trkpt>
      <trkpt lat="47.12678" lon="-1.64854">
        <ele>54</ele>
        <time>2021-04-15T11:04:22.000Z</time>
      </trkpt>
      <trkpt lat="47.1267" lon="-1.64838">
        <ele>54</ele>
        <time>2021-04-15T11:04:24.000Z</time>
      </trkpt>
      <trkpt lat="47.12664" lon="-1.64822">
        <ele>53</ele>
        <time>2021-04-15T11:04:26.000Z</time>
      </trkpt>
      <trkpt lat="47.12657" lon="-1.64805">
        <ele>53</ele>
        <time>2021-04-15T11:04:28.000Z</time>
      </trkpt>
      <trkpt lat="47.12651" lon="-1.64788">
        <ele>53</ele>
        <time>2021-04-15T11:04:30.000Z</time>
      </trkpt>
      <trkpt lat="47.12645" lon="-1.64772">
        <ele>53</ele>
        <time>2021-04-15T11:04:32.000Z</time>
      </trkpt>
      <trkpt lat="47.12639" lon="-1.64755">
        <ele>53</ele>
        <time>2021-04-15T11:04:34.000Z</time>
      </trkpt>
      <trkpt lat="47.12634" lon="-1.64739">
        <ele>53</ele>
        <time>2021-04-15T11:04:36.000Z</time>
      </trkpt>
      <trkpt lat="47.12628" lon="-1.64724">
        <ele>53</ele>
        <time>2021-04-15T11:04:38.000Z</time>
      </trkpt>
      <trkpt lat="47.12623" lon="-1.64708">
        <ele>53</ele>
        <time>2021-04-15T11:04:40.000Z</time>
      </trkpt>
      <trkpt lat="47.12619" lon="-1.64692">
        <ele>52</ele>
        <time>2021-04-15T11:04:42.000Z</time>
      </trkpt>
      <trkpt lat="47.12616" lon="-1.64675">
        <ele>52</ele>
        <time>2021-04-15T11:04:44.000Z</time>
      </trkpt>
      <trkpt lat="47.12612" lon="-1.64659">
        <ele>52</ele>
        <time>2021-04-15T11:04:46.000Z</time>
      </trkpt>
      <trkpt lat="47.1261" lon="-1.64643">
        <ele>52</ele>
        <time>2021-04-15T11:04:48.000Z</time>
      </trkpt>
      <trkpt lat="47.12608" lon="-1.64627">
        <ele>53</ele>
        <time>2021-04-15T11:04:50.000Z</time>
      </trkpt>
      <trkpt lat="47.12607" lon="-1.6461">
        <ele>53</ele>
        <time>2021-04-15T11:04:52.000Z</time>
      </trkpt>
      <trkpt lat="47.12604" lon="-1.64595">
        <ele>53</ele>
        <time>2021-04-15T11:04:54.000Z</time>
      </trkpt>
      <trkpt lat="47.12601" lon="-1.64578">
        <ele>54</ele>
        <time>2021-04-15T11:04:56.000Z</time>
      </trkpt>
      <trkpt lat="47.12598" lon="-1.64562">
        <ele>53</ele>
        <time>2021-04-15T11:04:58.000Z</time>
      </trkpt>
      <trkpt lat="47.12593" lon="-1.64545">
        <ele>54</ele>
        <time>2021-04-15T11:05:00.000Z</time>
      </trkpt>
      <trkpt lat="47.12588" lon="-1.64529">
        <ele>54</ele>
        <time>2021-04-15T11:05:02.000Z</time>
      </trkpt>
      <trkpt lat="47.12583" lon="-1.64513">
        <ele>54</ele>
        <time>2021-04-15T11:05:04.000Z</time>
      </trkpt>
      <trkpt lat="47.12578" lon="-1.64498">
        <ele>54</ele>
        <time>2021-04-15T11:05:06.000Z</time>
      </trkpt>
      <trkpt lat="47.12573" lon="-1.64483">
        <ele>54</ele>
        <time>2021-04-15T11:05:08.000Z</time>
      </trkpt>
      <trkpt lat="47.12567" lon="-1.64468">
        <ele>54</ele>
        <time>2021-04-15T11:05:10.000Z</time>
      </trkpt>
      <trkpt lat="47.12561" lon="-1.64452">
        <ele>54</ele>
        <time>2021-04-15T11:05:12.000Z</time>
      </trkpt>
      <trkpt lat="47.12555" lon="-1.64437">
        <ele>54</ele>
        <time>2021-04-15T11:05:14.000Z</time>
      </trkpt>
      <trkpt lat="47.1255" lon="-1.64422">
        <ele>54</ele>
        <time>2021-04-15T11:05:16.000Z</time>
      </trkpt>
      <trkpt lat="47.12544" lon="-1.64407">
        <ele>53</ele>
        <time>2021-04-15T11:05:18.000Z</time>
      </trkpt>
      <trkpt lat="47.1254" lon="-1.64392">
        <ele>53</ele>
        <time>2021-04-15T11:05:20.000Z</time>
      </trkpt>
      <trkpt lat="47.12534" lon="-1.64377">
        <ele>53</ele>
        <time>2021-04-15T11:05:22.000Z</time>
      </trkpt>
      <trkpt lat="47.12529" lon="-1.64363">
        <ele>53</ele>
        <time>2021-04-15T11:05:24.000Z</time>
      </trkpt>
      <trkpt lat="47.12524" lon="-1.64347">
        <ele>53</ele>
        <time>2021-04-15T11:05:26.000Z</time>
      </trkpt>
      <trkpt lat="47.12519" lon="-1.64333">
        <ele>53</ele>
        <time>2021-04-15T11:05:28.000Z</time>
      </trkpt>
      <trkpt lat="47.12514" lon="-1.64318">
        <ele>53</ele>
        <time>2021-04-15T11:05:30.000Z</time>
      </trkpt>
      <trkpt lat="47.12509" lon="-1.64304">
        <ele>53</ele>
        <time>2021-04-15T11:05:32.000Z</time>
      </trkpt>
      <trkpt lat="47.12505" lon="-1.6429">
        <ele>54</ele>
        <time>2021-04-15T11:05:34.000Z</time>
      </trkpt>
      <trkpt lat="47.12499" lon="-1.64277">
        <ele>54</ele>
        <time>2021-04-15T11:05:36.000Z</time>
      </trkpt>
      <trkpt lat="47.12494" lon="-1.64263">
        <ele>54</ele>
        <time>2021-04-15T11:05:38.000Z</time>
      </trkpt>
      <trkpt lat="47.12489" lon="-1.64249">
        <ele>54</ele>
        <time>2021-04-15T11:05:40.000Z</time>
      </trkpt>
      <trkpt lat="47.12484" lon="-1.64235">
        <ele>54</ele>
        <time>2021-04-15T11:05:42.000Z</time>
      </trkpt>
      <trkpt lat="47.12479" lon="-1.6422">
        <ele>54</ele>
        <time>2021-04-15T11:05:44.000Z</time>
      </trkpt>
      <trkpt lat="47.12475" lon="-1.64206">
        <ele>55</ele>
        <time>2021-04-15T11:05:46.000Z</time>
      </trkpt>
      <trkpt lat="47.12469" lon="-1.6419">
        <ele>55</ele>
        <time>2021-04-15T11:05:48.000Z</time>
      </trkpt>
      <trkpt lat="47.12463" lon="-1.64176">
        <ele>55</ele>
        <time>2021-04-15T11:05:50.000Z</time>
      </trkpt>
      <trkpt lat="47.12458" lon="-1.6416">
        <ele>55</ele>
        <time>2021-04-15T11:05:52.000Z</time>
      </trkpt>
      <trkpt lat="47.12452" lon="-1.64145">
        <ele>56</ele>
        <time>2021-04-15T11:05:54.000Z</time>
      </trkpt>
      <trkpt lat="47.12446" lon="-1.6413">
        <ele>56</ele>
        <time>2021-04-15T11:05:56.000Z</time>
      </trkpt>
      <trkpt lat="47.1244" lon="-1.64114">
        <ele>56</ele>
        <time>2021-04-15T11:05:58.000Z</time>
      </trkpt>
      <trkpt lat="47.12434" lon="-1.64098">
        <ele>55</ele>
        <time>2021-04-15T11:06:00.000Z</time>
      </trkpt>
      <trkpt lat="47.12429" lon="-1.64082">
        <ele>55</ele>
        <time>2021-04-15T11:06:02.000Z</time>
      </trkpt>
      <trkpt lat="47.12424" lon="-1.64066">
        <ele>55</ele>
        <time>2021-04-15T11:06:04.000Z</time>
      </trkpt>
      <trkpt lat="47.12418" lon="-1.6405">
        <ele>54</ele>
        <time>2021-04-15T11:06:06.000Z</time>
      </trkpt>
      <trkpt lat="47.12413" lon="-1.64034">
        <ele>55</ele>
        <time>2021-04-15T11:06:08.000Z</time>
      </trkpt>
      <trkpt lat="47.12407" lon="-1.64018">
        <ele>54</ele>
        <time>2021-04-15T11:06:10.000Z</time>
      </trkpt>
      <trkpt lat="47.12401" lon="-1.64001">
        <ele>54</ele>
        <time>2021-04-15T11:06:12.000Z</time>
      </trkpt>
      <trkpt lat="47.12395" lon="-1.63986">
        <ele>54</ele>
        <time>2021-04-15T11:06:14.000Z</time>
      </trkpt>
      <trkpt lat="47.12389" lon="-1.6397">
        <ele>53</ele>
        <time>2021-04-15T11:06:16.000Z</time>
      </trkpt>
      <trkpt lat="47.12384" lon="-1.63954">
        <ele>53</ele>
        <time>2021-04-15T11:06:18.000Z</time>
      </trkpt>
      <trkpt lat="47.12378" lon="-1.63937">
        <ele>53</ele>
        <time>2021-04-15T11:06:20.000Z</time>
      </trkpt>
      <trkpt lat="47.12373" lon="-1.63922">
        <ele>53</ele>
        <time>2021-04-15T11:06:22.000Z</time>
      </trkpt>
      <trkpt lat="47.12367" lon="-1.63906">
        <ele>53</ele>
        <time>2021-04-15T11:06:24.000Z</time>
      </trkpt>
      <trkpt lat="47.12362" lon="-1.6389">
        <ele>53</ele>
        <time>2021-04-15T11:06:26.000Z</time>
      </trkpt>
      <trkpt lat="47.12356" lon="-1.63875">
        <ele>52</ele>
        <time>2021-04-15T11:06:28.000Z</time>
      </trkpt>
      <trkpt lat="47.12351" lon="-1.63859">
        <ele>52</ele>
        <time>2021-04-15T11:06:30.000Z</time>
      </trkpt>
      <trkpt lat="47.12345" lon="-1.63843">
        <ele>52</ele>
        <time>2021-04-15T11:06:32.000Z</time>
      </trkpt>
      <trkpt lat="47.1234" lon="-1.63827">
        <ele>52</ele>
        <time>2021-04-15T11:06:34.000Z</time>
      </trkpt>
      <trkpt lat="47.12334" lon="-1.63811">
        <ele>53</ele>
        <time>2021-04-15T11:06:36.000Z</time>
      </trkpt>
      <trkpt lat="47.12329" lon="-1.63795">
        <ele>53</ele>
        <time>2021-04-15T11:06:38.000Z</time>
      </trkpt>
      <trkpt lat="47.12324" lon="-1.6378">
        <ele>53</ele>
        <time>2021-04-15T11:06:40.000Z</time>
      </trkpt>
      <trkpt lat="47.12318" lon="-1.63764">
        <ele>52</ele>
        <time>2021-04-15T11:06:42.000Z</time>
      </trkpt>
      <trkpt lat="47.12313" lon="-1.63748">
        <ele>52</ele>
        <time>2021-04-15T11:06:44.000Z</time>
      </trkpt>
      <trkpt lat="47.12309" lon="-1.63731">
        <ele>53</ele>
        <time>2021-04-15T11:06:46.000Z</time>
      </trkpt>
      <trkpt lat="47.12308" lon="-1.63714">
        <ele>52</ele>
        <time>2021-04-15T11:06:48.000Z</time>
      </trkpt>
      <trkpt lat="47.12308" lon="-1.63697">
        <ele>52</ele>
        <time>2021-04-15T11:06:50.000Z</time>
      </trkpt>
      <trkpt lat="47.12308" lon="-1.6368">
        <ele>52</ele>
        <time>2021-04-15T11:06:52.000Z</time>
      </trkpt>
      <trkpt lat="47.12309" lon="-1.63663">
        <ele>53</ele>
        <time>2021-04-15T11:06:54.000Z</time>
      </trkpt>
      <trkpt lat="47.12309" lon="-1.63646">
        <ele>52</ele>
        <time>2021-04-15T11:06:56.000Z</time>
      </trkpt>
      <trkpt lat="47.12309" lon="-1.63629">
        <ele>53</ele>
        <time>2021-04-15T11:06:58.000Z</time>
      </trkpt>
      <trkpt lat="47.1231" lon="-1.63611">
        <ele>52</ele>
        <time>2021-04-15T11:07:00.000Z</time>
      </trkpt>
      <trkpt lat="47.1231" lon="-1.63594">
        <ele>53</ele>
        <time>2021-04-15T11:07:02.000Z</time>
      </trkpt>
      <trkpt lat="47.1231" lon="-1.63577">
        <ele>53</ele>
        <time>2021-04-15T11:07:04.000Z</time>
      </trkpt>
      <trkpt lat="47.12309" lon="-1.6356">
        <ele>53</ele>
        <time>2021-04-15T11:07:06.000Z</time>
      </trkpt>
      <trkpt lat="47.12309" lon="-1.63544">
        <ele>53</ele>
        <time>2021-04-15T11:07:08.000Z</time>
      </trkpt>
      <trkpt lat="47.12308" lon="-1.63528">
        <ele>53</ele>
        <time>2021-04-15T11:07:10.000Z</time>
      </trkpt>
      <trkpt lat="47.12307" lon="-1.63511">
        <ele>53</ele>
        <time>2021-04-15T11:07:12.000Z</time>
      </trkpt>
      <trkpt lat="47.12306" lon="-1.63494">
        <ele>53</ele>
        <time>2021-04-15T11:07:14.000Z</time>
      </trkpt>
      <trkpt lat="47.12304" lon="-1.63478">
        <ele>53</ele>
        <time>2021-04-15T11:07:16.000Z</time>
      </trkpt>
      <trkpt lat="47.12303" lon="-1.63461">
        <ele>52</ele>
        <time>2021-04-15T11:07:18.000Z</time>
      </trkpt>
      <trkpt lat="47.12302" lon="-1.63443">
        <ele>51</ele>
        <time>2021-04-15T11:07:20.000Z</time>
      </trkpt>
      <trkpt lat="47.12301" lon="-1.63425">
        <ele>51</ele>
        <time>2021-04-15T11:07:22.000Z</time>
      </trkpt>
      <trkpt lat="47.12299" lon="-1.63408">
        <ele>51</ele>
        <time>2021-04-15T11:07:24.000Z</time>
      </trkpt>
      <trkpt lat="47.12299" lon="-1.63392">
        <ele>52</ele>
        <time>2021-04-15T11:07:26.000Z</time>
      </trkpt>
      <trkpt lat="47.12298" lon="-1.63376">
        <ele>52</ele>
        <time>2021-04-15T11:07:28.000Z</time>
      </trkpt>
      <trkpt lat="47.1229" lon="-1.63362">
        <ele>53</ele>
        <time>2021-04-15T11:07:31.000Z</time>
      </trkpt>
      <trkpt lat="47.1228" lon="-1.63362">
        <ele>54</ele>
        <time>2021-04-15T11:07:33.000Z</time>
      </trkpt>
      <trkpt lat="47.12272" lon="-1.63353">
        <ele>53</ele>
        <time>2021-04-15T11:07:35.000Z</time>
      </trkpt>
      <trkpt lat="47.12265" lon="-1.63341">
        <ele>54</ele>
        <time>2021-04-15T11:07:37.000Z</time>
      </trkpt>
      <trkpt lat="47.1226" lon="-1.63326">
        <ele>54</ele>
        <time>2021-04-15T11:07:39.000Z</time>
      </trkpt>
      <trkpt lat="47.1226" lon="-1.63309">
        <ele>55</ele>
        <time>2021-04-15T11:07:41.000Z</time>
      </trkpt>
      <trkpt lat="47.12259" lon="-1.63291">
        <ele>54</ele>
        <time>2021-04-15T11:07:43.000Z</time>
      </trkpt>
      <trkpt lat="47.12253" lon="-1.63277">
        <ele>54</ele>
        <time>2021-04-15T11:07:45.000Z</time>
      </trkpt>
      <trkpt lat="47.12246" lon="-1.63264">
        <ele>54</ele>
        <time>2021-04-15T11:07:47.000Z</time>
      </trkpt>
      <trkpt lat="47.1224" lon="-1.63249">
        <ele>53</ele>
        <time>2021-04-15T11:07:49.000Z</time>
      </trkpt>
      <trkpt lat="47.12235" lon="-1.63235">
        <ele>53</ele>
        <time>2021-04-15T11:07:51.000Z</time>
      </trkpt>
      <trkpt lat="47.1223" lon="-1.6322">
        <ele>53</ele>
        <time>2021-04-15T11:07:53.000Z</time>
      </trkpt>
      <trkpt lat="47.12225" lon="-1.63204">
        <ele>53</ele>
        <time>2021-04-15T11:07:55.000Z</time>
      </trkpt>
      <trkpt lat="47.1222" lon="-1.6319">
        <ele>53</ele>
        <time>2021-04-15T11:07:57.000Z</time>
      </trkpt>
      <trkpt lat="47.12217" lon="-1.63175">
        <ele>53</ele>
        <time>2021-04-15T11:07:59.000Z</time>
      </trkpt>
      <trkpt lat="47.12223" lon="-1.6316">
        <ele>53</ele>
        <time>2021-04-15T11:08:01.000Z</time>
      </trkpt>
      <trkpt lat="47.12231" lon="-1.63149">
        <ele>52</ele>
        <time>2021-04-15T11:08:03.000Z</time>
      </trkpt>
      <trkpt lat="47.12239" lon="-1.63137">
        <ele>51</ele>
        <time>2021-04-15T11:08:05.000Z</time>
      </trkpt>
      <trkpt lat="47.12247" lon="-1.63125">
        <ele>52</ele>
        <time>2021-04-15T11:08:07.000Z</time>
      </trkpt>
      <trkpt lat="47.12255" lon="-1.63113">
        <ele>52</ele>
        <time>2021-04-15T11:08:09.000Z</time>
      </trkpt>
      <trkpt lat="47.12263" lon="-1.63101">
        <ele>52</ele>
        <time>2021-04-15T11:08:11.000Z</time>
      </trkpt>
      <trkpt lat="47.1227" lon="-1.6309">
        <ele>52</ele>
        <time>2021-04-15T11:08:13.000Z</time>
      </trkpt>
      <trkpt lat="47.12277" lon="-1.63077">
        <ele>52</ele>
        <time>2021-04-15T11:08:15.000Z</time>
      </trkpt>
      <trkpt lat="47.12284" lon="-1.63064">
        <ele>51</ele>
        <time>2021-04-15T11:08:17.000Z</time>
      </trkpt>
      <trkpt lat="47.12288" lon="-1.6305">
        <ele>51</ele>
        <time>2021-04-15T11:08:19.000Z</time>
      </trkpt>
      <trkpt lat="47.12292" lon="-1.63035">
        <ele>51</ele>
        <time>2021-04-15T11:08:21.000Z</time>
      </trkpt>
      <trkpt lat="47.12295" lon="-1.63019">
        <ele>50</ele>
        <time>2021-04-15T11:08:23.000Z</time>
      </trkpt>
      <trkpt lat="47.12297" lon="-1.63003">
        <ele>50</ele>
        <time>2021-04-15T11:08:25.000Z</time>
      </trkpt>
      <trkpt lat="47.12298" lon="-1.62987">
        <ele>50</ele>
        <time>2021-04-15T11:08:27.000Z</time>
      </trkpt>
      <trkpt lat="47.123" lon="-1.62971">
        <ele>50</ele>
        <time>2021-04-15T11:08:29.000Z</time>
      </trkpt>
      <trkpt lat="47.12302" lon="-1.62956">
        <ele>50</ele>
        <time>2021-04-15T11:08:31.000Z</time>
      </trkpt>
      <trkpt lat="47.12305" lon="-1.62941">
        <ele>50</ele>
        <time>2021-04-15T11:08:33.000Z</time>
      </trkpt>
      <trkpt lat="47.12309" lon="-1.62927">
        <ele>51</ele>
        <time>2021-04-15T11:08:35.000Z</time>
      </trkpt>
      <trkpt lat="47.12315" lon="-1.62914">
        <ele>51</ele>
        <time>2021-04-15T11:08:37.000Z</time>
      </trkpt>
      <trkpt lat="47.12321" lon="-1.62902">
        <ele>51</ele>
        <time>2021-04-15T11:08:39.000Z</time>
      </trkpt>
      <trkpt lat="47.12328" lon="-1.6289">
        <ele>50</ele>
        <time>2021-04-15T11:08:41.000Z</time>
      </trkpt>
      <trkpt lat="47.12336" lon="-1.62879">
        <ele>50</ele>
        <time>2021-04-15T11:08:43.000Z</time>
      </trkpt>
      <trkpt lat="47.12344" lon="-1.62869">
        <ele>50</ele>
        <time>2021-04-15T11:08:45.000Z</time>
      </trkpt>
      <trkpt lat="47.12351" lon="-1.62858">
        <ele>51</ele>
        <time>2021-04-15T11:08:47.000Z</time>
      </trkpt>
      <trkpt lat="47.12359" lon="-1.62847">
        <ele>51</ele>
        <time>2021-04-15T11:08:49.000Z</time>
      </trkpt>
      <trkpt lat="47.12367" lon="-1.62836">
        <ele>51</ele>
        <time>2021-04-15T11:08:51.000Z</time>
      </trkpt>
      <trkpt lat="47.12374" lon="-1.62825">
        <ele>51</ele>
        <time>2021-04-15T11:08:53.000Z</time>
      </trkpt>
      <trkpt lat="47.12382" lon="-1.62814">
        <ele>51</ele>
        <time>2021-04-15T11:08:55.000Z</time>
      </trkpt>
      <trkpt lat="47.1239" lon="-1.62803">
        <ele>50</ele>
        <time>2021-04-15T11:08:57.000Z</time>
      </trkpt>
      <trkpt lat="47.12398" lon="-1.62792">
        <ele>50</ele>
        <time>2021-04-15T11:08:59.000Z</time>
      </trkpt>
      <trkpt lat="47.12406" lon="-1.6278">
        <ele>50</ele>
        <time>2021-04-15T11:09:01.000Z</time>
      </trkpt>
      <trkpt lat="47.12413" lon="-1.62768">
        <ele>50</ele>
        <time>2021-04-15T11:09:03.000Z</time>
      </trkpt>
      <trkpt lat="47.1242" lon="-1.62756">
        <ele>50</ele>
        <time>2021-04-15T11:09:05.000Z</time>
      </trkpt>
      <trkpt lat="47.12427" lon="-1.62743">
        <ele>50</ele>
        <time>2021-04-15T11:09:07.000Z</time>
      </trkpt>
      <trkpt lat="47.12434" lon="-1.62731">
        <ele>50</ele>
        <time>2021-04-15T11:09:09.000Z</time>
      </trkpt>
      <trkpt lat="47.12441" lon="-1.62719">
        <ele>50</ele>
        <time>2021-04-15T11:09:11.000Z</time>
      </trkpt>
      <trkpt lat="47.12447" lon="-1.62707">
        <ele>50</ele>
        <time>2021-04-15T11:09:13.000Z</time>
      </trkpt>
      <trkpt lat="47.12454" lon="-1.62695">
        <ele>50</ele>
        <time>2021-04-15T11:09:15.000Z</time>
      </trkpt>
      <trkpt lat="47.12461" lon="-1.62683">
        <ele>51</ele>
        <time>2021-04-15T11:09:17.000Z</time>
      </trkpt>
      <trkpt lat="47.12468" lon="-1.6267">
        <ele>51</ele>
        <time>2021-04-15T11:09:19.000Z</time>
      </trkpt>
      <trkpt lat="47.12475" lon="-1.62658">
        <ele>51</ele>
        <time>2021-04-15T11:09:21.000Z</time>
      </trkpt>
      <trkpt lat="47.12482" lon="-1.62646">
        <ele>51</ele>
        <time>2021-04-15T11:09:23.000Z</time>
      </trkpt>
      <trkpt lat="47.12489" lon="-1.62633">
        <ele>52</ele>
        <time>2021-04-15T11:09:25.000Z</time>
      </trkpt>
      <trkpt lat="47.12496" lon="-1.62621">
        <ele>52</ele>
        <time>2021-04-15T11:09:27.000Z</time>
      </trkpt>
      <trkpt lat="47.12504" lon="-1.62609">
        <ele>52</ele>
        <time>2021-04-15T11:09:29.000Z</time>
      </trkpt>
      <trkpt lat="47.12511" lon="-1.62596">
        <ele>52</ele>
        <time>2021-04-15T11:09:31.000Z</time>
      </trkpt>
      <trkpt lat="47.12518" lon="-1.62584">
        <ele>52</ele>
        <time>2021-04-15T11:09:33.000Z</time>
      </trkpt>
      <trkpt lat="47.12525" lon="-1.62572">
        <ele>52</ele>
        <time>2021-04-15T11:09:35.000Z</time>
      </trkpt>
      <trkpt lat="47.12531" lon="-1.6256">
        <ele>52</ele>
        <time>2021-04-15T11:09:37.000Z</time>
      </trkpt>
      <trkpt lat="47.12538" lon="-1.62548">
        <ele>52</ele>
        <time>2021-04-15T11:09:39.000Z</time>
      </trkpt>
      <trkpt lat="47.12544" lon="-1.62537">
        <ele>52</ele>
        <time>2021-04-15T11:09:41.000Z</time>
      </trkpt>
      <trkpt lat="47.12553" lon="-1.62523">
        <ele>52</ele>
        <time>2021-04-15T11:09:44.000Z</time>
      </trkpt>
      <trkpt lat="47.12554" lon="-1.62509">
        <ele>52</ele>
        <time>2021-04-15T11:09:46.000Z</time>
      </trkpt>
      <trkpt lat="47.12552" lon="-1.62492">
        <ele>53</ele>
        <time>2021-04-15T11:09:48.000Z</time>
      </trkpt>
      <trkpt lat="47.12549" lon="-1.62476">
        <ele>53</ele>
        <time>2021-04-15T11:09:50.000Z</time>
      </trkpt>
      <trkpt lat="47.12545" lon="-1.62459">
        <ele>54</ele>
        <time>2021-04-15T11:09:52.000Z</time>
      </trkpt>
      <trkpt lat="47.12541" lon="-1.62442">
        <ele>54</ele>
        <time>2021-04-15T11:09:54.000Z</time>
      </trkpt>
      <trkpt lat="47.12536" lon="-1.62426">
        <ele>54</ele>
        <time>2021-04-15T11:09:56.000Z</time>
      </trkpt>
      <trkpt lat="47.12531" lon="-1.6241">
        <ele>54</ele>
        <time>2021-04-15T11:09:58.000Z</time>
      </trkpt>
      <trkpt lat="47.12526" lon="-1.62394">
        <ele>54</ele>
        <time>2021-04-15T11:10:00.000Z</time>
      </trkpt>
      <trkpt lat="47.1252" lon="-1.62379">
        <ele>54</ele>
        <time>2021-04-15T11:10:02.000Z</time>
      </trkpt>
      <trkpt lat="47.12514" lon="-1.62364">
        <ele>54</ele>
        <time>2021-04-15T11:10:04.000Z</time>
      </trkpt>
      <trkpt lat="47.12507" lon="-1.62349">
        <ele>54</ele>
        <time>2021-04-15T11:10:06.000Z</time>
      </trkpt>
      <trkpt lat="47.125" lon="-1.62335">
        <ele>54</ele>
        <time>2021-04-15T11:10:08.000Z</time>
      </trkpt>
      <trkpt lat="47.12492" lon="-1.62323">
        <ele>54</ele>
        <time>2021-04-15T11:10:10.000Z</time>
      </trkpt>
      <trkpt lat="47.12484" lon="-1.6231">
        <ele>54</ele>
        <time>2021-04-15T11:10:12.000Z</time>
      </trkpt>
      <trkpt lat="47.12477" lon="-1.62298">
        <ele>55</ele>
        <time>2021-04-15T11:10:14.000Z</time>
      </trkpt>
      <trkpt lat="47.12469" lon="-1.62286">
        <ele>55</ele>
        <time>2021-04-15T11:10:16.000Z</time>
      </trkpt>
      <trkpt lat="47.12461" lon="-1.62274">
        <ele>55</ele>
        <time>2021-04-15T11:10:18.000Z</time>
      </trkpt>
      <trkpt lat="47.12453" lon="-1.62262">
        <ele>55</ele>
        <time>2021-04-15T11:10:20.000Z</time>
      </trkpt>
      <trkpt lat="47.12445" lon="-1.6225">
        <ele>55</ele>
        <time>2021-04-15T11:10:22.000Z</time>
      </trkpt>
      <trkpt lat="47.12437" lon="-1.62238">
        <ele>54</ele>
        <time>2021-04-15T11:10:24.000Z</time>
      </trkpt>
      <trkpt lat="47.12429" lon="-1.62226">
        <ele>54</ele>
        <time>2021-04-15T11:10:26.000Z</time>
      </trkpt>
      <trkpt lat="47.12422" lon="-1.62214">
        <ele>54</ele>
        <time>2021-04-15T11:10:28.000Z</time>
      </trkpt>
      <trkpt lat="47.12415" lon="-1.62201">
        <ele>53</ele>
        <time>2021-04-15T11:10:30.000Z</time>
      </trkpt>
      <trkpt lat="47.12408" lon="-1.62188">
        <ele>53</ele>
        <time>2021-04-15T11:10:32.000Z</time>
      </trkpt>
      <trkpt lat="47.12401" lon="-1.62174">
        <ele>53</ele>
        <time>2021-04-15T11:10:34.000Z</time>
      </trkpt>
      <trkpt lat="47.12396" lon="-1.62159">
        <ele>53</ele>
        <time>2021-04-15T11:10:36.000Z</time>
      </trkpt>
      <trkpt lat="47.12391" lon="-1.62144">
        <ele>53</ele>
        <time>2021-04-15T11:10:38.000Z</time>
      </trkpt>
      <trkpt lat="47.12388" lon="-1.62127">
        <ele>53</ele>
        <time>2021-04-15T11:10:40.000Z</time>
      </trkpt>
      <trkpt lat="47.12385" lon="-1.62112">
        <ele>53</ele>
        <time>2021-04-15T11:10:42.000Z</time>
      </trkpt>
      <trkpt lat="47.12382" lon="-1.62096">
        <ele>53</ele>
        <time>2021-04-15T11:10:44.000Z</time>
      </trkpt>
      <trkpt lat="47.12381" lon="-1.6208">
        <ele>53</ele>
        <time>2021-04-15T11:10:46.000Z</time>
      </trkpt>
      <trkpt lat="47.12381" lon="-1.62064">
        <ele>52</ele>
        <time>2021-04-15T11:10:48.000Z</time>
      </trkpt>
      <trkpt lat="47.12382" lon="-1.62049">
        <ele>53</ele>
        <time>2021-04-15T11:10:50.000Z</time>
      </trkpt>
      <trkpt lat="47.12383" lon="-1.62033">
        <ele>53</ele>
        <time>2021-04-15T11:10:52.000Z</time>
      </trkpt>
      <trkpt lat="47.12386" lon="-1.62017">
        <ele>53</ele>
        <time>2021-04-15T11:10:54.000Z</time>
      </trkpt>
      <trkpt lat="47.12389" lon="-1.62002">
        <ele>54</ele>
        <time>2021-04-15T11:10:56.000Z</time>
      </trkpt>
      <trkpt lat="47.12392" lon="-1.61987">
        <ele>53</ele>
        <time>2021-04-15T11:10:58.000Z</time>
      </trkpt>
      <trkpt lat="47.12396" lon="-1.61972">
        <ele>54</ele>
        <time>2021-04-15T11:11:00.000Z</time>
      </trkpt>
      <trkpt lat="47.124" lon="-1.61958">
        <ele>53</ele>
        <time>2021-04-15T11:11:02.000Z</time>
      </trkpt>
      <trkpt lat="47.12403" lon="-1.61943">
        <ele>53</ele>
        <time>2021-04-15T11:11:04.000Z</time>
      </trkpt>
      <trkpt lat="47.12407" lon="-1.61929">
        <ele>53</ele>
        <time>2021-04-15T11:11:06.000Z</time>
      </trkpt>
      <trkpt lat="47.12411" lon="-1.61915">
        <ele>53</ele>
        <time>2021-04-15T11:11:08.000Z</time>
      </trkpt>
      <trkpt lat="47.12415" lon="-1.619">
        <ele>54</ele>
        <time>2021-04-15T11:11:10.000Z</time>
      </trkpt>
      <trkpt lat="47.12418" lon="-1.61885">
        <ele>54</ele>
        <time>2021-04-15T11:11:12.000Z</time>
      </trkpt>
      <trkpt lat="47.12423" lon="-1.61872">
        <ele>54</ele>
        <time>2021-04-15T11:11:14.000Z</time>
      </trkpt>
      <trkpt lat="47.12428" lon="-1.61859">
        <ele>54</ele>
        <time>2021-04-15T11:11:16.000Z</time>
      </trkpt>
      <trkpt lat="47.12432" lon="-1.61844">
        <ele>54</ele>
        <time>2021-04-15T11:11:18.000Z</time>
      </trkpt>
      <trkpt lat="47.12435" lon="-1.61828">
        <ele>53</ele>
        <time>2021-04-15T11:11:20.000Z</time>
      </trkpt>
      <trkpt lat="47.12438" lon="-1.61811">
        <ele>53</ele>
        <time>2021-04-15T11:11:22.000Z</time>
      </trkpt>
      <trkpt lat="47.12441" lon="-1.61796">
        <ele>53</ele>
        <time>2021-04-15T11:11:24.000Z</time>
      </trkpt>
      <trkpt lat="47.12445" lon="-1.61781">
        <ele>54</ele>
        <time>2021-04-15T11:11:26.000Z</time>
      </trkpt>
      <trkpt lat="47.12449" lon="-1.61766">
        <ele>54</ele>
        <time>2021-04-15T11:11:28.000Z</time>
      </trkpt>
      <trkpt lat="47.12453" lon="-1.61751">
        <ele>54</ele>
        <time>2021-04-15T11:11:30.000Z</time>
      </trkpt>
      <trkpt lat="47.12457" lon="-1.61736">
        <ele>54</ele>
        <time>2021-04-15T11:11:32.000Z</time>
      </trkpt>
      <trkpt lat="47.12461" lon="-1.61722">
        <ele>54</ele>
        <time>2021-04-15T11:11:34.000Z</time>
      </trkpt>
      <trkpt lat="47.12464" lon="-1.61708">
        <ele>55</ele>
        <time>2021-04-15T11:11:36.000Z</time>
      </trkpt>
      <trkpt lat="47.12468" lon="-1.61693">
        <ele>56</ele>
        <time>2021-04-15T11:11:38.000Z</time>
      </trkpt>
      <trkpt lat="47.1247" lon="-1.61678">
        <ele>56</ele>
        <time>2021-04-15T11:11:40.000Z</time>
      </trkpt>
      <trkpt lat="47.12473" lon="-1.61662">
        <ele>55</ele>
        <time>2021-04-15T11:11:42.000Z</time>
      </trkpt>
      <trkpt lat="47.12476" lon="-1.61646">
        <ele>55</ele>
        <time>2021-04-15T11:11:44.000Z</time>
      </trkpt>
      <trkpt lat="47.12477" lon="-1.61631">
        <ele>55</ele>
        <time>2021-04-15T11:11:46.000Z</time>
      </trkpt>
      <trkpt lat="47.12477" lon="-1.61614">
        <ele>55</ele>
        <time>2021-04-15T11:11:48.000Z</time>
      </trkpt>
      <trkpt lat="47.12476" lon="-1.61598">
        <ele>54</ele>
        <time>2021-04-15T11:11:50.000Z</time>
      </trkpt>
      <trkpt lat="47.12475" lon="-1.61583">
        <ele>54</ele>
        <time>2021-04-15T11:11:52.000Z</time>
      </trkpt>
      <trkpt lat="47.12473" lon="-1.61568">
        <ele>54</ele>
        <time>2021-04-15T11:11:54.000Z</time>
      </trkpt>
      <trkpt lat="47.12472" lon="-1.61553">
        <ele>54</ele>
        <time>2021-04-15T11:11:56.000Z</time>
      </trkpt>
      <trkpt lat="47.1247" lon="-1.61537">
        <ele>54</ele>
        <time>2021-04-15T11:11:58.000Z</time>
      </trkpt>
      <trkpt lat="47.12468" lon="-1.6152">
        <ele>54</ele>
        <time>2021-04-15T11:12:00.000Z</time>
      </trkpt>
      <trkpt lat="47.12466" lon="-1.61504">
        <ele>54</ele>
        <time>2021-04-15T11:12:02.000Z</time>
      </trkpt>
      <trkpt lat="47.12464" lon="-1.61488">
        <ele>54</ele>
        <time>2021-04-15T11:12:04.000Z</time>
      </trkpt>
      <trkpt lat="47.12463" lon="-1.61473">
        <ele>54</ele>
        <time>2021-04-15T11:12:06.000Z</time>
      </trkpt>
      <trkpt lat="47.12461" lon="-1.61457">
        <ele>54</ele>
        <time>2021-04-15T11:12:08.000Z</time>
      </trkpt>
      <trkpt lat="47.12459" lon="-1.61441">
        <ele>54</ele>
        <time>2021-04-15T11:12:10.000Z</time>
      </trkpt>
      <trkpt lat="47.12458" lon="-1.61425">
        <ele>54</ele>
        <time>2021-04-15T11:12:12.000Z</time>
      </trkpt>
      <trkpt lat="47.12455" lon="-1.61401">
        <ele>54</ele>
        <time>2021-04-15T11:12:15.000Z</time>
      </trkpt>
      <trkpt lat="47.12454" lon="-1.61385">
        <ele>55</ele>
        <time>2021-04-15T11:12:17.000Z</time>
      </trkpt>
      <trkpt lat="47.12454" lon="-1.61369">
        <ele>55</ele>
        <time>2021-04-15T11:12:19.000Z</time>
      </trkpt>
      <trkpt lat="47.12456" lon="-1.61352">
        <ele>55</ele>
        <time>2021-04-15T11:12:21.000Z</time>
      </trkpt>
      <trkpt lat="47.12458" lon="-1.61336">
        <ele>55</ele>
        <time>2021-04-15T11:12:23.000Z</time>
      </trkpt>
      <trkpt lat="47.12462" lon="-1.61321">
        <ele>55</ele>
        <time>2021-04-15T11:12:25.000Z</time>
      </trkpt>
      <trkpt lat="47.12467" lon="-1.61306">
        <ele>55</ele>
        <time>2021-04-15T11:12:27.000Z</time>
      </trkpt>
      <trkpt lat="47.12471" lon="-1.61292">
        <ele>55</ele>
        <time>2021-04-15T11:12:29.000Z</time>
      </trkpt>
      <trkpt lat="47.12476" lon="-1.61278">
        <ele>56</ele>
        <time>2021-04-15T11:12:31.000Z</time>
      </trkpt>
      <trkpt lat="47.12483" lon="-1.61257">
        <ele>56</ele>
        <time>2021-04-15T11:12:34.000Z</time>
      </trkpt>
      <trkpt lat="47.12487" lon="-1.61242">
        <ele>56</ele>
        <time>2021-04-15T11:12:36.000Z</time>
      </trkpt>
      <trkpt lat="47.12491" lon="-1.61227">
        <ele>55</ele>
        <time>2021-04-15T11:12:38.000Z</time>
      </trkpt>
      <trkpt lat="47.12494" lon="-1.61212">
        <ele>55</ele>
        <time>2021-04-15T11:12:40.000Z</time>
      </trkpt>
      <trkpt lat="47.12496" lon="-1.61197">
        <ele>55</ele>
        <time>2021-04-15T11:12:42.000Z</time>
      </trkpt>
      <trkpt lat="47.12499" lon="-1.61182">
        <ele>55</ele>
        <time>2021-04-15T11:12:44.000Z</time>
      </trkpt>
      <trkpt lat="47.12501" lon="-1.61166">
        <ele>56</ele>
        <time>2021-04-15T11:12:46.000Z</time>
      </trkpt>
      <trkpt lat="47.12502" lon="-1.61151">
        <ele>56</ele>
        <time>2021-04-15T11:12:48.000Z</time>
      </trkpt>
      <trkpt lat="47.12504" lon="-1.61135">
        <ele>56</ele>
        <time>2021-04-15T11:12:50.000Z</time>
      </trkpt>
      <trkpt lat="47.12505" lon="-1.61119">
        <ele>55</ele>
        <time>2021-04-15T11:12:52.000Z</time>
      </trkpt>
      <trkpt lat="47.12507" lon="-1.61103">
        <ele>55</ele>
        <time>2021-04-15T11:12:54.000Z</time>
      </trkpt>
      <trkpt lat="47.12508" lon="-1.61088">
        <ele>55</ele>
        <time>2021-04-15T11:12:56.000Z</time>
      </trkpt>
      <trkpt lat="47.1251" lon="-1.61066">
        <ele>55</ele>
        <time>2021-04-15T11:12:59.000Z</time>
      </trkpt>
      <trkpt lat="47.12512" lon="-1.61049">
        <ele>55</ele>
        <time>2021-04-15T11:13:01.000Z</time>
      </trkpt>
      <trkpt lat="47.12513" lon="-1.61033">
        <ele>55</ele>
        <time>2021-04-15T11:13:03.000Z</time>
      </trkpt>
      <trkpt lat="47.12516" lon="-1.61008">
        <ele>55</ele>
        <time>2021-04-15T11:13:06.000Z</time>
      </trkpt>
      <trkpt lat="47.12517" lon="-1.60992">
        <ele>55</ele>
        <time>2021-04-15T11:13:08.000Z</time>
      </trkpt>
      <trkpt lat="47.1252" lon="-1.60976">
        <ele>55</ele>
        <time>2021-04-15T11:13:10.000Z</time>
      </trkpt>
      <trkpt lat="47.12522" lon="-1.60953">
        <ele>55</ele>
        <time>2021-04-15T11:13:13.000Z</time>
      </trkpt>
      <trkpt lat="47.12523" lon="-1.60938">
        <ele>56</ele>
        <time>2021-04-15T11:13:15.000Z</time>
      </trkpt>
      <trkpt lat="47.12525" lon="-1.60923">
        <ele>56</ele>
        <time>2021-04-15T11:13:17.000Z</time>
      </trkpt>
      <trkpt lat="47.12526" lon="-1.60908">
        <ele>56</ele>
        <time>2021-04-15T11:13:19.000Z</time>
      </trkpt>
      <trkpt lat="47.12528" lon="-1.60894">
        <ele>57</ele>
        <time>2021-04-15T11:13:21.000Z</time>
      </trkpt>
      <trkpt lat="47.12529" lon="-1.60878">
        <ele>57</ele>
        <time>2021-04-15T11:13:23.000Z</time>
      </trkpt>
      <trkpt lat="47.1253" lon="-1.60863">
        <ele>57</ele>
        <time>2021-04-15T11:13:25.000Z</time>
      </trkpt>
      <trkpt lat="47.12533" lon="-1.6084">
        <ele>58</ele>
        <time>2021-04-15T11:13:28.000Z</time>
      </trkpt>
      <trkpt lat="47.12534" lon="-1.60824">
        <ele>58</ele>
        <time>2021-04-15T11:13:30.000Z</time>
      </trkpt>
      <trkpt lat="47.12536" lon="-1.60809">
        <ele>58</ele>
        <time>2021-04-15T11:13:32.000Z</time>
      </trkpt>
      <trkpt lat="47.12538" lon="-1.60792">
        <ele>57</ele>
        <time>2021-04-15T11:13:34.000Z</time>
      </trkpt>
      <trkpt lat="47.12539" lon="-1.60776">
        <ele>57</ele>
        <time>2021-04-15T11:13:36.000Z</time>
      </trkpt>
      <trkpt lat="47.12541" lon="-1.6076">
        <ele>57</ele>
        <time>2021-04-15T11:13:38.000Z</time>
      </trkpt>
      <trkpt lat="47.12541" lon="-1.60744">
        <ele>57</ele>
        <time>2021-04-15T11:13:40.000Z</time>
      </trkpt>
      <trkpt lat="47.12542" lon="-1.6072">
        <ele>57</ele>
        <time>2021-04-15T11:13:43.000Z</time>
      </trkpt>
      <trkpt lat="47.12543" lon="-1.60704">
        <ele>56</ele>
        <time>2021-04-15T11:13:45.000Z</time>
      </trkpt>
      <trkpt lat="47.12542" lon="-1.60688">
        <ele>57</ele>
        <time>2021-04-15T11:13:47.000Z</time>
      </trkpt>
      <trkpt lat="47.12542" lon="-1.60672">
        <ele>57</ele>
        <time>2021-04-15T11:13:49.000Z</time>
      </trkpt>
      <trkpt lat="47.12542" lon="-1.60655">
        <ele>57</ele>
        <time>2021-04-15T11:13:51.000Z</time>
      </trkpt>
      <trkpt lat="47.12541" lon="-1.60631">
        <ele>57</ele>
        <time>2021-04-15T11:13:54.000Z</time>
      </trkpt>
      <trkpt lat="47.12541" lon="-1.60616">
        <ele>57</ele>
        <time>2021-04-15T11:13:56.000Z</time>
      </trkpt>
      <trkpt lat="47.12541" lon="-1.606">
        <ele>57</ele>
        <time>2021-04-15T11:13:58.000Z</time>
      </trkpt>
      <trkpt lat="47.12541" lon="-1.60583">
        <ele>57</ele>
        <time>2021-04-15T11:14:00.000Z</time>
      </trkpt>
      <trkpt lat="47.1254" lon="-1.60568">
        <ele>57</ele>
        <time>2021-04-15T11:14:02.000Z</time>
      </trkpt>
      <trkpt lat="47.1254" lon="-1.60552">
        <ele>57</ele>
        <time>2021-04-15T11:14:04.000Z</time>
      </trkpt>
      <trkpt lat="47.12539" lon="-1.60536">
        <ele>57</ele>
        <time>2021-04-15T11:14:06.000Z</time>
      </trkpt>
      <trkpt lat="47.12538" lon="-1.60519">
        <ele>57</ele>
        <time>2021-04-15T11:14:08.000Z</time>
      </trkpt>
      <trkpt lat="47.12536" lon="-1.60494">
        <ele>57</ele>
        <time>2021-04-15T11:14:11.000Z</time>
      </trkpt>
      <trkpt lat="47.12534" lon="-1.60478">
        <ele>57</ele>
        <time>2021-04-15T11:14:13.000Z</time>
      </trkpt>
      <trkpt lat="47.12531" lon="-1.60462">
        <ele>57</ele>
        <time>2021-04-15T11:14:15.000Z</time>
      </trkpt>
      <trkpt lat="47.12529" lon="-1.60446">
        <ele>57</ele>
        <time>2021-04-15T11:14:17.000Z</time>
      </trkpt>
      <trkpt lat="47.12526" lon="-1.6043">
        <ele>57</ele>
        <time>2021-04-15T11:14:19.000Z</time>
      </trkpt>
      <trkpt lat="47.12523" lon="-1.60414">
        <ele>57</ele>
        <time>2021-04-15T11:14:21.000Z</time>
      </trkpt>
      <trkpt lat="47.1252" lon="-1.60397">
        <ele>57</ele>
        <time>2021-04-15T11:14:23.000Z</time>
      </trkpt>
      <trkpt lat="47.12516" lon="-1.60381">
        <ele>57</ele>
        <time>2021-04-15T11:14:25.000Z</time>
      </trkpt>
      <trkpt lat="47.12513" lon="-1.60364">
        <ele>57</ele>
        <time>2021-04-15T11:14:27.000Z</time>
      </trkpt>
      <trkpt lat="47.1251" lon="-1.60347">
        <ele>56</ele>
        <time>2021-04-15T11:14:29.000Z</time>
      </trkpt>
      <trkpt lat="47.12506" lon="-1.6033">
        <ele>56</ele>
        <time>2021-04-15T11:14:31.000Z</time>
      </trkpt>
      <trkpt lat="47.12503" lon="-1.60312">
        <ele>56</ele>
        <time>2021-04-15T11:14:33.000Z</time>
      </trkpt>
      <trkpt lat="47.12499" lon="-1.60295">
        <ele>56</ele>
        <time>2021-04-15T11:14:35.000Z</time>
      </trkpt>
      <trkpt lat="47.12496" lon="-1.60278">
        <ele>56</ele>
        <time>2021-04-15T11:14:37.000Z</time>
      </trkpt>
      <trkpt lat="47.12492" lon="-1.60261">
        <ele>56</ele>
        <time>2021-04-15T11:14:39.000Z</time>
      </trkpt>
      <trkpt lat="47.12489" lon="-1.60243">
        <ele>56</ele>
        <time>2021-04-15T11:14:41.000Z</time>
      </trkpt>
      <trkpt lat="47.12486" lon="-1.60227">
        <ele>56</ele>
        <time>2021-04-15T11:14:43.000Z</time>
      </trkpt>
      <trkpt lat="47.12484" lon="-1.6021">
        <ele>56</ele>
        <time>2021-04-15T11:14:45.000Z</time>
      </trkpt>
      <trkpt lat="47.12481" lon="-1.60194">
        <ele>56</ele>
        <time>2021-04-15T11:14:47.000Z</time>
      </trkpt>
      <trkpt lat="47.12479" lon="-1.60178">
        <ele>56</ele>
        <time>2021-04-15T11:14:49.000Z</time>
      </trkpt>
      <trkpt lat="47.12478" lon="-1.60161">
        <ele>57</ele>
        <time>2021-04-15T11:14:51.000Z</time>
      </trkpt>
      <trkpt lat="47.12477" lon="-1.60141">
        <ele>56</ele>
        <time>2021-04-15T11:14:53.000Z</time>
      </trkpt>
      <trkpt lat="47.12476" lon="-1.60121">
        <ele>56</ele>
        <time>2021-04-15T11:14:55.000Z</time>
      </trkpt>
      <trkpt lat="47.12475" lon="-1.60094">
        <ele>56</ele>
        <time>2021-04-15T11:14:58.000Z</time>
      </trkpt>
      <trkpt lat="47.12474" lon="-1.60077">
        <ele>56</ele>
        <time>2021-04-15T11:15:00.000Z</time>
      </trkpt>
      <trkpt lat="47.12473" lon="-1.60059">
        <ele>56</ele>
        <time>2021-04-15T11:15:02.000Z</time>
      </trkpt>
      <trkpt lat="47.12472" lon="-1.60042">
        <ele>56</ele>
        <time>2021-04-15T11:15:04.000Z</time>
      </trkpt>
      <trkpt lat="47.12471" lon="-1.60025">
        <ele>56</ele>
        <time>2021-04-15T11:15:06.000Z</time>
      </trkpt>
      <trkpt lat="47.12471" lon="-1.60009">
        <ele>56</ele>
        <time>2021-04-15T11:15:08.000Z</time>
      </trkpt>
      <trkpt lat="47.12469" lon="-1.59984">
        <ele>56</ele>
        <time>2021-04-15T11:15:11.000Z</time>
      </trkpt>
      <trkpt lat="47.12469" lon="-1.59966">
        <ele>56</ele>
        <time>2021-04-15T11:15:13.000Z</time>
      </trkpt>
      <trkpt lat="47.12468" lon="-1.5995">
        <ele>57</ele>
        <time>2021-04-15T11:15:15.000Z</time>
      </trkpt>
      <trkpt lat="47.12468" lon="-1.59933">
        <ele>57</ele>
        <time>2021-04-15T11:15:17.000Z</time>
      </trkpt>
      <trkpt lat="47.12467" lon="-1.59917">
        <ele>58</ele>
        <time>2021-04-15T11:15:19.000Z</time>
      </trkpt>
      <trkpt lat="47.12466" lon="-1.59901">
        <ele>58</ele>
        <time>2021-04-15T11:15:21.000Z</time>
      </trkpt>
      <trkpt lat="47.12465" lon="-1.59885">
        <ele>59</ele>
        <time>2021-04-15T11:15:23.000Z</time>
      </trkpt>
      <trkpt lat="47.12464" lon="-1.59869">
        <ele>59</ele>
        <time>2021-04-15T11:15:25.000Z</time>
      </trkpt>
      <trkpt lat="47.12463" lon="-1.59852">
        <ele>60</ele>
        <time>2021-04-15T11:15:27.000Z</time>
      </trkpt>
      <trkpt lat="47.12462" lon="-1.59835">
        <ele>60</ele>
        <time>2021-04-15T11:15:29.000Z</time>
      </trkpt>
      <trkpt lat="47.12461" lon="-1.59817">
        <ele>60</ele>
        <time>2021-04-15T11:15:31.000Z</time>
      </trkpt>
      <trkpt lat="47.12461" lon="-1.59801">
        <ele>60</ele>
        <time>2021-04-15T11:15:33.000Z</time>
      </trkpt>
      <trkpt lat="47.1246" lon="-1.59785">
        <ele>59</ele>
        <time>2021-04-15T11:15:35.000Z</time>
      </trkpt>
      <trkpt lat="47.1246" lon="-1.59769">
        <ele>59</ele>
        <time>2021-04-15T11:15:37.000Z</time>
      </trkpt>
      <trkpt lat="47.12459" lon="-1.59753">
        <ele>59</ele>
        <time>2021-04-15T11:15:39.000Z</time>
      </trkpt>
      <trkpt lat="47.12458" lon="-1.59738">
        <ele>59</ele>
        <time>2021-04-15T11:15:41.000Z</time>
      </trkpt>
      <trkpt lat="47.12457" lon="-1.59722">
        <ele>59</ele>
        <time>2021-04-15T11:15:43.000Z</time>
      </trkpt>
      <trkpt lat="47.12457" lon="-1.59706">
        <ele>59</ele>
        <time>2021-04-15T11:15:45.000Z</time>
      </trkpt>
      <trkpt lat="47.12456" lon="-1.5969">
        <ele>59</ele>
        <time>2021-04-15T11:15:47.000Z</time>
      </trkpt>
      <trkpt lat="47.12455" lon="-1.59675">
        <ele>59</ele>
        <time>2021-04-15T11:15:49.000Z</time>
      </trkpt>
      <trkpt lat="47.12454" lon="-1.59659">
        <ele>58</ele>
        <time>2021-04-15T11:15:51.000Z</time>
      </trkpt>
      <trkpt lat="47.12453" lon="-1.59643">
        <ele>58</ele>
        <time>2021-04-15T11:15:53.000Z</time>
      </trkpt>
      <trkpt lat="47.12453" lon="-1.59626">
        <ele>58</ele>
        <time>2021-04-15T11:15:55.000Z</time>
      </trkpt>
      <trkpt lat="47.12452" lon="-1.59609">
        <ele>58</ele>
        <time>2021-04-15T11:15:57.000Z</time>
      </trkpt>
      <trkpt lat="47.12451" lon="-1.59593">
        <ele>57</ele>
        <time>2021-04-15T11:15:59.000Z</time>
      </trkpt>
      <trkpt lat="47.1245" lon="-1.59577">
        <ele>57</ele>
        <time>2021-04-15T11:16:01.000Z</time>
      </trkpt>
      <trkpt lat="47.1245" lon="-1.59561">
        <ele>57</ele>
        <time>2021-04-15T11:16:03.000Z</time>
      </trkpt>
      <trkpt lat="47.12449" lon="-1.59544">
        <ele>57</ele>
        <time>2021-04-15T11:16:05.000Z</time>
      </trkpt>
      <trkpt lat="47.12448" lon="-1.59527">
        <ele>57</ele>
        <time>2021-04-15T11:16:07.000Z</time>
      </trkpt>
      <trkpt lat="47.12448" lon="-1.59511">
        <ele>57</ele>
        <time>2021-04-15T11:16:09.000Z</time>
      </trkpt>
      <trkpt lat="47.12447" lon="-1.59494">
        <ele>57</ele>
        <time>2021-04-15T11:16:11.000Z</time>
      </trkpt>
      <trkpt lat="47.12446" lon="-1.59468">
        <ele>57</ele>
        <time>2021-04-15T11:16:14.000Z</time>
      </trkpt>
      <trkpt lat="47.12445" lon="-1.59451">
        <ele>57</ele>
        <time>2021-04-15T11:16:16.000Z</time>
      </trkpt>
      <trkpt lat="47.12444" lon="-1.59434">
        <ele>57</ele>
        <time>2021-04-15T11:16:18.000Z</time>
      </trkpt>
      <trkpt lat="47.12443" lon="-1.59417">
        <ele>56</ele>
        <time>2021-04-15T11:16:20.000Z</time>
      </trkpt>
      <trkpt lat="47.12442" lon="-1.594">
        <ele>56</ele>
        <time>2021-04-15T11:16:22.000Z</time>
      </trkpt>
      <trkpt lat="47.12441" lon="-1.59383">
        <ele>56</ele>
        <time>2021-04-15T11:16:24.000Z</time>
      </trkpt>
      <trkpt lat="47.1244" lon="-1.59366">
        <ele>56</ele>
        <time>2021-04-15T11:16:26.000Z</time>
      </trkpt>
      <trkpt lat="47.12439" lon="-1.59349">
        <ele>56</ele>
        <time>2021-04-15T11:16:28.000Z</time>
      </trkpt>
      <trkpt lat="47.12438" lon="-1.59332">
        <ele>55</ele>
        <time>2021-04-15T11:16:30.000Z</time>
      </trkpt>
      <trkpt lat="47.12437" lon="-1.59315">
        <ele>55</ele>
        <time>2021-04-15T11:16:32.000Z</time>
      </trkpt>
      <trkpt lat="47.12436" lon="-1.59298">
        <ele>55</ele>
        <time>2021-04-15T11:16:34.000Z</time>
      </trkpt>
      <trkpt lat="47.12435" lon="-1.59282">
        <ele>55</ele>
        <time>2021-04-15T11:16:36.000Z</time>
      </trkpt>
      <trkpt lat="47.12435" lon="-1.59266">
        <ele>55</ele>
        <time>2021-04-15T11:16:38.000Z</time>
      </trkpt>
      <trkpt lat="47.12434" lon="-1.59248">
        <ele>55</ele>
        <time>2021-04-15T11:16:40.000Z</time>
      </trkpt>
      <trkpt lat="47.12432" lon="-1.59231">
        <ele>55</ele>
        <time>2021-04-15T11:16:42.000Z</time>
      </trkpt>
      <trkpt lat="47.1243" lon="-1.59215">
        <ele>55</ele>
        <time>2021-04-15T11:16:44.000Z</time>
      </trkpt>
      <trkpt lat="47.12426" lon="-1.59199">
        <ele>55</ele>
        <time>2021-04-15T11:16:46.000Z</time>
      </trkpt>
      <trkpt lat="47.12427" lon="-1.59182">
        <ele>54</ele>
        <time>2021-04-15T11:16:48.000Z</time>
      </trkpt>
      <trkpt lat="47.12428" lon="-1.59165">
        <ele>54</ele>
        <time>2021-04-15T11:16:50.000Z</time>
      </trkpt>
      <trkpt lat="47.12429" lon="-1.59147">
        <ele>54</ele>
        <time>2021-04-15T11:16:52.000Z</time>
      </trkpt>
      <trkpt lat="47.12429" lon="-1.59129">
        <ele>54</ele>
        <time>2021-04-15T11:16:54.000Z</time>
      </trkpt>
      <trkpt lat="47.12429" lon="-1.59113">
        <ele>54</ele>
        <time>2021-04-15T11:16:56.000Z</time>
      </trkpt>
      <trkpt lat="47.12429" lon="-1.59096">
        <ele>54</ele>
        <time>2021-04-15T11:16:58.000Z</time>
      </trkpt>
      <trkpt lat="47.12428" lon="-1.59078">
        <ele>54</ele>
        <time>2021-04-15T11:17:00.000Z</time>
      </trkpt>
      <trkpt lat="47.12427" lon="-1.59063">
        <ele>54</ele>
        <time>2021-04-15T11:17:02.000Z</time>
      </trkpt>
      <trkpt lat="47.12427" lon="-1.59047">
        <ele>55</ele>
        <time>2021-04-15T11:17:04.000Z</time>
      </trkpt>
      <trkpt lat="47.12426" lon="-1.5903">
        <ele>55</ele>
        <time>2021-04-15T11:17:06.000Z</time>
      </trkpt>
      <trkpt lat="47.12425" lon="-1.59013">
        <ele>56</ele>
        <time>2021-04-15T11:17:08.000Z</time>
      </trkpt>
      <trkpt lat="47.12424" lon="-1.58996">
        <ele>56</ele>
        <time>2021-04-15T11:17:10.000Z</time>
      </trkpt>
      <trkpt lat="47.12423" lon="-1.5898">
        <ele>56</ele>
        <time>2021-04-15T11:17:12.000Z</time>
      </trkpt>
      <trkpt lat="47.12422" lon="-1.58962">
        <ele>57</ele>
        <time>2021-04-15T11:17:14.000Z</time>
      </trkpt>
      <trkpt lat="47.12421" lon="-1.58945">
        <ele>57</ele>
        <time>2021-04-15T11:17:16.000Z</time>
      </trkpt>
      <trkpt lat="47.1242" lon="-1.58928">
        <ele>58</ele>
        <time>2021-04-15T11:17:18.000Z</time>
      </trkpt>
      <trkpt lat="47.12418" lon="-1.58911">
        <ele>59</ele>
        <time>2021-04-15T11:17:20.000Z</time>
      </trkpt>
      <trkpt lat="47.12416" lon="-1.58895">
        <ele>59</ele>
        <time>2021-04-15T11:17:22.000Z</time>
      </trkpt>
      <trkpt lat="47.12415" lon="-1.58879">
        <ele>59</ele>
        <time>2021-04-15T11:17:24.000Z</time>
      </trkpt>
      <trkpt lat="47.12414" lon="-1.58862">
        <ele>58</ele>
        <time>2021-04-15T11:17:26.000Z</time>
      </trkpt>
      <trkpt lat="47.12413" lon="-1.58847">
        <ele>59</ele>
        <time>2021-04-15T11:17:28.000Z</time>
      </trkpt>
      <trkpt lat="47.1241" lon="-1.58831">
        <ele>59</ele>
        <time>2021-04-15T11:17:30.000Z</time>
      </trkpt>
      <trkpt lat="47.12409" lon="-1.58815">
        <ele>59</ele>
        <time>2021-04-15T11:17:32.000Z</time>
      </trkpt>
      <trkpt lat="47.12406" lon="-1.588">
        <ele>60</ele>
        <time>2021-04-15T11:17:34.000Z</time>
      </trkpt>
      <trkpt lat="47.12404" lon="-1.58784">
        <ele>60</ele>
        <time>2021-04-15T11:17:36.000Z</time>
      </trkpt>
      <trkpt lat="47.12401" lon="-1.58768">
        <ele>60</ele>
        <time>2021-04-15T11:17:38.000Z</time>
      </trkpt>
      <trkpt lat="47.12398" lon="-1.58753">
        <ele>60</ele>
        <time>2021-04-15T11:17:40.000Z</time>
      </trkpt>
      <trkpt lat="47.12395" lon="-1.58737">
        <ele>60</ele>
        <time>2021-04-15T11:17:42.000Z</time>
      </trkpt>
      <trkpt lat="47.12392" lon="-1.58721">
        <ele>60</ele>
        <time>2021-04-15T11:17:44.000Z</time>
      </trkpt>
      <trkpt lat="47.12389" lon="-1.58705">
        <ele>60</ele>
        <time>2021-04-15T11:17:46.000Z</time>
      </trkpt>
      <trkpt lat="47.12385" lon="-1.5869">
        <ele>59</ele>
        <time>2021-04-15T11:17:48.000Z</time>
      </trkpt>
      <trkpt lat="47.12382" lon="-1.58674">
        <ele>59</ele>
        <time>2021-04-15T11:17:50.000Z</time>
      </trkpt>
      <trkpt lat="47.12378" lon="-1.58659">
        <ele>59</ele>
        <time>2021-04-15T11:17:52.000Z</time>
      </trkpt>
      <trkpt lat="47.12374" lon="-1.58643">
        <ele>58</ele>
        <time>2021-04-15T11:17:54.000Z</time>
      </trkpt>
      <trkpt lat="47.1237" lon="-1.58627">
        <ele>58</ele>
        <time>2021-04-15T11:17:56.000Z</time>
      </trkpt>
      <trkpt lat="47.12367" lon="-1.58609">
        <ele>58</ele>
        <time>2021-04-15T11:17:58.000Z</time>
      </trkpt>
      <trkpt lat="47.12363" lon="-1.58592">
        <ele>58</ele>
        <time>2021-04-15T11:18:00.000Z</time>
      </trkpt>
      <trkpt lat="47.1236" lon="-1.58575">
        <ele>58</ele>
        <time>2021-04-15T11:18:02.000Z</time>
      </trkpt>
      <trkpt lat="47.12355" lon="-1.58559">
        <ele>57</ele>
        <time>2021-04-15T11:18:04.000Z</time>
      </trkpt>
      <trkpt lat="47.12352" lon="-1.58542">
        <ele>57</ele>
        <time>2021-04-15T11:18:06.000Z</time>
      </trkpt>
      <trkpt lat="47.12348" lon="-1.58526">
        <ele>58</ele>
        <time>2021-04-15T11:18:08.000Z</time>
      </trkpt>
      <trkpt lat="47.12344" lon="-1.58509">
        <ele>58</ele>
        <time>2021-04-15T11:18:10.000Z</time>
      </trkpt>
      <trkpt lat="47.1234" lon="-1.58493">
        <ele>58</ele>
        <time>2021-04-15T11:18:12.000Z</time>
      </trkpt>
      <trkpt lat="47.12337" lon="-1.58476">
        <ele>58</ele>
        <time>2021-04-15T11:18:14.000Z</time>
      </trkpt>
      <trkpt lat="47.12333" lon="-1.58462">
        <ele>57</ele>
        <time>2021-04-15T11:18:16.000Z</time>
      </trkpt>
      <trkpt lat="47.12326" lon="-1.58446">
        <ele>58</ele>
        <time>2021-04-15T11:18:19.000Z</time>
      </trkpt>
      <trkpt lat="47.12333" lon="-1.58432">
        <ele>58</ele>
        <time>2021-04-15T11:18:22.000Z</time>
      </trkpt>
      <trkpt lat="47.12346" lon="-1.58433">
        <ele>59</ele>
        <time>2021-04-15T11:18:24.000Z</time>
      </trkpt>
      <trkpt lat="47.12358" lon="-1.58429">
        <ele>58</ele>
        <time>2021-04-15T11:18:26.000Z</time>
      </trkpt>
      <trkpt lat="47.12369" lon="-1.58426">
        <ele>58</ele>
        <time>2021-04-15T11:18:28.000Z</time>
      </trkpt>
      <trkpt lat="47.12379" lon="-1.58422">
        <ele>58</ele>
        <time>2021-04-15T11:18:30.000Z</time>
      </trkpt>
      <trkpt lat="47.12391" lon="-1.58418">
        <ele>57</ele>
        <time>2021-04-15T11:18:32.000Z</time>
      </trkpt>
      <trkpt lat="47.12402" lon="-1.58412">
        <ele>57</ele>
        <time>2021-04-15T11:18:34.000Z</time>
      </trkpt>
      <trkpt lat="47.12411" lon="-1.58405">
        <ele>58</ele>
        <time>2021-04-15T11:18:36.000Z</time>
      </trkpt>
      <trkpt lat="47.1242" lon="-1.58397">
        <ele>58</ele>
        <time>2021-04-15T11:18:38.000Z</time>
      </trkpt>
      <trkpt lat="47.1243" lon="-1.58389">
        <ele>58</ele>
        <time>2021-04-15T11:18:40.000Z</time>
      </trkpt>
      <trkpt lat="47.12439" lon="-1.58382">
        <ele>58</ele>
        <time>2021-04-15T11:18:42.000Z</time>
      </trkpt>
      <trkpt lat="47.12448" lon="-1.58374">
        <ele>59</ele>
        <time>2021-04-15T11:18:44.000Z</time>
      </trkpt>
      <trkpt lat="47.12458" lon="-1.58365">
        <ele>59</ele>
        <time>2021-04-15T11:18:46.000Z</time>
      </trkpt>
      <trkpt lat="47.12467" lon="-1.58357">
        <ele>60</ele>
        <time>2021-04-15T11:18:48.000Z</time>
      </trkpt>
      <trkpt lat="47.12476" lon="-1.58349">
        <ele>60</ele>
        <time>2021-04-15T11:18:50.000Z</time>
      </trkpt>
      <trkpt lat="47.12485" lon="-1.58341">
        <ele>59</ele>
        <time>2021-04-15T11:18:52.000Z</time>
      </trkpt>
      <trkpt lat="47.12494" lon="-1.58334">
        <ele>60</ele>
        <time>2021-04-15T11:18:54.000Z</time>
      </trkpt>
      <trkpt lat="47.12503" lon="-1.58326">
        <ele>60</ele>
        <time>2021-04-15T11:18:56.000Z</time>
      </trkpt>
      <trkpt lat="47.12511" lon="-1.58318">
        <ele>61</ele>
        <time>2021-04-15T11:18:58.000Z</time>
      </trkpt>
      <trkpt lat="47.1252" lon="-1.5831">
        <ele>61</ele>
        <time>2021-04-15T11:19:00.000Z</time>
      </trkpt>
      <trkpt lat="47.12528" lon="-1.58303">
        <ele>61</ele>
        <time>2021-04-15T11:19:02.000Z</time>
      </trkpt>
      <trkpt lat="47.12537" lon="-1.58296">
        <ele>61</ele>
        <time>2021-04-15T11:19:04.000Z</time>
      </trkpt>
      <trkpt lat="47.12546" lon="-1.58289">
        <ele>61</ele>
        <time>2021-04-15T11:19:06.000Z</time>
      </trkpt>
      <trkpt lat="47.12554" lon="-1.58282">
        <ele>61</ele>
        <time>2021-04-15T11:19:08.000Z</time>
      </trkpt>
      <trkpt lat="47.12562" lon="-1.58276">
        <ele>61</ele>
        <time>2021-04-15T11:19:10.000Z</time>
      </trkpt>
      <trkpt lat="47.12571" lon="-1.58268">
        <ele>60</ele>
        <time>2021-04-15T11:19:12.000Z</time>
      </trkpt>
      <trkpt lat="47.1258" lon="-1.58261">
        <ele>60</ele>
        <time>2021-04-15T11:19:14.000Z</time>
      </trkpt>
      <trkpt lat="47.12589" lon="-1.58253">
        <ele>61</ele>
        <time>2021-04-15T11:19:16.000Z</time>
      </trkpt>
      <trkpt lat="47.12598" lon="-1.58245">
        <ele>61</ele>
        <time>2021-04-15T11:19:18.000Z</time>
      </trkpt>
      <trkpt lat="47.12608" lon="-1.58237">
        <ele>61</ele>
        <time>2021-04-15T11:19:20.000Z</time>
      </trkpt>
      <trkpt lat="47.12617" lon="-1.58229">
        <ele>61</ele>
        <time>2021-04-15T11:19:22.000Z</time>
      </trkpt>
      <trkpt lat="47.12626" lon="-1.5822">
        <ele>61</ele>
        <time>2021-04-15T11:19:24.000Z</time>
      </trkpt>
      <trkpt lat="47.12635" lon="-1.58212">
        <ele>61</ele>
        <time>2021-04-15T11:19:26.000Z</time>
      </trkpt>
      <trkpt lat="47.12644" lon="-1.58204">
        <ele>61</ele>
        <time>2021-04-15T11:19:28.000Z</time>
      </trkpt>
      <trkpt lat="47.12653" lon="-1.58195">
        <ele>61</ele>
        <time>2021-04-15T11:19:30.000Z</time>
      </trkpt>
      <trkpt lat="47.12663" lon="-1.58187">
        <ele>61</ele>
        <time>2021-04-15T11:19:32.000Z</time>
      </trkpt>
      <trkpt lat="47.12672" lon="-1.58179">
        <ele>61</ele>
        <time>2021-04-15T11:19:34.000Z</time>
      </trkpt>
      <trkpt lat="47.12682" lon="-1.58171">
        <ele>61</ele>
        <time>2021-04-15T11:19:36.000Z</time>
      </trkpt>
      <trkpt lat="47.12691" lon="-1.58163">
        <ele>61</ele>
        <time>2021-04-15T11:19:38.000Z</time>
      </trkpt>
      <trkpt lat="47.127" lon="-1.58154">
        <ele>61</ele>
        <time>2021-04-15T11:19:40.000Z</time>
      </trkpt>
      <trkpt lat="47.12709" lon="-1.58145">
        <ele>61</ele>
        <time>2021-04-15T11:19:42.000Z</time>
      </trkpt>
      <trkpt lat="47.12718" lon="-1.58136">
        <ele>61</ele>
        <time>2021-04-15T11:19:44.000Z</time>
      </trkpt>
      <trkpt lat="47.12727" lon="-1.58127">
        <ele>61</ele>
        <time>2021-04-15T11:19:46.000Z</time>
      </trkpt>
      <trkpt lat="47.12737" lon="-1.58118">
        <ele>60</ele>
        <time>2021-04-15T11:19:48.000Z</time>
      </trkpt>
      <trkpt lat="47.12745" lon="-1.58109">
        <ele>60</ele>
        <time>2021-04-15T11:19:50.000Z</time>
      </trkpt>
      <trkpt lat="47.12752" lon="-1.58097">
        <ele>59</ele>
        <time>2021-04-15T11:19:52.000Z</time>
      </trkpt>
      <trkpt lat="47.12762" lon="-1.5809">
        <ele>60</ele>
        <time>2021-04-15T11:19:54.000Z</time>
      </trkpt>
      <trkpt lat="47.12771" lon="-1.58085">
        <ele>60</ele>
        <time>2021-04-15T11:19:56.000Z</time>
      </trkpt>
      <trkpt lat="47.1278" lon="-1.58076">
        <ele>60</ele>
        <time>2021-04-15T11:19:58.000Z</time>
      </trkpt>
      <trkpt lat="47.1279" lon="-1.58067">
        <ele>60</ele>
        <time>2021-04-15T11:20:00.000Z</time>
      </trkpt>
      <trkpt lat="47.12799" lon="-1.58059">
        <ele>60</ele>
        <time>2021-04-15T11:20:02.000Z</time>
      </trkpt>
      <trkpt lat="47.12808" lon="-1.58051">
        <ele>59</ele>
        <time>2021-04-15T11:20:04.000Z</time>
      </trkpt>
      <trkpt lat="47.12818" lon="-1.58043">
        <ele>59</ele>
        <time>2021-04-15T11:20:06.000Z</time>
      </trkpt>
      <trkpt lat="47.12828" lon="-1.58035">
        <ele>59</ele>
        <time>2021-04-15T11:20:08.000Z</time>
      </trkpt>
      <trkpt lat="47.12837" lon="-1.58025">
        <ele>58</ele>
        <time>2021-04-15T11:20:10.000Z</time>
      </trkpt>
      <trkpt lat="47.12846" lon="-1.58016">
        <ele>58</ele>
        <time>2021-04-15T11:20:12.000Z</time>
      </trkpt>
      <trkpt lat="47.12856" lon="-1.58006">
        <ele>58</ele>
        <time>2021-04-15T11:20:14.000Z</time>
      </trkpt>
      <trkpt lat="47.12866" lon="-1.57997">
        <ele>58</ele>
        <time>2021-04-15T11:20:16.000Z</time>
      </trkpt>
      <trkpt lat="47.12876" lon="-1.57988">
        <ele>57</ele>
        <time>2021-04-15T11:20:18.000Z</time>
      </trkpt>
      <trkpt lat="47.12886" lon="-1.57979">
        <ele>57</ele>
        <time>2021-04-15T11:20:20.000Z</time>
      </trkpt>
      <trkpt lat="47.12896" lon="-1.5797">
        <ele>57</ele>
        <time>2021-04-15T11:20:22.000Z</time>
      </trkpt>
      <trkpt lat="47.12904" lon="-1.5796">
        <ele>57</ele>
        <time>2021-04-15T11:20:24.000Z</time>
      </trkpt>
      <trkpt lat="47.12908" lon="-1.57944">
        <ele>56</ele>
        <time>2021-04-15T11:20:26.000Z</time>
      </trkpt>
      <trkpt lat="47.12905" lon="-1.57927">
        <ele>56</ele>
        <time>2021-04-15T11:20:28.000Z</time>
      </trkpt>
      <trkpt lat="47.129" lon="-1.5791">
        <ele>56</ele>
        <time>2021-04-15T11:20:30.000Z</time>
      </trkpt>
      <trkpt lat="47.12896" lon="-1.57894">
        <ele>57</ele>
        <time>2021-04-15T11:20:32.000Z</time>
      </trkpt>
      <trkpt lat="47.1289" lon="-1.57877">
        <ele>57</ele>
        <time>2021-04-15T11:20:34.000Z</time>
      </trkpt>
      <trkpt lat="47.12886" lon="-1.5786">
        <ele>57</ele>
        <time>2021-04-15T11:20:36.000Z</time>
      </trkpt>
      <trkpt lat="47.12882" lon="-1.57843">
        <ele>57</ele>
        <time>2021-04-15T11:20:38.000Z</time>
      </trkpt>
      <trkpt lat="47.12879" lon="-1.57824">
        <ele>56</ele>
        <time>2021-04-15T11:20:40.000Z</time>
      </trkpt>
      <trkpt lat="47.12876" lon="-1.57805">
        <ele>56</ele>
        <time>2021-04-15T11:20:42.000Z</time>
      </trkpt>
      <trkpt lat="47.12874" lon="-1.57785">
        <ele>55</ele>
        <time>2021-04-15T11:20:44.000Z</time>
      </trkpt>
      <trkpt lat="47.12872" lon="-1.57765">
        <ele>55</ele>
        <time>2021-04-15T11:20:46.000Z</time>
      </trkpt>
      <trkpt lat="47.12871" lon="-1.57745">
        <ele>54</ele>
        <time>2021-04-15T11:20:48.000Z</time>
      </trkpt>
      <trkpt lat="47.12869" lon="-1.57726">
        <ele>55</ele>
        <time>2021-04-15T11:20:50.000Z</time>
      </trkpt>
      <trkpt lat="47.12868" lon="-1.57708">
        <ele>54</ele>
        <time>2021-04-15T11:20:52.000Z</time>
      </trkpt>
      <trkpt lat="47.12866" lon="-1.57689">
        <ele>54</ele>
        <time>2021-04-15T11:20:54.000Z</time>
      </trkpt>
      <trkpt lat="47.12864" lon="-1.5767">
        <ele>53</ele>
        <time>2021-04-15T11:20:56.000Z</time>
      </trkpt>
      <trkpt lat="47.12862" lon="-1.57652">
        <ele>54</ele>
        <time>2021-04-15T11:20:58.000Z</time>
      </trkpt>
      <trkpt lat="47.12862" lon="-1.57634">
        <ele>53</ele>
        <time>2021-04-15T11:21:00.000Z</time>
      </trkpt>
      <trkpt lat="47.12861" lon="-1.57616">
        <ele>53</ele>
        <time>2021-04-15T11:21:02.000Z</time>
      </trkpt>
      <trkpt lat="47.1286" lon="-1.57599">
        <ele>54</ele>
        <time>2021-04-15T11:21:04.000Z</time>
      </trkpt>
      <trkpt lat="47.1286" lon="-1.57581">
        <ele>54</ele>
        <time>2021-04-15T11:21:06.000Z</time>
      </trkpt>
      <trkpt lat="47.12859" lon="-1.57564">
        <ele>54</ele>
        <time>2021-04-15T11:21:08.000Z</time>
      </trkpt>
      <trkpt lat="47.12859" lon="-1.57546">
        <ele>54</ele>
        <time>2021-04-15T11:21:10.000Z</time>
      </trkpt>
      <trkpt lat="47.1286" lon="-1.57528">
        <ele>54</ele>
        <time>2021-04-15T11:21:12.000Z</time>
      </trkpt>
      <trkpt lat="47.12859" lon="-1.57511">
        <ele>54</ele>
        <time>2021-04-15T11:21:14.000Z</time>
      </trkpt>
      <trkpt lat="47.12859" lon="-1.57493">
        <ele>54</ele>
        <time>2021-04-15T11:21:16.000Z</time>
      </trkpt>
      <trkpt lat="47.12859" lon="-1.57476">
        <ele>54</ele>
        <time>2021-04-15T11:21:18.000Z</time>
      </trkpt>
      <trkpt lat="47.1286" lon="-1.5746">
        <ele>54</ele>
        <time>2021-04-15T11:21:20.000Z</time>
      </trkpt>
      <trkpt lat="47.12862" lon="-1.57443">
        <ele>54</ele>
        <time>2021-04-15T11:21:22.000Z</time>
      </trkpt>
      <trkpt lat="47.12864" lon="-1.57426">
        <ele>54</ele>
        <time>2021-04-15T11:21:24.000Z</time>
      </trkpt>
      <trkpt lat="47.12866" lon="-1.5741">
        <ele>54</ele>
        <time>2021-04-15T11:21:26.000Z</time>
      </trkpt>
      <trkpt lat="47.12868" lon="-1.57393">
        <ele>54</ele>
        <time>2021-04-15T11:21:28.000Z</time>
      </trkpt>
      <trkpt lat="47.1287" lon="-1.57377">
        <ele>54</ele>
        <time>2021-04-15T11:21:30.000Z</time>
      </trkpt>
      <trkpt lat="47.12872" lon="-1.5736">
        <ele>54</ele>
        <time>2021-04-15T11:21:32.000Z</time>
      </trkpt>
      <trkpt lat="47.12875" lon="-1.57343">
        <ele>54</ele>
        <time>2021-04-15T11:21:34.000Z</time>
      </trkpt>
      <trkpt lat="47.12878" lon="-1.57326">
        <ele>54</ele>
        <time>2021-04-15T11:21:36.000Z</time>
      </trkpt>
      <trkpt lat="47.1288" lon="-1.57309">
        <ele>54</ele>
        <time>2021-04-15T11:21:38.000Z</time>
      </trkpt>
      <trkpt lat="47.12883" lon="-1.57292">
        <ele>54</ele>
        <time>2021-04-15T11:21:40.000Z</time>
      </trkpt>
      <trkpt lat="47.12885" lon="-1.57276">
        <ele>54</ele>
        <time>2021-04-15T11:21:42.000Z</time>
      </trkpt>
      <trkpt lat="47.12887" lon="-1.5726">
        <ele>54</ele>
        <time>2021-04-15T11:21:44.000Z</time>
      </trkpt>
      <trkpt lat="47.1289" lon="-1.57243">
        <ele>54</ele>
        <time>2021-04-15T11:21:46.000Z</time>
      </trkpt>
      <trkpt lat="47.12892" lon="-1.57226">
        <ele>54</ele>
        <time>2021-04-15T11:21:48.000Z</time>
      </trkpt>
      <trkpt lat="47.12894" lon="-1.57209">
        <ele>53</ele>
        <time>2021-04-15T11:21:50.000Z</time>
      </trkpt>
      <trkpt lat="47.12896" lon="-1.57192">
        <ele>54</ele>
        <time>2021-04-15T11:21:52.000Z</time>
      </trkpt>
      <trkpt lat="47.12898" lon="-1.57176">
        <ele>54</ele>
        <time>2021-04-15T11:21:54.000Z</time>
      </trkpt>
      <trkpt lat="47.12901" lon="-1.57159">
        <ele>54</ele>
        <time>2021-04-15T11:21:56.000Z</time>
      </trkpt>
      <trkpt lat="47.12902" lon="-1.57142">
        <ele>54</ele>
        <time>2021-04-15T11:21:58.000Z</time>
      </trkpt>
      <trkpt lat="47.12903" lon="-1.57125">
        <ele>54</ele>
        <time>2021-04-15T11:22:00.000Z</time>
      </trkpt>
      <trkpt lat="47.12903" lon="-1.57108">
        <ele>54</ele>
        <time>2021-04-15T11:22:02.000Z</time>
      </trkpt>
      <trkpt lat="47.12901" lon="-1.57091">
        <ele>53</ele>
        <time>2021-04-15T11:22:04.000Z</time>
      </trkpt>
      <trkpt lat="47.12899" lon="-1.57075">
        <ele>54</ele>
        <time>2021-04-15T11:22:06.000Z</time>
      </trkpt>
      <trkpt lat="47.12897" lon="-1.57059">
        <ele>54</ele>
        <time>2021-04-15T11:22:08.000Z</time>
      </trkpt>
      <trkpt lat="47.12894" lon="-1.57043">
        <ele>55</ele>
        <time>2021-04-15T11:22:10.000Z</time>
      </trkpt>
      <trkpt lat="47.12891" lon="-1.57027">
        <ele>56</ele>
        <time>2021-04-15T11:22:12.000Z</time>
      </trkpt>
      <trkpt lat="47.12889" lon="-1.57011">
        <ele>56</ele>
        <time>2021-04-15T11:22:14.000Z</time>
      </trkpt>
      <trkpt lat="47.12887" lon="-1.56995">
        <ele>57</ele>
        <time>2021-04-15T11:22:16.000Z</time>
      </trkpt>
      <trkpt lat="47.12884" lon="-1.5698">
        <ele>57</ele>
        <time>2021-04-15T11:22:18.000Z</time>
      </trkpt>
      <trkpt lat="47.12882" lon="-1.56963">
        <ele>57</ele>
        <time>2021-04-15T11:22:20.000Z</time>
      </trkpt>
      <trkpt lat="47.12879" lon="-1.56948">
        <ele>57</ele>
        <time>2021-04-15T11:22:22.000Z</time>
      </trkpt>
      <trkpt lat="47.12877" lon="-1.56932">
        <ele>58</ele>
        <time>2021-04-15T11:22:24.000Z</time>
      </trkpt>
      <trkpt lat="47.12875" lon="-1.56916">
        <ele>58</ele>
        <time>2021-04-15T11:22:26.000Z</time>
      </trkpt>
      <trkpt lat="47.12872" lon="-1.569">
        <ele>58</ele>
        <time>2021-04-15T11:22:28.000Z</time>
      </trkpt>
      <trkpt lat="47.12871" lon="-1.56884">
        <ele>59</ele>
        <time>2021-04-15T11:22:30.000Z</time>
      </trkpt>
      <trkpt lat="47.12869" lon="-1.56868">
        <ele>59</ele>
        <time>2021-04-15T11:22:32.000Z</time>
      </trkpt>
      <trkpt lat="47.12868" lon="-1.56851">
        <ele>60</ele>
        <time>2021-04-15T11:22:34.000Z</time>
      </trkpt>
      <trkpt lat="47.12868" lon="-1.56835">
        <ele>60</ele>
        <time>2021-04-15T11:22:36.000Z</time>
      </trkpt>
      <trkpt lat="47.12869" lon="-1.56818">
        <ele>60</ele>
        <time>2021-04-15T11:22:38.000Z</time>
      </trkpt>
      <trkpt lat="47.1287" lon="-1.56801">
        <ele>60</ele>
        <time>2021-04-15T11:22:40.000Z</time>
      </trkpt>
      <trkpt lat="47.12871" lon="-1.56786">
        <ele>60</ele>
        <time>2021-04-15T11:22:42.000Z</time>
      </trkpt>
      <trkpt lat="47.12873" lon="-1.5677">
        <ele>60</ele>
        <time>2021-04-15T11:22:44.000Z</time>
      </trkpt>
      <trkpt lat="47.12876" lon="-1.56755">
        <ele>60</ele>
        <time>2021-04-15T11:22:46.000Z</time>
      </trkpt>
      <trkpt lat="47.12878" lon="-1.5674">
        <ele>60</ele>
        <time>2021-04-15T11:22:48.000Z</time>
      </trkpt>
      <trkpt lat="47.12881" lon="-1.56726">
        <ele>60</ele>
        <time>2021-04-15T11:22:50.000Z</time>
      </trkpt>
      <trkpt lat="47.12884" lon="-1.56712">
        <ele>60</ele>
        <time>2021-04-15T11:22:52.000Z</time>
      </trkpt>
      <trkpt lat="47.12887" lon="-1.56698">
        <ele>60</ele>
        <time>2021-04-15T11:22:54.000Z</time>
      </trkpt>
      <trkpt lat="47.12885" lon="-1.56683">
        <ele>61</ele>
        <time>2021-04-15T11:22:56.000Z</time>
      </trkpt>
      <trkpt lat="47.12887" lon="-1.56669">
        <ele>62</ele>
        <time>2021-04-15T11:22:58.000Z</time>
      </trkpt>
      <trkpt lat="47.12892" lon="-1.56655">
        <ele>62</ele>
        <time>2021-04-15T11:23:00.000Z</time>
      </trkpt>
      <trkpt lat="47.12899" lon="-1.56642">
        <ele>63</ele>
        <time>2021-04-15T11:23:02.000Z</time>
      </trkpt>
      <trkpt lat="47.12905" lon="-1.56629">
        <ele>63</ele>
        <time>2021-04-15T11:23:04.000Z</time>
      </trkpt>
      <trkpt lat="47.1291" lon="-1.56615">
        <ele>63</ele>
        <time>2021-04-15T11:23:06.000Z</time>
      </trkpt>
      <trkpt lat="47.12914" lon="-1.56601">
        <ele>63</ele>
        <time>2021-04-15T11:23:08.000Z</time>
      </trkpt>
      <trkpt lat="47.12917" lon="-1.56585">
        <ele>63</ele>
        <time>2021-04-15T11:23:10.000Z</time>
      </trkpt>
      <trkpt lat="47.12919" lon="-1.56568">
        <ele>62</ele>
        <time>2021-04-15T11:23:12.000Z</time>
      </trkpt>
      <trkpt lat="47.1292" lon="-1.56552">
        <ele>61</ele>
        <time>2021-04-15T11:23:14.000Z</time>
      </trkpt>
      <trkpt lat="47.1292" lon="-1.56536">
        <ele>61</ele>
        <time>2021-04-15T11:23:16.000Z</time>
      </trkpt>
      <trkpt lat="47.1292" lon="-1.5652">
        <ele>61</ele>
        <time>2021-04-15T11:23:18.000Z</time>
      </trkpt>
      <trkpt lat="47.1292" lon="-1.56504">
        <ele>61</ele>
        <time>2021-04-15T11:23:20.000Z</time>
      </trkpt>
      <trkpt lat="47.1292" lon="-1.56488">
        <ele>60</ele>
        <time>2021-04-15T11:23:22.000Z</time>
      </trkpt>
      <trkpt lat="47.12921" lon="-1.56472">
        <ele>61</ele>
        <time>2021-04-15T11:23:24.000Z</time>
      </trkpt>
      <trkpt lat="47.12921" lon="-1.56456">
        <ele>60</ele>
        <time>2021-04-15T11:23:26.000Z</time>
      </trkpt>
      <trkpt lat="47.12921" lon="-1.56441">
        <ele>61</ele>
        <time>2021-04-15T11:23:28.000Z</time>
      </trkpt>
      <trkpt lat="47.12921" lon="-1.56425">
        <ele>61</ele>
        <time>2021-04-15T11:23:30.000Z</time>
      </trkpt>
      <trkpt lat="47.12921" lon="-1.56409">
        <ele>61</ele>
        <time>2021-04-15T11:23:32.000Z</time>
      </trkpt>
      <trkpt lat="47.12921" lon="-1.56393">
        <ele>61</ele>
        <time>2021-04-15T11:23:34.000Z</time>
      </trkpt>
      <trkpt lat="47.12921" lon="-1.56377">
        <ele>62</ele>
        <time>2021-04-15T11:23:36.000Z</time>
      </trkpt>
      <trkpt lat="47.12921" lon="-1.56361">
        <ele>62</ele>
        <time>2021-04-15T11:23:38.000Z</time>
      </trkpt>
      <trkpt lat="47.12921" lon="-1.56344">
        <ele>62</ele>
        <time>2021-04-15T11:23:40.000Z</time>
      </trkpt>
      <trkpt lat="47.12921" lon="-1.56328">
        <ele>61</ele>
        <time>2021-04-15T11:23:42.000Z</time>
      </trkpt>
      <trkpt lat="47.1292" lon="-1.56311">
        <ele>61</ele>
        <time>2021-04-15T11:23:44.000Z</time>
      </trkpt>
      <trkpt lat="47.12919" lon="-1.56294">
        <ele>61</ele>
        <time>2021-04-15T11:23:46.000Z</time>
      </trkpt>
      <trkpt lat="47.12918" lon="-1.56278">
        <ele>61</ele>
        <time>2021-04-15T11:23:48.000Z</time>
      </trkpt>
      <trkpt lat="47.12915" lon="-1.56262">
        <ele>60</ele>
        <time>2021-04-15T11:23:50.000Z</time>
      </trkpt>
      <trkpt lat="47.12913" lon="-1.56246">
        <ele>60</ele>
        <time>2021-04-15T11:23:52.000Z</time>
      </trkpt>
      <trkpt lat="47.1291" lon="-1.56231">
        <ele>60</ele>
        <time>2021-04-15T11:23:54.000Z</time>
      </trkpt>
      <trkpt lat="47.12906" lon="-1.56216">
        <ele>60</ele>
        <time>2021-04-15T11:23:56.000Z</time>
      </trkpt>
      <trkpt lat="47.12902" lon="-1.56202">
        <ele>60</ele>
        <time>2021-04-15T11:23:58.000Z</time>
      </trkpt>
      <trkpt lat="47.12897" lon="-1.56189">
        <ele>60</ele>
        <time>2021-04-15T11:24:00.000Z</time>
      </trkpt>
      <trkpt lat="47.12892" lon="-1.56174">
        <ele>60</ele>
        <time>2021-04-15T11:24:02.000Z</time>
      </trkpt>
      <trkpt lat="47.12888" lon="-1.56158">
        <ele>60</ele>
        <time>2021-04-15T11:24:04.000Z</time>
      </trkpt>
      <trkpt lat="47.12885" lon="-1.56142">
        <ele>60</ele>
        <time>2021-04-15T11:24:06.000Z</time>
      </trkpt>
      <trkpt lat="47.12883" lon="-1.56126">
        <ele>61</ele>
        <time>2021-04-15T11:24:08.000Z</time>
      </trkpt>
      <trkpt lat="47.1288" lon="-1.5611">
        <ele>61</ele>
        <time>2021-04-15T11:24:10.000Z</time>
      </trkpt>
      <trkpt lat="47.12877" lon="-1.56094">
        <ele>60</ele>
        <time>2021-04-15T11:24:12.000Z</time>
      </trkpt>
      <trkpt lat="47.12875" lon="-1.56077">
        <ele>60</ele>
        <time>2021-04-15T11:24:14.000Z</time>
      </trkpt>
      <trkpt lat="47.12872" lon="-1.56061">
        <ele>60</ele>
        <time>2021-04-15T11:24:16.000Z</time>
      </trkpt>
      <trkpt lat="47.12869" lon="-1.56044">
        <ele>60</ele>
        <time>2021-04-15T11:24:18.000Z</time>
      </trkpt>
      <trkpt lat="47.12867" lon="-1.56029">
        <ele>60</ele>
        <time>2021-04-15T11:24:20.000Z</time>
      </trkpt>
      <trkpt lat="47.12864" lon="-1.56013">
        <ele>60</ele>
        <time>2021-04-15T11:24:22.000Z</time>
      </trkpt>
      <trkpt lat="47.12861" lon="-1.55998">
        <ele>61</ele>
        <time>2021-04-15T11:24:24.000Z</time>
      </trkpt>
      <trkpt lat="47.12859" lon="-1.55982">
        <ele>60</ele>
        <time>2021-04-15T11:24:26.000Z</time>
      </trkpt>
      <trkpt lat="47.12856" lon="-1.55965">
        <ele>59</ele>
        <time>2021-04-15T11:24:28.000Z</time>
      </trkpt>
      <trkpt lat="47.12854" lon="-1.55948">
        <ele>59</ele>
        <time>2021-04-15T11:24:30.000Z</time>
      </trkpt>
      <trkpt lat="47.12852" lon="-1.5593">
        <ele>59</ele>
        <time>2021-04-15T11:24:32.000Z</time>
      </trkpt>
      <trkpt lat="47.12851" lon="-1.55914">
        <ele>58</ele>
        <time>2021-04-15T11:24:34.000Z</time>
      </trkpt>
      <trkpt lat="47.12849" lon="-1.55897">
        <ele>58</ele>
        <time>2021-04-15T11:24:36.000Z</time>
      </trkpt>
      <trkpt lat="47.12849" lon="-1.5588">
        <ele>57</ele>
        <time>2021-04-15T11:24:38.000Z</time>
      </trkpt>
      <trkpt lat="47.12848" lon="-1.55864">
        <ele>57</ele>
        <time>2021-04-15T11:24:40.000Z</time>
      </trkpt>
      <trkpt lat="47.12848" lon="-1.55848">
        <ele>57</ele>
        <time>2021-04-15T11:24:42.000Z</time>
      </trkpt>
      <trkpt lat="47.12847" lon="-1.55831">
        <ele>56</ele>
        <time>2021-04-15T11:24:44.000Z</time>
      </trkpt>
      <trkpt lat="47.12846" lon="-1.55814">
        <ele>56</ele>
        <time>2021-04-15T11:24:46.000Z</time>
      </trkpt>
      <trkpt lat="47.12844" lon="-1.55798">
        <ele>55</ele>
        <time>2021-04-15T11:24:48.000Z</time>
      </trkpt>
      <trkpt lat="47.12841" lon="-1.55782">
        <ele>55</ele>
        <time>2021-04-15T11:24:50.000Z</time>
      </trkpt>
      <trkpt lat="47.12839" lon="-1.55765">
        <ele>55</ele>
        <time>2021-04-15T11:24:52.000Z</time>
      </trkpt>
      <trkpt lat="47.12836" lon="-1.55748">
        <ele>54</ele>
        <time>2021-04-15T11:24:54.000Z</time>
      </trkpt>
      <trkpt lat="47.12833" lon="-1.55731">
        <ele>54</ele>
        <time>2021-04-15T11:24:56.000Z</time>
      </trkpt>
      <trkpt lat="47.1283" lon="-1.55714">
        <ele>54</ele>
        <time>2021-04-15T11:24:58.000Z</time>
      </trkpt>
      <trkpt lat="47.12825" lon="-1.55699">
        <ele>54</ele>
        <time>2021-04-15T11:25:00.000Z</time>
      </trkpt>
      <trkpt lat="47.12819" lon="-1.55684">
        <ele>54</ele>
        <time>2021-04-15T11:25:02.000Z</time>
      </trkpt>
      <trkpt lat="47.12814" lon="-1.5567">
        <ele>53</ele>
        <time>2021-04-15T11:25:04.000Z</time>
      </trkpt>
      <trkpt lat="47.12808" lon="-1.55655">
        <ele>53</ele>
        <time>2021-04-15T11:25:06.000Z</time>
      </trkpt>
      <trkpt lat="47.12802" lon="-1.5564">
        <ele>53</ele>
        <time>2021-04-15T11:25:08.000Z</time>
      </trkpt>
      <trkpt lat="47.12796" lon="-1.55625">
        <ele>53</ele>
        <time>2021-04-15T11:25:10.000Z</time>
      </trkpt>
      <trkpt lat="47.12791" lon="-1.5561">
        <ele>53</ele>
        <time>2021-04-15T11:25:12.000Z</time>
      </trkpt>
      <trkpt lat="47.12785" lon="-1.55595">
        <ele>53</ele>
        <time>2021-04-15T11:25:14.000Z</time>
      </trkpt>
      <trkpt lat="47.12778" lon="-1.55581">
        <ele>54</ele>
        <time>2021-04-15T11:25:16.000Z</time>
      </trkpt>
      <trkpt lat="47.12773" lon="-1.55567">
        <ele>54</ele>
        <time>2021-04-15T11:25:18.000Z</time>
      </trkpt>
      <trkpt lat="47.12768" lon="-1.55553">
        <ele>55</ele>
        <time>2021-04-15T11:25:20.000Z</time>
      </trkpt>
      <trkpt lat="47.12763" lon="-1.5554">
        <ele>55</ele>
        <time>2021-04-15T11:25:22.000Z</time>
      </trkpt>
      <trkpt lat="47.12759" lon="-1.55527">
        <ele>55</ele>
        <time>2021-04-15T11:25:24.000Z</time>
      </trkpt>
      <trkpt lat="47.12754" lon="-1.55515">
        <ele>55</ele>
        <time>2021-04-15T11:25:26.000Z</time>
      </trkpt>
      <trkpt lat="47.12749" lon="-1.55502">
        <ele>55</ele>
        <time>2021-04-15T11:25:28.000Z</time>
      </trkpt>
      <trkpt lat="47.12744" lon="-1.55488">
        <ele>55</ele>
        <time>2021-04-15T11:25:30.000Z</time>
      </trkpt>
      <trkpt lat="47.1274" lon="-1.55475">
        <ele>55</ele>
        <time>2021-04-15T11:25:32.000Z</time>
      </trkpt>
      <trkpt lat="47.12735" lon="-1.55462">
        <ele>56</ele>
        <time>2021-04-15T11:25:34.000Z</time>
      </trkpt>
      <trkpt lat="47.12732" lon="-1.55448">
        <ele>56</ele>
        <time>2021-04-15T11:25:36.000Z</time>
      </trkpt>
      <trkpt lat="47.12729" lon="-1.55434">
        <ele>56</ele>
        <time>2021-04-15T11:25:38.000Z</time>
      </trkpt>
      <trkpt lat="47.12728" lon="-1.5542">
        <ele>56</ele>
        <time>2021-04-15T11:25:40.000Z</time>
      </trkpt>
      <trkpt lat="47.12726" lon="-1.55405">
        <ele>56</ele>
        <time>2021-04-15T11:25:42.000Z</time>
      </trkpt>
      <trkpt lat="47.12725" lon="-1.55391">
        <ele>56</ele>
        <time>2021-04-15T11:25:44.000Z</time>
      </trkpt>
      <trkpt lat="47.12725" lon="-1.55377">
        <ele>56</ele>
        <time>2021-04-15T11:25:46.000Z</time>
      </trkpt>
      <trkpt lat="47.12724" lon="-1.55363">
        <ele>56</ele>
        <time>2021-04-15T11:25:48.000Z</time>
      </trkpt>
      <trkpt lat="47.12725" lon="-1.55348">
        <ele>55</ele>
        <time>2021-04-15T11:25:50.000Z</time>
      </trkpt>
      <trkpt lat="47.12727" lon="-1.55334">
        <ele>56</ele>
        <time>2021-04-15T11:25:52.000Z</time>
      </trkpt>
      <trkpt lat="47.12729" lon="-1.5532">
        <ele>56</ele>
        <time>2021-04-15T11:25:54.000Z</time>
      </trkpt>
      <trkpt lat="47.12731" lon="-1.55307">
        <ele>56</ele>
        <time>2021-04-15T11:25:56.000Z</time>
      </trkpt>
      <trkpt lat="47.12733" lon="-1.55289">
        <ele>58</ele>
        <time>2021-04-15T11:25:59.000Z</time>
      </trkpt>
      <trkpt lat="47.12735" lon="-1.55271">
        <ele>59</ele>
        <time>2021-04-15T11:26:02.000Z</time>
      </trkpt>
      <trkpt lat="47.12738" lon="-1.55258">
        <ele>58</ele>
        <time>2021-04-15T11:26:04.000Z</time>
      </trkpt>
      <trkpt lat="47.12739" lon="-1.55245">
        <ele>58</ele>
        <time>2021-04-15T11:26:06.000Z</time>
      </trkpt>
      <trkpt lat="47.12741" lon="-1.55232">
        <ele>57</ele>
        <time>2021-04-15T11:26:08.000Z</time>
      </trkpt>
      <trkpt lat="47.12743" lon="-1.55219">
        <ele>57</ele>
        <time>2021-04-15T11:26:10.000Z</time>
      </trkpt>
      <trkpt lat="47.12745" lon="-1.552">
        <ele>57</ele>
        <time>2021-04-15T11:26:13.000Z</time>
      </trkpt>
      <trkpt lat="47.12748" lon="-1.55182">
        <ele>57</ele>
        <time>2021-04-15T11:26:16.000Z</time>
      </trkpt>
      <trkpt lat="47.1275" lon="-1.55163">
        <ele>57</ele>
        <time>2021-04-15T11:26:19.000Z</time>
      </trkpt>
      <trkpt lat="47.12752" lon="-1.55145">
        <ele>58</ele>
        <time>2021-04-15T11:26:22.000Z</time>
      </trkpt>
      <trkpt lat="47.12753" lon="-1.55132">
        <ele>58</ele>
        <time>2021-04-15T11:26:24.000Z</time>
      </trkpt>
      <trkpt lat="47.12756" lon="-1.55113">
        <ele>58</ele>
        <time>2021-04-15T11:26:27.000Z</time>
      </trkpt>
      <trkpt lat="47.12758" lon="-1.55094">
        <ele>58</ele>
        <time>2021-04-15T11:26:30.000Z</time>
      </trkpt>
      <trkpt lat="47.12761" lon="-1.55076">
        <ele>58</ele>
        <time>2021-04-15T11:26:33.000Z</time>
      </trkpt>
      <trkpt lat="47.12762" lon="-1.55063">
        <ele>58</ele>
        <time>2021-04-15T11:26:35.000Z</time>
      </trkpt>
      <trkpt lat="47.12764" lon="-1.5505">
        <ele>58</ele>
        <time>2021-04-15T11:26:37.000Z</time>
      </trkpt>
      <trkpt lat="47.12767" lon="-1.55031">
        <ele>58</ele>
        <time>2021-04-15T11:26:40.000Z</time>
      </trkpt>
      <trkpt lat="47.12769" lon="-1.55011">
        <ele>58</ele>
        <time>2021-04-15T11:26:43.000Z</time>
      </trkpt>
      <trkpt lat="47.12773" lon="-1.54993">
        <ele>59</ele>
        <time>2021-04-15T11:26:46.000Z</time>
      </trkpt>
      <trkpt lat="47.12775" lon="-1.5498">
        <ele>59</ele>
        <time>2021-04-15T11:26:48.000Z</time>
      </trkpt>
      <trkpt lat="47.12779" lon="-1.54967">
        <ele>59</ele>
        <time>2021-04-15T11:26:50.000Z</time>
      </trkpt>
      <trkpt lat="47.12782" lon="-1.54955">
        <ele>59</ele>
        <time>2021-04-15T11:26:52.000Z</time>
      </trkpt>
      <trkpt lat="47.12788" lon="-1.54938">
        <ele>59</ele>
        <time>2021-04-15T11:26:55.000Z</time>
      </trkpt>
      <trkpt lat="47.12792" lon="-1.54926">
        <ele>59</ele>
        <time>2021-04-15T11:26:57.000Z</time>
      </trkpt>
      <trkpt lat="47.12799" lon="-1.54908">
        <ele>59</ele>
        <time>2021-04-15T11:27:00.000Z</time>
      </trkpt>
      <trkpt lat="47.12803" lon="-1.54896">
        <ele>59</ele>
        <time>2021-04-15T11:27:02.000Z</time>
      </trkpt>
      <trkpt lat="47.12808" lon="-1.54884">
        <ele>59</ele>
        <time>2021-04-15T11:27:04.000Z</time>
      </trkpt>
      <trkpt lat="47.12812" lon="-1.54872">
        <ele>59</ele>
        <time>2021-04-15T11:27:06.000Z</time>
      </trkpt>
      <trkpt lat="47.12817" lon="-1.5486">
        <ele>60</ele>
        <time>2021-04-15T11:27:08.000Z</time>
      </trkpt>
      <trkpt lat="47.12821" lon="-1.54849">
        <ele>60</ele>
        <time>2021-04-15T11:27:10.000Z</time>
      </trkpt>
      <trkpt lat="47.12825" lon="-1.54837">
        <ele>60</ele>
        <time>2021-04-15T11:27:12.000Z</time>
      </trkpt>
      <trkpt lat="47.1283" lon="-1.54825">
        <ele>60</ele>
        <time>2021-04-15T11:27:14.000Z</time>
      </trkpt>
      <trkpt lat="47.12834" lon="-1.54812">
        <ele>60</ele>
        <time>2021-04-15T11:27:16.000Z</time>
      </trkpt>
      <trkpt lat="47.12839" lon="-1.548">
        <ele>60</ele>
        <time>2021-04-15T11:27:18.000Z</time>
      </trkpt>
      <trkpt lat="47.12843" lon="-1.54789">
        <ele>60</ele>
        <time>2021-04-15T11:27:20.000Z</time>
      </trkpt>
      <trkpt lat="47.12848" lon="-1.54777">
        <ele>60</ele>
        <time>2021-04-15T11:27:22.000Z</time>
      </trkpt>
      <trkpt lat="47.12855" lon="-1.54762">
        <ele>61</ele>
        <time>2021-04-15T11:27:25.000Z</time>
      </trkpt>
      <trkpt lat="47.12864" lon="-1.54747">
        <ele>61</ele>
        <time>2021-04-15T11:27:28.000Z</time>
      </trkpt>
      <trkpt lat="47.12869" lon="-1.54737">
        <ele>60</ele>
        <time>2021-04-15T11:27:30.000Z</time>
      </trkpt>
      <trkpt lat="47.12876" lon="-1.54727">
        <ele>61</ele>
        <time>2021-04-15T11:27:32.000Z</time>
      </trkpt>
      <trkpt lat="47.12881" lon="-1.54715">
        <ele>61</ele>
        <time>2021-04-15T11:27:34.000Z</time>
      </trkpt>
      <trkpt lat="47.12884" lon="-1.54701">
        <ele>61</ele>
        <time>2021-04-15T11:27:36.000Z</time>
      </trkpt>
      <trkpt lat="47.12885" lon="-1.54682">
        <ele>61</ele>
        <time>2021-04-15T11:27:39.000Z</time>
      </trkpt>
      <trkpt lat="47.12886" lon="-1.54663">
        <ele>62</ele>
        <time>2021-04-15T11:27:42.000Z</time>
      </trkpt>
      <trkpt lat="47.12887" lon="-1.54643">
        <ele>62</ele>
        <time>2021-04-15T11:27:45.000Z</time>
      </trkpt>
      <trkpt lat="47.12888" lon="-1.5463">
        <ele>62</ele>
        <time>2021-04-15T11:27:47.000Z</time>
      </trkpt>
      <trkpt lat="47.12889" lon="-1.5461">
        <ele>62</ele>
        <time>2021-04-15T11:27:50.000Z</time>
      </trkpt>
      <trkpt lat="47.1289" lon="-1.54597">
        <ele>62</ele>
        <time>2021-04-15T11:27:52.000Z</time>
      </trkpt>
      <trkpt lat="47.12892" lon="-1.54578">
        <ele>63</ele>
        <time>2021-04-15T11:27:55.000Z</time>
      </trkpt>
      <trkpt lat="47.12894" lon="-1.54565">
        <ele>63</ele>
        <time>2021-04-15T11:27:57.000Z</time>
      </trkpt>
      <trkpt lat="47.12898" lon="-1.54552">
        <ele>63</ele>
        <time>2021-04-15T11:27:59.000Z</time>
      </trkpt>
      <trkpt lat="47.12903" lon="-1.54541">
        <ele>63</ele>
        <time>2021-04-15T11:28:01.000Z</time>
      </trkpt>
      <trkpt lat="47.12911" lon="-1.54526">
        <ele>64</ele>
        <time>2021-04-15T11:28:04.000Z</time>
      </trkpt>
      <trkpt lat="47.1292" lon="-1.54512">
        <ele>64</ele>
        <time>2021-04-15T11:28:07.000Z</time>
      </trkpt>
      <trkpt lat="47.12931" lon="-1.545">
        <ele>65</ele>
        <time>2021-04-15T11:28:10.000Z</time>
      </trkpt>
      <trkpt lat="47.12939" lon="-1.54494">
        <ele>65</ele>
        <time>2021-04-15T11:28:12.000Z</time>
      </trkpt>
      <trkpt lat="47.12951" lon="-1.54486">
        <ele>65</ele>
        <time>2021-04-15T11:28:15.000Z</time>
      </trkpt>
      <trkpt lat="47.12964" lon="-1.54481">
        <ele>66</ele>
        <time>2021-04-15T11:28:18.000Z</time>
      </trkpt>
      <trkpt lat="47.12977" lon="-1.54477">
        <ele>66</ele>
        <time>2021-04-15T11:28:21.000Z</time>
      </trkpt>
      <trkpt lat="47.12986" lon="-1.54475">
        <ele>67</ele>
        <time>2021-04-15T11:28:23.000Z</time>
      </trkpt>
      <trkpt lat="47.12995" lon="-1.54472">
        <ele>67</ele>
        <time>2021-04-15T11:28:25.000Z</time>
      </trkpt>
      <trkpt lat="47.13004" lon="-1.5447">
        <ele>67</ele>
        <time>2021-04-15T11:28:27.000Z</time>
      </trkpt>
      <trkpt lat="47.13014" lon="-1.54467">
        <ele>68</ele>
        <time>2021-04-15T11:28:29.000Z</time>
      </trkpt>
      <trkpt lat="47.13023" lon="-1.54466">
        <ele>68</ele>
        <time>2021-04-15T11:28:31.000Z</time>
      </trkpt>
      <trkpt lat="47.13033" lon="-1.54464">
        <ele>69</ele>
        <time>2021-04-15T11:28:33.000Z</time>
      </trkpt>
      <trkpt lat="47.13042" lon="-1.54461">
        <ele>68</ele>
        <time>2021-04-15T11:28:35.000Z</time>
      </trkpt>
      <trkpt lat="47.13051" lon="-1.54459">
        <ele>68</ele>
        <time>2021-04-15T11:28:37.000Z</time>
      </trkpt>
      <trkpt lat="47.1306" lon="-1.54456">
        <ele>68</ele>
        <time>2021-04-15T11:28:39.000Z</time>
      </trkpt>
      <trkpt lat="47.13069" lon="-1.54452">
        <ele>68</ele>
        <time>2021-04-15T11:28:41.000Z</time>
      </trkpt>
      <trkpt lat="47.13081" lon="-1.54446">
        <ele>68</ele>
        <time>2021-04-15T11:28:44.000Z</time>
      </trkpt>
      <trkpt lat="47.13093" lon="-1.54438">
        <ele>68</ele>
        <time>2021-04-15T11:28:47.000Z</time>
      </trkpt>
      <trkpt lat="47.13102" lon="-1.54431">
        <ele>68</ele>
        <time>2021-04-15T11:28:49.000Z</time>
      </trkpt>
      <trkpt lat="47.13111" lon="-1.54423">
        <ele>68</ele>
        <time>2021-04-15T11:28:51.000Z</time>
      </trkpt>
      <trkpt lat="47.13119" lon="-1.54417">
        <ele>68</ele>
        <time>2021-04-15T11:28:53.000Z</time>
      </trkpt>
      <trkpt lat="47.13127" lon="-1.5441">
        <ele>69</ele>
        <time>2021-04-15T11:28:55.000Z</time>
      </trkpt>
      <trkpt lat="47.13135" lon="-1.54403">
        <ele>69</ele>
        <time>2021-04-15T11:28:57.000Z</time>
      </trkpt>
      <trkpt lat="47.13143" lon="-1.54397">
        <ele>69</ele>
        <time>2021-04-15T11:28:59.000Z</time>
      </trkpt>
      <trkpt lat="47.13151" lon="-1.5439">
        <ele>69</ele>
        <time>2021-04-15T11:29:01.000Z</time>
      </trkpt>
      <trkpt lat="47.13159" lon="-1.54383">
        <ele>69</ele>
        <time>2021-04-15T11:29:03.000Z</time>
      </trkpt>
      <trkpt lat="47.13171" lon="-1.54373">
        <ele>69</ele>
        <time>2021-04-15T11:29:06.000Z</time>
      </trkpt>
      <trkpt lat="47.13178" lon="-1.54367">
        <ele>69</ele>
        <time>2021-04-15T11:29:08.000Z</time>
      </trkpt>
      <trkpt lat="47.1319" lon="-1.54357">
        <ele>69</ele>
        <time>2021-04-15T11:29:11.000Z</time>
      </trkpt>
      <trkpt lat="47.13198" lon="-1.5435">
        <ele>69</ele>
        <time>2021-04-15T11:29:13.000Z</time>
      </trkpt>
      <trkpt lat="47.13206" lon="-1.54344">
        <ele>69</ele>
        <time>2021-04-15T11:29:15.000Z</time>
      </trkpt>
      <trkpt lat="47.13214" lon="-1.54337">
        <ele>69</ele>
        <time>2021-04-15T11:29:17.000Z</time>
      </trkpt>
      <trkpt lat="47.13222" lon="-1.5433">
        <ele>69</ele>
        <time>2021-04-15T11:29:19.000Z</time>
      </trkpt>
      <trkpt lat="47.1323" lon="-1.54324">
        <ele>70</ele>
        <time>2021-04-15T11:29:21.000Z</time>
      </trkpt>
      <trkpt lat="47.13239" lon="-1.54318">
        <ele>70</ele>
        <time>2021-04-15T11:29:23.000Z</time>
      </trkpt>
      <trkpt lat="47.13247" lon="-1.54312">
        <ele>70</ele>
        <time>2021-04-15T11:29:25.000Z</time>
      </trkpt>
      <trkpt lat="47.13255" lon="-1.54307">
        <ele>70</ele>
        <time>2021-04-15T11:29:27.000Z</time>
      </trkpt>
      <trkpt lat="47.13268" lon="-1.54301">
        <ele>70</ele>
        <time>2021-04-15T11:29:30.000Z</time>
      </trkpt>
      <trkpt lat="47.13281" lon="-1.54295">
        <ele>70</ele>
        <time>2021-04-15T11:29:33.000Z</time>
      </trkpt>
      <trkpt lat="47.13289" lon="-1.54289">
        <ele>71</ele>
        <time>2021-04-15T11:29:35.000Z</time>
      </trkpt>
      <trkpt lat="47.13297" lon="-1.54283">
        <ele>71</ele>
        <time>2021-04-15T11:29:37.000Z</time>
      </trkpt>
      <trkpt lat="47.13309" lon="-1.54274">
        <ele>71</ele>
        <time>2021-04-15T11:29:40.000Z</time>
      </trkpt>
      <trkpt lat="47.13321" lon="-1.54265">
        <ele>71</ele>
        <time>2021-04-15T11:29:43.000Z</time>
      </trkpt>
      <trkpt lat="47.13329" lon="-1.54259">
        <ele>71</ele>
        <time>2021-04-15T11:29:45.000Z</time>
      </trkpt>
      <trkpt lat="47.13337" lon="-1.54253">
        <ele>71</ele>
        <time>2021-04-15T11:29:47.000Z</time>
      </trkpt>
      <trkpt lat="47.13346" lon="-1.54247">
        <ele>71</ele>
        <time>2021-04-15T11:29:49.000Z</time>
      </trkpt>
      <trkpt lat="47.13354" lon="-1.54241">
        <ele>71</ele>
        <time>2021-04-15T11:29:51.000Z</time>
      </trkpt>
      <trkpt lat="47.13363" lon="-1.54235">
        <ele>71</ele>
        <time>2021-04-15T11:29:53.000Z</time>
      </trkpt>
      <trkpt lat="47.13371" lon="-1.54228">
        <ele>72</ele>
        <time>2021-04-15T11:29:55.000Z</time>
      </trkpt>
      <trkpt lat="47.1338" lon="-1.54222">
        <ele>72</ele>
        <time>2021-04-15T11:29:57.000Z</time>
      </trkpt>
      <trkpt lat="47.13389" lon="-1.54216">
        <ele>72</ele>
        <time>2021-04-15T11:29:59.000Z</time>
      </trkpt>
      <trkpt lat="47.13398" lon="-1.5421">
        <ele>72</ele>
        <time>2021-04-15T11:30:01.000Z</time>
      </trkpt>
      <trkpt lat="47.13407" lon="-1.54204">
        <ele>72</ele>
        <time>2021-04-15T11:30:03.000Z</time>
      </trkpt>
      <trkpt lat="47.13416" lon="-1.54199">
        <ele>72</ele>
        <time>2021-04-15T11:30:05.000Z</time>
      </trkpt>
      <trkpt lat="47.13426" lon="-1.54195">
        <ele>72</ele>
        <time>2021-04-15T11:30:07.000Z</time>
      </trkpt>
      <trkpt lat="47.13435" lon="-1.54192">
        <ele>72</ele>
        <time>2021-04-15T11:30:09.000Z</time>
      </trkpt>
      <trkpt lat="47.13443" lon="-1.54188">
        <ele>72</ele>
        <time>2021-04-15T11:30:11.000Z</time>
      </trkpt>
      <trkpt lat="47.13453" lon="-1.54185">
        <ele>72</ele>
        <time>2021-04-15T11:30:13.000Z</time>
      </trkpt>
      <trkpt lat="47.13462" lon="-1.54182">
        <ele>72</ele>
        <time>2021-04-15T11:30:15.000Z</time>
      </trkpt>
      <trkpt lat="47.13471" lon="-1.5418">
        <ele>72</ele>
        <time>2021-04-15T11:30:17.000Z</time>
      </trkpt>
      <trkpt lat="47.13481" lon="-1.54177">
        <ele>72</ele>
        <time>2021-04-15T11:30:19.000Z</time>
      </trkpt>
      <trkpt lat="47.1349" lon="-1.54175">
        <ele>72</ele>
        <time>2021-04-15T11:30:21.000Z</time>
      </trkpt>
      <trkpt lat="47.135" lon="-1.54172">
        <ele>72</ele>
        <time>2021-04-15T11:30:23.000Z</time>
      </trkpt>
      <trkpt lat="47.13509" lon="-1.5417">
        <ele>73</ele>
        <time>2021-04-15T11:30:25.000Z</time>
      </trkpt>
      <trkpt lat="47.13518" lon="-1.54168">
        <ele>73</ele>
        <time>2021-04-15T11:30:27.000Z</time>
      </trkpt>
      <trkpt lat="47.13527" lon="-1.54166">
        <ele>73</ele>
        <time>2021-04-15T11:30:29.000Z</time>
      </trkpt>
      <trkpt lat="47.1354" lon="-1.54164">
        <ele>73</ele>
        <time>2021-04-15T11:30:32.000Z</time>
      </trkpt>
      <trkpt lat="47.13552" lon="-1.54159">
        <ele>74</ele>
        <time>2021-04-15T11:30:35.000Z</time>
      </trkpt>
      <trkpt lat="47.13557" lon="-1.54147">
        <ele>73</ele>
        <time>2021-04-15T11:30:38.000Z</time>
      </trkpt>
      <trkpt lat="47.13549" lon="-1.54131">
        <ele>73</ele>
        <time>2021-04-15T11:30:41.000Z</time>
      </trkpt>
      <trkpt lat="47.13541" lon="-1.54121">
        <ele>73</ele>
        <time>2021-04-15T11:30:43.000Z</time>
      </trkpt>
      <trkpt lat="47.13533" lon="-1.54111">
        <ele>73</ele>
        <time>2021-04-15T11:30:45.000Z</time>
      </trkpt>
      <trkpt lat="47.13526" lon="-1.54101">
        <ele>73</ele>
        <time>2021-04-15T11:30:47.000Z</time>
      </trkpt>
      <trkpt lat="47.13519" lon="-1.54091">
        <ele>73</ele>
        <time>2021-04-15T11:30:49.000Z</time>
      </trkpt>
      <trkpt lat="47.13512" lon="-1.5408">
        <ele>73</ele>
        <time>2021-04-15T11:30:51.000Z</time>
      </trkpt>
      <trkpt lat="47.13505" lon="-1.5407">
        <ele>73</ele>
        <time>2021-04-15T11:30:53.000Z</time>
      </trkpt>
      <trkpt lat="47.13498" lon="-1.54059">
        <ele>73</ele>
        <time>2021-04-15T11:30:55.000Z</time>
      </trkpt>
      <trkpt lat="47.13491" lon="-1.54049">
        <ele>73</ele>
        <time>2021-04-15T11:30:57.000Z</time>
      </trkpt>
      <trkpt lat="47.13484" lon="-1.54038">
        <ele>74</ele>
        <time>2021-04-15T11:30:59.000Z</time>
      </trkpt>
      <trkpt lat="47.13477" lon="-1.54026">
        <ele>74</ele>
        <time>2021-04-15T11:31:01.000Z</time>
      </trkpt>
      <trkpt lat="47.13471" lon="-1.54015">
        <ele>74</ele>
        <time>2021-04-15T11:31:03.000Z</time>
      </trkpt>
      <trkpt lat="47.13464" lon="-1.54003">
        <ele>74</ele>
        <time>2021-04-15T11:31:05.000Z</time>
      </trkpt>
      <trkpt lat="47.13458" lon="-1.5399">
        <ele>73</ele>
        <time>2021-04-15T11:31:07.000Z</time>
      </trkpt>
      <trkpt lat="47.13452" lon="-1.53978">
        <ele>74</ele>
        <time>2021-04-15T11:31:09.000Z</time>
      </trkpt>
      <trkpt lat="47.13445" lon="-1.53966">
        <ele>73</ele>
        <time>2021-04-15T11:31:11.000Z</time>
      </trkpt>
      <trkpt lat="47.13438" lon="-1.53953">
        <ele>73</ele>
        <time>2021-04-15T11:31:13.000Z</time>
      </trkpt>
      <trkpt lat="47.13432" lon="-1.53941">
        <ele>72</ele>
        <time>2021-04-15T11:31:15.000Z</time>
      </trkpt>
      <trkpt lat="47.13425" lon="-1.53928">
        <ele>72</ele>
        <time>2021-04-15T11:31:17.000Z</time>
      </trkpt>
      <trkpt lat="47.13417" lon="-1.53915">
        <ele>72</ele>
        <time>2021-04-15T11:31:19.000Z</time>
      </trkpt>
      <trkpt lat="47.1341" lon="-1.53902">
        <ele>71</ele>
        <time>2021-04-15T11:31:21.000Z</time>
      </trkpt>
      <trkpt lat="47.13404" lon="-1.53889">
        <ele>71</ele>
        <time>2021-04-15T11:31:23.000Z</time>
      </trkpt>
      <trkpt lat="47.13394" lon="-1.53884">
        <ele>71</ele>
        <time>2021-04-15T11:31:25.000Z</time>
      </trkpt>
      <trkpt lat="47.13384" lon="-1.5389">
        <ele>71</ele>
        <time>2021-04-15T11:31:27.000Z</time>
      </trkpt>
      <trkpt lat="47.13374" lon="-1.53899">
        <ele>71</ele>
        <time>2021-04-15T11:31:29.000Z</time>
      </trkpt>
      <trkpt lat="47.13364" lon="-1.53906">
        <ele>72</ele>
        <time>2021-04-15T11:31:31.000Z</time>
      </trkpt>
      <trkpt lat="47.13353" lon="-1.53914">
        <ele>72</ele>
        <time>2021-04-15T11:31:33.000Z</time>
      </trkpt>
      <trkpt lat="47.13343" lon="-1.53922">
        <ele>73</ele>
        <time>2021-04-15T11:31:35.000Z</time>
      </trkpt>
      <trkpt lat="47.13332" lon="-1.5393">
        <ele>73</ele>
        <time>2021-04-15T11:31:37.000Z</time>
      </trkpt>
      <trkpt lat="47.13321" lon="-1.53938">
        <ele>73</ele>
        <time>2021-04-15T11:31:39.000Z</time>
      </trkpt>
      <trkpt lat="47.13309" lon="-1.53944">
        <ele>73</ele>
        <time>2021-04-15T11:31:41.000Z</time>
      </trkpt>
      <trkpt lat="47.13296" lon="-1.53949">
        <ele>73</ele>
        <time>2021-04-15T11:31:43.000Z</time>
      </trkpt>
      <trkpt lat="47.13284" lon="-1.53954">
        <ele>73</ele>
        <time>2021-04-15T11:31:45.000Z</time>
      </trkpt>
      <trkpt lat="47.13272" lon="-1.53957">
        <ele>73</ele>
        <time>2021-04-15T11:31:47.000Z</time>
      </trkpt>
      <trkpt lat="47.1326" lon="-1.53958">
        <ele>74</ele>
        <time>2021-04-15T11:31:49.000Z</time>
      </trkpt>
      <trkpt lat="47.13247" lon="-1.53958">
        <ele>74</ele>
        <time>2021-04-15T11:31:51.000Z</time>
      </trkpt>
      <trkpt lat="47.13235" lon="-1.53957">
        <ele>74</ele>
        <time>2021-04-15T11:31:53.000Z</time>
      </trkpt>
      <trkpt lat="47.13223" lon="-1.53955">
        <ele>74</ele>
        <time>2021-04-15T11:31:55.000Z</time>
      </trkpt>
      <trkpt lat="47.13211" lon="-1.53954">
        <ele>74</ele>
        <time>2021-04-15T11:31:57.000Z</time>
      </trkpt>
      <trkpt lat="47.132" lon="-1.53954">
        <ele>74</ele>
        <time>2021-04-15T11:31:59.000Z</time>
      </trkpt>
      <trkpt lat="47.13188" lon="-1.53954">
        <ele>76</ele>
        <time>2021-04-15T11:32:01.000Z</time>
      </trkpt>
      <trkpt lat="47.13176" lon="-1.53955">
        <ele>76</ele>
        <time>2021-04-15T11:32:03.000Z</time>
      </trkpt>
      <trkpt lat="47.13165" lon="-1.53958">
        <ele>76</ele>
        <time>2021-04-15T11:32:05.000Z</time>
      </trkpt>
      <trkpt lat="47.13152" lon="-1.53961">
        <ele>76</ele>
        <time>2021-04-15T11:32:07.000Z</time>
      </trkpt>
      <trkpt lat="47.13139" lon="-1.53963">
        <ele>75</ele>
        <time>2021-04-15T11:32:09.000Z</time>
      </trkpt>
      <trkpt lat="47.13126" lon="-1.53965">
        <ele>74</ele>
        <time>2021-04-15T11:32:11.000Z</time>
      </trkpt>
      <trkpt lat="47.13116" lon="-1.53965">
        <ele>73</ele>
        <time>2021-04-15T11:32:13.000Z</time>
      </trkpt>
      <trkpt lat="47.13105" lon="-1.53966">
        <ele>74</ele>
        <time>2021-04-15T11:32:15.000Z</time>
      </trkpt>
      <trkpt lat="47.13093" lon="-1.53968">
        <ele>75</ele>
        <time>2021-04-15T11:32:17.000Z</time>
      </trkpt>
      <trkpt lat="47.13081" lon="-1.53971">
        <ele>75</ele>
        <time>2021-04-15T11:32:19.000Z</time>
      </trkpt>
      <trkpt lat="47.1307" lon="-1.53973">
        <ele>75</ele>
        <time>2021-04-15T11:32:21.000Z</time>
      </trkpt>
      <trkpt lat="47.13058" lon="-1.53976">
        <ele>75</ele>
        <time>2021-04-15T11:32:23.000Z</time>
      </trkpt>
      <trkpt lat="47.13045" lon="-1.53979">
        <ele>75</ele>
        <time>2021-04-15T11:32:25.000Z</time>
      </trkpt>
      <trkpt lat="47.13033" lon="-1.53982">
        <ele>75</ele>
        <time>2021-04-15T11:32:27.000Z</time>
      </trkpt>
      <trkpt lat="47.13021" lon="-1.53986">
        <ele>75</ele>
        <time>2021-04-15T11:32:29.000Z</time>
      </trkpt>
      <trkpt lat="47.13007" lon="-1.5399">
        <ele>75</ele>
        <time>2021-04-15T11:32:31.000Z</time>
      </trkpt>
      <trkpt lat="47.12993" lon="-1.53994">
        <ele>74</ele>
        <time>2021-04-15T11:32:33.000Z</time>
      </trkpt>
      <trkpt lat="47.12979" lon="-1.53996">
        <ele>73</ele>
        <time>2021-04-15T11:32:35.000Z</time>
      </trkpt>
      <trkpt lat="47.12965" lon="-1.53998">
        <ele>72</ele>
        <time>2021-04-15T11:32:37.000Z</time>
      </trkpt>
      <trkpt lat="47.12952" lon="-1.54">
        <ele>72</ele>
        <time>2021-04-15T11:32:39.000Z</time>
      </trkpt>
      <trkpt lat="47.12939" lon="-1.54001">
        <ele>72</ele>
        <time>2021-04-15T11:32:41.000Z</time>
      </trkpt>
      <trkpt lat="47.12927" lon="-1.54004">
        <ele>71</ele>
        <time>2021-04-15T11:32:43.000Z</time>
      </trkpt>
      <trkpt lat="47.12914" lon="-1.54005">
        <ele>71</ele>
        <time>2021-04-15T11:32:45.000Z</time>
      </trkpt>
      <trkpt lat="47.12901" lon="-1.54006">
        <ele>70</ele>
        <time>2021-04-15T11:32:47.000Z</time>
      </trkpt>
      <trkpt lat="47.12887" lon="-1.54005">
        <ele>69</ele>
        <time>2021-04-15T11:32:49.000Z</time>
      </trkpt>
      <trkpt lat="47.12874" lon="-1.54">
        <ele>68</ele>
        <time>2021-04-15T11:32:51.000Z</time>
      </trkpt>
      <trkpt lat="47.12862" lon="-1.53995">
        <ele>68</ele>
        <time>2021-04-15T11:32:53.000Z</time>
      </trkpt>
      <trkpt lat="47.1285" lon="-1.53989">
        <ele>68</ele>
        <time>2021-04-15T11:32:55.000Z</time>
      </trkpt>
      <trkpt lat="47.12837" lon="-1.53983">
        <ele>68</ele>
        <time>2021-04-15T11:32:57.000Z</time>
      </trkpt>
      <trkpt lat="47.12827" lon="-1.53978">
        <ele>68</ele>
        <time>2021-04-15T11:32:59.000Z</time>
      </trkpt>
      <trkpt lat="47.12816" lon="-1.53983">
        <ele>68</ele>
        <time>2021-04-15T11:33:02.000Z</time>
      </trkpt>
      <trkpt lat="47.12808" lon="-1.53992">
        <ele>68</ele>
        <time>2021-04-15T11:33:04.000Z</time>
      </trkpt>
      <trkpt lat="47.128" lon="-1.54002">
        <ele>67</ele>
        <time>2021-04-15T11:33:06.000Z</time>
      </trkpt>
      <trkpt lat="47.12791" lon="-1.54011">
        <ele>67</ele>
        <time>2021-04-15T11:33:08.000Z</time>
      </trkpt>
      <trkpt lat="47.12783" lon="-1.54018">
        <ele>67</ele>
        <time>2021-04-15T11:33:10.000Z</time>
      </trkpt>
      <trkpt lat="47.12772" lon="-1.54024">
        <ele>67</ele>
        <time>2021-04-15T11:33:12.000Z</time>
      </trkpt>
      <trkpt lat="47.12763" lon="-1.54031">
        <ele>67</ele>
        <time>2021-04-15T11:33:14.000Z</time>
      </trkpt>
      <trkpt lat="47.12753" lon="-1.54036">
        <ele>67</ele>
        <time>2021-04-15T11:33:16.000Z</time>
      </trkpt>
      <trkpt lat="47.12743" lon="-1.54038">
        <ele>67</ele>
        <time>2021-04-15T11:33:18.000Z</time>
      </trkpt>
      <trkpt lat="47.12734" lon="-1.54042">
        <ele>66</ele>
        <time>2021-04-15T11:33:20.000Z</time>
      </trkpt>
      <trkpt lat="47.12723" lon="-1.54053">
        <ele>65</ele>
        <time>2021-04-15T11:33:23.000Z</time>
      </trkpt>
      <trkpt lat="47.12715" lon="-1.5406">
        <ele>64</ele>
        <time>2021-04-15T11:33:25.000Z</time>
      </trkpt>
      <trkpt lat="47.12707" lon="-1.54066">
        <ele>64</ele>
        <time>2021-04-15T11:33:27.000Z</time>
      </trkpt>
      <trkpt lat="47.12696" lon="-1.54073">
        <ele>63</ele>
        <time>2021-04-15T11:33:30.000Z</time>
      </trkpt>
      <trkpt lat="47.12683" lon="-1.54076">
        <ele>63</ele>
        <time>2021-04-15T11:33:33.000Z</time>
      </trkpt>
      <trkpt lat="47.12672" lon="-1.54078">
        <ele>64</ele>
        <time>2021-04-15T11:33:36.000Z</time>
      </trkpt>
      <trkpt lat="47.12661" lon="-1.5408">
        <ele>65</ele>
        <time>2021-04-15T11:33:39.000Z</time>
      </trkpt>
      <trkpt lat="47.12653" lon="-1.54087">
        <ele>65</ele>
        <time>2021-04-15T11:33:44.000Z</time>
      </trkpt>
      <trkpt lat="47.12655" lon="-1.54103">
        <ele>67</ele>
        <time>2021-04-15T11:33:49.000Z</time>
      </trkpt>
      <trkpt lat="47.12653" lon="-1.54117">
        <ele>66</ele>
        <time>2021-04-15T11:33:52.000Z</time>
      </trkpt>
      <trkpt lat="47.12649" lon="-1.54133">
        <ele>65</ele>
        <time>2021-04-15T11:33:56.000Z</time>
      </trkpt>
      <trkpt lat="47.12644" lon="-1.54147">
        <ele>64</ele>
        <time>2021-04-15T11:34:00.000Z</time>
      </trkpt>
      <trkpt lat="47.12639" lon="-1.54161">
        <ele>64</ele>
        <time>2021-04-15T11:34:05.000Z</time>
      </trkpt>
      <trkpt lat="47.12635" lon="-1.54173">
        <ele>63</ele>
        <time>2021-04-15T11:34:10.000Z</time>
      </trkpt>
      <trkpt lat="47.12626" lon="-1.54178">
        <ele>61</ele>
        <time>2021-04-15T11:34:21.000Z</time>
      </trkpt>
      <trkpt lat="47.12625" lon="-1.54165">
        <ele>57</ele>
        <time>2021-04-15T11:34:45.000Z</time>
      </trkpt>
      <trkpt lat="47.12634" lon="-1.54164">
        <ele>52</ele>
        <time>2021-04-15T11:49:28.000Z</time>
      </trkpt>
      <trkpt lat="47.12638" lon="-1.5415">
        <ele>54</ele>
        <time>2021-04-15T11:49:35.000Z</time>
      </trkpt>
      <trkpt lat="47.12644" lon="-1.54136">
        <ele>54</ele>
        <time>2021-04-15T11:49:39.000Z</time>
      </trkpt>
      <trkpt lat="47.12649" lon="-1.54121">
        <ele>54</ele>
        <time>2021-04-15T11:49:43.000Z</time>
      </trkpt>
      <trkpt lat="47.12654" lon="-1.54107">
        <ele>54</ele>
        <time>2021-04-15T11:49:47.000Z</time>
      </trkpt>
      <trkpt lat="47.12662" lon="-1.54097">
        <ele>54</ele>
        <time>2021-04-15T11:49:54.000Z</time>
      </trkpt>
      <trkpt lat="47.12653" lon="-1.5409">
        <ele>56</ele>
        <time>2021-04-15T11:51:01.000Z</time>
      </trkpt>
      <trkpt lat="47.12662" lon="-1.54079">
        <ele>58</ele>
        <time>2021-04-15T11:51:06.000Z</time>
      </trkpt>
      <trkpt lat="47.12671" lon="-1.54075">
        <ele>57</ele>
        <time>2021-04-15T11:51:09.000Z</time>
      </trkpt>
      <trkpt lat="47.12683" lon="-1.5407">
        <ele>57</ele>
        <time>2021-04-15T11:51:12.000Z</time>
      </trkpt>
      <trkpt lat="47.12695" lon="-1.54065">
        <ele>57</ele>
        <time>2021-04-15T11:51:15.000Z</time>
      </trkpt>
      <trkpt lat="47.12707" lon="-1.54058">
        <ele>56</ele>
        <time>2021-04-15T11:51:18.000Z</time>
      </trkpt>
      <trkpt lat="47.12716" lon="-1.54052">
        <ele>55</ele>
        <time>2021-04-15T11:51:20.000Z</time>
      </trkpt>
      <trkpt lat="47.12724" lon="-1.54044">
        <ele>55</ele>
        <time>2021-04-15T11:51:22.000Z</time>
      </trkpt>
      <trkpt lat="47.12732" lon="-1.54037">
        <ele>55</ele>
        <time>2021-04-15T11:51:24.000Z</time>
      </trkpt>
      <trkpt lat="47.12742" lon="-1.54034">
        <ele>56</ele>
        <time>2021-04-15T11:51:26.000Z</time>
      </trkpt>
      <trkpt lat="47.12752" lon="-1.54031">
        <ele>56</ele>
        <time>2021-04-15T11:51:28.000Z</time>
      </trkpt>
      <trkpt lat="47.12761" lon="-1.54027">
        <ele>56</ele>
        <time>2021-04-15T11:51:30.000Z</time>
      </trkpt>
      <trkpt lat="47.12778" lon="-1.54016">
        <ele>57</ele>
        <time>2021-04-15T11:51:34.000Z</time>
      </trkpt>
      <trkpt lat="47.12786" lon="-1.54008">
        <ele>58</ele>
        <time>2021-04-15T11:51:36.000Z</time>
      </trkpt>
      <trkpt lat="47.12795" lon="-1.54001">
        <ele>58</ele>
        <time>2021-04-15T11:51:38.000Z</time>
      </trkpt>
      <trkpt lat="47.12804" lon="-1.5399">
        <ele>60</ele>
        <time>2021-04-15T11:51:41.000Z</time>
      </trkpt>
      <trkpt lat="47.12814" lon="-1.53978">
        <ele>60</ele>
        <time>2021-04-15T11:51:44.000Z</time>
      </trkpt>
      <trkpt lat="47.12825" lon="-1.53969">
        <ele>61</ele>
        <time>2021-04-15T11:51:47.000Z</time>
      </trkpt>
      <trkpt lat="47.12837" lon="-1.53969">
        <ele>62</ele>
        <time>2021-04-15T11:51:50.000Z</time>
      </trkpt>
      <trkpt lat="47.12846" lon="-1.53973">
        <ele>63</ele>
        <time>2021-04-15T11:51:52.000Z</time>
      </trkpt>
      <trkpt lat="47.12856" lon="-1.53979">
        <ele>64</ele>
        <time>2021-04-15T11:51:54.000Z</time>
      </trkpt>
      <trkpt lat="47.12872" lon="-1.53987">
        <ele>64</ele>
        <time>2021-04-15T11:51:57.000Z</time>
      </trkpt>
      <trkpt lat="47.12882" lon="-1.53991">
        <ele>64</ele>
        <time>2021-04-15T11:51:59.000Z</time>
      </trkpt>
      <trkpt lat="47.12892" lon="-1.53995">
        <ele>64</ele>
        <time>2021-04-15T11:52:01.000Z</time>
      </trkpt>
      <trkpt lat="47.12902" lon="-1.53996">
        <ele>64</ele>
        <time>2021-04-15T11:52:03.000Z</time>
      </trkpt>
      <trkpt lat="47.12912" lon="-1.53996">
        <ele>64</ele>
        <time>2021-04-15T11:52:05.000Z</time>
      </trkpt>
      <trkpt lat="47.12922" lon="-1.53996">
        <ele>63</ele>
        <time>2021-04-15T11:52:07.000Z</time>
      </trkpt>
      <trkpt lat="47.12931" lon="-1.53995">
        <ele>64</ele>
        <time>2021-04-15T11:52:09.000Z</time>
      </trkpt>
      <trkpt lat="47.12941" lon="-1.53994">
        <ele>64</ele>
        <time>2021-04-15T11:52:11.000Z</time>
      </trkpt>
      <trkpt lat="47.1295" lon="-1.53992">
        <ele>64</ele>
        <time>2021-04-15T11:52:13.000Z</time>
      </trkpt>
      <trkpt lat="47.1296" lon="-1.53991">
        <ele>64</ele>
        <time>2021-04-15T11:52:15.000Z</time>
      </trkpt>
      <trkpt lat="47.1297" lon="-1.53989">
        <ele>65</ele>
        <time>2021-04-15T11:52:17.000Z</time>
      </trkpt>
      <trkpt lat="47.1298" lon="-1.53987">
        <ele>65</ele>
        <time>2021-04-15T11:52:19.000Z</time>
      </trkpt>
      <trkpt lat="47.1299" lon="-1.53985">
        <ele>65</ele>
        <time>2021-04-15T11:52:21.000Z</time>
      </trkpt>
      <trkpt lat="47.13001" lon="-1.53981">
        <ele>65</ele>
        <time>2021-04-15T11:52:23.000Z</time>
      </trkpt>
      <trkpt lat="47.13011" lon="-1.53978">
        <ele>65</ele>
        <time>2021-04-15T11:52:25.000Z</time>
      </trkpt>
      <trkpt lat="47.13021" lon="-1.53975">
        <ele>66</ele>
        <time>2021-04-15T11:52:27.000Z</time>
      </trkpt>
      <trkpt lat="47.13031" lon="-1.53972">
        <ele>65</ele>
        <time>2021-04-15T11:52:29.000Z</time>
      </trkpt>
      <trkpt lat="47.13041" lon="-1.53969">
        <ele>66</ele>
        <time>2021-04-15T11:52:31.000Z</time>
      </trkpt>
      <trkpt lat="47.13051" lon="-1.53966">
        <ele>66</ele>
        <time>2021-04-15T11:52:33.000Z</time>
      </trkpt>
      <trkpt lat="47.13061" lon="-1.53964">
        <ele>66</ele>
        <time>2021-04-15T11:52:35.000Z</time>
      </trkpt>
      <trkpt lat="47.13071" lon="-1.53962">
        <ele>65</ele>
        <time>2021-04-15T11:52:37.000Z</time>
      </trkpt>
      <trkpt lat="47.13081" lon="-1.53961">
        <ele>65</ele>
        <time>2021-04-15T11:52:39.000Z</time>
      </trkpt>
      <trkpt lat="47.13092" lon="-1.53959">
        <ele>64</ele>
        <time>2021-04-15T11:52:41.000Z</time>
      </trkpt>
      <trkpt lat="47.13101" lon="-1.53957">
        <ele>65</ele>
        <time>2021-04-15T11:52:43.000Z</time>
      </trkpt>
      <trkpt lat="47.13111" lon="-1.53956">
        <ele>66</ele>
        <time>2021-04-15T11:52:45.000Z</time>
      </trkpt>
      <trkpt lat="47.13121" lon="-1.53955">
        <ele>67</ele>
        <time>2021-04-15T11:52:47.000Z</time>
      </trkpt>
      <trkpt lat="47.13132" lon="-1.53955">
        <ele>67</ele>
        <time>2021-04-15T11:52:49.000Z</time>
      </trkpt>
      <trkpt lat="47.13143" lon="-1.53954">
        <ele>67</ele>
        <time>2021-04-15T11:52:51.000Z</time>
      </trkpt>
      <trkpt lat="47.13153" lon="-1.53951">
        <ele>67</ele>
        <time>2021-04-15T11:52:53.000Z</time>
      </trkpt>
      <trkpt lat="47.13162" lon="-1.53949">
        <ele>67</ele>
        <time>2021-04-15T11:52:55.000Z</time>
      </trkpt>
      <trkpt lat="47.13172" lon="-1.53946">
        <ele>68</ele>
        <time>2021-04-15T11:52:57.000Z</time>
      </trkpt>
      <trkpt lat="47.13181" lon="-1.53945">
        <ele>68</ele>
        <time>2021-04-15T11:52:59.000Z</time>
      </trkpt>
      <trkpt lat="47.13191" lon="-1.53945">
        <ele>69</ele>
        <time>2021-04-15T11:53:01.000Z</time>
      </trkpt>
      <trkpt lat="47.132" lon="-1.53945">
        <ele>69</ele>
        <time>2021-04-15T11:53:03.000Z</time>
      </trkpt>
      <trkpt lat="47.13211" lon="-1.53946">
        <ele>70</ele>
        <time>2021-04-15T11:53:05.000Z</time>
      </trkpt>
      <trkpt lat="47.13222" lon="-1.53946">
        <ele>70</ele>
        <time>2021-04-15T11:53:07.000Z</time>
      </trkpt>
      <trkpt lat="47.13232" lon="-1.53947">
        <ele>71</ele>
        <time>2021-04-15T11:53:09.000Z</time>
      </trkpt>
      <trkpt lat="47.13242" lon="-1.53949">
        <ele>71</ele>
        <time>2021-04-15T11:53:11.000Z</time>
      </trkpt>
      <trkpt lat="47.13252" lon="-1.53948">
        <ele>71</ele>
        <time>2021-04-15T11:53:13.000Z</time>
      </trkpt>
      <trkpt lat="47.13262" lon="-1.53949">
        <ele>72</ele>
        <time>2021-04-15T11:53:15.000Z</time>
      </trkpt>
      <trkpt lat="47.13273" lon="-1.53948">
        <ele>72</ele>
        <time>2021-04-15T11:53:17.000Z</time>
      </trkpt>
      <trkpt lat="47.13283" lon="-1.53947">
        <ele>72</ele>
        <time>2021-04-15T11:53:19.000Z</time>
      </trkpt>
      <trkpt lat="47.13292" lon="-1.53943">
        <ele>72</ele>
        <time>2021-04-15T11:53:21.000Z</time>
      </trkpt>
      <trkpt lat="47.13302" lon="-1.5394">
        <ele>72</ele>
        <time>2021-04-15T11:53:23.000Z</time>
      </trkpt>
      <trkpt lat="47.13312" lon="-1.53934">
        <ele>72</ele>
        <time>2021-04-15T11:53:25.000Z</time>
      </trkpt>
      <trkpt lat="47.13322" lon="-1.53928">
        <ele>72</ele>
        <time>2021-04-15T11:53:27.000Z</time>
      </trkpt>
      <trkpt lat="47.13332" lon="-1.53922">
        <ele>71</ele>
        <time>2021-04-15T11:53:29.000Z</time>
      </trkpt>
      <trkpt lat="47.13341" lon="-1.53916">
        <ele>71</ele>
        <time>2021-04-15T11:53:31.000Z</time>
      </trkpt>
      <trkpt lat="47.1335" lon="-1.53909">
        <ele>71</ele>
        <time>2021-04-15T11:53:33.000Z</time>
      </trkpt>
      <trkpt lat="47.13358" lon="-1.53903">
        <ele>71</ele>
        <time>2021-04-15T11:53:35.000Z</time>
      </trkpt>
      <trkpt lat="47.13367" lon="-1.53896">
        <ele>71</ele>
        <time>2021-04-15T11:53:37.000Z</time>
      </trkpt>
      <trkpt lat="47.13378" lon="-1.53887">
        <ele>72</ele>
        <time>2021-04-15T11:53:40.000Z</time>
      </trkpt>
      <trkpt lat="47.13385" lon="-1.53878">
        <ele>72</ele>
        <time>2021-04-15T11:53:42.000Z</time>
      </trkpt>
      <trkpt lat="47.13387" lon="-1.53865">
        <ele>73</ele>
        <time>2021-04-15T11:53:45.000Z</time>
      </trkpt>
      <trkpt lat="47.13381" lon="-1.53848">
        <ele>74</ele>
        <time>2021-04-15T11:53:48.000Z</time>
      </trkpt>
      <trkpt lat="47.13374" lon="-1.53836">
        <ele>74</ele>
        <time>2021-04-15T11:53:50.000Z</time>
      </trkpt>
      <trkpt lat="47.13369" lon="-1.53824">
        <ele>74</ele>
        <time>2021-04-15T11:53:52.000Z</time>
      </trkpt>
      <trkpt lat="47.13362" lon="-1.53811">
        <ele>75</ele>
        <time>2021-04-15T11:53:54.000Z</time>
      </trkpt>
      <trkpt lat="47.13356" lon="-1.53799">
        <ele>75</ele>
        <time>2021-04-15T11:53:56.000Z</time>
      </trkpt>
      <trkpt lat="47.1335" lon="-1.53787">
        <ele>75</ele>
        <time>2021-04-15T11:53:58.000Z</time>
      </trkpt>
      <trkpt lat="47.13343" lon="-1.53775">
        <ele>75</ele>
        <time>2021-04-15T11:54:00.000Z</time>
      </trkpt>
      <trkpt lat="47.13337" lon="-1.53763">
        <ele>75</ele>
        <time>2021-04-15T11:54:02.000Z</time>
      </trkpt>
      <trkpt lat="47.13331" lon="-1.53751">
        <ele>75</ele>
        <time>2021-04-15T11:54:04.000Z</time>
      </trkpt>
      <trkpt lat="47.13326" lon="-1.53739">
        <ele>75</ele>
        <time>2021-04-15T11:54:06.000Z</time>
      </trkpt>
      <trkpt lat="47.1332" lon="-1.53727">
        <ele>75</ele>
        <time>2021-04-15T11:54:08.000Z</time>
      </trkpt>
      <trkpt lat="47.13314" lon="-1.53714">
        <ele>76</ele>
        <time>2021-04-15T11:54:10.000Z</time>
      </trkpt>
      <trkpt lat="47.13309" lon="-1.53701">
        <ele>76</ele>
        <time>2021-04-15T11:54:12.000Z</time>
      </trkpt>
      <trkpt lat="47.13304" lon="-1.53688">
        <ele>76</ele>
        <time>2021-04-15T11:54:14.000Z</time>
      </trkpt>
      <trkpt lat="47.13299" lon="-1.53675">
        <ele>76</ele>
        <time>2021-04-15T11:54:16.000Z</time>
      </trkpt>
      <trkpt lat="47.13295" lon="-1.53662">
        <ele>75</ele>
        <time>2021-04-15T11:54:18.000Z</time>
      </trkpt>
      <trkpt lat="47.1329" lon="-1.53648">
        <ele>75</ele>
        <time>2021-04-15T11:54:20.000Z</time>
      </trkpt>
      <trkpt lat="47.13285" lon="-1.53634">
        <ele>75</ele>
        <time>2021-04-15T11:54:22.000Z</time>
      </trkpt>
      <trkpt lat="47.1328" lon="-1.5362">
        <ele>75</ele>
        <time>2021-04-15T11:54:24.000Z</time>
      </trkpt>
      <trkpt lat="47.13276" lon="-1.53606">
        <ele>75</ele>
        <time>2021-04-15T11:54:26.000Z</time>
      </trkpt>
      <trkpt lat="47.13272" lon="-1.53592">
        <ele>75</ele>
        <time>2021-04-15T11:54:28.000Z</time>
      </trkpt>
      <trkpt lat="47.13267" lon="-1.53577">
        <ele>75</ele>
        <time>2021-04-15T11:54:30.000Z</time>
      </trkpt>
      <trkpt lat="47.13262" lon="-1.53563">
        <ele>74</ele>
        <time>2021-04-15T11:54:32.000Z</time>
      </trkpt>
      <trkpt lat="47.13258" lon="-1.53548">
        <ele>74</ele>
        <time>2021-04-15T11:54:34.000Z</time>
      </trkpt>
      <trkpt lat="47.13253" lon="-1.53534">
        <ele>74</ele>
        <time>2021-04-15T11:54:36.000Z</time>
      </trkpt>
      <trkpt lat="47.13248" lon="-1.53519">
        <ele>74</ele>
        <time>2021-04-15T11:54:38.000Z</time>
      </trkpt>
      <trkpt lat="47.13244" lon="-1.53504">
        <ele>74</ele>
        <time>2021-04-15T11:54:40.000Z</time>
      </trkpt>
      <trkpt lat="47.13239" lon="-1.5349">
        <ele>73</ele>
        <time>2021-04-15T11:54:42.000Z</time>
      </trkpt>
      <trkpt lat="47.13235" lon="-1.53476">
        <ele>73</ele>
        <time>2021-04-15T11:54:44.000Z</time>
      </trkpt>
      <trkpt lat="47.1323" lon="-1.53461">
        <ele>72</ele>
        <time>2021-04-15T11:54:46.000Z</time>
      </trkpt>
      <trkpt lat="47.13226" lon="-1.53446">
        <ele>72</ele>
        <time>2021-04-15T11:54:48.000Z</time>
      </trkpt>
      <trkpt lat="47.13221" lon="-1.53432">
        <ele>72</ele>
        <time>2021-04-15T11:54:50.000Z</time>
      </trkpt>
      <trkpt lat="47.13216" lon="-1.53417">
        <ele>72</ele>
        <time>2021-04-15T11:54:52.000Z</time>
      </trkpt>
      <trkpt lat="47.13212" lon="-1.53402">
        <ele>72</ele>
        <time>2021-04-15T11:54:54.000Z</time>
      </trkpt>
      <trkpt lat="47.13207" lon="-1.53388">
        <ele>72</ele>
        <time>2021-04-15T11:54:56.000Z</time>
      </trkpt>
      <trkpt lat="47.13202" lon="-1.53372">
        <ele>72</ele>
        <time>2021-04-15T11:54:58.000Z</time>
      </trkpt>
      <trkpt lat="47.13197" lon="-1.53357">
        <ele>71</ele>
        <time>2021-04-15T11:55:00.000Z</time>
      </trkpt>
      <trkpt lat="47.13193" lon="-1.53342">
        <ele>71</ele>
        <time>2021-04-15T11:55:02.000Z</time>
      </trkpt>
      <trkpt lat="47.13188" lon="-1.53327">
        <ele>71</ele>
        <time>2021-04-15T11:55:04.000Z</time>
      </trkpt>
      <trkpt lat="47.13183" lon="-1.53311">
        <ele>71</ele>
        <time>2021-04-15T11:55:06.000Z</time>
      </trkpt>
      <trkpt lat="47.13178" lon="-1.53296">
        <ele>71</ele>
        <time>2021-04-15T11:55:08.000Z</time>
      </trkpt>
      <trkpt lat="47.13173" lon="-1.53281">
        <ele>71</ele>
        <time>2021-04-15T11:55:10.000Z</time>
      </trkpt>
      <trkpt lat="47.13169" lon="-1.53267">
        <ele>71</ele>
        <time>2021-04-15T11:55:12.000Z</time>
      </trkpt>
      <trkpt lat="47.13164" lon="-1.53253">
        <ele>71</ele>
        <time>2021-04-15T11:55:14.000Z</time>
      </trkpt>
      <trkpt lat="47.1316" lon="-1.53239">
        <ele>71</ele>
        <time>2021-04-15T11:55:16.000Z</time>
      </trkpt>
      <trkpt lat="47.13158" lon="-1.53223">
        <ele>72</ele>
        <time>2021-04-15T11:55:19.000Z</time>
      </trkpt>
      <trkpt lat="47.13169" lon="-1.5321">
        <ele>72</ele>
        <time>2021-04-15T11:55:22.000Z</time>
      </trkpt>
      <trkpt lat="47.1318" lon="-1.53206">
        <ele>72</ele>
        <time>2021-04-15T11:55:24.000Z</time>
      </trkpt>
      <trkpt lat="47.1319" lon="-1.53203">
        <ele>72</ele>
        <time>2021-04-15T11:55:26.000Z</time>
      </trkpt>
      <trkpt lat="47.13201" lon="-1.53199">
        <ele>72</ele>
        <time>2021-04-15T11:55:28.000Z</time>
      </trkpt>
      <trkpt lat="47.13211" lon="-1.53195">
        <ele>73</ele>
        <time>2021-04-15T11:55:30.000Z</time>
      </trkpt>
      <trkpt lat="47.13222" lon="-1.53191">
        <ele>73</ele>
        <time>2021-04-15T11:55:32.000Z</time>
      </trkpt>
      <trkpt lat="47.13232" lon="-1.53187">
        <ele>73</ele>
        <time>2021-04-15T11:55:34.000Z</time>
      </trkpt>
      <trkpt lat="47.13242" lon="-1.53183">
        <ele>74</ele>
        <time>2021-04-15T11:55:36.000Z</time>
      </trkpt>
      <trkpt lat="47.13252" lon="-1.53179">
        <ele>74</ele>
        <time>2021-04-15T11:55:38.000Z</time>
      </trkpt>
      <trkpt lat="47.13263" lon="-1.53174">
        <ele>74</ele>
        <time>2021-04-15T11:55:40.000Z</time>
      </trkpt>
      <trkpt lat="47.13273" lon="-1.53169">
        <ele>74</ele>
        <time>2021-04-15T11:55:42.000Z</time>
      </trkpt>
      <trkpt lat="47.13282" lon="-1.53165">
        <ele>74</ele>
        <time>2021-04-15T11:55:44.000Z</time>
      </trkpt>
      <trkpt lat="47.13293" lon="-1.53159">
        <ele>74</ele>
        <time>2021-04-15T11:55:46.000Z</time>
      </trkpt>
      <trkpt lat="47.13303" lon="-1.53155">
        <ele>75</ele>
        <time>2021-04-15T11:55:48.000Z</time>
      </trkpt>
      <trkpt lat="47.13314" lon="-1.53152">
        <ele>75</ele>
        <time>2021-04-15T11:55:50.000Z</time>
      </trkpt>
      <trkpt lat="47.13325" lon="-1.53149">
        <ele>75</ele>
        <time>2021-04-15T11:55:52.000Z</time>
      </trkpt>
      <trkpt lat="47.13335" lon="-1.53145">
        <ele>75</ele>
        <time>2021-04-15T11:55:54.000Z</time>
      </trkpt>
      <trkpt lat="47.13345" lon="-1.53143">
        <ele>75</ele>
        <time>2021-04-15T11:55:56.000Z</time>
      </trkpt>
      <trkpt lat="47.13355" lon="-1.53141">
        <ele>76</ele>
        <time>2021-04-15T11:55:58.000Z</time>
      </trkpt>
      <trkpt lat="47.13366" lon="-1.53139">
        <ele>76</ele>
        <time>2021-04-15T11:56:00.000Z</time>
      </trkpt>
      <trkpt lat="47.13376" lon="-1.53138">
        <ele>76</ele>
        <time>2021-04-15T11:56:02.000Z</time>
      </trkpt>
      <trkpt lat="47.13386" lon="-1.53137">
        <ele>76</ele>
        <time>2021-04-15T11:56:04.000Z</time>
      </trkpt>
      <trkpt lat="47.13395" lon="-1.53136">
        <ele>76</ele>
        <time>2021-04-15T11:56:06.000Z</time>
      </trkpt>
      <trkpt lat="47.13409" lon="-1.53135">
        <ele>76</ele>
        <time>2021-04-15T11:56:09.000Z</time>
      </trkpt>
      <trkpt lat="47.13418" lon="-1.53134">
        <ele>76</ele>
        <time>2021-04-15T11:56:11.000Z</time>
      </trkpt>
      <trkpt lat="47.13428" lon="-1.53132">
        <ele>76</ele>
        <time>2021-04-15T11:56:13.000Z</time>
      </trkpt>
      <trkpt lat="47.13436" lon="-1.53123">
        <ele>76</ele>
        <time>2021-04-15T11:56:15.000Z</time>
      </trkpt>
      <trkpt lat="47.13442" lon="-1.5311">
        <ele>76</ele>
        <time>2021-04-15T11:56:17.000Z</time>
      </trkpt>
      <trkpt lat="47.13446" lon="-1.53097">
        <ele>76</ele>
        <time>2021-04-15T11:56:19.000Z</time>
      </trkpt>
      <trkpt lat="47.13451" lon="-1.53083">
        <ele>76</ele>
        <time>2021-04-15T11:56:21.000Z</time>
      </trkpt>
      <trkpt lat="47.13457" lon="-1.53071">
        <ele>77</ele>
        <time>2021-04-15T11:56:23.000Z</time>
      </trkpt>
      <trkpt lat="47.13462" lon="-1.53059">
        <ele>77</ele>
        <time>2021-04-15T11:56:25.000Z</time>
      </trkpt>
      <trkpt lat="47.13468" lon="-1.53048">
        <ele>78</ele>
        <time>2021-04-15T11:56:27.000Z</time>
      </trkpt>
      <trkpt lat="47.13473" lon="-1.53036">
        <ele>78</ele>
        <time>2021-04-15T11:56:29.000Z</time>
      </trkpt>
      <trkpt lat="47.13479" lon="-1.53024">
        <ele>78</ele>
        <time>2021-04-15T11:56:31.000Z</time>
      </trkpt>
      <trkpt lat="47.13484" lon="-1.53012">
        <ele>78</ele>
        <time>2021-04-15T11:56:33.000Z</time>
      </trkpt>
      <trkpt lat="47.1349" lon="-1.53">
        <ele>78</ele>
        <time>2021-04-15T11:56:35.000Z</time>
      </trkpt>
      <trkpt lat="47.13495" lon="-1.52988">
        <ele>77</ele>
        <time>2021-04-15T11:56:37.000Z</time>
      </trkpt>
      <trkpt lat="47.13501" lon="-1.52976">
        <ele>77</ele>
        <time>2021-04-15T11:56:39.000Z</time>
      </trkpt>
      <trkpt lat="47.13506" lon="-1.52963">
        <ele>77</ele>
        <time>2021-04-15T11:56:41.000Z</time>
      </trkpt>
      <trkpt lat="47.13512" lon="-1.52951">
        <ele>78</ele>
        <time>2021-04-15T11:56:43.000Z</time>
      </trkpt>
      <trkpt lat="47.13518" lon="-1.52938">
        <ele>78</ele>
        <time>2021-04-15T11:56:45.000Z</time>
      </trkpt>
      <trkpt lat="47.13524" lon="-1.52926">
        <ele>78</ele>
        <time>2021-04-15T11:56:47.000Z</time>
      </trkpt>
      <trkpt lat="47.13529" lon="-1.52913">
        <ele>78</ele>
        <time>2021-04-15T11:56:49.000Z</time>
      </trkpt>
      <trkpt lat="47.13534" lon="-1.52901">
        <ele>78</ele>
        <time>2021-04-15T11:56:51.000Z</time>
      </trkpt>
      <trkpt lat="47.1354" lon="-1.52888">
        <ele>79</ele>
        <time>2021-04-15T11:56:53.000Z</time>
      </trkpt>
      <trkpt lat="47.13545" lon="-1.52876">
        <ele>78</ele>
        <time>2021-04-15T11:56:55.000Z</time>
      </trkpt>
      <trkpt lat="47.13551" lon="-1.52864">
        <ele>78</ele>
        <time>2021-04-15T11:56:57.000Z</time>
      </trkpt>
      <trkpt lat="47.13557" lon="-1.52852">
        <ele>78</ele>
        <time>2021-04-15T11:56:59.000Z</time>
      </trkpt>
      <trkpt lat="47.13563" lon="-1.52839">
        <ele>78</ele>
        <time>2021-04-15T11:57:01.000Z</time>
      </trkpt>
      <trkpt lat="47.13568" lon="-1.52827">
        <ele>78</ele>
        <time>2021-04-15T11:57:03.000Z</time>
      </trkpt>
      <trkpt lat="47.13573" lon="-1.52815">
        <ele>78</ele>
        <time>2021-04-15T11:57:05.000Z</time>
      </trkpt>
      <trkpt lat="47.13579" lon="-1.52803">
        <ele>78</ele>
        <time>2021-04-15T11:57:07.000Z</time>
      </trkpt>
      <trkpt lat="47.13584" lon="-1.52791">
        <ele>78</ele>
        <time>2021-04-15T11:57:09.000Z</time>
      </trkpt>
      <trkpt lat="47.1359" lon="-1.52779">
        <ele>78</ele>
        <time>2021-04-15T11:57:11.000Z</time>
      </trkpt>
      <trkpt lat="47.13596" lon="-1.52768">
        <ele>78</ele>
        <time>2021-04-15T11:57:13.000Z</time>
      </trkpt>
      <trkpt lat="47.13601" lon="-1.52757">
        <ele>79</ele>
        <time>2021-04-15T11:57:15.000Z</time>
      </trkpt>
      <trkpt lat="47.13608" lon="-1.52745">
        <ele>78</ele>
        <time>2021-04-15T11:57:17.000Z</time>
      </trkpt>
      <trkpt lat="47.13614" lon="-1.52734">
        <ele>78</ele>
        <time>2021-04-15T11:57:19.000Z</time>
      </trkpt>
      <trkpt lat="47.1362" lon="-1.52724">
        <ele>78</ele>
        <time>2021-04-15T11:57:21.000Z</time>
      </trkpt>
      <trkpt lat="47.13626" lon="-1.52713">
        <ele>79</ele>
        <time>2021-04-15T11:57:23.000Z</time>
      </trkpt>
      <trkpt lat="47.13633" lon="-1.52702">
        <ele>79</ele>
        <time>2021-04-15T11:57:25.000Z</time>
      </trkpt>
      <trkpt lat="47.13639" lon="-1.52693">
        <ele>79</ele>
        <time>2021-04-15T11:57:27.000Z</time>
      </trkpt>
      <trkpt lat="47.13645" lon="-1.52683">
        <ele>79</ele>
        <time>2021-04-15T11:57:29.000Z</time>
      </trkpt>
      <trkpt lat="47.13652" lon="-1.52672">
        <ele>80</ele>
        <time>2021-04-15T11:57:31.000Z</time>
      </trkpt>
      <trkpt lat="47.13658" lon="-1.52661">
        <ele>81</ele>
        <time>2021-04-15T11:57:33.000Z</time>
      </trkpt>
      <trkpt lat="47.13664" lon="-1.5265">
        <ele>81</ele>
        <time>2021-04-15T11:57:35.000Z</time>
      </trkpt>
      <trkpt lat="47.13671" lon="-1.5264">
        <ele>81</ele>
        <time>2021-04-15T11:57:37.000Z</time>
      </trkpt>
      <trkpt lat="47.13678" lon="-1.5263">
        <ele>81</ele>
        <time>2021-04-15T11:57:39.000Z</time>
      </trkpt>
      <trkpt lat="47.13685" lon="-1.52619">
        <ele>82</ele>
        <time>2021-04-15T11:57:41.000Z</time>
      </trkpt>
      <trkpt lat="47.13692" lon="-1.52608">
        <ele>82</ele>
        <time>2021-04-15T11:57:43.000Z</time>
      </trkpt>
      <trkpt lat="47.13699" lon="-1.52596">
        <ele>82</ele>
        <time>2021-04-15T11:57:45.000Z</time>
      </trkpt>
      <trkpt lat="47.13706" lon="-1.52585">
        <ele>82</ele>
        <time>2021-04-15T11:57:47.000Z</time>
      </trkpt>
      <trkpt lat="47.13712" lon="-1.52573">
        <ele>82</ele>
        <time>2021-04-15T11:57:49.000Z</time>
      </trkpt>
      <trkpt lat="47.13719" lon="-1.52562">
        <ele>82</ele>
        <time>2021-04-15T11:57:51.000Z</time>
      </trkpt>
      <trkpt lat="47.13726" lon="-1.52551">
        <ele>83</ele>
        <time>2021-04-15T11:57:53.000Z</time>
      </trkpt>
      <trkpt lat="47.13732" lon="-1.52541">
        <ele>83</ele>
        <time>2021-04-15T11:57:55.000Z</time>
      </trkpt>
      <trkpt lat="47.13739" lon="-1.52531">
        <ele>83</ele>
        <time>2021-04-15T11:57:57.000Z</time>
      </trkpt>
      <trkpt lat="47.13745" lon="-1.52521">
        <ele>83</ele>
        <time>2021-04-15T11:57:59.000Z</time>
      </trkpt>
      <trkpt lat="47.13755" lon="-1.52507">
        <ele>84</ele>
        <time>2021-04-15T11:58:02.000Z</time>
      </trkpt>
      <trkpt lat="47.13761" lon="-1.52497">
        <ele>84</ele>
        <time>2021-04-15T11:58:04.000Z</time>
      </trkpt>
      <trkpt lat="47.13768" lon="-1.52486">
        <ele>84</ele>
        <time>2021-04-15T11:58:06.000Z</time>
      </trkpt>
      <trkpt lat="47.13775" lon="-1.52475">
        <ele>83</ele>
        <time>2021-04-15T11:58:08.000Z</time>
      </trkpt>
      <trkpt lat="47.13782" lon="-1.52464">
        <ele>83</ele>
        <time>2021-04-15T11:58:10.000Z</time>
      </trkpt>
      <trkpt lat="47.13789" lon="-1.52453">
        <ele>83</ele>
        <time>2021-04-15T11:58:12.000Z</time>
      </trkpt>
      <trkpt lat="47.13796" lon="-1.52443">
        <ele>82</ele>
        <time>2021-04-15T11:58:14.000Z</time>
      </trkpt>
      <trkpt lat="47.13803" lon="-1.52432">
        <ele>82</ele>
        <time>2021-04-15T11:58:16.000Z</time>
      </trkpt>
      <trkpt lat="47.1381" lon="-1.52421">
        <ele>82</ele>
        <time>2021-04-15T11:58:18.000Z</time>
      </trkpt>
      <trkpt lat="47.13817" lon="-1.5241">
        <ele>82</ele>
        <time>2021-04-15T11:58:20.000Z</time>
      </trkpt>
      <trkpt lat="47.13824" lon="-1.524">
        <ele>82</ele>
        <time>2021-04-15T11:58:22.000Z</time>
      </trkpt>
      <trkpt lat="47.13831" lon="-1.5239">
        <ele>82</ele>
        <time>2021-04-15T11:58:24.000Z</time>
      </trkpt>
      <trkpt lat="47.13838" lon="-1.5238">
        <ele>82</ele>
        <time>2021-04-15T11:58:26.000Z</time>
      </trkpt>
      <trkpt lat="47.13845" lon="-1.5237">
        <ele>82</ele>
        <time>2021-04-15T11:58:28.000Z</time>
      </trkpt>
      <trkpt lat="47.13851" lon="-1.52359">
        <ele>82</ele>
        <time>2021-04-15T11:58:30.000Z</time>
      </trkpt>
      <trkpt lat="47.13857" lon="-1.52349">
        <ele>82</ele>
        <time>2021-04-15T11:58:32.000Z</time>
      </trkpt>
      <trkpt lat="47.13862" lon="-1.52332">
        <ele>81</ele>
        <time>2021-04-15T11:58:35.000Z</time>
      </trkpt>
      <trkpt lat="47.13866" lon="-1.52319">
        <ele>81</ele>
        <time>2021-04-15T11:58:37.000Z</time>
      </trkpt>
      <trkpt lat="47.13874" lon="-1.52309">
        <ele>81</ele>
        <time>2021-04-15T11:58:39.000Z</time>
      </trkpt>
      <trkpt lat="47.13883" lon="-1.52303">
        <ele>81</ele>
        <time>2021-04-15T11:58:41.000Z</time>
      </trkpt>
      <trkpt lat="47.13893" lon="-1.52296">
        <ele>81</ele>
        <time>2021-04-15T11:58:43.000Z</time>
      </trkpt>
      <trkpt lat="47.139" lon="-1.52287">
        <ele>81</ele>
        <time>2021-04-15T11:58:45.000Z</time>
      </trkpt>
      <trkpt lat="47.13906" lon="-1.52277">
        <ele>81</ele>
        <time>2021-04-15T11:58:47.000Z</time>
      </trkpt>
      <trkpt lat="47.13914" lon="-1.52267">
        <ele>82</ele>
        <time>2021-04-15T11:58:49.000Z</time>
      </trkpt>
      <trkpt lat="47.13921" lon="-1.52256">
        <ele>82</ele>
        <time>2021-04-15T11:58:51.000Z</time>
      </trkpt>
      <trkpt lat="47.13927" lon="-1.52246">
        <ele>82</ele>
        <time>2021-04-15T11:58:53.000Z</time>
      </trkpt>
      <trkpt lat="47.13934" lon="-1.52236">
        <ele>83</ele>
        <time>2021-04-15T11:58:55.000Z</time>
      </trkpt>
      <trkpt lat="47.13941" lon="-1.52225">
        <ele>83</ele>
        <time>2021-04-15T11:58:57.000Z</time>
      </trkpt>
      <trkpt lat="47.13948" lon="-1.52215">
        <ele>83</ele>
        <time>2021-04-15T11:58:59.000Z</time>
      </trkpt>
      <trkpt lat="47.13956" lon="-1.52207">
        <ele>82</ele>
        <time>2021-04-15T11:59:01.000Z</time>
      </trkpt>
      <trkpt lat="47.13962" lon="-1.52197">
        <ele>82</ele>
        <time>2021-04-15T11:59:03.000Z</time>
      </trkpt>
      <trkpt lat="47.13969" lon="-1.52188">
        <ele>82</ele>
        <time>2021-04-15T11:59:05.000Z</time>
      </trkpt>
      <trkpt lat="47.13976" lon="-1.52178">
        <ele>82</ele>
        <time>2021-04-15T11:59:07.000Z</time>
      </trkpt>
      <trkpt lat="47.13983" lon="-1.52169">
        <ele>82</ele>
        <time>2021-04-15T11:59:09.000Z</time>
      </trkpt>
      <trkpt lat="47.1399" lon="-1.5216">
        <ele>82</ele>
        <time>2021-04-15T11:59:11.000Z</time>
      </trkpt>
      <trkpt lat="47.13997" lon="-1.52153">
        <ele>82</ele>
        <time>2021-04-15T11:59:13.000Z</time>
      </trkpt>
      <trkpt lat="47.14009" lon="-1.52143">
        <ele>82</ele>
        <time>2021-04-15T11:59:16.000Z</time>
      </trkpt>
      <trkpt lat="47.14019" lon="-1.52131">
        <ele>83</ele>
        <time>2021-04-15T11:59:19.000Z</time>
      </trkpt>
      <trkpt lat="47.14026" lon="-1.52117">
        <ele>83</ele>
        <time>2021-04-15T11:59:22.000Z</time>
      </trkpt>
      <trkpt lat="47.14032" lon="-1.52106">
        <ele>83</ele>
        <time>2021-04-15T11:59:25.000Z</time>
      </trkpt>
      <trkpt lat="47.14039" lon="-1.52098">
        <ele>83</ele>
        <time>2021-04-15T11:59:27.000Z</time>
      </trkpt>
      <trkpt lat="47.14049" lon="-1.52092">
        <ele>83</ele>
        <time>2021-04-15T11:59:29.000Z</time>
      </trkpt>
      <trkpt lat="47.14057" lon="-1.52085">
        <ele>83</ele>
        <time>2021-04-15T11:59:31.000Z</time>
      </trkpt>
      <trkpt lat="47.14066" lon="-1.52077">
        <ele>83</ele>
        <time>2021-04-15T11:59:33.000Z</time>
      </trkpt>
      <trkpt lat="47.14074" lon="-1.52068">
        <ele>83</ele>
        <time>2021-04-15T11:59:35.000Z</time>
      </trkpt>
      <trkpt lat="47.14081" lon="-1.52059">
        <ele>83</ele>
        <time>2021-04-15T11:59:37.000Z</time>
      </trkpt>
      <trkpt lat="47.14089" lon="-1.5205">
        <ele>83</ele>
        <time>2021-04-15T11:59:39.000Z</time>
      </trkpt>
      <trkpt lat="47.14098" lon="-1.52042">
        <ele>83</ele>
        <time>2021-04-15T11:59:41.000Z</time>
      </trkpt>
      <trkpt lat="47.14106" lon="-1.52034">
        <ele>83</ele>
        <time>2021-04-15T11:59:43.000Z</time>
      </trkpt>
      <trkpt lat="47.14115" lon="-1.52026">
        <ele>83</ele>
        <time>2021-04-15T11:59:45.000Z</time>
      </trkpt>
      <trkpt lat="47.14123" lon="-1.52018">
        <ele>83</ele>
        <time>2021-04-15T11:59:47.000Z</time>
      </trkpt>
      <trkpt lat="47.14132" lon="-1.5201">
        <ele>83</ele>
        <time>2021-04-15T11:59:49.000Z</time>
      </trkpt>
      <trkpt lat="47.1414" lon="-1.52002">
        <ele>83</ele>
        <time>2021-04-15T11:59:51.000Z</time>
      </trkpt>
      <trkpt lat="47.14149" lon="-1.51994">
        <ele>83</ele>
        <time>2021-04-15T11:59:53.000Z</time>
      </trkpt>
      <trkpt lat="47.14157" lon="-1.51986">
        <ele>83</ele>
        <time>2021-04-15T11:59:55.000Z</time>
      </trkpt>
      <trkpt lat="47.14166" lon="-1.51978">
        <ele>84</ele>
        <time>2021-04-15T11:59:57.000Z</time>
      </trkpt>
      <trkpt lat="47.14174" lon="-1.5197">
        <ele>83</ele>
        <time>2021-04-15T11:59:59.000Z</time>
      </trkpt>
      <trkpt lat="47.14182" lon="-1.51962">
        <ele>84</ele>
        <time>2021-04-15T12:00:01.000Z</time>
      </trkpt>
      <trkpt lat="47.14191" lon="-1.51954">
        <ele>84</ele>
        <time>2021-04-15T12:00:03.000Z</time>
      </trkpt>
      <trkpt lat="47.14199" lon="-1.51947">
        <ele>85</ele>
        <time>2021-04-15T12:00:05.000Z</time>
      </trkpt>
      <trkpt lat="47.14207" lon="-1.51939">
        <ele>85</ele>
        <time>2021-04-15T12:00:07.000Z</time>
      </trkpt>
      <trkpt lat="47.14215" lon="-1.51932">
        <ele>85</ele>
        <time>2021-04-15T12:00:09.000Z</time>
      </trkpt>
      <trkpt lat="47.14223" lon="-1.51924">
        <ele>85</ele>
        <time>2021-04-15T12:00:11.000Z</time>
      </trkpt>
      <trkpt lat="47.14231" lon="-1.51916">
        <ele>85</ele>
        <time>2021-04-15T12:00:13.000Z</time>
      </trkpt>
      <trkpt lat="47.14239" lon="-1.51907">
        <ele>85</ele>
        <time>2021-04-15T12:00:15.000Z</time>
      </trkpt>
      <trkpt lat="47.14247" lon="-1.519">
        <ele>84</ele>
        <time>2021-04-15T12:00:17.000Z</time>
      </trkpt>
      <trkpt lat="47.14256" lon="-1.51892">
        <ele>84</ele>
        <time>2021-04-15T12:00:19.000Z</time>
      </trkpt>
      <trkpt lat="47.14264" lon="-1.51883">
        <ele>84</ele>
        <time>2021-04-15T12:00:21.000Z</time>
      </trkpt>
      <trkpt lat="47.14273" lon="-1.51875">
        <ele>84</ele>
        <time>2021-04-15T12:00:23.000Z</time>
      </trkpt>
      <trkpt lat="47.14281" lon="-1.51867">
        <ele>84</ele>
        <time>2021-04-15T12:00:25.000Z</time>
      </trkpt>
      <trkpt lat="47.1429" lon="-1.51859">
        <ele>84</ele>
        <time>2021-04-15T12:00:27.000Z</time>
      </trkpt>
      <trkpt lat="47.14298" lon="-1.51849">
        <ele>84</ele>
        <time>2021-04-15T12:00:29.000Z</time>
      </trkpt>
      <trkpt lat="47.14305" lon="-1.5184">
        <ele>84</ele>
        <time>2021-04-15T12:00:31.000Z</time>
      </trkpt>
      <trkpt lat="47.14312" lon="-1.51832">
        <ele>84</ele>
        <time>2021-04-15T12:00:33.000Z</time>
      </trkpt>
      <trkpt lat="47.1432" lon="-1.51824">
        <ele>84</ele>
        <time>2021-04-15T12:00:35.000Z</time>
      </trkpt>
      <trkpt lat="47.14329" lon="-1.51815">
        <ele>83</ele>
        <time>2021-04-15T12:00:37.000Z</time>
      </trkpt>
      <trkpt lat="47.14337" lon="-1.51806">
        <ele>83</ele>
        <time>2021-04-15T12:00:39.000Z</time>
      </trkpt>
      <trkpt lat="47.14345" lon="-1.51798">
        <ele>83</ele>
        <time>2021-04-15T12:00:41.000Z</time>
      </trkpt>
      <trkpt lat="47.14354" lon="-1.51791">
        <ele>83</ele>
        <time>2021-04-15T12:00:43.000Z</time>
      </trkpt>
      <trkpt lat="47.14362" lon="-1.51782">
        <ele>83</ele>
        <time>2021-04-15T12:00:45.000Z</time>
      </trkpt>
      <trkpt lat="47.1437" lon="-1.51774">
        <ele>83</ele>
        <time>2021-04-15T12:00:47.000Z</time>
      </trkpt>
      <trkpt lat="47.14379" lon="-1.51765">
        <ele>83</ele>
        <time>2021-04-15T12:00:49.000Z</time>
      </trkpt>
      <trkpt lat="47.14387" lon="-1.51756">
        <ele>83</ele>
        <time>2021-04-15T12:00:51.000Z</time>
      </trkpt>
      <trkpt lat="47.14396" lon="-1.51747">
        <ele>83</ele>
        <time>2021-04-15T12:00:53.000Z</time>
      </trkpt>
      <trkpt lat="47.14404" lon="-1.51738">
        <ele>82</ele>
        <time>2021-04-15T12:00:55.000Z</time>
      </trkpt>
      <trkpt lat="47.14413" lon="-1.51729">
        <ele>83</ele>
        <time>2021-04-15T12:00:57.000Z</time>
      </trkpt>
      <trkpt lat="47.14422" lon="-1.5172">
        <ele>83</ele>
        <time>2021-04-15T12:00:59.000Z</time>
      </trkpt>
      <trkpt lat="47.14431" lon="-1.51711">
        <ele>83</ele>
        <time>2021-04-15T12:01:01.000Z</time>
      </trkpt>
      <trkpt lat="47.14441" lon="-1.51702">
        <ele>83</ele>
        <time>2021-04-15T12:01:03.000Z</time>
      </trkpt>
      <trkpt lat="47.1445" lon="-1.51692">
        <ele>83</ele>
        <time>2021-04-15T12:01:05.000Z</time>
      </trkpt>
      <trkpt lat="47.14459" lon="-1.51682">
        <ele>82</ele>
        <time>2021-04-15T12:01:07.000Z</time>
      </trkpt>
      <trkpt lat="47.14468" lon="-1.51672">
        <ele>82</ele>
        <time>2021-04-15T12:01:09.000Z</time>
      </trkpt>
      <trkpt lat="47.14477" lon="-1.51663">
        <ele>82</ele>
        <time>2021-04-15T12:01:11.000Z</time>
      </trkpt>
      <trkpt lat="47.14486" lon="-1.51655">
        <ele>82</ele>
        <time>2021-04-15T12:01:13.000Z</time>
      </trkpt>
      <trkpt lat="47.14495" lon="-1.51646">
        <ele>81</ele>
        <time>2021-04-15T12:01:15.000Z</time>
      </trkpt>
      <trkpt lat="47.14504" lon="-1.51636">
        <ele>81</ele>
        <time>2021-04-15T12:01:17.000Z</time>
      </trkpt>
      <trkpt lat="47.14512" lon="-1.51625">
        <ele>81</ele>
        <time>2021-04-15T12:01:19.000Z</time>
      </trkpt>
      <trkpt lat="47.14521" lon="-1.51615">
        <ele>81</ele>
        <time>2021-04-15T12:01:21.000Z</time>
      </trkpt>
      <trkpt lat="47.1453" lon="-1.51605">
        <ele>81</ele>
        <time>2021-04-15T12:01:23.000Z</time>
      </trkpt>
      <trkpt lat="47.14538" lon="-1.51595">
        <ele>80</ele>
        <time>2021-04-15T12:01:25.000Z</time>
      </trkpt>
      <trkpt lat="47.14546" lon="-1.51584">
        <ele>80</ele>
        <time>2021-04-15T12:01:27.000Z</time>
      </trkpt>
      <trkpt lat="47.14554" lon="-1.51575">
        <ele>80</ele>
        <time>2021-04-15T12:01:29.000Z</time>
      </trkpt>
      <trkpt lat="47.14562" lon="-1.51565">
        <ele>80</ele>
        <time>2021-04-15T12:01:31.000Z</time>
      </trkpt>
      <trkpt lat="47.14568" lon="-1.51554">
        <ele>81</ele>
        <time>2021-04-15T12:01:33.000Z</time>
      </trkpt>
      <trkpt lat="47.14574" lon="-1.51543">
        <ele>81</ele>
        <time>2021-04-15T12:01:35.000Z</time>
      </trkpt>
      <trkpt lat="47.14582" lon="-1.51528">
        <ele>81</ele>
        <time>2021-04-15T12:01:38.000Z</time>
      </trkpt>
      <trkpt lat="47.14591" lon="-1.51512">
        <ele>81</ele>
        <time>2021-04-15T12:01:41.000Z</time>
      </trkpt>
      <trkpt lat="47.14596" lon="-1.51501">
        <ele>81</ele>
        <time>2021-04-15T12:01:43.000Z</time>
      </trkpt>
      <trkpt lat="47.14604" lon="-1.51485">
        <ele>82</ele>
        <time>2021-04-15T12:01:46.000Z</time>
      </trkpt>
      <trkpt lat="47.14609" lon="-1.51474">
        <ele>81</ele>
        <time>2021-04-15T12:01:48.000Z</time>
      </trkpt>
      <trkpt lat="47.14617" lon="-1.51458">
        <ele>81</ele>
        <time>2021-04-15T12:01:51.000Z</time>
      </trkpt>
      <trkpt lat="47.14623" lon="-1.51447">
        <ele>81</ele>
        <time>2021-04-15T12:01:53.000Z</time>
      </trkpt>
      <trkpt lat="47.14628" lon="-1.51436">
        <ele>81</ele>
        <time>2021-04-15T12:01:55.000Z</time>
      </trkpt>
      <trkpt lat="47.14634" lon="-1.51426">
        <ele>81</ele>
        <time>2021-04-15T12:01:57.000Z</time>
      </trkpt>
      <trkpt lat="47.14639" lon="-1.51415">
        <ele>80</ele>
        <time>2021-04-15T12:01:59.000Z</time>
      </trkpt>
      <trkpt lat="47.14645" lon="-1.51404">
        <ele>80</ele>
        <time>2021-04-15T12:02:01.000Z</time>
      </trkpt>
      <trkpt lat="47.14651" lon="-1.51392">
        <ele>80</ele>
        <time>2021-04-15T12:02:03.000Z</time>
      </trkpt>
      <trkpt lat="47.14657" lon="-1.5138">
        <ele>79</ele>
        <time>2021-04-15T12:02:05.000Z</time>
      </trkpt>
      <trkpt lat="47.14664" lon="-1.51367">
        <ele>78</ele>
        <time>2021-04-15T12:02:07.000Z</time>
      </trkpt>
      <trkpt lat="47.1467" lon="-1.51355">
        <ele>78</ele>
        <time>2021-04-15T12:02:09.000Z</time>
      </trkpt>
      <trkpt lat="47.14677" lon="-1.51342">
        <ele>77</ele>
        <time>2021-04-15T12:02:11.000Z</time>
      </trkpt>
      <trkpt lat="47.14683" lon="-1.5133">
        <ele>77</ele>
        <time>2021-04-15T12:02:13.000Z</time>
      </trkpt>
      <trkpt lat="47.14689" lon="-1.51317">
        <ele>77</ele>
        <time>2021-04-15T12:02:15.000Z</time>
      </trkpt>
      <trkpt lat="47.14695" lon="-1.51304">
        <ele>77</ele>
        <time>2021-04-15T12:02:17.000Z</time>
      </trkpt>
      <trkpt lat="47.14701" lon="-1.51292">
        <ele>77</ele>
        <time>2021-04-15T12:02:19.000Z</time>
      </trkpt>
      <trkpt lat="47.14708" lon="-1.5128">
        <ele>76</ele>
        <time>2021-04-15T12:02:21.000Z</time>
      </trkpt>
      <trkpt lat="47.14714" lon="-1.51268">
        <ele>76</ele>
        <time>2021-04-15T12:02:23.000Z</time>
      </trkpt>
      <trkpt lat="47.14721" lon="-1.51255">
        <ele>76</ele>
        <time>2021-04-15T12:02:25.000Z</time>
      </trkpt>
      <trkpt lat="47.14727" lon="-1.51242">
        <ele>76</ele>
        <time>2021-04-15T12:02:27.000Z</time>
      </trkpt>
      <trkpt lat="47.14734" lon="-1.51229">
        <ele>76</ele>
        <time>2021-04-15T12:02:29.000Z</time>
      </trkpt>
      <trkpt lat="47.1474" lon="-1.51216">
        <ele>76</ele>
        <time>2021-04-15T12:02:31.000Z</time>
      </trkpt>
      <trkpt lat="47.14747" lon="-1.51203">
        <ele>75</ele>
        <time>2021-04-15T12:02:33.000Z</time>
      </trkpt>
      <trkpt lat="47.14754" lon="-1.5119">
        <ele>75</ele>
        <time>2021-04-15T12:02:35.000Z</time>
      </trkpt>
      <trkpt lat="47.14761" lon="-1.51177">
        <ele>75</ele>
        <time>2021-04-15T12:02:37.000Z</time>
      </trkpt>
      <trkpt lat="47.14768" lon="-1.51164">
        <ele>75</ele>
        <time>2021-04-15T12:02:39.000Z</time>
      </trkpt>
      <trkpt lat="47.14774" lon="-1.5115">
        <ele>75</ele>
        <time>2021-04-15T12:02:41.000Z</time>
      </trkpt>
      <trkpt lat="47.14781" lon="-1.51137">
        <ele>75</ele>
        <time>2021-04-15T12:02:43.000Z</time>
      </trkpt>
      <trkpt lat="47.14788" lon="-1.51124">
        <ele>75</ele>
        <time>2021-04-15T12:02:45.000Z</time>
      </trkpt>
      <trkpt lat="47.14796" lon="-1.51111">
        <ele>75</ele>
        <time>2021-04-15T12:02:47.000Z</time>
      </trkpt>
      <trkpt lat="47.14803" lon="-1.51097">
        <ele>75</ele>
        <time>2021-04-15T12:02:49.000Z</time>
      </trkpt>
      <trkpt lat="47.1481" lon="-1.51084">
        <ele>75</ele>
        <time>2021-04-15T12:02:51.000Z</time>
      </trkpt>
      <trkpt lat="47.14818" lon="-1.51071">
        <ele>75</ele>
        <time>2021-04-15T12:02:53.000Z</time>
      </trkpt>
      <trkpt lat="47.14826" lon="-1.51058">
        <ele>75</ele>
        <time>2021-04-15T12:02:55.000Z</time>
      </trkpt>
      <trkpt lat="47.14833" lon="-1.51045">
        <ele>75</ele>
        <time>2021-04-15T12:02:57.000Z</time>
      </trkpt>
      <trkpt lat="47.14841" lon="-1.51033">
        <ele>75</ele>
        <time>2021-04-15T12:02:59.000Z</time>
      </trkpt>
      <trkpt lat="47.14848" lon="-1.51021">
        <ele>75</ele>
        <time>2021-04-15T12:03:01.000Z</time>
      </trkpt>
      <trkpt lat="47.14855" lon="-1.51009">
        <ele>75</ele>
        <time>2021-04-15T12:03:03.000Z</time>
      </trkpt>
      <trkpt lat="47.14863" lon="-1.50997">
        <ele>75</ele>
        <time>2021-04-15T12:03:05.000Z</time>
      </trkpt>
      <trkpt lat="47.14871" lon="-1.50985">
        <ele>74</ele>
        <time>2021-04-15T12:03:07.000Z</time>
      </trkpt>
      <trkpt lat="47.14878" lon="-1.50972">
        <ele>75</ele>
        <time>2021-04-15T12:03:09.000Z</time>
      </trkpt>
      <trkpt lat="47.14886" lon="-1.5096">
        <ele>75</ele>
        <time>2021-04-15T12:03:11.000Z</time>
      </trkpt>
      <trkpt lat="47.14894" lon="-1.50949">
        <ele>74</ele>
        <time>2021-04-15T12:03:13.000Z</time>
      </trkpt>
      <trkpt lat="47.14902" lon="-1.50937">
        <ele>74</ele>
        <time>2021-04-15T12:03:15.000Z</time>
      </trkpt>
      <trkpt lat="47.14909" lon="-1.50924">
        <ele>74</ele>
        <time>2021-04-15T12:03:17.000Z</time>
      </trkpt>
      <trkpt lat="47.14917" lon="-1.50913">
        <ele>74</ele>
        <time>2021-04-15T12:03:19.000Z</time>
      </trkpt>
      <trkpt lat="47.14925" lon="-1.50902">
        <ele>74</ele>
        <time>2021-04-15T12:03:21.000Z</time>
      </trkpt>
      <trkpt lat="47.14932" lon="-1.5089">
        <ele>74</ele>
        <time>2021-04-15T12:03:23.000Z</time>
      </trkpt>
      <trkpt lat="47.1494" lon="-1.50879">
        <ele>74</ele>
        <time>2021-04-15T12:03:25.000Z</time>
      </trkpt>
      <trkpt lat="47.14948" lon="-1.50867">
        <ele>73</ele>
        <time>2021-04-15T12:03:27.000Z</time>
      </trkpt>
      <trkpt lat="47.14956" lon="-1.50856">
        <ele>73</ele>
        <time>2021-04-15T12:03:29.000Z</time>
      </trkpt>
      <trkpt lat="47.14964" lon="-1.50844">
        <ele>73</ele>
        <time>2021-04-15T12:03:31.000Z</time>
      </trkpt>
      <trkpt lat="47.14972" lon="-1.50833">
        <ele>73</ele>
        <time>2021-04-15T12:03:33.000Z</time>
      </trkpt>
      <trkpt lat="47.1498" lon="-1.50823">
        <ele>73</ele>
        <time>2021-04-15T12:03:35.000Z</time>
      </trkpt>
      <trkpt lat="47.14988" lon="-1.50812">
        <ele>73</ele>
        <time>2021-04-15T12:03:37.000Z</time>
      </trkpt>
      <trkpt lat="47.14997" lon="-1.50801">
        <ele>72</ele>
        <time>2021-04-15T12:03:39.000Z</time>
      </trkpt>
      <trkpt lat="47.15005" lon="-1.5079">
        <ele>72</ele>
        <time>2021-04-15T12:03:41.000Z</time>
      </trkpt>
      <trkpt lat="47.15013" lon="-1.5078">
        <ele>72</ele>
        <time>2021-04-15T12:03:43.000Z</time>
      </trkpt>
      <trkpt lat="47.15021" lon="-1.5077">
        <ele>72</ele>
        <time>2021-04-15T12:03:45.000Z</time>
      </trkpt>
      <trkpt lat="47.15029" lon="-1.50759">
        <ele>72</ele>
        <time>2021-04-15T12:03:47.000Z</time>
      </trkpt>
      <trkpt lat="47.15038" lon="-1.50749">
        <ele>72</ele>
        <time>2021-04-15T12:03:49.000Z</time>
      </trkpt>
      <trkpt lat="47.15046" lon="-1.50738">
        <ele>71</ele>
        <time>2021-04-15T12:03:51.000Z</time>
      </trkpt>
      <trkpt lat="47.15055" lon="-1.50728">
        <ele>71</ele>
        <time>2021-04-15T12:03:53.000Z</time>
      </trkpt>
      <trkpt lat="47.15063" lon="-1.50718">
        <ele>71</ele>
        <time>2021-04-15T12:03:55.000Z</time>
      </trkpt>
      <trkpt lat="47.15071" lon="-1.50708">
        <ele>71</ele>
        <time>2021-04-15T12:03:57.000Z</time>
      </trkpt>
      <trkpt lat="47.1508" lon="-1.50698">
        <ele>71</ele>
        <time>2021-04-15T12:03:59.000Z</time>
      </trkpt>
      <trkpt lat="47.15088" lon="-1.50688">
        <ele>71</ele>
        <time>2021-04-15T12:04:01.000Z</time>
      </trkpt>
      <trkpt lat="47.15096" lon="-1.50678">
        <ele>71</ele>
        <time>2021-04-15T12:04:03.000Z</time>
      </trkpt>
      <trkpt lat="47.15105" lon="-1.50668">
        <ele>71</ele>
        <time>2021-04-15T12:04:05.000Z</time>
      </trkpt>
      <trkpt lat="47.15113" lon="-1.50659">
        <ele>71</ele>
        <time>2021-04-15T12:04:07.000Z</time>
      </trkpt>
      <trkpt lat="47.15121" lon="-1.5065">
        <ele>71</ele>
        <time>2021-04-15T12:04:09.000Z</time>
      </trkpt>
      <trkpt lat="47.15129" lon="-1.5064">
        <ele>71</ele>
        <time>2021-04-15T12:04:11.000Z</time>
      </trkpt>
      <trkpt lat="47.15137" lon="-1.50631">
        <ele>71</ele>
        <time>2021-04-15T12:04:13.000Z</time>
      </trkpt>
      <trkpt lat="47.15145" lon="-1.50622">
        <ele>71</ele>
        <time>2021-04-15T12:04:15.000Z</time>
      </trkpt>
      <trkpt lat="47.15153" lon="-1.50612">
        <ele>71</ele>
        <time>2021-04-15T12:04:17.000Z</time>
      </trkpt>
      <trkpt lat="47.15162" lon="-1.50603">
        <ele>71</ele>
        <time>2021-04-15T12:04:19.000Z</time>
      </trkpt>
      <trkpt lat="47.15169" lon="-1.50594">
        <ele>72</ele>
        <time>2021-04-15T12:04:21.000Z</time>
      </trkpt>
      <trkpt lat="47.15177" lon="-1.50585">
        <ele>72</ele>
        <time>2021-04-15T12:04:23.000Z</time>
      </trkpt>
      <trkpt lat="47.15185" lon="-1.50576">
        <ele>72</ele>
        <time>2021-04-15T12:04:25.000Z</time>
      </trkpt>
      <trkpt lat="47.15193" lon="-1.50567">
        <ele>72</ele>
        <time>2021-04-15T12:04:27.000Z</time>
      </trkpt>
      <trkpt lat="47.15201" lon="-1.50557">
        <ele>72</ele>
        <time>2021-04-15T12:04:29.000Z</time>
      </trkpt>
      <trkpt lat="47.15208" lon="-1.50548">
        <ele>73</ele>
        <time>2021-04-15T12:04:31.000Z</time>
      </trkpt>
      <trkpt lat="47.15216" lon="-1.50539">
        <ele>73</ele>
        <time>2021-04-15T12:04:33.000Z</time>
      </trkpt>
      <trkpt lat="47.15224" lon="-1.5053">
        <ele>73</ele>
        <time>2021-04-15T12:04:35.000Z</time>
      </trkpt>
      <trkpt lat="47.15232" lon="-1.5052">
        <ele>74</ele>
        <time>2021-04-15T12:04:37.000Z</time>
      </trkpt>
      <trkpt lat="47.15241" lon="-1.50512">
        <ele>74</ele>
        <time>2021-04-15T12:04:39.000Z</time>
      </trkpt>
      <trkpt lat="47.15249" lon="-1.50502">
        <ele>74</ele>
        <time>2021-04-15T12:04:41.000Z</time>
      </trkpt>
      <trkpt lat="47.15257" lon="-1.50493">
        <ele>74</ele>
        <time>2021-04-15T12:04:43.000Z</time>
      </trkpt>
      <trkpt lat="47.15265" lon="-1.50483">
        <ele>74</ele>
        <time>2021-04-15T12:04:45.000Z</time>
      </trkpt>
      <trkpt lat="47.15273" lon="-1.50474">
        <ele>74</ele>
        <time>2021-04-15T12:04:47.000Z</time>
      </trkpt>
      <trkpt lat="47.15282" lon="-1.50464">
        <ele>74</ele>
        <time>2021-04-15T12:04:49.000Z</time>
      </trkpt>
      <trkpt lat="47.1529" lon="-1.50454">
        <ele>74</ele>
        <time>2021-04-15T12:04:51.000Z</time>
      </trkpt>
      <trkpt lat="47.15299" lon="-1.50444">
        <ele>74</ele>
        <time>2021-04-15T12:04:53.000Z</time>
      </trkpt>
      <trkpt lat="47.15307" lon="-1.50435">
        <ele>74</ele>
        <time>2021-04-15T12:04:55.000Z</time>
      </trkpt>
      <trkpt lat="47.15315" lon="-1.50426">
        <ele>74</ele>
        <time>2021-04-15T12:04:57.000Z</time>
      </trkpt>
      <trkpt lat="47.15322" lon="-1.50416">
        <ele>74</ele>
        <time>2021-04-15T12:04:59.000Z</time>
      </trkpt>
      <trkpt lat="47.1533" lon="-1.50408">
        <ele>74</ele>
        <time>2021-04-15T12:05:01.000Z</time>
      </trkpt>
      <trkpt lat="47.15337" lon="-1.504">
        <ele>74</ele>
        <time>2021-04-15T12:05:04.000Z</time>
      </trkpt>
      <trkpt lat="47.15345" lon="-1.5039">
        <ele>74</ele>
        <time>2021-04-15T12:05:09.000Z</time>
      </trkpt>
      <trkpt lat="47.15355" lon="-1.5038">
        <ele>75</ele>
        <time>2021-04-15T12:05:13.000Z</time>
      </trkpt>
      <trkpt lat="47.15365" lon="-1.50369">
        <ele>74</ele>
        <time>2021-04-15T12:05:16.000Z</time>
      </trkpt>
      <trkpt lat="47.15372" lon="-1.50361">
        <ele>75</ele>
        <time>2021-04-15T12:05:20.000Z</time>
      </trkpt>
      <trkpt lat="47.15381" lon="-1.50351">
        <ele>77</ele>
        <time>2021-04-15T12:05:29.000Z</time>
      </trkpt>
      <trkpt lat="47.15389" lon="-1.50342">
        <ele>78</ele>
        <time>2021-04-15T12:05:31.000Z</time>
      </trkpt>
      <trkpt lat="47.15398" lon="-1.50333">
        <ele>78</ele>
        <time>2021-04-15T12:05:33.000Z</time>
      </trkpt>
      <trkpt lat="47.15408" lon="-1.50325">
        <ele>77</ele>
        <time>2021-04-15T12:05:35.000Z</time>
      </trkpt>
      <trkpt lat="47.15417" lon="-1.50316">
        <ele>77</ele>
        <time>2021-04-15T12:05:37.000Z</time>
      </trkpt>
      <trkpt lat="47.15427" lon="-1.50309">
        <ele>77</ele>
        <time>2021-04-15T12:05:39.000Z</time>
      </trkpt>
      <trkpt lat="47.15437" lon="-1.50302">
        <ele>77</ele>
        <time>2021-04-15T12:05:41.000Z</time>
      </trkpt>
      <trkpt lat="47.15447" lon="-1.50295">
        <ele>77</ele>
        <time>2021-04-15T12:05:43.000Z</time>
      </trkpt>
      <trkpt lat="47.15457" lon="-1.50289">
        <ele>76</ele>
        <time>2021-04-15T12:05:45.000Z</time>
      </trkpt>
      <trkpt lat="47.15467" lon="-1.50284">
        <ele>75</ele>
        <time>2021-04-15T12:05:47.000Z</time>
      </trkpt>
      <trkpt lat="47.15477" lon="-1.50279">
        <ele>75</ele>
        <time>2021-04-15T12:05:49.000Z</time>
      </trkpt>
      <trkpt lat="47.15488" lon="-1.50274">
        <ele>75</ele>
        <time>2021-04-15T12:05:51.000Z</time>
      </trkpt>
      <trkpt lat="47.15499" lon="-1.5027">
        <ele>75</ele>
        <time>2021-04-15T12:05:53.000Z</time>
      </trkpt>
      <trkpt lat="47.1551" lon="-1.50265">
        <ele>75</ele>
        <time>2021-04-15T12:05:55.000Z</time>
      </trkpt>
      <trkpt lat="47.15521" lon="-1.5026">
        <ele>74</ele>
        <time>2021-04-15T12:05:57.000Z</time>
      </trkpt>
      <trkpt lat="47.15531" lon="-1.50255">
        <ele>74</ele>
        <time>2021-04-15T12:05:59.000Z</time>
      </trkpt>
      <trkpt lat="47.15542" lon="-1.50249">
        <ele>74</ele>
        <time>2021-04-15T12:06:01.000Z</time>
      </trkpt>
      <trkpt lat="47.15552" lon="-1.50241">
        <ele>74</ele>
        <time>2021-04-15T12:06:03.000Z</time>
      </trkpt>
      <trkpt lat="47.15562" lon="-1.50232">
        <ele>74</ele>
        <time>2021-04-15T12:06:05.000Z</time>
      </trkpt>
      <trkpt lat="47.15571" lon="-1.50223">
        <ele>73</ele>
        <time>2021-04-15T12:06:07.000Z</time>
      </trkpt>
      <trkpt lat="47.15582" lon="-1.50213">
        <ele>73</ele>
        <time>2021-04-15T12:06:09.000Z</time>
      </trkpt>
      <trkpt lat="47.15591" lon="-1.50204">
        <ele>73</ele>
        <time>2021-04-15T12:06:11.000Z</time>
      </trkpt>
      <trkpt lat="47.15601" lon="-1.50195">
        <ele>74</ele>
        <time>2021-04-15T12:06:13.000Z</time>
      </trkpt>
      <trkpt lat="47.1561" lon="-1.50185">
        <ele>73</ele>
        <time>2021-04-15T12:06:15.000Z</time>
      </trkpt>
      <trkpt lat="47.1562" lon="-1.50176">
        <ele>73</ele>
        <time>2021-04-15T12:06:17.000Z</time>
      </trkpt>
      <trkpt lat="47.1563" lon="-1.50167">
        <ele>73</ele>
        <time>2021-04-15T12:06:19.000Z</time>
      </trkpt>
      <trkpt lat="47.1564" lon="-1.50157">
        <ele>73</ele>
        <time>2021-04-15T12:06:21.000Z</time>
      </trkpt>
      <trkpt lat="47.1565" lon="-1.50148">
        <ele>73</ele>
        <time>2021-04-15T12:06:23.000Z</time>
      </trkpt>
      <trkpt lat="47.1566" lon="-1.50138">
        <ele>73</ele>
        <time>2021-04-15T12:06:25.000Z</time>
      </trkpt>
      <trkpt lat="47.15669" lon="-1.50127">
        <ele>73</ele>
        <time>2021-04-15T12:06:27.000Z</time>
      </trkpt>
      <trkpt lat="47.15679" lon="-1.50116">
        <ele>73</ele>
        <time>2021-04-15T12:06:29.000Z</time>
      </trkpt>
      <trkpt lat="47.15687" lon="-1.50105">
        <ele>73</ele>
        <time>2021-04-15T12:06:31.000Z</time>
      </trkpt>
      <trkpt lat="47.15695" lon="-1.50094">
        <ele>73</ele>
        <time>2021-04-15T12:06:33.000Z</time>
      </trkpt>
      <trkpt lat="47.15702" lon="-1.50081">
        <ele>73</ele>
        <time>2021-04-15T12:06:35.000Z</time>
      </trkpt>
      <trkpt lat="47.15709" lon="-1.50068">
        <ele>73</ele>
        <time>2021-04-15T12:06:37.000Z</time>
      </trkpt>
      <trkpt lat="47.15715" lon="-1.50055">
        <ele>73</ele>
        <time>2021-04-15T12:06:39.000Z</time>
      </trkpt>
      <trkpt lat="47.15721" lon="-1.50042">
        <ele>73</ele>
        <time>2021-04-15T12:06:41.000Z</time>
      </trkpt>
      <trkpt lat="47.15728" lon="-1.5003">
        <ele>73</ele>
        <time>2021-04-15T12:06:43.000Z</time>
      </trkpt>
      <trkpt lat="47.15735" lon="-1.50017">
        <ele>73</ele>
        <time>2021-04-15T12:06:45.000Z</time>
      </trkpt>
      <trkpt lat="47.15741" lon="-1.50003">
        <ele>73</ele>
        <time>2021-04-15T12:06:47.000Z</time>
      </trkpt>
      <trkpt lat="47.15748" lon="-1.49991">
        <ele>73</ele>
        <time>2021-04-15T12:06:49.000Z</time>
      </trkpt>
      <trkpt lat="47.15755" lon="-1.49978">
        <ele>73</ele>
        <time>2021-04-15T12:06:51.000Z</time>
      </trkpt>
      <trkpt lat="47.15761" lon="-1.49965">
        <ele>73</ele>
        <time>2021-04-15T12:06:53.000Z</time>
      </trkpt>
      <trkpt lat="47.15768" lon="-1.49952">
        <ele>73</ele>
        <time>2021-04-15T12:06:55.000Z</time>
      </trkpt>
      <trkpt lat="47.15775" lon="-1.4994">
        <ele>73</ele>
        <time>2021-04-15T12:06:57.000Z</time>
      </trkpt>
      <trkpt lat="47.15782" lon="-1.49927">
        <ele>73</ele>
        <time>2021-04-15T12:06:59.000Z</time>
      </trkpt>
      <trkpt lat="47.15788" lon="-1.49913">
        <ele>73</ele>
        <time>2021-04-15T12:07:01.000Z</time>
      </trkpt>
      <trkpt lat="47.15795" lon="-1.499">
        <ele>72</ele>
        <time>2021-04-15T12:07:03.000Z</time>
      </trkpt>
      <trkpt lat="47.15802" lon="-1.49887">
        <ele>72</ele>
        <time>2021-04-15T12:07:05.000Z</time>
      </trkpt>
      <trkpt lat="47.15808" lon="-1.49874">
        <ele>72</ele>
        <time>2021-04-15T12:07:07.000Z</time>
      </trkpt>
      <trkpt lat="47.15815" lon="-1.49861">
        <ele>72</ele>
        <time>2021-04-15T12:07:09.000Z</time>
      </trkpt>
      <trkpt lat="47.15821" lon="-1.49848">
        <ele>72</ele>
        <time>2021-04-15T12:07:11.000Z</time>
      </trkpt>
      <trkpt lat="47.15828" lon="-1.49835">
        <ele>72</ele>
        <time>2021-04-15T12:07:13.000Z</time>
      </trkpt>
      <trkpt lat="47.15835" lon="-1.49822">
        <ele>72</ele>
        <time>2021-04-15T12:07:15.000Z</time>
      </trkpt>
      <trkpt lat="47.15841" lon="-1.49808">
        <ele>71</ele>
        <time>2021-04-15T12:07:17.000Z</time>
      </trkpt>
      <trkpt lat="47.15849" lon="-1.49794">
        <ele>71</ele>
        <time>2021-04-15T12:07:19.000Z</time>
      </trkpt>
      <trkpt lat="47.15856" lon="-1.49779">
        <ele>71</ele>
        <time>2021-04-15T12:07:21.000Z</time>
      </trkpt>
      <trkpt lat="47.15863" lon="-1.49765">
        <ele>71</ele>
        <time>2021-04-15T12:07:23.000Z</time>
      </trkpt>
      <trkpt lat="47.15871" lon="-1.49751">
        <ele>70</ele>
        <time>2021-04-15T12:07:25.000Z</time>
      </trkpt>
      <trkpt lat="47.15877" lon="-1.49738">
        <ele>71</ele>
        <time>2021-04-15T12:07:27.000Z</time>
      </trkpt>
      <trkpt lat="47.15884" lon="-1.49724">
        <ele>71</ele>
        <time>2021-04-15T12:07:29.000Z</time>
      </trkpt>
      <trkpt lat="47.15892" lon="-1.49711">
        <ele>72</ele>
        <time>2021-04-15T12:07:31.000Z</time>
      </trkpt>
      <trkpt lat="47.15899" lon="-1.49696">
        <ele>71</ele>
        <time>2021-04-15T12:07:33.000Z</time>
      </trkpt>
      <trkpt lat="47.15907" lon="-1.49681">
        <ele>71</ele>
        <time>2021-04-15T12:07:35.000Z</time>
      </trkpt>
      <trkpt lat="47.15914" lon="-1.49666">
        <ele>70</ele>
        <time>2021-04-15T12:07:37.000Z</time>
      </trkpt>
      <trkpt lat="47.15922" lon="-1.49653">
        <ele>70</ele>
        <time>2021-04-15T12:07:39.000Z</time>
      </trkpt>
      <trkpt lat="47.15929" lon="-1.49639">
        <ele>69</ele>
        <time>2021-04-15T12:07:41.000Z</time>
      </trkpt>
      <trkpt lat="47.15936" lon="-1.49625">
        <ele>70</ele>
        <time>2021-04-15T12:07:43.000Z</time>
      </trkpt>
      <trkpt lat="47.15944" lon="-1.49611">
        <ele>70</ele>
        <time>2021-04-15T12:07:45.000Z</time>
      </trkpt>
      <trkpt lat="47.1595" lon="-1.49597">
        <ele>69</ele>
        <time>2021-04-15T12:07:47.000Z</time>
      </trkpt>
      <trkpt lat="47.15957" lon="-1.49583">
        <ele>69</ele>
        <time>2021-04-15T12:07:49.000Z</time>
      </trkpt>
      <trkpt lat="47.15964" lon="-1.4957">
        <ele>68</ele>
        <time>2021-04-15T12:07:51.000Z</time>
      </trkpt>
      <trkpt lat="47.1597" lon="-1.49556">
        <ele>68</ele>
        <time>2021-04-15T12:07:53.000Z</time>
      </trkpt>
      <trkpt lat="47.15977" lon="-1.49543">
        <ele>68</ele>
        <time>2021-04-15T12:07:55.000Z</time>
      </trkpt>
      <trkpt lat="47.15984" lon="-1.4953">
        <ele>68</ele>
        <time>2021-04-15T12:07:57.000Z</time>
      </trkpt>
      <trkpt lat="47.15991" lon="-1.49517">
        <ele>67</ele>
        <time>2021-04-15T12:07:59.000Z</time>
      </trkpt>
      <trkpt lat="47.15998" lon="-1.49504">
        <ele>67</ele>
        <time>2021-04-15T12:08:01.000Z</time>
      </trkpt>
      <trkpt lat="47.16005" lon="-1.4949">
        <ele>67</ele>
        <time>2021-04-15T12:08:03.000Z</time>
      </trkpt>
      <trkpt lat="47.16012" lon="-1.49477">
        <ele>67</ele>
        <time>2021-04-15T12:08:05.000Z</time>
      </trkpt>
      <trkpt lat="47.16019" lon="-1.49464">
        <ele>67</ele>
        <time>2021-04-15T12:08:07.000Z</time>
      </trkpt>
      <trkpt lat="47.16025" lon="-1.49451">
        <ele>67</ele>
        <time>2021-04-15T12:08:09.000Z</time>
      </trkpt>
      <trkpt lat="47.16032" lon="-1.49438">
        <ele>67</ele>
        <time>2021-04-15T12:08:11.000Z</time>
      </trkpt>
      <trkpt lat="47.16039" lon="-1.49425">
        <ele>67</ele>
        <time>2021-04-15T12:08:13.000Z</time>
      </trkpt>
      <trkpt lat="47.16046" lon="-1.49413">
        <ele>67</ele>
        <time>2021-04-15T12:08:15.000Z</time>
      </trkpt>
      <trkpt lat="47.16051" lon="-1.49401">
        <ele>67</ele>
        <time>2021-04-15T12:08:17.000Z</time>
      </trkpt>
      <trkpt lat="47.16058" lon="-1.4939">
        <ele>67</ele>
        <time>2021-04-15T12:08:19.000Z</time>
      </trkpt>
      <trkpt lat="47.16071" lon="-1.49401">
        <ele>67</ele>
        <time>2021-04-15T12:08:22.000Z</time>
      </trkpt>
      <trkpt lat="47.16076" lon="-1.49419">
        <ele>67</ele>
        <time>2021-04-15T12:08:24.000Z</time>
      </trkpt>
      <trkpt lat="47.16082" lon="-1.49435">
        <ele>67</ele>
        <time>2021-04-15T12:08:26.000Z</time>
      </trkpt>
      <trkpt lat="47.16086" lon="-1.49452">
        <ele>68</ele>
        <time>2021-04-15T12:08:28.000Z</time>
      </trkpt>
      <trkpt lat="47.16087" lon="-1.49468">
        <ele>68</ele>
        <time>2021-04-15T12:08:30.000Z</time>
      </trkpt>
      <trkpt lat="47.16084" lon="-1.49483">
        <ele>69</ele>
        <time>2021-04-15T12:08:32.000Z</time>
      </trkpt>
      <trkpt lat="47.16079" lon="-1.49498">
        <ele>69</ele>
        <time>2021-04-15T12:08:34.000Z</time>
      </trkpt>
      <trkpt lat="47.16073" lon="-1.49513">
        <ele>69</ele>
        <time>2021-04-15T12:08:36.000Z</time>
      </trkpt>
      <trkpt lat="47.16066" lon="-1.49527">
        <ele>69</ele>
        <time>2021-04-15T12:08:38.000Z</time>
      </trkpt>
      <trkpt lat="47.1606" lon="-1.49541">
        <ele>69</ele>
        <time>2021-04-15T12:08:40.000Z</time>
      </trkpt>
      <trkpt lat="47.16055" lon="-1.49555">
        <ele>70</ele>
        <time>2021-04-15T12:08:42.000Z</time>
      </trkpt>
      <trkpt lat="47.16053" lon="-1.4957">
        <ele>70</ele>
        <time>2021-04-15T12:08:44.000Z</time>
      </trkpt>
      <trkpt lat="47.16054" lon="-1.49586">
        <ele>71</ele>
        <time>2021-04-15T12:08:46.000Z</time>
      </trkpt>
      <trkpt lat="47.16055" lon="-1.49602">
        <ele>72</ele>
        <time>2021-04-15T12:08:48.000Z</time>
      </trkpt>
      <trkpt lat="47.16057" lon="-1.49618">
        <ele>73</ele>
        <time>2021-04-15T12:08:50.000Z</time>
      </trkpt>
      <trkpt lat="47.16057" lon="-1.49635">
        <ele>73</ele>
        <time>2021-04-15T12:08:52.000Z</time>
      </trkpt>
      <trkpt lat="47.16058" lon="-1.49652">
        <ele>74</ele>
        <time>2021-04-15T12:08:54.000Z</time>
      </trkpt>
      <trkpt lat="47.16058" lon="-1.49668">
        <ele>75</ele>
        <time>2021-04-15T12:08:56.000Z</time>
      </trkpt>
      <trkpt lat="47.16057" lon="-1.49684">
        <ele>75</ele>
        <time>2021-04-15T12:08:58.000Z</time>
      </trkpt>
      <trkpt lat="47.16057" lon="-1.497">
        <ele>74</ele>
        <time>2021-04-15T12:09:00.000Z</time>
      </trkpt>
      <trkpt lat="47.16057" lon="-1.49716">
        <ele>74</ele>
        <time>2021-04-15T12:09:02.000Z</time>
      </trkpt>
      <trkpt lat="47.16056" lon="-1.49731">
        <ele>74</ele>
        <time>2021-04-15T12:09:04.000Z</time>
      </trkpt>
      <trkpt lat="47.16058" lon="-1.49746">
        <ele>74</ele>
        <time>2021-04-15T12:09:06.000Z</time>
      </trkpt>
      <trkpt lat="47.16063" lon="-1.4976">
        <ele>74</ele>
        <time>2021-04-15T12:09:08.000Z</time>
      </trkpt>
      <trkpt lat="47.16071" lon="-1.49769">
        <ele>74</ele>
        <time>2021-04-15T12:09:10.000Z</time>
      </trkpt>
      <trkpt lat="47.1608" lon="-1.49777">
        <ele>74</ele>
        <time>2021-04-15T12:09:12.000Z</time>
      </trkpt>
      <trkpt lat="47.1609" lon="-1.49782">
        <ele>73</ele>
        <time>2021-04-15T12:09:14.000Z</time>
      </trkpt>
      <trkpt lat="47.161" lon="-1.49785">
        <ele>73</ele>
        <time>2021-04-15T12:09:16.000Z</time>
      </trkpt>
      <trkpt lat="47.16111" lon="-1.49787">
        <ele>72</ele>
        <time>2021-04-15T12:09:18.000Z</time>
      </trkpt>
      <trkpt lat="47.16121" lon="-1.49787">
        <ele>72</ele>
        <time>2021-04-15T12:09:20.000Z</time>
      </trkpt>
      <trkpt lat="47.16133" lon="-1.49788">
        <ele>72</ele>
        <time>2021-04-15T12:09:22.000Z</time>
      </trkpt>
      <trkpt lat="47.16144" lon="-1.4979">
        <ele>72</ele>
        <time>2021-04-15T12:09:24.000Z</time>
      </trkpt>
      <trkpt lat="47.16155" lon="-1.49796">
        <ele>71</ele>
        <time>2021-04-15T12:09:26.000Z</time>
      </trkpt>
      <trkpt lat="47.16164" lon="-1.49807">
        <ele>71</ele>
        <time>2021-04-15T12:09:28.000Z</time>
      </trkpt>
      <trkpt lat="47.16171" lon="-1.4982">
        <ele>71</ele>
        <time>2021-04-15T12:09:30.000Z</time>
      </trkpt>
      <trkpt lat="47.16175" lon="-1.49836">
        <ele>72</ele>
        <time>2021-04-15T12:09:32.000Z</time>
      </trkpt>
      <trkpt lat="47.16178" lon="-1.49853">
        <ele>72</ele>
        <time>2021-04-15T12:09:34.000Z</time>
      </trkpt>
      <trkpt lat="47.16179" lon="-1.49869">
        <ele>72</ele>
        <time>2021-04-15T12:09:36.000Z</time>
      </trkpt>
      <trkpt lat="47.16179" lon="-1.49885">
        <ele>73</ele>
        <time>2021-04-15T12:09:38.000Z</time>
      </trkpt>
      <trkpt lat="47.16178" lon="-1.49901">
        <ele>73</ele>
        <time>2021-04-15T12:09:40.000Z</time>
      </trkpt>
      <trkpt lat="47.16178" lon="-1.49917">
        <ele>73</ele>
        <time>2021-04-15T12:09:42.000Z</time>
      </trkpt>
      <trkpt lat="47.16176" lon="-1.49933">
        <ele>73</ele>
        <time>2021-04-15T12:09:44.000Z</time>
      </trkpt>
      <trkpt lat="47.16175" lon="-1.4995">
        <ele>73</ele>
        <time>2021-04-15T12:09:46.000Z</time>
      </trkpt>
      <trkpt lat="47.16173" lon="-1.49965">
        <ele>73</ele>
        <time>2021-04-15T12:09:48.000Z</time>
      </trkpt>
      <trkpt lat="47.16169" lon="-1.49981">
        <ele>73</ele>
        <time>2021-04-15T12:09:50.000Z</time>
      </trkpt>
      <trkpt lat="47.16168" lon="-1.49998">
        <ele>73</ele>
        <time>2021-04-15T12:09:52.000Z</time>
      </trkpt>
      <trkpt lat="47.16169" lon="-1.50015">
        <ele>72</ele>
        <time>2021-04-15T12:09:54.000Z</time>
      </trkpt>
      <trkpt lat="47.16172" lon="-1.50033">
        <ele>72</ele>
        <time>2021-04-15T12:09:56.000Z</time>
      </trkpt>
      <trkpt lat="47.16178" lon="-1.50048">
        <ele>72</ele>
        <time>2021-04-15T12:09:58.000Z</time>
      </trkpt>
      <trkpt lat="47.16184" lon="-1.50063">
        <ele>72</ele>
        <time>2021-04-15T12:10:00.000Z</time>
      </trkpt>
      <trkpt lat="47.16191" lon="-1.50078">
        <ele>72</ele>
        <time>2021-04-15T12:10:02.000Z</time>
      </trkpt>
      <trkpt lat="47.16198" lon="-1.50094">
        <ele>71</ele>
        <time>2021-04-15T12:10:04.000Z</time>
      </trkpt>
      <trkpt lat="47.16206" lon="-1.50109">
        <ele>70</ele>
        <time>2021-04-15T12:10:06.000Z</time>
      </trkpt>
      <trkpt lat="47.16213" lon="-1.50125">
        <ele>70</ele>
        <time>2021-04-15T12:10:08.000Z</time>
      </trkpt>
      <trkpt lat="47.1622" lon="-1.50142">
        <ele>69</ele>
        <time>2021-04-15T12:10:10.000Z</time>
      </trkpt>
      <trkpt lat="47.16226" lon="-1.5016">
        <ele>69</ele>
        <time>2021-04-15T12:10:12.000Z</time>
      </trkpt>
      <trkpt lat="47.16232" lon="-1.50179">
        <ele>68</ele>
        <time>2021-04-15T12:10:14.000Z</time>
      </trkpt>
      <trkpt lat="47.16237" lon="-1.50198">
        <ele>68</ele>
        <time>2021-04-15T12:10:16.000Z</time>
      </trkpt>
      <trkpt lat="47.16242" lon="-1.50219">
        <ele>67</ele>
        <time>2021-04-15T12:10:18.000Z</time>
      </trkpt>
      <trkpt lat="47.16247" lon="-1.50241">
        <ele>67</ele>
        <time>2021-04-15T12:10:20.000Z</time>
      </trkpt>
      <trkpt lat="47.16251" lon="-1.50263">
        <ele>66</ele>
        <time>2021-04-15T12:10:22.000Z</time>
      </trkpt>
      <trkpt lat="47.16256" lon="-1.50285">
        <ele>66</ele>
        <time>2021-04-15T12:10:24.000Z</time>
      </trkpt>
      <trkpt lat="47.16262" lon="-1.50305">
        <ele>65</ele>
        <time>2021-04-15T12:10:26.000Z</time>
      </trkpt>
      <trkpt lat="47.16271" lon="-1.50322">
        <ele>65</ele>
        <time>2021-04-15T12:10:28.000Z</time>
      </trkpt>
      <trkpt lat="47.16282" lon="-1.50332">
        <ele>66</ele>
        <time>2021-04-15T12:10:30.000Z</time>
      </trkpt>
      <trkpt lat="47.16295" lon="-1.50338">
        <ele>66</ele>
        <time>2021-04-15T12:10:32.000Z</time>
      </trkpt>
      <trkpt lat="47.16307" lon="-1.50339">
        <ele>66</ele>
        <time>2021-04-15T12:10:34.000Z</time>
      </trkpt>
      <trkpt lat="47.16319" lon="-1.50336">
        <ele>66</ele>
        <time>2021-04-15T12:10:36.000Z</time>
      </trkpt>
      <trkpt lat="47.16329" lon="-1.50327">
        <ele>66</ele>
        <time>2021-04-15T12:10:38.000Z</time>
      </trkpt>
      <trkpt lat="47.16339" lon="-1.50318">
        <ele>66</ele>
        <time>2021-04-15T12:10:40.000Z</time>
      </trkpt>
      <trkpt lat="47.16347" lon="-1.50308">
        <ele>66</ele>
        <time>2021-04-15T12:10:42.000Z</time>
      </trkpt>
      <trkpt lat="47.16356" lon="-1.50299">
        <ele>67</ele>
        <time>2021-04-15T12:10:44.000Z</time>
      </trkpt>
      <trkpt lat="47.16365" lon="-1.50292">
        <ele>68</ele>
        <time>2021-04-15T12:10:46.000Z</time>
      </trkpt>
      <trkpt lat="47.16374" lon="-1.50285">
        <ele>68</ele>
        <time>2021-04-15T12:10:48.000Z</time>
      </trkpt>
      <trkpt lat="47.16383" lon="-1.50279">
        <ele>68</ele>
        <time>2021-04-15T12:10:50.000Z</time>
      </trkpt>
      <trkpt lat="47.16392" lon="-1.50273">
        <ele>69</ele>
        <time>2021-04-15T12:10:52.000Z</time>
      </trkpt>
      <trkpt lat="47.16402" lon="-1.50268">
        <ele>69</ele>
        <time>2021-04-15T12:10:54.000Z</time>
      </trkpt>
      <trkpt lat="47.16412" lon="-1.50264">
        <ele>69</ele>
        <time>2021-04-15T12:10:56.000Z</time>
      </trkpt>
      <trkpt lat="47.16422" lon="-1.5026">
        <ele>69</ele>
        <time>2021-04-15T12:10:58.000Z</time>
      </trkpt>
      <trkpt lat="47.16432" lon="-1.50257">
        <ele>69</ele>
        <time>2021-04-15T12:11:00.000Z</time>
      </trkpt>
      <trkpt lat="47.16441" lon="-1.50255">
        <ele>69</ele>
        <time>2021-04-15T12:11:02.000Z</time>
      </trkpt>
      <trkpt lat="47.16451" lon="-1.50252">
        <ele>69</ele>
        <time>2021-04-15T12:11:04.000Z</time>
      </trkpt>
      <trkpt lat="47.1646" lon="-1.50247">
        <ele>69</ele>
        <time>2021-04-15T12:11:06.000Z</time>
      </trkpt>
      <trkpt lat="47.1647" lon="-1.50243">
        <ele>69</ele>
        <time>2021-04-15T12:11:08.000Z</time>
      </trkpt>
      <trkpt lat="47.1648" lon="-1.5024">
        <ele>69</ele>
        <time>2021-04-15T12:11:10.000Z</time>
      </trkpt>
      <trkpt lat="47.1649" lon="-1.50237">
        <ele>69</ele>
        <time>2021-04-15T12:11:12.000Z</time>
      </trkpt>
      <trkpt lat="47.165" lon="-1.50235">
        <ele>70</ele>
        <time>2021-04-15T12:11:14.000Z</time>
      </trkpt>
      <trkpt lat="47.1651" lon="-1.50235">
        <ele>70</ele>
        <time>2021-04-15T12:11:16.000Z</time>
      </trkpt>
      <trkpt lat="47.16521" lon="-1.50238">
        <ele>70</ele>
        <time>2021-04-15T12:11:18.000Z</time>
      </trkpt>
      <trkpt lat="47.16531" lon="-1.50242">
        <ele>70</ele>
        <time>2021-04-15T12:11:20.000Z</time>
      </trkpt>
      <trkpt lat="47.16542" lon="-1.50246">
        <ele>69</ele>
        <time>2021-04-15T12:11:22.000Z</time>
      </trkpt>
      <trkpt lat="47.16553" lon="-1.5025">
        <ele>69</ele>
        <time>2021-04-15T12:11:24.000Z</time>
      </trkpt>
      <trkpt lat="47.16564" lon="-1.50254">
        <ele>68</ele>
        <time>2021-04-15T12:11:26.000Z</time>
      </trkpt>
      <trkpt lat="47.16576" lon="-1.50257">
        <ele>68</ele>
        <time>2021-04-15T12:11:28.000Z</time>
      </trkpt>
      <trkpt lat="47.16587" lon="-1.50261">
        <ele>68</ele>
        <time>2021-04-15T12:11:30.000Z</time>
      </trkpt>
      <trkpt lat="47.166" lon="-1.50265">
        <ele>67</ele>
        <time>2021-04-15T12:11:32.000Z</time>
      </trkpt>
      <trkpt lat="47.16613" lon="-1.50269">
        <ele>66</ele>
        <time>2021-04-15T12:11:34.000Z</time>
      </trkpt>
      <trkpt lat="47.16626" lon="-1.50273">
        <ele>66</ele>
        <time>2021-04-15T12:11:36.000Z</time>
      </trkpt>
      <trkpt lat="47.16639" lon="-1.50271">
        <ele>66</ele>
        <time>2021-04-15T12:11:38.000Z</time>
      </trkpt>
      <trkpt lat="47.16651" lon="-1.50262">
        <ele>66</ele>
        <time>2021-04-15T12:11:40.000Z</time>
      </trkpt>
      <trkpt lat="47.16659" lon="-1.50249">
        <ele>65</ele>
        <time>2021-04-15T12:11:42.000Z</time>
      </trkpt>
      <trkpt lat="47.16668" lon="-1.50236">
        <ele>65</ele>
        <time>2021-04-15T12:11:44.000Z</time>
      </trkpt>
      <trkpt lat="47.16677" lon="-1.50224">
        <ele>65</ele>
        <time>2021-04-15T12:11:46.000Z</time>
      </trkpt>
      <trkpt lat="47.16685" lon="-1.50211">
        <ele>65</ele>
        <time>2021-04-15T12:11:48.000Z</time>
      </trkpt>
      <trkpt lat="47.16693" lon="-1.50199">
        <ele>65</ele>
        <time>2021-04-15T12:11:50.000Z</time>
      </trkpt>
      <trkpt lat="47.16702" lon="-1.50187">
        <ele>64</ele>
        <time>2021-04-15T12:11:52.000Z</time>
      </trkpt>
      <trkpt lat="47.16711" lon="-1.50175">
        <ele>64</ele>
        <time>2021-04-15T12:11:54.000Z</time>
      </trkpt>
      <trkpt lat="47.1672" lon="-1.50163">
        <ele>64</ele>
        <time>2021-04-15T12:11:56.000Z</time>
      </trkpt>
      <trkpt lat="47.16731" lon="-1.50153">
        <ele>64</ele>
        <time>2021-04-15T12:11:58.000Z</time>
      </trkpt>
      <trkpt lat="47.16741" lon="-1.50143">
        <ele>64</ele>
        <time>2021-04-15T12:12:00.000Z</time>
      </trkpt>
      <trkpt lat="47.16752" lon="-1.50134">
        <ele>64</ele>
        <time>2021-04-15T12:12:02.000Z</time>
      </trkpt>
      <trkpt lat="47.16763" lon="-1.50129">
        <ele>64</ele>
        <time>2021-04-15T12:12:04.000Z</time>
      </trkpt>
      <trkpt lat="47.16776" lon="-1.50128">
        <ele>64</ele>
        <time>2021-04-15T12:12:06.000Z</time>
      </trkpt>
      <trkpt lat="47.16787" lon="-1.50128">
        <ele>63</ele>
        <time>2021-04-15T12:12:08.000Z</time>
      </trkpt>
      <trkpt lat="47.16799" lon="-1.50129">
        <ele>63</ele>
        <time>2021-04-15T12:12:10.000Z</time>
      </trkpt>
      <trkpt lat="47.16809" lon="-1.50128">
        <ele>63</ele>
        <time>2021-04-15T12:12:12.000Z</time>
      </trkpt>
      <trkpt lat="47.16821" lon="-1.50119">
        <ele>64</ele>
        <time>2021-04-15T12:12:15.000Z</time>
      </trkpt>
      <trkpt lat="47.1683" lon="-1.50127">
        <ele>64</ele>
        <time>2021-04-15T12:12:17.000Z</time>
      </trkpt>
      <trkpt lat="47.16831" lon="-1.50147">
        <ele>64</ele>
        <time>2021-04-15T12:12:19.000Z</time>
      </trkpt>
      <trkpt lat="47.16835" lon="-1.50167">
        <ele>63</ele>
        <time>2021-04-15T12:12:21.000Z</time>
      </trkpt>
      <trkpt lat="47.16839" lon="-1.50188">
        <ele>61</ele>
        <time>2021-04-15T12:12:23.000Z</time>
      </trkpt>
      <trkpt lat="47.16844" lon="-1.50208">
        <ele>61</ele>
        <time>2021-04-15T12:12:25.000Z</time>
      </trkpt>
      <trkpt lat="47.16851" lon="-1.50229">
        <ele>61</ele>
        <time>2021-04-15T12:12:27.000Z</time>
      </trkpt>
      <trkpt lat="47.1686" lon="-1.50251">
        <ele>60</ele>
        <time>2021-04-15T12:12:29.000Z</time>
      </trkpt>
      <trkpt lat="47.1687" lon="-1.50273">
        <ele>59</ele>
        <time>2021-04-15T12:12:31.000Z</time>
      </trkpt>
      <trkpt lat="47.16879" lon="-1.50294">
        <ele>58</ele>
        <time>2021-04-15T12:12:33.000Z</time>
      </trkpt>
      <trkpt lat="47.16888" lon="-1.50316">
        <ele>57</ele>
        <time>2021-04-15T12:12:35.000Z</time>
      </trkpt>
      <trkpt lat="47.16897" lon="-1.50337">
        <ele>57</ele>
        <time>2021-04-15T12:12:37.000Z</time>
      </trkpt>
      <trkpt lat="47.16905" lon="-1.50356">
        <ele>57</ele>
        <time>2021-04-15T12:12:39.000Z</time>
      </trkpt>
      <trkpt lat="47.16914" lon="-1.50374">
        <ele>57</ele>
        <time>2021-04-15T12:12:41.000Z</time>
      </trkpt>
      <trkpt lat="47.16921" lon="-1.5039">
        <ele>57</ele>
        <time>2021-04-15T12:12:43.000Z</time>
      </trkpt>
      <trkpt lat="47.16926" lon="-1.50406">
        <ele>58</ele>
        <time>2021-04-15T12:12:45.000Z</time>
      </trkpt>
      <trkpt lat="47.1693" lon="-1.50423">
        <ele>58</ele>
        <time>2021-04-15T12:12:47.000Z</time>
      </trkpt>
      <trkpt lat="47.16934" lon="-1.5044">
        <ele>58</ele>
        <time>2021-04-15T12:12:49.000Z</time>
      </trkpt>
      <trkpt lat="47.16938" lon="-1.50458">
        <ele>59</ele>
        <time>2021-04-15T12:12:51.000Z</time>
      </trkpt>
      <trkpt lat="47.16941" lon="-1.50476">
        <ele>60</ele>
        <time>2021-04-15T12:12:53.000Z</time>
      </trkpt>
      <trkpt lat="47.16945" lon="-1.50492">
        <ele>60</ele>
        <time>2021-04-15T12:12:55.000Z</time>
      </trkpt>
      <trkpt lat="47.16948" lon="-1.50509">
        <ele>60</ele>
        <time>2021-04-15T12:12:57.000Z</time>
      </trkpt>
      <trkpt lat="47.16952" lon="-1.50525">
        <ele>61</ele>
        <time>2021-04-15T12:12:59.000Z</time>
      </trkpt>
      <trkpt lat="47.16955" lon="-1.50542">
        <ele>62</ele>
        <time>2021-04-15T12:13:01.000Z</time>
      </trkpt>
      <trkpt lat="47.16958" lon="-1.50558">
        <ele>63</ele>
        <time>2021-04-15T12:13:03.000Z</time>
      </trkpt>
      <trkpt lat="47.16962" lon="-1.50575">
        <ele>63</ele>
        <time>2021-04-15T12:13:05.000Z</time>
      </trkpt>
      <trkpt lat="47.16965" lon="-1.50591">
        <ele>64</ele>
        <time>2021-04-15T12:13:07.000Z</time>
      </trkpt>
      <trkpt lat="47.16969" lon="-1.50608">
        <ele>65</ele>
        <time>2021-04-15T12:13:09.000Z</time>
      </trkpt>
      <trkpt lat="47.16972" lon="-1.50624">
        <ele>65</ele>
        <time>2021-04-15T12:13:11.000Z</time>
      </trkpt>
      <trkpt lat="47.16976" lon="-1.50639">
        <ele>65</ele>
        <time>2021-04-15T12:13:13.000Z</time>
      </trkpt>
      <trkpt lat="47.1698" lon="-1.50655">
        <ele>66</ele>
        <time>2021-04-15T12:13:15.000Z</time>
      </trkpt>
      <trkpt lat="47.16984" lon="-1.50671">
        <ele>66</ele>
        <time>2021-04-15T12:13:17.000Z</time>
      </trkpt>
      <trkpt lat="47.16988" lon="-1.50686">
        <ele>67</ele>
        <time>2021-04-15T12:13:19.000Z</time>
      </trkpt>
      <trkpt lat="47.16993" lon="-1.507">
        <ele>68</ele>
        <time>2021-04-15T12:13:21.000Z</time>
      </trkpt>
      <trkpt lat="47.17" lon="-1.50712">
        <ele>68</ele>
        <time>2021-04-15T12:13:23.000Z</time>
      </trkpt>
      <trkpt lat="47.17008" lon="-1.50724">
        <ele>69</ele>
        <time>2021-04-15T12:13:25.000Z</time>
      </trkpt>
      <trkpt lat="47.17018" lon="-1.50734">
        <ele>70</ele>
        <time>2021-04-15T12:13:27.000Z</time>
      </trkpt>
      <trkpt lat="47.17027" lon="-1.50743">
        <ele>71</ele>
        <time>2021-04-15T12:13:29.000Z</time>
      </trkpt>
      <trkpt lat="47.17037" lon="-1.50753">
        <ele>70</ele>
        <time>2021-04-15T12:13:31.000Z</time>
      </trkpt>
      <trkpt lat="47.17045" lon="-1.50762">
        <ele>71</ele>
        <time>2021-04-15T12:13:33.000Z</time>
      </trkpt>
      <trkpt lat="47.17054" lon="-1.50771">
        <ele>71</ele>
        <time>2021-04-15T12:13:35.000Z</time>
      </trkpt>
      <trkpt lat="47.17064" lon="-1.50781">
        <ele>70</ele>
        <time>2021-04-15T12:13:37.000Z</time>
      </trkpt>
      <trkpt lat="47.17072" lon="-1.50791">
        <ele>70</ele>
        <time>2021-04-15T12:13:39.000Z</time>
      </trkpt>
      <trkpt lat="47.1708" lon="-1.50802">
        <ele>70</ele>
        <time>2021-04-15T12:13:41.000Z</time>
      </trkpt>
      <trkpt lat="47.17087" lon="-1.50815">
        <ele>70</ele>
        <time>2021-04-15T12:13:43.000Z</time>
      </trkpt>
      <trkpt lat="47.17094" lon="-1.50829">
        <ele>70</ele>
        <time>2021-04-15T12:13:45.000Z</time>
      </trkpt>
      <trkpt lat="47.17101" lon="-1.50843">
        <ele>70</ele>
        <time>2021-04-15T12:13:47.000Z</time>
      </trkpt>
      <trkpt lat="47.17108" lon="-1.50855">
        <ele>70</ele>
        <time>2021-04-15T12:13:49.000Z</time>
      </trkpt>
      <trkpt lat="47.17114" lon="-1.5087">
        <ele>70</ele>
        <time>2021-04-15T12:13:51.000Z</time>
      </trkpt>
      <trkpt lat="47.17121" lon="-1.50886">
        <ele>70</ele>
        <time>2021-04-15T12:13:53.000Z</time>
      </trkpt>
      <trkpt lat="47.17128" lon="-1.509">
        <ele>69</ele>
        <time>2021-04-15T12:13:55.000Z</time>
      </trkpt>
      <trkpt lat="47.17135" lon="-1.50914">
        <ele>69</ele>
        <time>2021-04-15T12:13:57.000Z</time>
      </trkpt>
      <trkpt lat="47.17141" lon="-1.50929">
        <ele>69</ele>
        <time>2021-04-15T12:13:59.000Z</time>
      </trkpt>
      <trkpt lat="47.17147" lon="-1.50945">
        <ele>69</ele>
        <time>2021-04-15T12:14:01.000Z</time>
      </trkpt>
      <trkpt lat="47.17154" lon="-1.50961">
        <ele>68</ele>
        <time>2021-04-15T12:14:03.000Z</time>
      </trkpt>
      <trkpt lat="47.1716" lon="-1.50977">
        <ele>68</ele>
        <time>2021-04-15T12:14:05.000Z</time>
      </trkpt>
      <trkpt lat="47.17166" lon="-1.50994">
        <ele>68</ele>
        <time>2021-04-15T12:14:07.000Z</time>
      </trkpt>
      <trkpt lat="47.17172" lon="-1.51012">
        <ele>68</ele>
        <time>2021-04-15T12:14:09.000Z</time>
      </trkpt>
      <trkpt lat="47.17177" lon="-1.51029">
        <ele>67</ele>
        <time>2021-04-15T12:14:11.000Z</time>
      </trkpt>
      <trkpt lat="47.17182" lon="-1.51046">
        <ele>67</ele>
        <time>2021-04-15T12:14:13.000Z</time>
      </trkpt>
      <trkpt lat="47.17189" lon="-1.51063">
        <ele>68</ele>
        <time>2021-04-15T12:14:15.000Z</time>
      </trkpt>
      <trkpt lat="47.17195" lon="-1.51078">
        <ele>69</ele>
        <time>2021-04-15T12:14:17.000Z</time>
      </trkpt>
      <trkpt lat="47.17201" lon="-1.51092">
        <ele>69</ele>
        <time>2021-04-15T12:14:19.000Z</time>
      </trkpt>
      <trkpt lat="47.17207" lon="-1.51108">
        <ele>70</ele>
        <time>2021-04-15T12:14:21.000Z</time>
      </trkpt>
      <trkpt lat="47.17215" lon="-1.51122">
        <ele>71</ele>
        <time>2021-04-15T12:14:23.000Z</time>
      </trkpt>
      <trkpt lat="47.17223" lon="-1.51136">
        <ele>71</ele>
        <time>2021-04-15T12:14:25.000Z</time>
      </trkpt>
      <trkpt lat="47.17232" lon="-1.5115">
        <ele>71</ele>
        <time>2021-04-15T12:14:27.000Z</time>
      </trkpt>
      <trkpt lat="47.17242" lon="-1.51165">
        <ele>71</ele>
        <time>2021-04-15T12:14:29.000Z</time>
      </trkpt>
      <trkpt lat="47.17251" lon="-1.51179">
        <ele>71</ele>
        <time>2021-04-15T12:14:31.000Z</time>
      </trkpt>
      <trkpt lat="47.17259" lon="-1.51193">
        <ele>71</ele>
        <time>2021-04-15T12:14:33.000Z</time>
      </trkpt>
      <trkpt lat="47.17269" lon="-1.51207">
        <ele>71</ele>
        <time>2021-04-15T12:14:35.000Z</time>
      </trkpt>
      <trkpt lat="47.17278" lon="-1.51221">
        <ele>71</ele>
        <time>2021-04-15T12:14:37.000Z</time>
      </trkpt>
      <trkpt lat="47.17288" lon="-1.51234">
        <ele>71</ele>
        <time>2021-04-15T12:14:39.000Z</time>
      </trkpt>
      <trkpt lat="47.17298" lon="-1.51246">
        <ele>71</ele>
        <time>2021-04-15T12:14:41.000Z</time>
      </trkpt>
      <trkpt lat="47.17309" lon="-1.51257">
        <ele>72</ele>
        <time>2021-04-15T12:14:43.000Z</time>
      </trkpt>
      <trkpt lat="47.1732" lon="-1.51265">
        <ele>72</ele>
        <time>2021-04-15T12:14:45.000Z</time>
      </trkpt>
      <trkpt lat="47.17332" lon="-1.51272">
        <ele>72</ele>
        <time>2021-04-15T12:14:47.000Z</time>
      </trkpt>
      <trkpt lat="47.17345" lon="-1.51276">
        <ele>72</ele>
        <time>2021-04-15T12:14:49.000Z</time>
      </trkpt>
      <trkpt lat="47.17357" lon="-1.51279">
        <ele>72</ele>
        <time>2021-04-15T12:14:51.000Z</time>
      </trkpt>
      <trkpt lat="47.1737" lon="-1.51283">
        <ele>72</ele>
        <time>2021-04-15T12:14:53.000Z</time>
      </trkpt>
      <trkpt lat="47.17383" lon="-1.51286">
        <ele>72</ele>
        <time>2021-04-15T12:14:55.000Z</time>
      </trkpt>
      <trkpt lat="47.17395" lon="-1.51289">
        <ele>72</ele>
        <time>2021-04-15T12:14:57.000Z</time>
      </trkpt>
      <trkpt lat="47.17407" lon="-1.51293">
        <ele>72</ele>
        <time>2021-04-15T12:14:59.000Z</time>
      </trkpt>
      <trkpt lat="47.17419" lon="-1.51298">
        <ele>72</ele>
        <time>2021-04-15T12:15:01.000Z</time>
      </trkpt>
      <trkpt lat="47.1743" lon="-1.51306">
        <ele>73</ele>
        <time>2021-04-15T12:15:03.000Z</time>
      </trkpt>
      <trkpt lat="47.1744" lon="-1.51314">
        <ele>73</ele>
        <time>2021-04-15T12:15:05.000Z</time>
      </trkpt>
      <trkpt lat="47.17451" lon="-1.51323">
        <ele>73</ele>
        <time>2021-04-15T12:15:07.000Z</time>
      </trkpt>
      <trkpt lat="47.17462" lon="-1.51334">
        <ele>73</ele>
        <time>2021-04-15T12:15:09.000Z</time>
      </trkpt>
      <trkpt lat="47.17472" lon="-1.51346">
        <ele>73</ele>
        <time>2021-04-15T12:15:11.000Z</time>
      </trkpt>
      <trkpt lat="47.17481" lon="-1.51359">
        <ele>73</ele>
        <time>2021-04-15T12:15:13.000Z</time>
      </trkpt>
      <trkpt lat="47.17489" lon="-1.51374">
        <ele>73</ele>
        <time>2021-04-15T12:15:15.000Z</time>
      </trkpt>
      <trkpt lat="47.17495" lon="-1.5139">
        <ele>73</ele>
        <time>2021-04-15T12:15:17.000Z</time>
      </trkpt>
      <trkpt lat="47.175" lon="-1.51408">
        <ele>74</ele>
        <time>2021-04-15T12:15:19.000Z</time>
      </trkpt>
      <trkpt lat="47.17504" lon="-1.51427">
        <ele>75</ele>
        <time>2021-04-15T12:15:21.000Z</time>
      </trkpt>
      <trkpt lat="47.17508" lon="-1.51446">
        <ele>75</ele>
        <time>2021-04-15T12:15:23.000Z</time>
      </trkpt>
      <trkpt lat="47.1751" lon="-1.51465">
        <ele>75</ele>
        <time>2021-04-15T12:15:25.000Z</time>
      </trkpt>
      <trkpt lat="47.17511" lon="-1.51484">
        <ele>75</ele>
        <time>2021-04-15T12:15:27.000Z</time>
      </trkpt>
      <trkpt lat="47.17512" lon="-1.51503">
        <ele>75</ele>
        <time>2021-04-15T12:15:29.000Z</time>
      </trkpt>
      <trkpt lat="47.17512" lon="-1.51522">
        <ele>74</ele>
        <time>2021-04-15T12:15:31.000Z</time>
      </trkpt>
      <trkpt lat="47.17513" lon="-1.5154">
        <ele>75</ele>
        <time>2021-04-15T12:15:33.000Z</time>
      </trkpt>
      <trkpt lat="47.17513" lon="-1.51559">
        <ele>75</ele>
        <time>2021-04-15T12:15:35.000Z</time>
      </trkpt>
      <trkpt lat="47.17514" lon="-1.51578">
        <ele>74</ele>
        <time>2021-04-15T12:15:37.000Z</time>
      </trkpt>
      <trkpt lat="47.17516" lon="-1.51599">
        <ele>74</ele>
        <time>2021-04-15T12:15:39.000Z</time>
      </trkpt>
      <trkpt lat="47.17517" lon="-1.5162">
        <ele>74</ele>
        <time>2021-04-15T12:15:41.000Z</time>
      </trkpt>
      <trkpt lat="47.17519" lon="-1.51641">
        <ele>73</ele>
        <time>2021-04-15T12:15:43.000Z</time>
      </trkpt>
      <trkpt lat="47.17523" lon="-1.51663">
        <ele>72</ele>
        <time>2021-04-15T12:15:45.000Z</time>
      </trkpt>
      <trkpt lat="47.17528" lon="-1.51685">
        <ele>71</ele>
        <time>2021-04-15T12:15:47.000Z</time>
      </trkpt>
      <trkpt lat="47.17534" lon="-1.51707">
        <ele>70</ele>
        <time>2021-04-15T12:15:49.000Z</time>
      </trkpt>
      <trkpt lat="47.1754" lon="-1.51729">
        <ele>70</ele>
        <time>2021-04-15T12:15:51.000Z</time>
      </trkpt>
      <trkpt lat="47.17547" lon="-1.5175">
        <ele>69</ele>
        <time>2021-04-15T12:15:53.000Z</time>
      </trkpt>
      <trkpt lat="47.17554" lon="-1.51772">
        <ele>69</ele>
        <time>2021-04-15T12:15:55.000Z</time>
      </trkpt>
      <trkpt lat="47.1756" lon="-1.51794">
        <ele>69</ele>
        <time>2021-04-15T12:15:57.000Z</time>
      </trkpt>
      <trkpt lat="47.17567" lon="-1.51817">
        <ele>68</ele>
        <time>2021-04-15T12:15:59.000Z</time>
      </trkpt>
      <trkpt lat="47.17573" lon="-1.51839">
        <ele>68</ele>
        <time>2021-04-15T12:16:01.000Z</time>
      </trkpt>
      <trkpt lat="47.1758" lon="-1.5186">
        <ele>67</ele>
        <time>2021-04-15T12:16:03.000Z</time>
      </trkpt>
      <trkpt lat="47.17587" lon="-1.51883">
        <ele>67</ele>
        <time>2021-04-15T12:16:05.000Z</time>
      </trkpt>
      <trkpt lat="47.17595" lon="-1.51905">
        <ele>66</ele>
        <time>2021-04-15T12:16:07.000Z</time>
      </trkpt>
      <trkpt lat="47.17601" lon="-1.51927">
        <ele>65</ele>
        <time>2021-04-15T12:16:09.000Z</time>
      </trkpt>
      <trkpt lat="47.17609" lon="-1.5195">
        <ele>65</ele>
        <time>2021-04-15T12:16:11.000Z</time>
      </trkpt>
      <trkpt lat="47.17616" lon="-1.51973">
        <ele>64</ele>
        <time>2021-04-15T12:16:13.000Z</time>
      </trkpt>
      <trkpt lat="47.17624" lon="-1.51995">
        <ele>62</ele>
        <time>2021-04-15T12:16:15.000Z</time>
      </trkpt>
      <trkpt lat="47.17633" lon="-1.52016">
        <ele>62</ele>
        <time>2021-04-15T12:16:17.000Z</time>
      </trkpt>
      <trkpt lat="47.17642" lon="-1.52036">
        <ele>62</ele>
        <time>2021-04-15T12:16:19.000Z</time>
      </trkpt>
      <trkpt lat="47.17652" lon="-1.52057">
        <ele>62</ele>
        <time>2021-04-15T12:16:21.000Z</time>
      </trkpt>
      <trkpt lat="47.17657" lon="-1.52069">
        <ele>61</ele>
        <time>2021-04-15T12:16:22.000Z</time>
      </trkpt>
      <trkpt lat="47.17662" lon="-1.5208">
        <ele>60</ele>
        <time>2021-04-15T12:16:23.000Z</time>
      </trkpt>
      <trkpt lat="47.17668" lon="-1.52091">
        <ele>60</ele>
        <time>2021-04-15T12:16:24.000Z</time>
      </trkpt>
      <trkpt lat="47.17673" lon="-1.52103">
        <ele>59</ele>
        <time>2021-04-15T12:16:25.000Z</time>
      </trkpt>
      <trkpt lat="47.17684" lon="-1.52123">
        <ele>57</ele>
        <time>2021-04-15T12:16:27.000Z</time>
      </trkpt>
      <trkpt lat="47.17697" lon="-1.52139">
        <ele>56</ele>
        <time>2021-04-15T12:16:29.000Z</time>
      </trkpt>
      <trkpt lat="47.17704" lon="-1.52162">
        <ele>55</ele>
        <time>2021-04-15T12:16:31.000Z</time>
      </trkpt>
      <trkpt lat="47.17713" lon="-1.52183">
        <ele>54</ele>
        <time>2021-04-15T12:16:33.000Z</time>
      </trkpt>
      <trkpt lat="47.17723" lon="-1.52201">
        <ele>54</ele>
        <time>2021-04-15T12:16:35.000Z</time>
      </trkpt>
      <trkpt lat="47.1773" lon="-1.52218">
        <ele>55</ele>
        <time>2021-04-15T12:16:37.000Z</time>
      </trkpt>
      <trkpt lat="47.17736" lon="-1.52233">
        <ele>55</ele>
        <time>2021-04-15T12:16:39.000Z</time>
      </trkpt>
      <trkpt lat="47.17742" lon="-1.52249">
        <ele>56</ele>
        <time>2021-04-15T12:16:41.000Z</time>
      </trkpt>
      <trkpt lat="47.17749" lon="-1.52265">
        <ele>57</ele>
        <time>2021-04-15T12:16:43.000Z</time>
      </trkpt>
      <trkpt lat="47.17754" lon="-1.52281">
        <ele>57</ele>
        <time>2021-04-15T12:16:45.000Z</time>
      </trkpt>
      <trkpt lat="47.1776" lon="-1.52298">
        <ele>57</ele>
        <time>2021-04-15T12:16:47.000Z</time>
      </trkpt>
      <trkpt lat="47.17767" lon="-1.52314">
        <ele>57</ele>
        <time>2021-04-15T12:16:49.000Z</time>
      </trkpt>
      <trkpt lat="47.17772" lon="-1.52329">
        <ele>58</ele>
        <time>2021-04-15T12:16:51.000Z</time>
      </trkpt>
      <trkpt lat="47.17778" lon="-1.52343">
        <ele>58</ele>
        <time>2021-04-15T12:16:53.000Z</time>
      </trkpt>
      <trkpt lat="47.17784" lon="-1.52358">
        <ele>59</ele>
        <time>2021-04-15T12:16:55.000Z</time>
      </trkpt>
      <trkpt lat="47.17789" lon="-1.52373">
        <ele>59</ele>
        <time>2021-04-15T12:16:57.000Z</time>
      </trkpt>
      <trkpt lat="47.17795" lon="-1.52387">
        <ele>60</ele>
        <time>2021-04-15T12:16:59.000Z</time>
      </trkpt>
      <trkpt lat="47.178" lon="-1.52403">
        <ele>60</ele>
        <time>2021-04-15T12:17:01.000Z</time>
      </trkpt>
      <trkpt lat="47.17806" lon="-1.52417">
        <ele>60</ele>
        <time>2021-04-15T12:17:03.000Z</time>
      </trkpt>
      <trkpt lat="47.17811" lon="-1.52431">
        <ele>61</ele>
        <time>2021-04-15T12:17:05.000Z</time>
      </trkpt>
      <trkpt lat="47.17817" lon="-1.52445">
        <ele>61</ele>
        <time>2021-04-15T12:17:07.000Z</time>
      </trkpt>
      <trkpt lat="47.17822" lon="-1.52461">
        <ele>61</ele>
        <time>2021-04-15T12:17:09.000Z</time>
      </trkpt>
      <trkpt lat="47.17827" lon="-1.52476">
        <ele>62</ele>
        <time>2021-04-15T12:17:11.000Z</time>
      </trkpt>
      <trkpt lat="47.17831" lon="-1.52492">
        <ele>62</ele>
        <time>2021-04-15T12:17:13.000Z</time>
      </trkpt>
      <trkpt lat="47.17834" lon="-1.52508">
        <ele>62</ele>
        <time>2021-04-15T12:17:15.000Z</time>
      </trkpt>
      <trkpt lat="47.17838" lon="-1.52525">
        <ele>62</ele>
        <time>2021-04-15T12:17:17.000Z</time>
      </trkpt>
      <trkpt lat="47.17841" lon="-1.52541">
        <ele>62</ele>
        <time>2021-04-15T12:17:19.000Z</time>
      </trkpt>
      <trkpt lat="47.17844" lon="-1.52559">
        <ele>63</ele>
        <time>2021-04-15T12:17:21.000Z</time>
      </trkpt>
      <trkpt lat="47.17847" lon="-1.52574">
        <ele>63</ele>
        <time>2021-04-15T12:17:23.000Z</time>
      </trkpt>
      <trkpt lat="47.1785" lon="-1.5259">
        <ele>63</ele>
        <time>2021-04-15T12:17:25.000Z</time>
      </trkpt>
      <trkpt lat="47.17853" lon="-1.52606">
        <ele>63</ele>
        <time>2021-04-15T12:17:27.000Z</time>
      </trkpt>
      <trkpt lat="47.17856" lon="-1.52622">
        <ele>63</ele>
        <time>2021-04-15T12:17:29.000Z</time>
      </trkpt>
      <trkpt lat="47.17858" lon="-1.52637">
        <ele>62</ele>
        <time>2021-04-15T12:17:31.000Z</time>
      </trkpt>
      <trkpt lat="47.17861" lon="-1.52652">
        <ele>63</ele>
        <time>2021-04-15T12:17:33.000Z</time>
      </trkpt>
      <trkpt lat="47.17864" lon="-1.52667">
        <ele>63</ele>
        <time>2021-04-15T12:17:35.000Z</time>
      </trkpt>
      <trkpt lat="47.17866" lon="-1.52681">
        <ele>62</ele>
        <time>2021-04-15T12:17:37.000Z</time>
      </trkpt>
      <trkpt lat="47.17869" lon="-1.52697">
        <ele>62</ele>
        <time>2021-04-15T12:17:39.000Z</time>
      </trkpt>
      <trkpt lat="47.1787" lon="-1.52715">
        <ele>62</ele>
        <time>2021-04-15T12:17:41.000Z</time>
      </trkpt>
      <trkpt lat="47.1787" lon="-1.52733">
        <ele>62</ele>
        <time>2021-04-15T12:17:43.000Z</time>
      </trkpt>
      <trkpt lat="47.1787" lon="-1.52753">
        <ele>61</ele>
        <time>2021-04-15T12:17:45.000Z</time>
      </trkpt>
      <trkpt lat="47.17869" lon="-1.52774">
        <ele>60</ele>
        <time>2021-04-15T12:17:47.000Z</time>
      </trkpt>
      <trkpt lat="47.17871" lon="-1.52795">
        <ele>59</ele>
        <time>2021-04-15T12:17:49.000Z</time>
      </trkpt>
      <trkpt lat="47.1788" lon="-1.5281">
        <ele>58</ele>
        <time>2021-04-15T12:17:51.000Z</time>
      </trkpt>
      <trkpt lat="47.17892" lon="-1.52819">
        <ele>58</ele>
        <time>2021-04-15T12:17:53.000Z</time>
      </trkpt>
      <trkpt lat="47.17895" lon="-1.52836">
        <ele>59</ele>
        <time>2021-04-15T12:17:55.000Z</time>
      </trkpt>
      <trkpt lat="47.17891" lon="-1.52853">
        <ele>59</ele>
        <time>2021-04-15T12:17:57.000Z</time>
      </trkpt>
      <trkpt lat="47.17884" lon="-1.52866">
        <ele>60</ele>
        <time>2021-04-15T12:17:59.000Z</time>
      </trkpt>
      <trkpt lat="47.17876" lon="-1.52879">
        <ele>61</ele>
        <time>2021-04-15T12:18:01.000Z</time>
      </trkpt>
      <trkpt lat="47.17868" lon="-1.5289">
        <ele>62</ele>
        <time>2021-04-15T12:18:03.000Z</time>
      </trkpt>
      <trkpt lat="47.1786" lon="-1.52902">
        <ele>63</ele>
        <time>2021-04-15T12:18:05.000Z</time>
      </trkpt>
      <trkpt lat="47.17851" lon="-1.52912">
        <ele>64</ele>
        <time>2021-04-15T12:18:07.000Z</time>
      </trkpt>
      <trkpt lat="47.17842" lon="-1.52921">
        <ele>65</ele>
        <time>2021-04-15T12:18:09.000Z</time>
      </trkpt>
      <trkpt lat="47.17833" lon="-1.52928">
        <ele>67</ele>
        <time>2021-04-15T12:18:11.000Z</time>
      </trkpt>
      <trkpt lat="47.17824" lon="-1.52936">
        <ele>68</ele>
        <time>2021-04-15T12:18:13.000Z</time>
      </trkpt>
      <trkpt lat="47.17815" lon="-1.52942">
        <ele>69</ele>
        <time>2021-04-15T12:18:15.000Z</time>
      </trkpt>
      <trkpt lat="47.17809" lon="-1.52955">
        <ele>70</ele>
        <time>2021-04-15T12:18:17.000Z</time>
      </trkpt>
      <trkpt lat="47.1781" lon="-1.52969">
        <ele>70</ele>
        <time>2021-04-15T12:18:19.000Z</time>
      </trkpt>
      <trkpt lat="47.17816" lon="-1.52982">
        <ele>70</ele>
        <time>2021-04-15T12:18:21.000Z</time>
      </trkpt>
      <trkpt lat="47.17823" lon="-1.52997">
        <ele>70</ele>
        <time>2021-04-15T12:18:23.000Z</time>
      </trkpt>
      <trkpt lat="47.1783" lon="-1.53012">
        <ele>70</ele>
        <time>2021-04-15T12:18:25.000Z</time>
      </trkpt>
      <trkpt lat="47.17837" lon="-1.53025">
        <ele>70</ele>
        <time>2021-04-15T12:18:27.000Z</time>
      </trkpt>
      <trkpt lat="47.17845" lon="-1.53038">
        <ele>70</ele>
        <time>2021-04-15T12:18:29.000Z</time>
      </trkpt>
      <trkpt lat="47.17852" lon="-1.5305">
        <ele>68</ele>
        <time>2021-04-15T12:18:31.000Z</time>
      </trkpt>
      <trkpt lat="47.17859" lon="-1.53062">
        <ele>68</ele>
        <time>2021-04-15T12:18:33.000Z</time>
      </trkpt>
      <trkpt lat="47.17865" lon="-1.53073">
        <ele>68</ele>
        <time>2021-04-15T12:18:35.000Z</time>
      </trkpt>
      <trkpt lat="47.17873" lon="-1.53082">
        <ele>69</ele>
        <time>2021-04-15T12:18:37.000Z</time>
      </trkpt>
      <trkpt lat="47.17881" lon="-1.53089">
        <ele>69</ele>
        <time>2021-04-15T12:18:39.000Z</time>
      </trkpt>
      <trkpt lat="47.17888" lon="-1.531">
        <ele>68</ele>
        <time>2021-04-15T12:18:41.000Z</time>
      </trkpt>
      <trkpt lat="47.17893" lon="-1.53114">
        <ele>68</ele>
        <time>2021-04-15T12:18:43.000Z</time>
      </trkpt>
      <trkpt lat="47.17898" lon="-1.53126">
        <ele>68</ele>
        <time>2021-04-15T12:18:45.000Z</time>
      </trkpt>
      <trkpt lat="47.17904" lon="-1.53138">
        <ele>68</ele>
        <time>2021-04-15T12:18:47.000Z</time>
      </trkpt>
      <trkpt lat="47.1791" lon="-1.53149">
        <ele>68</ele>
        <time>2021-04-15T12:18:49.000Z</time>
      </trkpt>
      <trkpt lat="47.17917" lon="-1.53161">
        <ele>68</ele>
        <time>2021-04-15T12:18:51.000Z</time>
      </trkpt>
      <trkpt lat="47.17924" lon="-1.53172">
        <ele>68</ele>
        <time>2021-04-15T12:18:53.000Z</time>
      </trkpt>
      <trkpt lat="47.17931" lon="-1.53183">
        <ele>68</ele>
        <time>2021-04-15T12:18:55.000Z</time>
      </trkpt>
      <trkpt lat="47.17939" lon="-1.53193">
        <ele>68</ele>
        <time>2021-04-15T12:18:57.000Z</time>
      </trkpt>
      <trkpt lat="47.17947" lon="-1.53204">
        <ele>68</ele>
        <time>2021-04-15T12:18:59.000Z</time>
      </trkpt>
      <trkpt lat="47.17955" lon="-1.53215">
        <ele>68</ele>
        <time>2021-04-15T12:19:01.000Z</time>
      </trkpt>
      <trkpt lat="47.17963" lon="-1.53226">
        <ele>68</ele>
        <time>2021-04-15T12:19:03.000Z</time>
      </trkpt>
      <trkpt lat="47.17971" lon="-1.53237">
        <ele>68</ele>
        <time>2021-04-15T12:19:05.000Z</time>
      </trkpt>
      <trkpt lat="47.1798" lon="-1.53249">
        <ele>68</ele>
        <time>2021-04-15T12:19:07.000Z</time>
      </trkpt>
      <trkpt lat="47.17987" lon="-1.53261">
        <ele>68</ele>
        <time>2021-04-15T12:19:09.000Z</time>
      </trkpt>
      <trkpt lat="47.17993" lon="-1.53275">
        <ele>68</ele>
        <time>2021-04-15T12:19:11.000Z</time>
      </trkpt>
      <trkpt lat="47.18" lon="-1.53291">
        <ele>68</ele>
        <time>2021-04-15T12:19:13.000Z</time>
      </trkpt>
      <trkpt lat="47.18004" lon="-1.53307">
        <ele>67</ele>
        <time>2021-04-15T12:19:15.000Z</time>
      </trkpt>
      <trkpt lat="47.18005" lon="-1.53323">
        <ele>67</ele>
        <time>2021-04-15T12:19:17.000Z</time>
      </trkpt>
      <trkpt lat="47.18004" lon="-1.53341">
        <ele>67</ele>
        <time>2021-04-15T12:19:19.000Z</time>
      </trkpt>
      <trkpt lat="47.18004" lon="-1.53358">
        <ele>68</ele>
        <time>2021-04-15T12:19:21.000Z</time>
      </trkpt>
      <trkpt lat="47.18003" lon="-1.53373">
        <ele>68</ele>
        <time>2021-04-15T12:19:23.000Z</time>
      </trkpt>
      <trkpt lat="47.18003" lon="-1.53387">
        <ele>69</ele>
        <time>2021-04-15T12:19:25.000Z</time>
      </trkpt>
      <trkpt lat="47.18002" lon="-1.53401">
        <ele>69</ele>
        <time>2021-04-15T12:19:27.000Z</time>
      </trkpt>
      <trkpt lat="47.18001" lon="-1.53417">
        <ele>69</ele>
        <time>2021-04-15T12:19:30.000Z</time>
      </trkpt>
      <trkpt lat="47.18002" lon="-1.53434">
        <ele>69</ele>
        <time>2021-04-15T12:19:34.000Z</time>
      </trkpt>
      <trkpt lat="47.18001" lon="-1.53454">
        <ele>70</ele>
        <time>2021-04-15T12:19:37.000Z</time>
      </trkpt>
      <trkpt lat="47.17997" lon="-1.5347">
        <ele>70</ele>
        <time>2021-04-15T12:19:39.000Z</time>
      </trkpt>
      <trkpt lat="47.17996" lon="-1.53489">
        <ele>70</ele>
        <time>2021-04-15T12:19:41.000Z</time>
      </trkpt>
      <trkpt lat="47.17997" lon="-1.53507">
        <ele>70</ele>
        <time>2021-04-15T12:19:43.000Z</time>
      </trkpt>
      <trkpt lat="47.18001" lon="-1.53523">
        <ele>69</ele>
        <time>2021-04-15T12:19:45.000Z</time>
      </trkpt>
      <trkpt lat="47.18005" lon="-1.53538">
        <ele>69</ele>
        <time>2021-04-15T12:19:47.000Z</time>
      </trkpt>
      <trkpt lat="47.1801" lon="-1.53555">
        <ele>69</ele>
        <time>2021-04-15T12:19:49.000Z</time>
      </trkpt>
      <trkpt lat="47.18014" lon="-1.53573">
        <ele>69</ele>
        <time>2021-04-15T12:19:51.000Z</time>
      </trkpt>
      <trkpt lat="47.18018" lon="-1.53589">
        <ele>70</ele>
        <time>2021-04-15T12:19:53.000Z</time>
      </trkpt>
      <trkpt lat="47.18022" lon="-1.53605">
        <ele>70</ele>
        <time>2021-04-15T12:19:55.000Z</time>
      </trkpt>
      <trkpt lat="47.18027" lon="-1.53621">
        <ele>71</ele>
        <time>2021-04-15T12:19:57.000Z</time>
      </trkpt>
      <trkpt lat="47.18034" lon="-1.53634">
        <ele>71</ele>
        <time>2021-04-15T12:19:59.000Z</time>
      </trkpt>
      <trkpt lat="47.18043" lon="-1.53646">
        <ele>71</ele>
        <time>2021-04-15T12:20:01.000Z</time>
      </trkpt>
      <trkpt lat="47.18052" lon="-1.53657">
        <ele>70</ele>
        <time>2021-04-15T12:20:03.000Z</time>
      </trkpt>
      <trkpt lat="47.18062" lon="-1.53667">
        <ele>70</ele>
        <time>2021-04-15T12:20:05.000Z</time>
      </trkpt>
      <trkpt lat="47.18073" lon="-1.53676">
        <ele>70</ele>
        <time>2021-04-15T12:20:07.000Z</time>
      </trkpt>
      <trkpt lat="47.18083" lon="-1.53685">
        <ele>69</ele>
        <time>2021-04-15T12:20:09.000Z</time>
      </trkpt>
      <trkpt lat="47.18094" lon="-1.53694">
        <ele>68</ele>
        <time>2021-04-15T12:20:11.000Z</time>
      </trkpt>
      <trkpt lat="47.18104" lon="-1.53704">
        <ele>68</ele>
        <time>2021-04-15T12:20:13.000Z</time>
      </trkpt>
      <trkpt lat="47.18114" lon="-1.53714">
        <ele>68</ele>
        <time>2021-04-15T12:20:15.000Z</time>
      </trkpt>
      <trkpt lat="47.18124" lon="-1.53724">
        <ele>68</ele>
        <time>2021-04-15T12:20:17.000Z</time>
      </trkpt>
      <trkpt lat="47.18135" lon="-1.53734">
        <ele>68</ele>
        <time>2021-04-15T12:20:19.000Z</time>
      </trkpt>
      <trkpt lat="47.18145" lon="-1.53744">
        <ele>68</ele>
        <time>2021-04-15T12:20:21.000Z</time>
      </trkpt>
      <trkpt lat="47.18156" lon="-1.53754">
        <ele>68</ele>
        <time>2021-04-15T12:20:23.000Z</time>
      </trkpt>
      <trkpt lat="47.18166" lon="-1.53764">
        <ele>68</ele>
        <time>2021-04-15T12:20:25.000Z</time>
      </trkpt>
      <trkpt lat="47.18177" lon="-1.53774">
        <ele>68</ele>
        <time>2021-04-15T12:20:27.000Z</time>
      </trkpt>
      <trkpt lat="47.18188" lon="-1.53784">
        <ele>68</ele>
        <time>2021-04-15T12:20:29.000Z</time>
      </trkpt>
      <trkpt lat="47.18198" lon="-1.53794">
        <ele>68</ele>
        <time>2021-04-15T12:20:31.000Z</time>
      </trkpt>
      <trkpt lat="47.18209" lon="-1.53804">
        <ele>67</ele>
        <time>2021-04-15T12:20:33.000Z</time>
      </trkpt>
      <trkpt lat="47.18219" lon="-1.53813">
        <ele>67</ele>
        <time>2021-04-15T12:20:35.000Z</time>
      </trkpt>
      <trkpt lat="47.18229" lon="-1.53823">
        <ele>67</ele>
        <time>2021-04-15T12:20:37.000Z</time>
      </trkpt>
      <trkpt lat="47.18239" lon="-1.53834">
        <ele>67</ele>
        <time>2021-04-15T12:20:39.000Z</time>
      </trkpt>
      <trkpt lat="47.18249" lon="-1.53844">
        <ele>67</ele>
        <time>2021-04-15T12:20:41.000Z</time>
      </trkpt>
      <trkpt lat="47.18259" lon="-1.53853">
        <ele>68</ele>
        <time>2021-04-15T12:20:43.000Z</time>
      </trkpt>
      <trkpt lat="47.18269" lon="-1.53863">
        <ele>68</ele>
        <time>2021-04-15T12:20:45.000Z</time>
      </trkpt>
      <trkpt lat="47.18278" lon="-1.53873">
        <ele>68</ele>
        <time>2021-04-15T12:20:47.000Z</time>
      </trkpt>
      <trkpt lat="47.18288" lon="-1.53882">
        <ele>69</ele>
        <time>2021-04-15T12:20:49.000Z</time>
      </trkpt>
      <trkpt lat="47.18298" lon="-1.53892">
        <ele>69</ele>
        <time>2021-04-15T12:20:51.000Z</time>
      </trkpt>
      <trkpt lat="47.18308" lon="-1.53902">
        <ele>69</ele>
        <time>2021-04-15T12:20:53.000Z</time>
      </trkpt>
      <trkpt lat="47.18318" lon="-1.5391">
        <ele>70</ele>
        <time>2021-04-15T12:20:55.000Z</time>
      </trkpt>
      <trkpt lat="47.18328" lon="-1.53918">
        <ele>70</ele>
        <time>2021-04-15T12:20:57.000Z</time>
      </trkpt>
      <trkpt lat="47.18338" lon="-1.53926">
        <ele>70</ele>
        <time>2021-04-15T12:20:59.000Z</time>
      </trkpt>
      <trkpt lat="47.18347" lon="-1.53932">
        <ele>70</ele>
        <time>2021-04-15T12:21:01.000Z</time>
      </trkpt>
      <trkpt lat="47.18354" lon="-1.53943">
        <ele>70</ele>
        <time>2021-04-15T12:21:03.000Z</time>
      </trkpt>
      <trkpt lat="47.18363" lon="-1.53954">
        <ele>70</ele>
        <time>2021-04-15T12:21:05.000Z</time>
      </trkpt>
      <trkpt lat="47.18373" lon="-1.53963">
        <ele>70</ele>
        <time>2021-04-15T12:21:07.000Z</time>
      </trkpt>
      <trkpt lat="47.18383" lon="-1.53972">
        <ele>71</ele>
        <time>2021-04-15T12:21:09.000Z</time>
      </trkpt>
      <trkpt lat="47.18394" lon="-1.53982">
        <ele>71</ele>
        <time>2021-04-15T12:21:11.000Z</time>
      </trkpt>
      <trkpt lat="47.18404" lon="-1.53991">
        <ele>71</ele>
        <time>2021-04-15T12:21:13.000Z</time>
      </trkpt>
      <trkpt lat="47.18414" lon="-1.54">
        <ele>71</ele>
        <time>2021-04-15T12:21:15.000Z</time>
      </trkpt>
      <trkpt lat="47.18424" lon="-1.5401">
        <ele>71</ele>
        <time>2021-04-15T12:21:17.000Z</time>
      </trkpt>
      <trkpt lat="47.18434" lon="-1.54019">
        <ele>71</ele>
        <time>2021-04-15T12:21:19.000Z</time>
      </trkpt>
      <trkpt lat="47.18444" lon="-1.54028">
        <ele>71</ele>
        <time>2021-04-15T12:21:21.000Z</time>
      </trkpt>
      <trkpt lat="47.18454" lon="-1.54038">
        <ele>71</ele>
        <time>2021-04-15T12:21:23.000Z</time>
      </trkpt>
      <trkpt lat="47.18464" lon="-1.54048">
        <ele>70</ele>
        <time>2021-04-15T12:21:25.000Z</time>
      </trkpt>
      <trkpt lat="47.18474" lon="-1.54057">
        <ele>70</ele>
        <time>2021-04-15T12:21:27.000Z</time>
      </trkpt>
      <trkpt lat="47.18485" lon="-1.54067">
        <ele>69</ele>
        <time>2021-04-15T12:21:29.000Z</time>
      </trkpt>
      <trkpt lat="47.18495" lon="-1.54077">
        <ele>70</ele>
        <time>2021-04-15T12:21:31.000Z</time>
      </trkpt>
      <trkpt lat="47.18505" lon="-1.54087">
        <ele>70</ele>
        <time>2021-04-15T12:21:33.000Z</time>
      </trkpt>
      <trkpt lat="47.18515" lon="-1.54096">
        <ele>70</ele>
        <time>2021-04-15T12:21:35.000Z</time>
      </trkpt>
      <trkpt lat="47.18525" lon="-1.54106">
        <ele>70</ele>
        <time>2021-04-15T12:21:37.000Z</time>
      </trkpt>
      <trkpt lat="47.18535" lon="-1.54115">
        <ele>70</ele>
        <time>2021-04-15T12:21:39.000Z</time>
      </trkpt>
      <trkpt lat="47.18545" lon="-1.54125">
        <ele>70</ele>
        <time>2021-04-15T12:21:41.000Z</time>
      </trkpt>
      <trkpt lat="47.18555" lon="-1.54136">
        <ele>70</ele>
        <time>2021-04-15T12:21:43.000Z</time>
      </trkpt>
      <trkpt lat="47.18566" lon="-1.54145">
        <ele>69</ele>
        <time>2021-04-15T12:21:45.000Z</time>
      </trkpt>
      <trkpt lat="47.18576" lon="-1.54155">
        <ele>69</ele>
        <time>2021-04-15T12:21:47.000Z</time>
      </trkpt>
      <trkpt lat="47.18586" lon="-1.54165">
        <ele>69</ele>
        <time>2021-04-15T12:21:49.000Z</time>
      </trkpt>
      <trkpt lat="47.18596" lon="-1.54175">
        <ele>69</ele>
        <time>2021-04-15T12:21:51.000Z</time>
      </trkpt>
      <trkpt lat="47.18606" lon="-1.54185">
        <ele>69</ele>
        <time>2021-04-15T12:21:53.000Z</time>
      </trkpt>
      <trkpt lat="47.18616" lon="-1.54193">
        <ele>68</ele>
        <time>2021-04-15T12:21:55.000Z</time>
      </trkpt>
      <trkpt lat="47.18625" lon="-1.54202">
        <ele>68</ele>
        <time>2021-04-15T12:21:57.000Z</time>
      </trkpt>
      <trkpt lat="47.18635" lon="-1.54212">
        <ele>68</ele>
        <time>2021-04-15T12:21:59.000Z</time>
      </trkpt>
      <trkpt lat="47.18644" lon="-1.54223">
        <ele>68</ele>
        <time>2021-04-15T12:22:01.000Z</time>
      </trkpt>
      <trkpt lat="47.18653" lon="-1.54235">
        <ele>67</ele>
        <time>2021-04-15T12:22:03.000Z</time>
      </trkpt>
      <trkpt lat="47.18663" lon="-1.54247">
        <ele>67</ele>
        <time>2021-04-15T12:22:05.000Z</time>
      </trkpt>
      <trkpt lat="47.18673" lon="-1.54259">
        <ele>66</ele>
        <time>2021-04-15T12:22:07.000Z</time>
      </trkpt>
      <trkpt lat="47.18682" lon="-1.54272">
        <ele>66</ele>
        <time>2021-04-15T12:22:09.000Z</time>
      </trkpt>
      <trkpt lat="47.18692" lon="-1.54285">
        <ele>66</ele>
        <time>2021-04-15T12:22:11.000Z</time>
      </trkpt>
      <trkpt lat="47.18703" lon="-1.54299">
        <ele>65</ele>
        <time>2021-04-15T12:22:13.000Z</time>
      </trkpt>
      <trkpt lat="47.18713" lon="-1.54312">
        <ele>65</ele>
        <time>2021-04-15T12:22:15.000Z</time>
      </trkpt>
      <trkpt lat="47.18724" lon="-1.54327">
        <ele>65</ele>
        <time>2021-04-15T12:22:17.000Z</time>
      </trkpt>
      <trkpt lat="47.18735" lon="-1.54342">
        <ele>65</ele>
        <time>2021-04-15T12:22:19.000Z</time>
      </trkpt>
      <trkpt lat="47.18747" lon="-1.54357">
        <ele>64</ele>
        <time>2021-04-15T12:22:21.000Z</time>
      </trkpt>
      <trkpt lat="47.18758" lon="-1.54372">
        <ele>63</ele>
        <time>2021-04-15T12:22:23.000Z</time>
      </trkpt>
      <trkpt lat="47.18769" lon="-1.54387">
        <ele>63</ele>
        <time>2021-04-15T12:22:25.000Z</time>
      </trkpt>
      <trkpt lat="47.1878" lon="-1.54401">
        <ele>63</ele>
        <time>2021-04-15T12:22:27.000Z</time>
      </trkpt>
      <trkpt lat="47.1879" lon="-1.54416">
        <ele>62</ele>
        <time>2021-04-15T12:22:29.000Z</time>
      </trkpt>
      <trkpt lat="47.188" lon="-1.54431">
        <ele>62</ele>
        <time>2021-04-15T12:22:31.000Z</time>
      </trkpt>
      <trkpt lat="47.18811" lon="-1.54445">
        <ele>61</ele>
        <time>2021-04-15T12:22:33.000Z</time>
      </trkpt>
      <trkpt lat="47.18822" lon="-1.54459">
        <ele>61</ele>
        <time>2021-04-15T12:22:35.000Z</time>
      </trkpt>
      <trkpt lat="47.18832" lon="-1.54474">
        <ele>61</ele>
        <time>2021-04-15T12:22:37.000Z</time>
      </trkpt>
      <trkpt lat="47.18843" lon="-1.54487">
        <ele>60</ele>
        <time>2021-04-15T12:22:39.000Z</time>
      </trkpt>
      <trkpt lat="47.18852" lon="-1.54501">
        <ele>60</ele>
        <time>2021-04-15T12:22:41.000Z</time>
      </trkpt>
      <trkpt lat="47.18862" lon="-1.54516">
        <ele>60</ele>
        <time>2021-04-15T12:22:43.000Z</time>
      </trkpt>
      <trkpt lat="47.1887" lon="-1.5453">
        <ele>60</ele>
        <time>2021-04-15T12:22:45.000Z</time>
      </trkpt>
      <trkpt lat="47.18876" lon="-1.54544">
        <ele>60</ele>
        <time>2021-04-15T12:22:47.000Z</time>
      </trkpt>
      <trkpt lat="47.18874" lon="-1.54562">
        <ele>61</ele>
        <time>2021-04-15T12:22:49.000Z</time>
      </trkpt>
      <trkpt lat="47.18866" lon="-1.54579">
        <ele>61</ele>
        <time>2021-04-15T12:22:51.000Z</time>
      </trkpt>
      <trkpt lat="47.18859" lon="-1.54595">
        <ele>62</ele>
        <time>2021-04-15T12:22:53.000Z</time>
      </trkpt>
      <trkpt lat="47.18852" lon="-1.5461">
        <ele>62</ele>
        <time>2021-04-15T12:22:55.000Z</time>
      </trkpt>
      <trkpt lat="47.18844" lon="-1.54626">
        <ele>62</ele>
        <time>2021-04-15T12:22:57.000Z</time>
      </trkpt>
      <trkpt lat="47.18837" lon="-1.54641">
        <ele>62</ele>
        <time>2021-04-15T12:22:59.000Z</time>
      </trkpt>
      <trkpt lat="47.1883" lon="-1.54657">
        <ele>63</ele>
        <time>2021-04-15T12:23:01.000Z</time>
      </trkpt>
      <trkpt lat="47.18824" lon="-1.54673">
        <ele>64</ele>
        <time>2021-04-15T12:23:03.000Z</time>
      </trkpt>
      <trkpt lat="47.1882" lon="-1.54686">
        <ele>64</ele>
        <time>2021-04-15T12:23:06.000Z</time>
      </trkpt>
      <trkpt lat="47.18819" lon="-1.547">
        <ele>65</ele>
        <time>2021-04-15T12:23:09.000Z</time>
      </trkpt>
      <trkpt lat="47.18816" lon="-1.54715">
        <ele>65</ele>
        <time>2021-04-15T12:23:11.000Z</time>
      </trkpt>
      <trkpt lat="47.18811" lon="-1.5473">
        <ele>66</ele>
        <time>2021-04-15T12:23:13.000Z</time>
      </trkpt>
      <trkpt lat="47.18808" lon="-1.54748">
        <ele>67</ele>
        <time>2021-04-15T12:23:15.000Z</time>
      </trkpt>
      <trkpt lat="47.18807" lon="-1.54768">
        <ele>67</ele>
        <time>2021-04-15T12:23:17.000Z</time>
      </trkpt>
      <trkpt lat="47.18807" lon="-1.54789">
        <ele>68</ele>
        <time>2021-04-15T12:23:19.000Z</time>
      </trkpt>
      <trkpt lat="47.18808" lon="-1.54809">
        <ele>66</ele>
        <time>2021-04-15T12:23:21.000Z</time>
      </trkpt>
      <trkpt lat="47.1881" lon="-1.54828">
        <ele>66</ele>
        <time>2021-04-15T12:23:23.000Z</time>
      </trkpt>
      <trkpt lat="47.18811" lon="-1.54845">
        <ele>65</ele>
        <time>2021-04-15T12:23:25.000Z</time>
      </trkpt>
      <trkpt lat="47.18812" lon="-1.54865">
        <ele>64</ele>
        <time>2021-04-15T12:23:27.000Z</time>
      </trkpt>
      <trkpt lat="47.18813" lon="-1.54883">
        <ele>64</ele>
        <time>2021-04-15T12:23:29.000Z</time>
      </trkpt>
      <trkpt lat="47.18817" lon="-1.549">
        <ele>64</ele>
        <time>2021-04-15T12:23:31.000Z</time>
      </trkpt>
      <trkpt lat="47.1882" lon="-1.54918">
        <ele>64</ele>
        <time>2021-04-15T12:23:33.000Z</time>
      </trkpt>
      <trkpt lat="47.18824" lon="-1.54936">
        <ele>64</ele>
        <time>2021-04-15T12:23:35.000Z</time>
      </trkpt>
      <trkpt lat="47.18829" lon="-1.54952">
        <ele>64</ele>
        <time>2021-04-15T12:23:37.000Z</time>
      </trkpt>
      <trkpt lat="47.18833" lon="-1.54968">
        <ele>64</ele>
        <time>2021-04-15T12:23:39.000Z</time>
      </trkpt>
      <trkpt lat="47.18837" lon="-1.54985">
        <ele>64</ele>
        <time>2021-04-15T12:23:41.000Z</time>
      </trkpt>
      <trkpt lat="47.18841" lon="-1.55001">
        <ele>64</ele>
        <time>2021-04-15T12:23:43.000Z</time>
      </trkpt>
      <trkpt lat="47.18845" lon="-1.55018">
        <ele>63</ele>
        <time>2021-04-15T12:23:45.000Z</time>
      </trkpt>
      <trkpt lat="47.18851" lon="-1.55034">
        <ele>64</ele>
        <time>2021-04-15T12:23:47.000Z</time>
      </trkpt>
      <trkpt lat="47.18856" lon="-1.5505">
        <ele>64</ele>
        <time>2021-04-15T12:23:49.000Z</time>
      </trkpt>
      <trkpt lat="47.18861" lon="-1.55067">
        <ele>63</ele>
        <time>2021-04-15T12:23:51.000Z</time>
      </trkpt>
      <trkpt lat="47.18866" lon="-1.55082">
        <ele>63</ele>
        <time>2021-04-15T12:23:53.000Z</time>
      </trkpt>
      <trkpt lat="47.18869" lon="-1.55096">
        <ele>62</ele>
        <time>2021-04-15T12:23:55.000Z</time>
      </trkpt>
      <trkpt lat="47.18876" lon="-1.5511">
        <ele>63</ele>
        <time>2021-04-15T12:23:57.000Z</time>
      </trkpt>
      <trkpt lat="47.18882" lon="-1.55124">
        <ele>62</ele>
        <time>2021-04-15T12:23:59.000Z</time>
      </trkpt>
      <trkpt lat="47.18889" lon="-1.55138">
        <ele>61</ele>
        <time>2021-04-15T12:24:01.000Z</time>
      </trkpt>
      <trkpt lat="47.18897" lon="-1.55151">
        <ele>62</ele>
        <time>2021-04-15T12:24:03.000Z</time>
      </trkpt>
      <trkpt lat="47.18904" lon="-1.55165">
        <ele>63</ele>
        <time>2021-04-15T12:24:05.000Z</time>
      </trkpt>
      <trkpt lat="47.18912" lon="-1.55179">
        <ele>63</ele>
        <time>2021-04-15T12:24:07.000Z</time>
      </trkpt>
      <trkpt lat="47.1892" lon="-1.55193">
        <ele>62</ele>
        <time>2021-04-15T12:24:09.000Z</time>
      </trkpt>
      <trkpt lat="47.18928" lon="-1.55207">
        <ele>62</ele>
        <time>2021-04-15T12:24:11.000Z</time>
      </trkpt>
      <trkpt lat="47.18926" lon="-1.55225">
        <ele>61</ele>
        <time>2021-04-15T12:24:13.000Z</time>
      </trkpt>
      <trkpt lat="47.1892" lon="-1.55244">
        <ele>61</ele>
        <time>2021-04-15T12:24:15.000Z</time>
      </trkpt>
      <trkpt lat="47.1892" lon="-1.55266">
        <ele>62</ele>
        <time>2021-04-15T12:24:17.000Z</time>
      </trkpt>
      <trkpt lat="47.1892" lon="-1.55288">
        <ele>62</ele>
        <time>2021-04-15T12:24:19.000Z</time>
      </trkpt>
      <trkpt lat="47.1892" lon="-1.55311">
        <ele>61</ele>
        <time>2021-04-15T12:24:21.000Z</time>
      </trkpt>
      <trkpt lat="47.1892" lon="-1.55333">
        <ele>61</ele>
        <time>2021-04-15T12:24:23.000Z</time>
      </trkpt>
      <trkpt lat="47.1892" lon="-1.55357">
        <ele>59</ele>
        <time>2021-04-15T12:24:25.000Z</time>
      </trkpt>
      <trkpt lat="47.1892" lon="-1.55379">
        <ele>59</ele>
        <time>2021-04-15T12:24:27.000Z</time>
      </trkpt>
      <trkpt lat="47.1892" lon="-1.554">
        <ele>58</ele>
        <time>2021-04-15T12:24:29.000Z</time>
      </trkpt>
      <trkpt lat="47.1892" lon="-1.55421">
        <ele>58</ele>
        <time>2021-04-15T12:24:31.000Z</time>
      </trkpt>
      <trkpt lat="47.18921" lon="-1.55442">
        <ele>58</ele>
        <time>2021-04-15T12:24:33.000Z</time>
      </trkpt>
      <trkpt lat="47.18921" lon="-1.55462">
        <ele>58</ele>
        <time>2021-04-15T12:24:35.000Z</time>
      </trkpt>
      <trkpt lat="47.18921" lon="-1.55482">
        <ele>59</ele>
        <time>2021-04-15T12:24:37.000Z</time>
      </trkpt>
      <trkpt lat="47.18922" lon="-1.55499">
        <ele>59</ele>
        <time>2021-04-15T12:24:39.000Z</time>
      </trkpt>
      <trkpt lat="47.18923" lon="-1.55516">
        <ele>59</ele>
        <time>2021-04-15T12:24:41.000Z</time>
      </trkpt>
      <trkpt lat="47.18923" lon="-1.55534">
        <ele>59</ele>
        <time>2021-04-15T12:24:43.000Z</time>
      </trkpt>
      <trkpt lat="47.18923" lon="-1.55552">
        <ele>59</ele>
        <time>2021-04-15T12:24:45.000Z</time>
      </trkpt>
      <trkpt lat="47.18924" lon="-1.5557">
        <ele>59</ele>
        <time>2021-04-15T12:24:47.000Z</time>
      </trkpt>
      <trkpt lat="47.18924" lon="-1.55588">
        <ele>59</ele>
        <time>2021-04-15T12:24:49.000Z</time>
      </trkpt>
      <trkpt lat="47.18923" lon="-1.55605">
        <ele>59</ele>
        <time>2021-04-15T12:24:51.000Z</time>
      </trkpt>
      <trkpt lat="47.18923" lon="-1.55622">
        <ele>60</ele>
        <time>2021-04-15T12:24:53.000Z</time>
      </trkpt>
      <trkpt lat="47.18922" lon="-1.5564">
        <ele>60</ele>
        <time>2021-04-15T12:24:55.000Z</time>
      </trkpt>
      <trkpt lat="47.18922" lon="-1.55657">
        <ele>60</ele>
        <time>2021-04-15T12:24:57.000Z</time>
      </trkpt>
      <trkpt lat="47.18921" lon="-1.55675">
        <ele>60</ele>
        <time>2021-04-15T12:24:59.000Z</time>
      </trkpt>
      <trkpt lat="47.18921" lon="-1.55693">
        <ele>60</ele>
        <time>2021-04-15T12:25:01.000Z</time>
      </trkpt>
      <trkpt lat="47.1892" lon="-1.5571">
        <ele>61</ele>
        <time>2021-04-15T12:25:03.000Z</time>
      </trkpt>
      <trkpt lat="47.1892" lon="-1.55728">
        <ele>61</ele>
        <time>2021-04-15T12:25:05.000Z</time>
      </trkpt>
      <trkpt lat="47.18919" lon="-1.55746">
        <ele>61</ele>
        <time>2021-04-15T12:25:07.000Z</time>
      </trkpt>
      <trkpt lat="47.18919" lon="-1.55763">
        <ele>61</ele>
        <time>2021-04-15T12:25:09.000Z</time>
      </trkpt>
      <trkpt lat="47.18918" lon="-1.5578">
        <ele>61</ele>
        <time>2021-04-15T12:25:11.000Z</time>
      </trkpt>
      <trkpt lat="47.18918" lon="-1.55798">
        <ele>61</ele>
        <time>2021-04-15T12:25:13.000Z</time>
      </trkpt>
      <trkpt lat="47.18917" lon="-1.55816">
        <ele>61</ele>
        <time>2021-04-15T12:25:15.000Z</time>
      </trkpt>
      <trkpt lat="47.18915" lon="-1.55833">
        <ele>62</ele>
        <time>2021-04-15T12:25:17.000Z</time>
      </trkpt>
      <trkpt lat="47.18914" lon="-1.5585">
        <ele>62</ele>
        <time>2021-04-15T12:25:19.000Z</time>
      </trkpt>
      <trkpt lat="47.18912" lon="-1.55868">
        <ele>62</ele>
        <time>2021-04-15T12:25:21.000Z</time>
      </trkpt>
      <trkpt lat="47.18911" lon="-1.55885">
        <ele>62</ele>
        <time>2021-04-15T12:25:23.000Z</time>
      </trkpt>
      <trkpt lat="47.18909" lon="-1.55903">
        <ele>63</ele>
        <time>2021-04-15T12:25:25.000Z</time>
      </trkpt>
      <trkpt lat="47.18908" lon="-1.55921">
        <ele>62</ele>
        <time>2021-04-15T12:25:27.000Z</time>
      </trkpt>
      <trkpt lat="47.18907" lon="-1.55939">
        <ele>63</ele>
        <time>2021-04-15T12:25:29.000Z</time>
      </trkpt>
      <trkpt lat="47.18906" lon="-1.55957">
        <ele>63</ele>
        <time>2021-04-15T12:25:31.000Z</time>
      </trkpt>
      <trkpt lat="47.18906" lon="-1.55974">
        <ele>63</ele>
        <time>2021-04-15T12:25:33.000Z</time>
      </trkpt>
      <trkpt lat="47.18906" lon="-1.55992">
        <ele>63</ele>
        <time>2021-04-15T12:25:35.000Z</time>
      </trkpt>
      <trkpt lat="47.18904" lon="-1.5601">
        <ele>64</ele>
        <time>2021-04-15T12:25:37.000Z</time>
      </trkpt>
      <trkpt lat="47.18902" lon="-1.56027">
        <ele>64</ele>
        <time>2021-04-15T12:25:39.000Z</time>
      </trkpt>
      <trkpt lat="47.189" lon="-1.56045">
        <ele>63</ele>
        <time>2021-04-15T12:25:41.000Z</time>
      </trkpt>
      <trkpt lat="47.18897" lon="-1.56063">
        <ele>64</ele>
        <time>2021-04-15T12:25:43.000Z</time>
      </trkpt>
      <trkpt lat="47.18894" lon="-1.56081">
        <ele>64</ele>
        <time>2021-04-15T12:25:45.000Z</time>
      </trkpt>
      <trkpt lat="47.18892" lon="-1.56098">
        <ele>64</ele>
        <time>2021-04-15T12:25:47.000Z</time>
      </trkpt>
      <trkpt lat="47.18889" lon="-1.56115">
        <ele>65</ele>
        <time>2021-04-15T12:25:49.000Z</time>
      </trkpt>
      <trkpt lat="47.18885" lon="-1.56132">
        <ele>65</ele>
        <time>2021-04-15T12:25:51.000Z</time>
      </trkpt>
      <trkpt lat="47.18882" lon="-1.56148">
        <ele>65</ele>
        <time>2021-04-15T12:25:53.000Z</time>
      </trkpt>
      <trkpt lat="47.1888" lon="-1.56164">
        <ele>65</ele>
        <time>2021-04-15T12:25:55.000Z</time>
      </trkpt>
      <trkpt lat="47.1888" lon="-1.56182">
        <ele>65</ele>
        <time>2021-04-15T12:25:57.000Z</time>
      </trkpt>
      <trkpt lat="47.18878" lon="-1.56199">
        <ele>65</ele>
        <time>2021-04-15T12:25:59.000Z</time>
      </trkpt>
      <trkpt lat="47.18874" lon="-1.56216">
        <ele>66</ele>
        <time>2021-04-15T12:26:01.000Z</time>
      </trkpt>
      <trkpt lat="47.18867" lon="-1.56234">
        <ele>66</ele>
        <time>2021-04-15T12:26:03.000Z</time>
      </trkpt>
      <trkpt lat="47.18861" lon="-1.5625">
        <ele>67</ele>
        <time>2021-04-15T12:26:05.000Z</time>
      </trkpt>
      <trkpt lat="47.18855" lon="-1.56267">
        <ele>67</ele>
        <time>2021-04-15T12:26:07.000Z</time>
      </trkpt>
      <trkpt lat="47.18849" lon="-1.56283">
        <ele>67</ele>
        <time>2021-04-15T12:26:09.000Z</time>
      </trkpt>
      <trkpt lat="47.18843" lon="-1.56298">
        <ele>67</ele>
        <time>2021-04-15T12:26:11.000Z</time>
      </trkpt>
      <trkpt lat="47.18836" lon="-1.56312">
        <ele>67</ele>
        <time>2021-04-15T12:26:13.000Z</time>
      </trkpt>
      <trkpt lat="47.18829" lon="-1.56328">
        <ele>67</ele>
        <time>2021-04-15T12:26:15.000Z</time>
      </trkpt>
      <trkpt lat="47.18822" lon="-1.56342">
        <ele>67</ele>
        <time>2021-04-15T12:26:17.000Z</time>
      </trkpt>
      <trkpt lat="47.18811" lon="-1.56351">
        <ele>67</ele>
        <time>2021-04-15T12:26:19.000Z</time>
      </trkpt>
      <trkpt lat="47.18798" lon="-1.56351">
        <ele>68</ele>
        <time>2021-04-15T12:26:21.000Z</time>
      </trkpt>
      <trkpt lat="47.18786" lon="-1.5635">
        <ele>69</ele>
        <time>2021-04-15T12:26:23.000Z</time>
      </trkpt>
      <trkpt lat="47.18774" lon="-1.56349">
        <ele>69</ele>
        <time>2021-04-15T12:26:25.000Z</time>
      </trkpt>
      <trkpt lat="47.18762" lon="-1.56349">
        <ele>69</ele>
        <time>2021-04-15T12:26:27.000Z</time>
      </trkpt>
      <trkpt lat="47.18751" lon="-1.5635">
        <ele>69</ele>
        <time>2021-04-15T12:26:29.000Z</time>
      </trkpt>
      <trkpt lat="47.18739" lon="-1.56348">
        <ele>69</ele>
        <time>2021-04-15T12:26:31.000Z</time>
      </trkpt>
      <trkpt lat="47.18728" lon="-1.56348">
        <ele>68</ele>
        <time>2021-04-15T12:26:33.000Z</time>
      </trkpt>
      <trkpt lat="47.18717" lon="-1.56349">
        <ele>69</ele>
        <time>2021-04-15T12:26:35.000Z</time>
      </trkpt>
      <trkpt lat="47.18705" lon="-1.56351">
        <ele>70</ele>
        <time>2021-04-15T12:26:37.000Z</time>
      </trkpt>
      <trkpt lat="47.18693" lon="-1.56351">
        <ele>70</ele>
        <time>2021-04-15T12:26:39.000Z</time>
      </trkpt>
      <trkpt lat="47.18682" lon="-1.56349">
        <ele>70</ele>
        <time>2021-04-15T12:26:41.000Z</time>
      </trkpt>
      <trkpt lat="47.18671" lon="-1.56346">
        <ele>71</ele>
        <time>2021-04-15T12:26:43.000Z</time>
      </trkpt>
      <trkpt lat="47.1866" lon="-1.5634">
        <ele>71</ele>
        <time>2021-04-15T12:26:45.000Z</time>
      </trkpt>
      <trkpt lat="47.18649" lon="-1.56335">
        <ele>71</ele>
        <time>2021-04-15T12:26:47.000Z</time>
      </trkpt>
      <trkpt lat="47.18638" lon="-1.5633">
        <ele>71</ele>
        <time>2021-04-15T12:26:49.000Z</time>
      </trkpt>
      <trkpt lat="47.18627" lon="-1.56325">
        <ele>72</ele>
        <time>2021-04-15T12:26:51.000Z</time>
      </trkpt>
      <trkpt lat="47.18617" lon="-1.56318">
        <ele>72</ele>
        <time>2021-04-15T12:26:53.000Z</time>
      </trkpt>
      <trkpt lat="47.18607" lon="-1.5631">
        <ele>73</ele>
        <time>2021-04-15T12:26:55.000Z</time>
      </trkpt>
      <trkpt lat="47.18599" lon="-1.56301">
        <ele>73</ele>
        <time>2021-04-15T12:26:57.000Z</time>
      </trkpt>
      <trkpt lat="47.18591" lon="-1.56292">
        <ele>73</ele>
        <time>2021-04-15T12:26:59.000Z</time>
      </trkpt>
      <trkpt lat="47.18577" lon="-1.56285">
        <ele>74</ele>
        <time>2021-04-15T12:27:03.000Z</time>
      </trkpt>
      <trkpt lat="47.18572" lon="-1.56299">
        <ele>74</ele>
        <time>2021-04-15T12:27:05.000Z</time>
      </trkpt>
      <trkpt lat="47.18568" lon="-1.56313">
        <ele>73</ele>
        <time>2021-04-15T12:27:07.000Z</time>
      </trkpt>
      <trkpt lat="47.18564" lon="-1.56329">
        <ele>74</ele>
        <time>2021-04-15T12:27:09.000Z</time>
      </trkpt>
      <trkpt lat="47.18559" lon="-1.56345">
        <ele>73</ele>
        <time>2021-04-15T12:27:11.000Z</time>
      </trkpt>
      <trkpt lat="47.18554" lon="-1.5636">
        <ele>73</ele>
        <time>2021-04-15T12:27:13.000Z</time>
      </trkpt>
      <trkpt lat="47.1855" lon="-1.56372">
        <ele>74</ele>
        <time>2021-04-15T12:27:15.000Z</time>
      </trkpt>
      <trkpt lat="47.18543" lon="-1.56381">
        <ele>74</ele>
        <time>2021-04-15T12:27:17.000Z</time>
      </trkpt>
      <trkpt lat="47.18531" lon="-1.56382">
        <ele>73</ele>
        <time>2021-04-15T12:27:19.000Z</time>
      </trkpt>
      <trkpt lat="47.1852" lon="-1.56376">
        <ele>74</ele>
        <time>2021-04-15T12:27:21.000Z</time>
      </trkpt>
      <trkpt lat="47.18509" lon="-1.5637">
        <ele>74</ele>
        <time>2021-04-15T12:27:23.000Z</time>
      </trkpt>
      <trkpt lat="47.18498" lon="-1.56366">
        <ele>74</ele>
        <time>2021-04-15T12:27:25.000Z</time>
      </trkpt>
      <trkpt lat="47.18488" lon="-1.56362">
        <ele>74</ele>
        <time>2021-04-15T12:27:27.000Z</time>
      </trkpt>
      <trkpt lat="47.18478" lon="-1.56357">
        <ele>74</ele>
        <time>2021-04-15T12:27:30.000Z</time>
      </trkpt>
      <trkpt lat="47.18468" lon="-1.56353">
        <ele>75</ele>
        <time>2021-04-15T12:27:55.000Z</time>
      </trkpt>
      <trkpt lat="47.18459" lon="-1.56349">
        <ele>75</ele>
        <time>2021-04-15T12:27:58.000Z</time>
      </trkpt>
      <trkpt lat="47.18449" lon="-1.56351">
        <ele>77</ele>
        <time>2021-04-15T12:28:00.000Z</time>
      </trkpt>
      <trkpt lat="47.18441" lon="-1.56355">
        <ele>76</ele>
        <time>2021-04-15T12:28:02.000Z</time>
      </trkpt>
      <trkpt lat="47.18434" lon="-1.56365">
        <ele>75</ele>
        <time>2021-04-15T12:28:04.000Z</time>
      </trkpt>
      <trkpt lat="47.1843" lon="-1.56381">
        <ele>75</ele>
        <time>2021-04-15T12:28:06.000Z</time>
      </trkpt>
      <trkpt lat="47.18427" lon="-1.56398">
        <ele>74</ele>
        <time>2021-04-15T12:28:08.000Z</time>
      </trkpt>
      <trkpt lat="47.18424" lon="-1.56416">
        <ele>74</ele>
        <time>2021-04-15T12:28:10.000Z</time>
      </trkpt>
      <trkpt lat="47.18421" lon="-1.56435">
        <ele>74</ele>
        <time>2021-04-15T12:28:12.000Z</time>
      </trkpt>
      <trkpt lat="47.18418" lon="-1.56454">
        <ele>74</ele>
        <time>2021-04-15T12:28:14.000Z</time>
      </trkpt>
      <trkpt lat="47.18414" lon="-1.56473">
        <ele>74</ele>
        <time>2021-04-15T12:28:16.000Z</time>
      </trkpt>
      <trkpt lat="47.18411" lon="-1.56493">
        <ele>73</ele>
        <time>2021-04-15T12:28:18.000Z</time>
      </trkpt>
      <trkpt lat="47.18407" lon="-1.56512">
        <ele>73</ele>
        <time>2021-04-15T12:28:20.000Z</time>
      </trkpt>
      <trkpt lat="47.18402" lon="-1.56541">
        <ele>73</ele>
        <time>2021-04-15T12:28:23.000Z</time>
      </trkpt>
      <trkpt lat="47.18399" lon="-1.56561">
        <ele>73</ele>
        <time>2021-04-15T12:28:25.000Z</time>
      </trkpt>
      <trkpt lat="47.18396" lon="-1.5658">
        <ele>73</ele>
        <time>2021-04-15T12:28:27.000Z</time>
      </trkpt>
      <trkpt lat="47.18393" lon="-1.56601">
        <ele>73</ele>
        <time>2021-04-15T12:28:29.000Z</time>
      </trkpt>
      <trkpt lat="47.18389" lon="-1.56621">
        <ele>73</ele>
        <time>2021-04-15T12:28:31.000Z</time>
      </trkpt>
      <trkpt lat="47.18385" lon="-1.56642">
        <ele>72</ele>
        <time>2021-04-15T12:28:33.000Z</time>
      </trkpt>
      <trkpt lat="47.18382" lon="-1.56662">
        <ele>73</ele>
        <time>2021-04-15T12:28:35.000Z</time>
      </trkpt>
      <trkpt lat="47.18378" lon="-1.56683">
        <ele>73</ele>
        <time>2021-04-15T12:28:37.000Z</time>
      </trkpt>
      <trkpt lat="47.18376" lon="-1.56704">
        <ele>73</ele>
        <time>2021-04-15T12:28:39.000Z</time>
      </trkpt>
      <trkpt lat="47.18372" lon="-1.56725">
        <ele>73</ele>
        <time>2021-04-15T12:28:41.000Z</time>
      </trkpt>
      <trkpt lat="47.18369" lon="-1.56745">
        <ele>73</ele>
        <time>2021-04-15T12:28:43.000Z</time>
      </trkpt>
      <trkpt lat="47.18367" lon="-1.56765">
        <ele>72</ele>
        <time>2021-04-15T12:28:45.000Z</time>
      </trkpt>
      <trkpt lat="47.18365" lon="-1.56786">
        <ele>72</ele>
        <time>2021-04-15T12:28:47.000Z</time>
      </trkpt>
      <trkpt lat="47.1836" lon="-1.56806">
        <ele>72</ele>
        <time>2021-04-15T12:28:49.000Z</time>
      </trkpt>
      <trkpt lat="47.18356" lon="-1.56826">
        <ele>72</ele>
        <time>2021-04-15T12:28:51.000Z</time>
      </trkpt>
      <trkpt lat="47.18352" lon="-1.56847">
        <ele>72</ele>
        <time>2021-04-15T12:28:53.000Z</time>
      </trkpt>
      <trkpt lat="47.18349" lon="-1.56867">
        <ele>71</ele>
        <time>2021-04-15T12:28:55.000Z</time>
      </trkpt>
      <trkpt lat="47.18347" lon="-1.56887">
        <ele>72</ele>
        <time>2021-04-15T12:28:57.000Z</time>
      </trkpt>
      <trkpt lat="47.18344" lon="-1.56907">
        <ele>71</ele>
        <time>2021-04-15T12:28:59.000Z</time>
      </trkpt>
      <trkpt lat="47.18342" lon="-1.56927">
        <ele>71</ele>
        <time>2021-04-15T12:29:01.000Z</time>
      </trkpt>
      <trkpt lat="47.18343" lon="-1.56947">
        <ele>71</ele>
        <time>2021-04-15T12:29:03.000Z</time>
      </trkpt>
      <trkpt lat="47.18344" lon="-1.56966">
        <ele>71</ele>
        <time>2021-04-15T12:29:05.000Z</time>
      </trkpt>
      <trkpt lat="47.18344" lon="-1.56985">
        <ele>71</ele>
        <time>2021-04-15T12:29:07.000Z</time>
      </trkpt>
      <trkpt lat="47.18339" lon="-1.57014">
        <ele>71</ele>
        <time>2021-04-15T12:29:10.000Z</time>
      </trkpt>
      <trkpt lat="47.18336" lon="-1.57033">
        <ele>71</ele>
        <time>2021-04-15T12:29:12.000Z</time>
      </trkpt>
      <trkpt lat="47.18333" lon="-1.57052">
        <ele>71</ele>
        <time>2021-04-15T12:29:14.000Z</time>
      </trkpt>
      <trkpt lat="47.1833" lon="-1.57071">
        <ele>71</ele>
        <time>2021-04-15T12:29:16.000Z</time>
      </trkpt>
      <trkpt lat="47.18327" lon="-1.57089">
        <ele>71</ele>
        <time>2021-04-15T12:29:18.000Z</time>
      </trkpt>
      <trkpt lat="47.18324" lon="-1.57107">
        <ele>71</ele>
        <time>2021-04-15T12:29:20.000Z</time>
      </trkpt>
      <trkpt lat="47.18321" lon="-1.57127">
        <ele>71</ele>
        <time>2021-04-15T12:29:22.000Z</time>
      </trkpt>
      <trkpt lat="47.18318" lon="-1.57145">
        <ele>71</ele>
        <time>2021-04-15T12:29:24.000Z</time>
      </trkpt>
      <trkpt lat="47.18313" lon="-1.57171">
        <ele>71</ele>
        <time>2021-04-15T12:29:27.000Z</time>
      </trkpt>
      <trkpt lat="47.1831" lon="-1.57186">
        <ele>71</ele>
        <time>2021-04-15T12:29:29.000Z</time>
      </trkpt>
      <trkpt lat="47.18308" lon="-1.57201">
        <ele>71</ele>
        <time>2021-04-15T12:29:31.000Z</time>
      </trkpt>
      <trkpt lat="47.183" lon="-1.57215">
        <ele>71</ele>
        <time>2021-04-15T12:29:34.000Z</time>
      </trkpt>
      <trkpt lat="47.1829" lon="-1.57215">
        <ele>72</ele>
        <time>2021-04-15T12:29:36.000Z</time>
      </trkpt>
      <trkpt lat="47.18273" lon="-1.57212">
        <ele>72</ele>
        <time>2021-04-15T12:29:39.000Z</time>
      </trkpt>
      <trkpt lat="47.18262" lon="-1.5721">
        <ele>73</ele>
        <time>2021-04-15T12:29:41.000Z</time>
      </trkpt>
      <trkpt lat="47.18251" lon="-1.57208">
        <ele>74</ele>
        <time>2021-04-15T12:29:43.000Z</time>
      </trkpt>
      <trkpt lat="47.18239" lon="-1.57205">
        <ele>74</ele>
        <time>2021-04-15T12:29:45.000Z</time>
      </trkpt>
      <trkpt lat="47.18229" lon="-1.57202">
        <ele>74</ele>
        <time>2021-04-15T12:29:47.000Z</time>
      </trkpt>
      <trkpt lat="47.18216" lon="-1.57201">
        <ele>74</ele>
        <time>2021-04-15T12:29:50.000Z</time>
      </trkpt>
      <trkpt lat="47.18214" lon="-1.57214">
        <ele>74</ele>
        <time>2021-04-15T12:29:52.000Z</time>
      </trkpt>
      <trkpt lat="47.18212" lon="-1.57229">
        <ele>73</ele>
        <time>2021-04-15T12:29:54.000Z</time>
      </trkpt>
      <trkpt lat="47.1821" lon="-1.57246">
        <ele>73</ele>
        <time>2021-04-15T12:29:56.000Z</time>
      </trkpt>
      <trkpt lat="47.18209" lon="-1.57263">
        <ele>73</ele>
        <time>2021-04-15T12:29:58.000Z</time>
      </trkpt>
      <trkpt lat="47.18208" lon="-1.57281">
        <ele>72</ele>
        <time>2021-04-15T12:30:00.000Z</time>
      </trkpt>
      <trkpt lat="47.18207" lon="-1.57298">
        <ele>72</ele>
        <time>2021-04-15T12:30:02.000Z</time>
      </trkpt>
      <trkpt lat="47.18206" lon="-1.57316">
        <ele>71</ele>
        <time>2021-04-15T12:30:04.000Z</time>
      </trkpt>
      <trkpt lat="47.18207" lon="-1.57344">
        <ele>70</ele>
        <time>2021-04-15T12:30:07.000Z</time>
      </trkpt>
      <trkpt lat="47.18208" lon="-1.57363">
        <ele>70</ele>
        <time>2021-04-15T12:30:09.000Z</time>
      </trkpt>
      <trkpt lat="47.18208" lon="-1.5738">
        <ele>69</ele>
        <time>2021-04-15T12:30:11.000Z</time>
      </trkpt>
      <trkpt lat="47.18208" lon="-1.57399">
        <ele>69</ele>
        <time>2021-04-15T12:30:13.000Z</time>
      </trkpt>
      <trkpt lat="47.18209" lon="-1.57418">
        <ele>69</ele>
        <time>2021-04-15T12:30:15.000Z</time>
      </trkpt>
      <trkpt lat="47.18209" lon="-1.57437">
        <ele>69</ele>
        <time>2021-04-15T12:30:17.000Z</time>
      </trkpt>
      <trkpt lat="47.18209" lon="-1.57457">
        <ele>68</ele>
        <time>2021-04-15T12:30:19.000Z</time>
      </trkpt>
      <trkpt lat="47.18209" lon="-1.57477">
        <ele>68</ele>
        <time>2021-04-15T12:30:21.000Z</time>
      </trkpt>
      <trkpt lat="47.18209" lon="-1.57495">
        <ele>68</ele>
        <time>2021-04-15T12:30:23.000Z</time>
      </trkpt>
      <trkpt lat="47.18207" lon="-1.57511">
        <ele>69</ele>
        <time>2021-04-15T12:30:25.000Z</time>
      </trkpt>
      <trkpt lat="47.18205" lon="-1.57525">
        <ele>70</ele>
        <time>2021-04-15T12:30:27.000Z</time>
      </trkpt>
      <trkpt lat="47.18202" lon="-1.57538">
        <ele>70</ele>
        <time>2021-04-15T12:30:29.000Z</time>
      </trkpt>
      <trkpt lat="47.182" lon="-1.57552">
        <ele>70</ele>
        <time>2021-04-15T12:30:32.000Z</time>
      </trkpt>
      <trkpt lat="47.182" lon="-1.57567">
        <ele>71</ele>
        <time>2021-04-15T12:30:38.000Z</time>
      </trkpt>
      <trkpt lat="47.18198" lon="-1.57585">
        <ele>72</ele>
        <time>2021-04-15T12:30:41.000Z</time>
      </trkpt>
      <trkpt lat="47.18201" lon="-1.57602">
        <ele>72</ele>
        <time>2021-04-15T12:30:44.000Z</time>
      </trkpt>
      <trkpt lat="47.182" lon="-1.57621">
        <ele>71</ele>
        <time>2021-04-15T12:30:47.000Z</time>
      </trkpt>
      <trkpt lat="47.18199" lon="-1.57639">
        <ele>71</ele>
        <time>2021-04-15T12:30:49.000Z</time>
      </trkpt>
      <trkpt lat="47.18197" lon="-1.57656">
        <ele>71</ele>
        <time>2021-04-15T12:30:51.000Z</time>
      </trkpt>
      <trkpt lat="47.18196" lon="-1.57674">
        <ele>71</ele>
        <time>2021-04-15T12:30:53.000Z</time>
      </trkpt>
      <trkpt lat="47.18195" lon="-1.57692">
        <ele>71</ele>
        <time>2021-04-15T12:30:55.000Z</time>
      </trkpt>
      <trkpt lat="47.18194" lon="-1.57709">
        <ele>72</ele>
        <time>2021-04-15T12:30:57.000Z</time>
      </trkpt>
      <trkpt lat="47.18191" lon="-1.57727">
        <ele>71</ele>
        <time>2021-04-15T12:30:59.000Z</time>
      </trkpt>
      <trkpt lat="47.18187" lon="-1.57743">
        <ele>71</ele>
        <time>2021-04-15T12:31:01.000Z</time>
      </trkpt>
      <trkpt lat="47.18183" lon="-1.5776">
        <ele>72</ele>
        <time>2021-04-15T12:31:03.000Z</time>
      </trkpt>
      <trkpt lat="47.18178" lon="-1.57776">
        <ele>72</ele>
        <time>2021-04-15T12:31:05.000Z</time>
      </trkpt>
      <trkpt lat="47.18174" lon="-1.57793">
        <ele>72</ele>
        <time>2021-04-15T12:31:07.000Z</time>
      </trkpt>
      <trkpt lat="47.1817" lon="-1.5781">
        <ele>72</ele>
        <time>2021-04-15T12:31:09.000Z</time>
      </trkpt>
      <trkpt lat="47.18167" lon="-1.57827">
        <ele>72</ele>
        <time>2021-04-15T12:31:11.000Z</time>
      </trkpt>
      <trkpt lat="47.18164" lon="-1.57844">
        <ele>72</ele>
        <time>2021-04-15T12:31:13.000Z</time>
      </trkpt>
      <trkpt lat="47.18161" lon="-1.5786">
        <ele>71</ele>
        <time>2021-04-15T12:31:15.000Z</time>
      </trkpt>
      <trkpt lat="47.18159" lon="-1.57876">
        <ele>71</ele>
        <time>2021-04-15T12:31:17.000Z</time>
      </trkpt>
      <trkpt lat="47.18154" lon="-1.57887">
        <ele>72</ele>
        <time>2021-04-15T12:31:19.000Z</time>
      </trkpt>
      <trkpt lat="47.18156" lon="-1.57914">
        <ele>72</ele>
        <time>2021-04-15T12:31:23.000Z</time>
      </trkpt>
      <trkpt lat="47.18156" lon="-1.57929">
        <ele>72</ele>
        <time>2021-04-15T12:31:25.000Z</time>
      </trkpt>
      <trkpt lat="47.18156" lon="-1.57943">
        <ele>73</ele>
        <time>2021-04-15T12:31:27.000Z</time>
      </trkpt>
      <trkpt lat="47.18149" lon="-1.57952">
        <ele>72</ele>
        <time>2021-04-15T12:31:29.000Z</time>
      </trkpt>
      <trkpt lat="47.18143" lon="-1.57963">
        <ele>73</ele>
        <time>2021-04-15T12:31:31.000Z</time>
      </trkpt>
      <trkpt lat="47.18139" lon="-1.57977">
        <ele>73</ele>
        <time>2021-04-15T12:31:33.000Z</time>
      </trkpt>
      <trkpt lat="47.18134" lon="-1.57993">
        <ele>73</ele>
        <time>2021-04-15T12:31:35.000Z</time>
      </trkpt>
      <trkpt lat="47.1813" lon="-1.58007">
        <ele>74</ele>
        <time>2021-04-15T12:31:37.000Z</time>
      </trkpt>
      <trkpt lat="47.1813" lon="-1.58026">
        <ele>74</ele>
        <time>2021-04-15T12:31:39.000Z</time>
      </trkpt>
      <trkpt lat="47.18127" lon="-1.58043">
        <ele>74</ele>
        <time>2021-04-15T12:31:41.000Z</time>
      </trkpt>
      <trkpt lat="47.18124" lon="-1.58061">
        <ele>74</ele>
        <time>2021-04-15T12:31:43.000Z</time>
      </trkpt>
      <trkpt lat="47.1812" lon="-1.58079">
        <ele>73</ele>
        <time>2021-04-15T12:31:45.000Z</time>
      </trkpt>
      <trkpt lat="47.18117" lon="-1.58097">
        <ele>73</ele>
        <time>2021-04-15T12:31:47.000Z</time>
      </trkpt>
      <trkpt lat="47.18114" lon="-1.58116">
        <ele>72</ele>
        <time>2021-04-15T12:31:49.000Z</time>
      </trkpt>
      <trkpt lat="47.18111" lon="-1.58136">
        <ele>72</ele>
        <time>2021-04-15T12:31:51.000Z</time>
      </trkpt>
      <trkpt lat="47.18107" lon="-1.58156">
        <ele>71</ele>
        <time>2021-04-15T12:31:53.000Z</time>
      </trkpt>
      <trkpt lat="47.18103" lon="-1.58176">
        <ele>71</ele>
        <time>2021-04-15T12:31:55.000Z</time>
      </trkpt>
      <trkpt lat="47.18099" lon="-1.58198">
        <ele>70</ele>
        <time>2021-04-15T12:31:57.000Z</time>
      </trkpt>
      <trkpt lat="47.18095" lon="-1.58219">
        <ele>70</ele>
        <time>2021-04-15T12:31:59.000Z</time>
      </trkpt>
      <trkpt lat="47.18092" lon="-1.58239">
        <ele>70</ele>
        <time>2021-04-15T12:32:01.000Z</time>
      </trkpt>
      <trkpt lat="47.18091" lon="-1.58259">
        <ele>70</ele>
        <time>2021-04-15T12:32:03.000Z</time>
      </trkpt>
      <trkpt lat="47.18088" lon="-1.5828">
        <ele>70</ele>
        <time>2021-04-15T12:32:05.000Z</time>
      </trkpt>
      <trkpt lat="47.18088" lon="-1.58302">
        <ele>70</ele>
        <time>2021-04-15T12:32:07.000Z</time>
      </trkpt>
      <trkpt lat="47.18089" lon="-1.58325">
        <ele>70</ele>
        <time>2021-04-15T12:32:09.000Z</time>
      </trkpt>
      <trkpt lat="47.18093" lon="-1.58347">
        <ele>70</ele>
        <time>2021-04-15T12:32:11.000Z</time>
      </trkpt>
      <trkpt lat="47.18097" lon="-1.58367">
        <ele>69</ele>
        <time>2021-04-15T12:32:13.000Z</time>
      </trkpt>
      <trkpt lat="47.18103" lon="-1.58386">
        <ele>69</ele>
        <time>2021-04-15T12:32:15.000Z</time>
      </trkpt>
      <trkpt lat="47.1811" lon="-1.58404">
        <ele>69</ele>
        <time>2021-04-15T12:32:17.000Z</time>
      </trkpt>
      <trkpt lat="47.18116" lon="-1.58421">
        <ele>70</ele>
        <time>2021-04-15T12:32:19.000Z</time>
      </trkpt>
      <trkpt lat="47.18121" lon="-1.58437">
        <ele>70</ele>
        <time>2021-04-15T12:32:21.000Z</time>
      </trkpt>
      <trkpt lat="47.18122" lon="-1.58451">
        <ele>70</ele>
        <time>2021-04-15T12:32:23.000Z</time>
      </trkpt>
      <trkpt lat="47.18117" lon="-1.58464">
        <ele>70</ele>
        <time>2021-04-15T12:32:25.000Z</time>
      </trkpt>
      <trkpt lat="47.18116" lon="-1.5848">
        <ele>70</ele>
        <time>2021-04-15T12:32:27.000Z</time>
      </trkpt>
      <trkpt lat="47.18114" lon="-1.58498">
        <ele>70</ele>
        <time>2021-04-15T12:32:29.000Z</time>
      </trkpt>
      <trkpt lat="47.18113" lon="-1.58516">
        <ele>70</ele>
        <time>2021-04-15T12:32:31.000Z</time>
      </trkpt>
      <trkpt lat="47.18112" lon="-1.58535">
        <ele>69</ele>
        <time>2021-04-15T12:32:33.000Z</time>
      </trkpt>
      <trkpt lat="47.18112" lon="-1.58557">
        <ele>69</ele>
        <time>2021-04-15T12:32:35.000Z</time>
      </trkpt>
      <trkpt lat="47.18107" lon="-1.5858">
        <ele>69</ele>
        <time>2021-04-15T12:32:37.000Z</time>
      </trkpt>
      <trkpt lat="47.181" lon="-1.58604">
        <ele>69</ele>
        <time>2021-04-15T12:32:39.000Z</time>
      </trkpt>
      <trkpt lat="47.18093" lon="-1.58627">
        <ele>70</ele>
        <time>2021-04-15T12:32:41.000Z</time>
      </trkpt>
      <trkpt lat="47.18084" lon="-1.58649">
        <ele>70</ele>
        <time>2021-04-15T12:32:43.000Z</time>
      </trkpt>
      <trkpt lat="47.18076" lon="-1.58673">
        <ele>70</ele>
        <time>2021-04-15T12:32:45.000Z</time>
      </trkpt>
      <trkpt lat="47.18072" lon="-1.58685">
        <ele>70</ele>
        <time>2021-04-15T12:32:46.000Z</time>
      </trkpt>
      <trkpt lat="47.18068" lon="-1.58697">
        <ele>70</ele>
        <time>2021-04-15T12:32:47.000Z</time>
      </trkpt>
      <trkpt lat="47.18064" lon="-1.58709">
        <ele>70</ele>
        <time>2021-04-15T12:32:48.000Z</time>
      </trkpt>
      <trkpt lat="47.18053" lon="-1.58731">
        <ele>70</ele>
        <time>2021-04-15T12:32:50.000Z</time>
      </trkpt>
      <trkpt lat="47.18048" lon="-1.58742">
        <ele>70</ele>
        <time>2021-04-15T12:32:51.000Z</time>
      </trkpt>
      <trkpt lat="47.18043" lon="-1.58752">
        <ele>70</ele>
        <time>2021-04-15T12:32:52.000Z</time>
      </trkpt>
      <trkpt lat="47.18033" lon="-1.58773">
        <ele>71</ele>
        <time>2021-04-15T12:32:54.000Z</time>
      </trkpt>
      <trkpt lat="47.18023" lon="-1.58794">
        <ele>71</ele>
        <time>2021-04-15T12:32:56.000Z</time>
      </trkpt>
      <trkpt lat="47.18014" lon="-1.58814">
        <ele>72</ele>
        <time>2021-04-15T12:32:58.000Z</time>
      </trkpt>
      <trkpt lat="47.18006" lon="-1.58833">
        <ele>72</ele>
        <time>2021-04-15T12:33:00.000Z</time>
      </trkpt>
      <trkpt lat="47.17997" lon="-1.58852">
        <ele>72</ele>
        <time>2021-04-15T12:33:02.000Z</time>
      </trkpt>
      <trkpt lat="47.17993" lon="-1.58871">
        <ele>72</ele>
        <time>2021-04-15T12:33:04.000Z</time>
      </trkpt>
      <trkpt lat="47.17998" lon="-1.58889">
        <ele>72</ele>
        <time>2021-04-15T12:33:06.000Z</time>
      </trkpt>
      <trkpt lat="47.18011" lon="-1.589">
        <ele>71</ele>
        <time>2021-04-15T12:33:08.000Z</time>
      </trkpt>
      <trkpt lat="47.18024" lon="-1.58911">
        <ele>71</ele>
        <time>2021-04-15T12:33:10.000Z</time>
      </trkpt>
      <trkpt lat="47.18036" lon="-1.58923">
        <ele>70</ele>
        <time>2021-04-15T12:33:12.000Z</time>
      </trkpt>
      <trkpt lat="47.18049" lon="-1.58935">
        <ele>70</ele>
        <time>2021-04-15T12:33:14.000Z</time>
      </trkpt>
      <trkpt lat="47.1806" lon="-1.58949">
        <ele>69</ele>
        <time>2021-04-15T12:33:16.000Z</time>
      </trkpt>
      <trkpt lat="47.18064" lon="-1.5897">
        <ele>69</ele>
        <time>2021-04-15T12:33:18.000Z</time>
      </trkpt>
      <trkpt lat="47.18065" lon="-1.58992">
        <ele>70</ele>
        <time>2021-04-15T12:33:20.000Z</time>
      </trkpt>
      <trkpt lat="47.18067" lon="-1.59013">
        <ele>70</ele>
        <time>2021-04-15T12:33:22.000Z</time>
      </trkpt>
      <trkpt lat="47.18071" lon="-1.59034">
        <ele>70</ele>
        <time>2021-04-15T12:33:24.000Z</time>
      </trkpt>
      <trkpt lat="47.18075" lon="-1.59055">
        <ele>70</ele>
        <time>2021-04-15T12:33:26.000Z</time>
      </trkpt>
      <trkpt lat="47.18078" lon="-1.59076">
        <ele>70</ele>
        <time>2021-04-15T12:33:28.000Z</time>
      </trkpt>
      <trkpt lat="47.18081" lon="-1.59096">
        <ele>70</ele>
        <time>2021-04-15T12:33:30.000Z</time>
      </trkpt>
      <trkpt lat="47.18084" lon="-1.59114">
        <ele>70</ele>
        <time>2021-04-15T12:33:32.000Z</time>
      </trkpt>
      <trkpt lat="47.18086" lon="-1.59132">
        <ele>70</ele>
        <time>2021-04-15T12:33:34.000Z</time>
      </trkpt>
      <trkpt lat="47.18089" lon="-1.59149">
        <ele>70</ele>
        <time>2021-04-15T12:33:36.000Z</time>
      </trkpt>
      <trkpt lat="47.18093" lon="-1.59165">
        <ele>70</ele>
        <time>2021-04-15T12:33:38.000Z</time>
      </trkpt>
      <trkpt lat="47.18096" lon="-1.5918">
        <ele>69</ele>
        <time>2021-04-15T12:33:40.000Z</time>
      </trkpt>
      <trkpt lat="47.18092" lon="-1.59195">
        <ele>70</ele>
        <time>2021-04-15T12:33:42.000Z</time>
      </trkpt>
      <trkpt lat="47.18083" lon="-1.5921">
        <ele>71</ele>
        <time>2021-04-15T12:33:44.000Z</time>
      </trkpt>
      <trkpt lat="47.18077" lon="-1.59227">
        <ele>71</ele>
        <time>2021-04-15T12:33:46.000Z</time>
      </trkpt>
      <trkpt lat="47.18074" lon="-1.59245">
        <ele>71</ele>
        <time>2021-04-15T12:33:48.000Z</time>
      </trkpt>
      <trkpt lat="47.18071" lon="-1.59264">
        <ele>71</ele>
        <time>2021-04-15T12:33:50.000Z</time>
      </trkpt>
      <trkpt lat="47.18068" lon="-1.59283">
        <ele>70</ele>
        <time>2021-04-15T12:33:52.000Z</time>
      </trkpt>
      <trkpt lat="47.18065" lon="-1.59302">
        <ele>70</ele>
        <time>2021-04-15T12:33:54.000Z</time>
      </trkpt>
      <trkpt lat="47.18062" lon="-1.59321">
        <ele>70</ele>
        <time>2021-04-15T12:33:56.000Z</time>
      </trkpt>
      <trkpt lat="47.18059" lon="-1.59338">
        <ele>70</ele>
        <time>2021-04-15T12:33:58.000Z</time>
      </trkpt>
      <trkpt lat="47.18057" lon="-1.59356">
        <ele>70</ele>
        <time>2021-04-15T12:34:00.000Z</time>
      </trkpt>
      <trkpt lat="47.18054" lon="-1.59374">
        <ele>70</ele>
        <time>2021-04-15T12:34:02.000Z</time>
      </trkpt>
      <trkpt lat="47.18054" lon="-1.59389">
        <ele>70</ele>
        <time>2021-04-15T12:34:04.000Z</time>
      </trkpt>
      <trkpt lat="47.1806" lon="-1.59401">
        <ele>71</ele>
        <time>2021-04-15T12:34:06.000Z</time>
      </trkpt>
      <trkpt lat="47.18066" lon="-1.59413">
        <ele>71</ele>
        <time>2021-04-15T12:34:08.000Z</time>
      </trkpt>
      <trkpt lat="47.18063" lon="-1.59432">
        <ele>70</ele>
        <time>2021-04-15T12:34:10.000Z</time>
      </trkpt>
      <trkpt lat="47.18052" lon="-1.59445">
        <ele>70</ele>
        <time>2021-04-15T12:34:12.000Z</time>
      </trkpt>
      <trkpt lat="47.18043" lon="-1.59461">
        <ele>70</ele>
        <time>2021-04-15T12:34:14.000Z</time>
      </trkpt>
      <trkpt lat="47.18037" lon="-1.5948">
        <ele>70</ele>
        <time>2021-04-15T12:34:16.000Z</time>
      </trkpt>
      <trkpt lat="47.18032" lon="-1.595">
        <ele>70</ele>
        <time>2021-04-15T12:34:18.000Z</time>
      </trkpt>
      <trkpt lat="47.18027" lon="-1.5952">
        <ele>69</ele>
        <time>2021-04-15T12:34:20.000Z</time>
      </trkpt>
      <trkpt lat="47.18022" lon="-1.5954">
        <ele>69</ele>
        <time>2021-04-15T12:34:22.000Z</time>
      </trkpt>
      <trkpt lat="47.18016" lon="-1.59561">
        <ele>70</ele>
        <time>2021-04-15T12:34:24.000Z</time>
      </trkpt>
      <trkpt lat="47.1801" lon="-1.59582">
        <ele>70</ele>
        <time>2021-04-15T12:34:26.000Z</time>
      </trkpt>
      <trkpt lat="47.18004" lon="-1.59604">
        <ele>69</ele>
        <time>2021-04-15T12:34:28.000Z</time>
      </trkpt>
      <trkpt lat="47.17999" lon="-1.59626">
        <ele>68</ele>
        <time>2021-04-15T12:34:30.000Z</time>
      </trkpt>
      <trkpt lat="47.17992" lon="-1.59648">
        <ele>68</ele>
        <time>2021-04-15T12:34:32.000Z</time>
      </trkpt>
      <trkpt lat="47.17987" lon="-1.59671">
        <ele>68</ele>
        <time>2021-04-15T12:34:34.000Z</time>
      </trkpt>
      <trkpt lat="47.17981" lon="-1.59695">
        <ele>67</ele>
        <time>2021-04-15T12:34:36.000Z</time>
      </trkpt>
      <trkpt lat="47.17975" lon="-1.59717">
        <ele>66</ele>
        <time>2021-04-15T12:34:38.000Z</time>
      </trkpt>
      <trkpt lat="47.17968" lon="-1.5974">
        <ele>65</ele>
        <time>2021-04-15T12:34:40.000Z</time>
      </trkpt>
      <trkpt lat="47.17961" lon="-1.59762">
        <ele>64</ele>
        <time>2021-04-15T12:34:42.000Z</time>
      </trkpt>
      <trkpt lat="47.17958" lon="-1.59775">
        <ele>63</ele>
        <time>2021-04-15T12:34:43.000Z</time>
      </trkpt>
      <trkpt lat="47.17955" lon="-1.59788">
        <ele>63</ele>
        <time>2021-04-15T12:34:44.000Z</time>
      </trkpt>
      <trkpt lat="47.17953" lon="-1.59801">
        <ele>62</ele>
        <time>2021-04-15T12:34:45.000Z</time>
      </trkpt>
      <trkpt lat="47.1795" lon="-1.59815">
        <ele>62</ele>
        <time>2021-04-15T12:34:46.000Z</time>
      </trkpt>
      <trkpt lat="47.17948" lon="-1.5983">
        <ele>61</ele>
        <time>2021-04-15T12:34:47.000Z</time>
      </trkpt>
      <trkpt lat="47.17946" lon="-1.59845">
        <ele>60</ele>
        <time>2021-04-15T12:34:48.000Z</time>
      </trkpt>
      <trkpt lat="47.17944" lon="-1.59859">
        <ele>60</ele>
        <time>2021-04-15T12:34:49.000Z</time>
      </trkpt>
      <trkpt lat="47.17941" lon="-1.59875">
        <ele>59</ele>
        <time>2021-04-15T12:34:50.000Z</time>
      </trkpt>
      <trkpt lat="47.17937" lon="-1.59889">
        <ele>58</ele>
        <time>2021-04-15T12:34:51.000Z</time>
      </trkpt>
      <trkpt lat="47.17933" lon="-1.59904">
        <ele>58</ele>
        <time>2021-04-15T12:34:52.000Z</time>
      </trkpt>
      <trkpt lat="47.17931" lon="-1.59919">
        <ele>57</ele>
        <time>2021-04-15T12:34:53.000Z</time>
      </trkpt>
      <trkpt lat="47.17927" lon="-1.59932">
        <ele>56</ele>
        <time>2021-04-15T12:34:54.000Z</time>
      </trkpt>
      <trkpt lat="47.17919" lon="-1.59941">
        <ele>56</ele>
        <time>2021-04-15T12:34:55.000Z</time>
      </trkpt>
      <trkpt lat="47.17909" lon="-1.59944">
        <ele>57</ele>
        <time>2021-04-15T12:34:56.000Z</time>
      </trkpt>
      <trkpt lat="47.17899" lon="-1.59945">
        <ele>57</ele>
        <time>2021-04-15T12:34:57.000Z</time>
      </trkpt>
      <trkpt lat="47.1789" lon="-1.59949">
        <ele>58</ele>
        <time>2021-04-15T12:34:58.000Z</time>
      </trkpt>
      <trkpt lat="47.17877" lon="-1.59966">
        <ele>58</ele>
        <time>2021-04-15T12:35:00.000Z</time>
      </trkpt>
      <trkpt lat="47.17866" lon="-1.59986">
        <ele>59</ele>
        <time>2021-04-15T12:35:02.000Z</time>
      </trkpt>
      <trkpt lat="47.17855" lon="-1.60005">
        <ele>59</ele>
        <time>2021-04-15T12:35:04.000Z</time>
      </trkpt>
      <trkpt lat="47.17844" lon="-1.60023">
        <ele>60</ele>
        <time>2021-04-15T12:35:06.000Z</time>
      </trkpt>
      <trkpt lat="47.17834" lon="-1.60041">
        <ele>60</ele>
        <time>2021-04-15T12:35:08.000Z</time>
      </trkpt>
      <trkpt lat="47.17824" lon="-1.60059">
        <ele>61</ele>
        <time>2021-04-15T12:35:10.000Z</time>
      </trkpt>
      <trkpt lat="47.17814" lon="-1.60077">
        <ele>61</ele>
        <time>2021-04-15T12:35:12.000Z</time>
      </trkpt>
      <trkpt lat="47.17803" lon="-1.60095">
        <ele>62</ele>
        <time>2021-04-15T12:35:14.000Z</time>
      </trkpt>
      <trkpt lat="47.17792" lon="-1.60113">
        <ele>63</ele>
        <time>2021-04-15T12:35:16.000Z</time>
      </trkpt>
      <trkpt lat="47.17782" lon="-1.60132">
        <ele>63</ele>
        <time>2021-04-15T12:35:18.000Z</time>
      </trkpt>
      <trkpt lat="47.17771" lon="-1.60151">
        <ele>64</ele>
        <time>2021-04-15T12:35:20.000Z</time>
      </trkpt>
      <trkpt lat="47.17761" lon="-1.60169">
        <ele>65</ele>
        <time>2021-04-15T12:35:22.000Z</time>
      </trkpt>
      <trkpt lat="47.17754" lon="-1.60189">
        <ele>65</ele>
        <time>2021-04-15T12:35:24.000Z</time>
      </trkpt>
      <trkpt lat="47.1775" lon="-1.6021">
        <ele>66</ele>
        <time>2021-04-15T12:35:26.000Z</time>
      </trkpt>
      <trkpt lat="47.17744" lon="-1.60231">
        <ele>66</ele>
        <time>2021-04-15T12:35:28.000Z</time>
      </trkpt>
      <trkpt lat="47.17739" lon="-1.60252">
        <ele>67</ele>
        <time>2021-04-15T12:35:30.000Z</time>
      </trkpt>
      <trkpt lat="47.17731" lon="-1.60272">
        <ele>67</ele>
        <time>2021-04-15T12:35:32.000Z</time>
      </trkpt>
      <trkpt lat="47.1772" lon="-1.60288">
        <ele>67</ele>
        <time>2021-04-15T12:35:34.000Z</time>
      </trkpt>
      <trkpt lat="47.17709" lon="-1.60303">
        <ele>67</ele>
        <time>2021-04-15T12:35:36.000Z</time>
      </trkpt>
      <trkpt lat="47.17699" lon="-1.60318">
        <ele>68</ele>
        <time>2021-04-15T12:35:38.000Z</time>
      </trkpt>
      <trkpt lat="47.17689" lon="-1.60332">
        <ele>68</ele>
        <time>2021-04-15T12:35:40.000Z</time>
      </trkpt>
      <trkpt lat="47.17679" lon="-1.60346">
        <ele>68</ele>
        <time>2021-04-15T12:35:42.000Z</time>
      </trkpt>
      <trkpt lat="47.17668" lon="-1.60361">
        <ele>68</ele>
        <time>2021-04-15T12:35:44.000Z</time>
      </trkpt>
      <trkpt lat="47.17658" lon="-1.60376">
        <ele>68</ele>
        <time>2021-04-15T12:35:46.000Z</time>
      </trkpt>
      <trkpt lat="47.17648" lon="-1.60392">
        <ele>68</ele>
        <time>2021-04-15T12:35:48.000Z</time>
      </trkpt>
      <trkpt lat="47.17638" lon="-1.6041">
        <ele>67</ele>
        <time>2021-04-15T12:35:50.000Z</time>
      </trkpt>
      <trkpt lat="47.17627" lon="-1.60429">
        <ele>67</ele>
        <time>2021-04-15T12:35:52.000Z</time>
      </trkpt>
      <trkpt lat="47.17615" lon="-1.60446">
        <ele>66</ele>
        <time>2021-04-15T12:35:54.000Z</time>
      </trkpt>
      <trkpt lat="47.17604" lon="-1.60464">
        <ele>66</ele>
        <time>2021-04-15T12:35:56.000Z</time>
      </trkpt>
      <trkpt lat="47.17593" lon="-1.60483">
        <ele>66</ele>
        <time>2021-04-15T12:35:58.000Z</time>
      </trkpt>
      <trkpt lat="47.17581" lon="-1.60501">
        <ele>66</ele>
        <time>2021-04-15T12:36:00.000Z</time>
      </trkpt>
      <trkpt lat="47.1757" lon="-1.60519">
        <ele>65</ele>
        <time>2021-04-15T12:36:02.000Z</time>
      </trkpt>
      <trkpt lat="47.17559" lon="-1.60536">
        <ele>65</ele>
        <time>2021-04-15T12:36:04.000Z</time>
      </trkpt>
      <trkpt lat="47.17548" lon="-1.60554">
        <ele>65</ele>
        <time>2021-04-15T12:36:06.000Z</time>
      </trkpt>
      <trkpt lat="47.17537" lon="-1.60571">
        <ele>64</ele>
        <time>2021-04-15T12:36:08.000Z</time>
      </trkpt>
      <trkpt lat="47.17526" lon="-1.60588">
        <ele>64</ele>
        <time>2021-04-15T12:36:10.000Z</time>
      </trkpt>
      <trkpt lat="47.17516" lon="-1.60606">
        <ele>64</ele>
        <time>2021-04-15T12:36:12.000Z</time>
      </trkpt>
      <trkpt lat="47.17505" lon="-1.60623">
        <ele>64</ele>
        <time>2021-04-15T12:36:14.000Z</time>
      </trkpt>
      <trkpt lat="47.17494" lon="-1.60641">
        <ele>64</ele>
        <time>2021-04-15T12:36:16.000Z</time>
      </trkpt>
      <trkpt lat="47.17483" lon="-1.60659">
        <ele>63</ele>
        <time>2021-04-15T12:36:18.000Z</time>
      </trkpt>
      <trkpt lat="47.17472" lon="-1.60677">
        <ele>63</ele>
        <time>2021-04-15T12:36:20.000Z</time>
      </trkpt>
      <trkpt lat="47.17461" lon="-1.60696">
        <ele>62</ele>
        <time>2021-04-15T12:36:22.000Z</time>
      </trkpt>
      <trkpt lat="47.1745" lon="-1.60715">
        <ele>62</ele>
        <time>2021-04-15T12:36:24.000Z</time>
      </trkpt>
      <trkpt lat="47.17438" lon="-1.60734">
        <ele>62</ele>
        <time>2021-04-15T12:36:26.000Z</time>
      </trkpt>
      <trkpt lat="47.17428" lon="-1.60755">
        <ele>61</ele>
        <time>2021-04-15T12:36:28.000Z</time>
      </trkpt>
      <trkpt lat="47.17423" lon="-1.60766">
        <ele>60</ele>
        <time>2021-04-15T12:36:29.000Z</time>
      </trkpt>
      <trkpt lat="47.17419" lon="-1.60778">
        <ele>60</ele>
        <time>2021-04-15T12:36:30.000Z</time>
      </trkpt>
      <trkpt lat="47.17415" lon="-1.6079">
        <ele>60</ele>
        <time>2021-04-15T12:36:31.000Z</time>
      </trkpt>
      <trkpt lat="47.17411" lon="-1.60802">
        <ele>60</ele>
        <time>2021-04-15T12:36:32.000Z</time>
      </trkpt>
      <trkpt lat="47.17407" lon="-1.60815">
        <ele>59</ele>
        <time>2021-04-15T12:36:33.000Z</time>
      </trkpt>
      <trkpt lat="47.17404" lon="-1.60828">
        <ele>59</ele>
        <time>2021-04-15T12:36:34.000Z</time>
      </trkpt>
      <trkpt lat="47.17402" lon="-1.60841">
        <ele>59</ele>
        <time>2021-04-15T12:36:35.000Z</time>
      </trkpt>
      <trkpt lat="47.174" lon="-1.60855">
        <ele>59</ele>
        <time>2021-04-15T12:36:36.000Z</time>
      </trkpt>
      <trkpt lat="47.17398" lon="-1.60869">
        <ele>59</ele>
        <time>2021-04-15T12:36:37.000Z</time>
      </trkpt>
      <trkpt lat="47.17397" lon="-1.60882">
        <ele>58</ele>
        <time>2021-04-15T12:36:38.000Z</time>
      </trkpt>
      <trkpt lat="47.17397" lon="-1.60896">
        <ele>58</ele>
        <time>2021-04-15T12:36:39.000Z</time>
      </trkpt>
      <trkpt lat="47.17397" lon="-1.6091">
        <ele>57</ele>
        <time>2021-04-15T12:36:40.000Z</time>
      </trkpt>
      <trkpt lat="47.17398" lon="-1.60923">
        <ele>56</ele>
        <time>2021-04-15T12:36:41.000Z</time>
      </trkpt>
      <trkpt lat="47.174" lon="-1.60937">
        <ele>56</ele>
        <time>2021-04-15T12:36:42.000Z</time>
      </trkpt>
      <trkpt lat="47.17404" lon="-1.60959">
        <ele>55</ele>
        <time>2021-04-15T12:36:44.000Z</time>
      </trkpt>
      <trkpt lat="47.17408" lon="-1.60972">
        <ele>55</ele>
        <time>2021-04-15T12:36:48.000Z</time>
      </trkpt>
      <trkpt lat="47.17415" lon="-1.60985">
        <ele>56</ele>
        <time>2021-04-15T12:36:53.000Z</time>
      </trkpt>
      <trkpt lat="47.1742" lon="-1.61">
        <ele>56</ele>
        <time>2021-04-15T12:36:55.000Z</time>
      </trkpt>
      <trkpt lat="47.17422" lon="-1.61019">
        <ele>56</ele>
        <time>2021-04-15T12:36:57.000Z</time>
      </trkpt>
      <trkpt lat="47.17424" lon="-1.61039">
        <ele>56</ele>
        <time>2021-04-15T12:36:59.000Z</time>
      </trkpt>
      <trkpt lat="47.17428" lon="-1.61057">
        <ele>56</ele>
        <time>2021-04-15T12:37:01.000Z</time>
      </trkpt>
      <trkpt lat="47.17435" lon="-1.61075">
        <ele>57</ele>
        <time>2021-04-15T12:37:03.000Z</time>
      </trkpt>
      <trkpt lat="47.17442" lon="-1.61093">
        <ele>57</ele>
        <time>2021-04-15T12:37:05.000Z</time>
      </trkpt>
      <trkpt lat="47.1745" lon="-1.61111">
        <ele>58</ele>
        <time>2021-04-15T12:37:07.000Z</time>
      </trkpt>
      <trkpt lat="47.17458" lon="-1.6113">
        <ele>59</ele>
        <time>2021-04-15T12:37:09.000Z</time>
      </trkpt>
      <trkpt lat="47.17466" lon="-1.61148">
        <ele>59</ele>
        <time>2021-04-15T12:37:11.000Z</time>
      </trkpt>
      <trkpt lat="47.17473" lon="-1.61166">
        <ele>59</ele>
        <time>2021-04-15T12:37:13.000Z</time>
      </trkpt>
      <trkpt lat="47.1748" lon="-1.61184">
        <ele>59</ele>
        <time>2021-04-15T12:37:15.000Z</time>
      </trkpt>
      <trkpt lat="47.17487" lon="-1.61203">
        <ele>59</ele>
        <time>2021-04-15T12:37:17.000Z</time>
      </trkpt>
      <trkpt lat="47.17494" lon="-1.6122">
        <ele>59</ele>
        <time>2021-04-15T12:37:19.000Z</time>
      </trkpt>
      <trkpt lat="47.17501" lon="-1.61237">
        <ele>59</ele>
        <time>2021-04-15T12:37:21.000Z</time>
      </trkpt>
      <trkpt lat="47.1751" lon="-1.61252">
        <ele>59</ele>
        <time>2021-04-15T12:37:23.000Z</time>
      </trkpt>
      <trkpt lat="47.17519" lon="-1.61267">
        <ele>59</ele>
        <time>2021-04-15T12:37:25.000Z</time>
      </trkpt>
      <trkpt lat="47.17529" lon="-1.6128">
        <ele>59</ele>
        <time>2021-04-15T12:37:27.000Z</time>
      </trkpt>
      <trkpt lat="47.1754" lon="-1.6129">
        <ele>59</ele>
        <time>2021-04-15T12:37:29.000Z</time>
      </trkpt>
      <trkpt lat="47.17551" lon="-1.61298">
        <ele>59</ele>
        <time>2021-04-15T12:37:31.000Z</time>
      </trkpt>
      <trkpt lat="47.1756" lon="-1.61311">
        <ele>59</ele>
        <time>2021-04-15T12:37:33.000Z</time>
      </trkpt>
      <trkpt lat="47.17561" lon="-1.61332">
        <ele>58</ele>
        <time>2021-04-15T12:37:35.000Z</time>
      </trkpt>
      <trkpt lat="47.17553" lon="-1.6135">
        <ele>59</ele>
        <time>2021-04-15T12:37:37.000Z</time>
      </trkpt>
      <trkpt lat="47.17541" lon="-1.61361">
        <ele>60</ele>
        <time>2021-04-15T12:37:39.000Z</time>
      </trkpt>
      <trkpt lat="47.17531" lon="-1.61377">
        <ele>60</ele>
        <time>2021-04-15T12:37:41.000Z</time>
      </trkpt>
      <trkpt lat="47.17526" lon="-1.61397">
        <ele>60</ele>
        <time>2021-04-15T12:37:43.000Z</time>
      </trkpt>
      <trkpt lat="47.17522" lon="-1.61417">
        <ele>61</ele>
        <time>2021-04-15T12:37:45.000Z</time>
      </trkpt>
      <trkpt lat="47.17518" lon="-1.61435">
        <ele>62</ele>
        <time>2021-04-15T12:37:47.000Z</time>
      </trkpt>
      <trkpt lat="47.17514" lon="-1.61453">
        <ele>63</ele>
        <time>2021-04-15T12:37:49.000Z</time>
      </trkpt>
      <trkpt lat="47.17503" lon="-1.61464">
        <ele>63</ele>
        <time>2021-04-15T12:37:51.000Z</time>
      </trkpt>
      <trkpt lat="47.1749" lon="-1.61468">
        <ele>63</ele>
        <time>2021-04-15T12:37:53.000Z</time>
      </trkpt>
      <trkpt lat="47.17475" lon="-1.61473">
        <ele>64</ele>
        <time>2021-04-15T12:37:55.000Z</time>
      </trkpt>
      <trkpt lat="47.17462" lon="-1.61479">
        <ele>65</ele>
        <time>2021-04-15T12:37:57.000Z</time>
      </trkpt>
      <trkpt lat="47.17449" lon="-1.61486">
        <ele>66</ele>
        <time>2021-04-15T12:37:59.000Z</time>
      </trkpt>
      <trkpt lat="47.17437" lon="-1.61493">
        <ele>67</ele>
        <time>2021-04-15T12:38:01.000Z</time>
      </trkpt>
      <trkpt lat="47.17425" lon="-1.61502">
        <ele>68</ele>
        <time>2021-04-15T12:38:03.000Z</time>
      </trkpt>
      <trkpt lat="47.17414" lon="-1.61509">
        <ele>68</ele>
        <time>2021-04-15T12:38:05.000Z</time>
      </trkpt>
      <trkpt lat="47.17403" lon="-1.61518">
        <ele>69</ele>
        <time>2021-04-15T12:38:07.000Z</time>
      </trkpt>
      <trkpt lat="47.17392" lon="-1.61527">
        <ele>69</ele>
        <time>2021-04-15T12:38:09.000Z</time>
      </trkpt>
      <trkpt lat="47.17382" lon="-1.61536">
        <ele>70</ele>
        <time>2021-04-15T12:38:11.000Z</time>
      </trkpt>
      <trkpt lat="47.17372" lon="-1.61545">
        <ele>71</ele>
        <time>2021-04-15T12:38:13.000Z</time>
      </trkpt>
      <trkpt lat="47.17362" lon="-1.61556">
        <ele>71</ele>
        <time>2021-04-15T12:38:15.000Z</time>
      </trkpt>
      <trkpt lat="47.17353" lon="-1.61567">
        <ele>71</ele>
        <time>2021-04-15T12:38:17.000Z</time>
      </trkpt>
      <trkpt lat="47.17344" lon="-1.61578">
        <ele>71</ele>
        <time>2021-04-15T12:38:19.000Z</time>
      </trkpt>
      <trkpt lat="47.17335" lon="-1.61589">
        <ele>71</ele>
        <time>2021-04-15T12:38:21.000Z</time>
      </trkpt>
      <trkpt lat="47.17325" lon="-1.61601">
        <ele>72</ele>
        <time>2021-04-15T12:38:23.000Z</time>
      </trkpt>
      <trkpt lat="47.17317" lon="-1.61613">
        <ele>71</ele>
        <time>2021-04-15T12:38:25.000Z</time>
      </trkpt>
      <trkpt lat="47.17309" lon="-1.61627">
        <ele>72</ele>
        <time>2021-04-15T12:38:27.000Z</time>
      </trkpt>
      <trkpt lat="47.173" lon="-1.6164">
        <ele>72</ele>
        <time>2021-04-15T12:38:29.000Z</time>
      </trkpt>
      <trkpt lat="47.17292" lon="-1.61656">
        <ele>72</ele>
        <time>2021-04-15T12:38:31.000Z</time>
      </trkpt>
      <trkpt lat="47.17285" lon="-1.6167">
        <ele>72</ele>
        <time>2021-04-15T12:38:33.000Z</time>
      </trkpt>
      <trkpt lat="47.17277" lon="-1.61684">
        <ele>72</ele>
        <time>2021-04-15T12:38:35.000Z</time>
      </trkpt>
      <trkpt lat="47.1727" lon="-1.617">
        <ele>72</ele>
        <time>2021-04-15T12:38:37.000Z</time>
      </trkpt>
      <trkpt lat="47.17262" lon="-1.61715">
        <ele>72</ele>
        <time>2021-04-15T12:38:39.000Z</time>
      </trkpt>
      <trkpt lat="47.17255" lon="-1.61729">
        <ele>72</ele>
        <time>2021-04-15T12:38:41.000Z</time>
      </trkpt>
      <trkpt lat="47.1725" lon="-1.6174">
        <ele>71</ele>
        <time>2021-04-15T12:38:43.000Z</time>
      </trkpt>
      <trkpt lat="47.17247" lon="-1.61759">
        <ele>71</ele>
        <time>2021-04-15T12:38:46.000Z</time>
      </trkpt>
      <trkpt lat="47.17244" lon="-1.61774">
        <ele>71</ele>
        <time>2021-04-15T12:38:48.000Z</time>
      </trkpt>
      <trkpt lat="47.17234" lon="-1.61787">
        <ele>70</ele>
        <time>2021-04-15T12:38:50.000Z</time>
      </trkpt>
      <trkpt lat="47.17222" lon="-1.61796">
        <ele>70</ele>
        <time>2021-04-15T12:38:52.000Z</time>
      </trkpt>
      <trkpt lat="47.17211" lon="-1.61806">
        <ele>70</ele>
        <time>2021-04-15T12:38:54.000Z</time>
      </trkpt>
      <trkpt lat="47.17199" lon="-1.61816">
        <ele>70</ele>
        <time>2021-04-15T12:38:56.000Z</time>
      </trkpt>
      <trkpt lat="47.17188" lon="-1.61827">
        <ele>71</ele>
        <time>2021-04-15T12:38:58.000Z</time>
      </trkpt>
      <trkpt lat="47.17177" lon="-1.61837">
        <ele>71</ele>
        <time>2021-04-15T12:39:00.000Z</time>
      </trkpt>
      <trkpt lat="47.17166" lon="-1.61848">
        <ele>71</ele>
        <time>2021-04-15T12:39:02.000Z</time>
      </trkpt>
      <trkpt lat="47.17155" lon="-1.61858">
        <ele>71</ele>
        <time>2021-04-15T12:39:04.000Z</time>
      </trkpt>
      <trkpt lat="47.17144" lon="-1.61869">
        <ele>70</ele>
        <time>2021-04-15T12:39:06.000Z</time>
      </trkpt>
      <trkpt lat="47.17132" lon="-1.6188">
        <ele>70</ele>
        <time>2021-04-15T12:39:08.000Z</time>
      </trkpt>
      <trkpt lat="47.1712" lon="-1.61891">
        <ele>70</ele>
        <time>2021-04-15T12:39:10.000Z</time>
      </trkpt>
      <trkpt lat="47.17109" lon="-1.61903">
        <ele>70</ele>
        <time>2021-04-15T12:39:12.000Z</time>
      </trkpt>
      <trkpt lat="47.17097" lon="-1.61914">
        <ele>69</ele>
        <time>2021-04-15T12:39:14.000Z</time>
      </trkpt>
      <trkpt lat="47.17086" lon="-1.61924">
        <ele>70</ele>
        <time>2021-04-15T12:39:16.000Z</time>
      </trkpt>
      <trkpt lat="47.17076" lon="-1.61935">
        <ele>69</ele>
        <time>2021-04-15T12:39:18.000Z</time>
      </trkpt>
      <trkpt lat="47.17066" lon="-1.61946">
        <ele>70</ele>
        <time>2021-04-15T12:39:20.000Z</time>
      </trkpt>
      <trkpt lat="47.17056" lon="-1.61958">
        <ele>69</ele>
        <time>2021-04-15T12:39:22.000Z</time>
      </trkpt>
      <trkpt lat="47.17046" lon="-1.61972">
        <ele>69</ele>
        <time>2021-04-15T12:39:24.000Z</time>
      </trkpt>
      <trkpt lat="47.17036" lon="-1.61986">
        <ele>69</ele>
        <time>2021-04-15T12:39:26.000Z</time>
      </trkpt>
      <trkpt lat="47.17027" lon="-1.62001">
        <ele>69</ele>
        <time>2021-04-15T12:39:28.000Z</time>
      </trkpt>
      <trkpt lat="47.17017" lon="-1.62015">
        <ele>69</ele>
        <time>2021-04-15T12:39:30.000Z</time>
      </trkpt>
      <trkpt lat="47.17008" lon="-1.6203">
        <ele>69</ele>
        <time>2021-04-15T12:39:32.000Z</time>
      </trkpt>
      <trkpt lat="47.16998" lon="-1.62046">
        <ele>69</ele>
        <time>2021-04-15T12:39:34.000Z</time>
      </trkpt>
      <trkpt lat="47.16989" lon="-1.62063">
        <ele>69</ele>
        <time>2021-04-15T12:39:36.000Z</time>
      </trkpt>
      <trkpt lat="47.1698" lon="-1.6208">
        <ele>70</ele>
        <time>2021-04-15T12:39:38.000Z</time>
      </trkpt>
      <trkpt lat="47.1697" lon="-1.62095">
        <ele>70</ele>
        <time>2021-04-15T12:39:40.000Z</time>
      </trkpt>
      <trkpt lat="47.16962" lon="-1.62112">
        <ele>70</ele>
        <time>2021-04-15T12:39:42.000Z</time>
      </trkpt>
      <trkpt lat="47.16953" lon="-1.62128">
        <ele>70</ele>
        <time>2021-04-15T12:39:44.000Z</time>
      </trkpt>
      <trkpt lat="47.16945" lon="-1.62144">
        <ele>70</ele>
        <time>2021-04-15T12:39:46.000Z</time>
      </trkpt>
      <trkpt lat="47.16937" lon="-1.62162">
        <ele>70</ele>
        <time>2021-04-15T12:39:48.000Z</time>
      </trkpt>
      <trkpt lat="47.16929" lon="-1.62179">
        <ele>70</ele>
        <time>2021-04-15T12:39:50.000Z</time>
      </trkpt>
      <trkpt lat="47.1692" lon="-1.62195">
        <ele>70</ele>
        <time>2021-04-15T12:39:52.000Z</time>
      </trkpt>
      <trkpt lat="47.1691" lon="-1.62211">
        <ele>70</ele>
        <time>2021-04-15T12:39:54.000Z</time>
      </trkpt>
      <trkpt lat="47.16899" lon="-1.62226">
        <ele>70</ele>
        <time>2021-04-15T12:39:56.000Z</time>
      </trkpt>
      <trkpt lat="47.16888" lon="-1.62239">
        <ele>70</ele>
        <time>2021-04-15T12:39:58.000Z</time>
      </trkpt>
      <trkpt lat="47.16877" lon="-1.62253">
        <ele>70</ele>
        <time>2021-04-15T12:40:00.000Z</time>
      </trkpt>
      <trkpt lat="47.16867" lon="-1.62266">
        <ele>70</ele>
        <time>2021-04-15T12:40:02.000Z</time>
      </trkpt>
      <trkpt lat="47.16855" lon="-1.62279">
        <ele>70</ele>
        <time>2021-04-15T12:40:04.000Z</time>
      </trkpt>
      <trkpt lat="47.16845" lon="-1.62292">
        <ele>70</ele>
        <time>2021-04-15T12:40:06.000Z</time>
      </trkpt>
      <trkpt lat="47.16834" lon="-1.62305">
        <ele>70</ele>
        <time>2021-04-15T12:40:08.000Z</time>
      </trkpt>
      <trkpt lat="47.16822" lon="-1.62316">
        <ele>71</ele>
        <time>2021-04-15T12:40:10.000Z</time>
      </trkpt>
      <trkpt lat="47.1681" lon="-1.62324">
        <ele>70</ele>
        <time>2021-04-15T12:40:12.000Z</time>
      </trkpt>
      <trkpt lat="47.16798" lon="-1.62332">
        <ele>70</ele>
        <time>2021-04-15T12:40:14.000Z</time>
      </trkpt>
      <trkpt lat="47.16785" lon="-1.62338">
        <ele>70</ele>
        <time>2021-04-15T12:40:16.000Z</time>
      </trkpt>
      <trkpt lat="47.16772" lon="-1.62345">
        <ele>70</ele>
        <time>2021-04-15T12:40:18.000Z</time>
      </trkpt>
      <trkpt lat="47.1676" lon="-1.62355">
        <ele>70</ele>
        <time>2021-04-15T12:40:20.000Z</time>
      </trkpt>
      <trkpt lat="47.16749" lon="-1.62366">
        <ele>70</ele>
        <time>2021-04-15T12:40:22.000Z</time>
      </trkpt>
      <trkpt lat="47.16739" lon="-1.6238">
        <ele>69</ele>
        <time>2021-04-15T12:40:24.000Z</time>
      </trkpt>
      <trkpt lat="47.16734" lon="-1.62398">
        <ele>69</ele>
        <time>2021-04-15T12:40:26.000Z</time>
      </trkpt>
      <trkpt lat="47.1673" lon="-1.62415">
        <ele>69</ele>
        <time>2021-04-15T12:40:28.000Z</time>
      </trkpt>
      <trkpt lat="47.16728" lon="-1.62433">
        <ele>69</ele>
        <time>2021-04-15T12:40:30.000Z</time>
      </trkpt>
      <trkpt lat="47.16723" lon="-1.6245">
        <ele>68</ele>
        <time>2021-04-15T12:40:32.000Z</time>
      </trkpt>
      <trkpt lat="47.16719" lon="-1.62467">
        <ele>69</ele>
        <time>2021-04-15T12:40:34.000Z</time>
      </trkpt>
      <trkpt lat="47.16716" lon="-1.62485">
        <ele>69</ele>
        <time>2021-04-15T12:40:36.000Z</time>
      </trkpt>
      <trkpt lat="47.16725" lon="-1.62498">
        <ele>68</ele>
        <time>2021-04-15T12:40:38.000Z</time>
      </trkpt>
      <trkpt lat="47.16738" lon="-1.62502">
        <ele>68</ele>
        <time>2021-04-15T12:40:40.000Z</time>
      </trkpt>
      <trkpt lat="47.16751" lon="-1.62507">
        <ele>67</ele>
        <time>2021-04-15T12:40:42.000Z</time>
      </trkpt>
      <trkpt lat="47.16763" lon="-1.62515">
        <ele>67</ele>
        <time>2021-04-15T12:40:44.000Z</time>
      </trkpt>
      <trkpt lat="47.16775" lon="-1.62522">
        <ele>67</ele>
        <time>2021-04-15T12:40:46.000Z</time>
      </trkpt>
      <trkpt lat="47.16786" lon="-1.6253">
        <ele>67</ele>
        <time>2021-04-15T12:40:48.000Z</time>
      </trkpt>
      <trkpt lat="47.16797" lon="-1.62537">
        <ele>67</ele>
        <time>2021-04-15T12:40:50.000Z</time>
      </trkpt>
      <trkpt lat="47.16807" lon="-1.62544">
        <ele>66</ele>
        <time>2021-04-15T12:40:52.000Z</time>
      </trkpt>
      <trkpt lat="47.16817" lon="-1.62553">
        <ele>66</ele>
        <time>2021-04-15T12:40:54.000Z</time>
      </trkpt>
      <trkpt lat="47.16826" lon="-1.62564">
        <ele>66</ele>
        <time>2021-04-15T12:40:56.000Z</time>
      </trkpt>
      <trkpt lat="47.16832" lon="-1.62579">
        <ele>66</ele>
        <time>2021-04-15T12:40:58.000Z</time>
      </trkpt>
      <trkpt lat="47.16829" lon="-1.62597">
        <ele>68</ele>
        <time>2021-04-15T12:41:00.000Z</time>
      </trkpt>
      <trkpt lat="47.16819" lon="-1.62609">
        <ele>68</ele>
        <time>2021-04-15T12:41:02.000Z</time>
      </trkpt>
      <trkpt lat="47.16811" lon="-1.62622">
        <ele>69</ele>
        <time>2021-04-15T12:41:04.000Z</time>
      </trkpt>
      <trkpt lat="47.16803" lon="-1.62635">
        <ele>70</ele>
        <time>2021-04-15T12:41:06.000Z</time>
      </trkpt>
      <trkpt lat="47.16797" lon="-1.62646">
        <ele>70</ele>
        <time>2021-04-15T12:41:08.000Z</time>
      </trkpt>
      <trkpt lat="47.1679" lon="-1.62657">
        <ele>70</ele>
        <time>2021-04-15T12:41:10.000Z</time>
      </trkpt>
      <trkpt lat="47.16781" lon="-1.6266">
        <ele>71</ele>
        <time>2021-04-15T12:41:13.000Z</time>
      </trkpt>
      <trkpt lat="47.16777" lon="-1.62647">
        <ele>73</ele>
        <time>2021-04-15T12:42:43.000Z</time>
      </trkpt>
    </trkseg>
  </trk>
</gpx>